<?xml version="1.0" encoding="UTF-8" standalone="no" ?>
<gpx xmlns="http://www.topografix.com/GPX/1/1" xmlns:xsi="http://www.w3.org/2001/XMLSchema-instance" xsi:schemaLocation="http://www.topografix.com/GPX/1/1 http://www.topografix.com/GPX/1/1/gpx.xsd" version="1.1" creator="VisuGPX - https://www.visugpx.com">
  <metadata>
    <name>Trou de la Mouche</name>
    <desc><![CDATA[AlpineQuest Track 12/11/24 11:32:42]]></desc>
  </metadata>
  <trk>
    <name><![CDATA[Trou de la Mouche]]></name>
    <extensions>
      <line xmlns="http://www.topografix.com/GPX/gpx_style/0/2">
        <color>0000FF</color>
        <width>4</width>
      </line>
    </extensions>
    <trkseg>
      <trkpt lat="45.92267" lon="6.48404">
        <ele>1446.52</ele>
        <time>2024-12-11T10:32:41Z</time>
      </trkpt>
      <trkpt lat="45.92268" lon="6.48404">
        <ele>1448.677</ele>
        <time>2024-12-11T10:32:47Z</time>
      </trkpt>
      <trkpt lat="45.92268" lon="6.48404">
        <ele>1448.033</ele>
        <time>2024-12-11T10:32:52Z</time>
      </trkpt>
      <trkpt lat="45.92268" lon="6.48404">
        <ele>1447.876</ele>
        <time>2024-12-11T10:32:57Z</time>
      </trkpt>
      <trkpt lat="45.92268" lon="6.48404">
        <ele>1447.968</ele>
        <time>2024-12-11T10:33:02Z</time>
      </trkpt>
      <trkpt lat="45.92268" lon="6.48404">
        <ele>1447.94</ele>
        <time>2024-12-11T10:33:07Z</time>
      </trkpt>
      <trkpt lat="45.92268" lon="6.48404">
        <ele>1446.909</ele>
        <time>2024-12-11T10:33:12Z</time>
      </trkpt>
      <trkpt lat="45.92268" lon="6.48404">
        <ele>1445.75</ele>
        <time>2024-12-11T10:33:17Z</time>
      </trkpt>
      <trkpt lat="45.92268" lon="6.48404">
        <ele>1444.83</ele>
        <time>2024-12-11T10:33:22Z</time>
      </trkpt>
      <trkpt lat="45.92268" lon="6.48404">
        <ele>1444.714</ele>
        <time>2024-12-11T10:33:27Z</time>
      </trkpt>
      <trkpt lat="45.92268" lon="6.48404">
        <ele>1444.704</ele>
        <time>2024-12-11T10:33:32Z</time>
      </trkpt>
      <trkpt lat="45.92268" lon="6.48404">
        <ele>1444.691</ele>
        <time>2024-12-11T10:33:37Z</time>
      </trkpt>
      <trkpt lat="45.92268" lon="6.48404">
        <ele>1444.679</ele>
        <time>2024-12-11T10:33:42Z</time>
      </trkpt>
      <trkpt lat="45.92268" lon="6.48404">
        <ele>1444.667</ele>
        <time>2024-12-11T10:33:47Z</time>
      </trkpt>
      <trkpt lat="45.92268" lon="6.48404">
        <ele>1444.651</ele>
        <time>2024-12-11T10:33:52Z</time>
      </trkpt>
      <trkpt lat="45.92268" lon="6.48404">
        <ele>1444.627</ele>
        <time>2024-12-11T10:33:57Z</time>
      </trkpt>
      <trkpt lat="45.92268" lon="6.48404">
        <ele>1444.627</ele>
        <time>2024-12-11T10:34:02Z</time>
      </trkpt>
      <trkpt lat="45.92268" lon="6.48404">
        <ele>1444.625</ele>
        <time>2024-12-11T10:34:07Z</time>
      </trkpt>
      <trkpt lat="45.92268" lon="6.48404">
        <ele>1444.62</ele>
        <time>2024-12-11T10:34:12Z</time>
      </trkpt>
      <trkpt lat="45.92268" lon="6.48404">
        <ele>1444.605</ele>
        <time>2024-12-11T10:34:17Z</time>
      </trkpt>
      <trkpt lat="45.92268" lon="6.48404">
        <ele>1443.431</ele>
        <time>2024-12-11T10:34:22Z</time>
      </trkpt>
      <trkpt lat="45.92268" lon="6.48404">
        <ele>1442.217</ele>
        <time>2024-12-11T10:34:27Z</time>
      </trkpt>
      <trkpt lat="45.92265" lon="6.48403">
        <ele>1442.109</ele>
        <time>2024-12-11T10:34:32Z</time>
      </trkpt>
      <trkpt lat="45.92265" lon="6.48403">
        <ele>1441.577</ele>
        <time>2024-12-11T10:34:37Z</time>
      </trkpt>
      <trkpt lat="45.92264" lon="6.48403">
        <ele>1441.233</ele>
        <time>2024-12-11T10:34:42Z</time>
      </trkpt>
      <trkpt lat="45.92264" lon="6.48403">
        <ele>1441.011</ele>
        <time>2024-12-11T10:34:47Z</time>
      </trkpt>
      <trkpt lat="45.92261" lon="6.48401">
        <ele>1439.801</ele>
        <time>2024-12-11T10:34:52Z</time>
      </trkpt>
      <trkpt lat="45.92255" lon="6.48403">
        <ele>1438.267</ele>
        <time>2024-12-11T10:34:57Z</time>
      </trkpt>
      <trkpt lat="45.92251" lon="6.48407">
        <ele>1435.127</ele>
        <time>2024-12-11T10:35:02Z</time>
      </trkpt>
      <trkpt lat="45.92245" lon="6.48408">
        <ele>1435.129</ele>
        <time>2024-12-11T10:35:07Z</time>
      </trkpt>
      <trkpt lat="45.92242" lon="6.48408">
        <ele>1434.678</ele>
        <time>2024-12-11T10:35:12Z</time>
      </trkpt>
      <trkpt lat="45.92239" lon="6.48409">
        <ele>1436.691</ele>
        <time>2024-12-11T10:35:17Z</time>
      </trkpt>
      <trkpt lat="45.92235" lon="6.4841">
        <ele>1438.703</ele>
        <time>2024-12-11T10:35:22Z</time>
      </trkpt>
      <trkpt lat="45.92231" lon="6.48411">
        <ele>1441.414</ele>
        <time>2024-12-11T10:35:27Z</time>
      </trkpt>
      <trkpt lat="45.92228" lon="6.48414">
        <ele>1441.01</ele>
        <time>2024-12-11T10:35:32Z</time>
      </trkpt>
      <trkpt lat="45.92226" lon="6.48418">
        <ele>1440.863</ele>
        <time>2024-12-11T10:35:37Z</time>
      </trkpt>
      <trkpt lat="45.92223" lon="6.48422">
        <ele>1440.42</ele>
        <time>2024-12-11T10:35:42Z</time>
      </trkpt>
      <trkpt lat="45.92222" lon="6.48425">
        <ele>1440.53</ele>
        <time>2024-12-11T10:35:47Z</time>
      </trkpt>
      <trkpt lat="45.92219" lon="6.48428">
        <ele>1440.327</ele>
        <time>2024-12-11T10:35:52Z</time>
      </trkpt>
      <trkpt lat="45.92216" lon="6.4843">
        <ele>1441.301</ele>
        <time>2024-12-11T10:35:57Z</time>
      </trkpt>
      <trkpt lat="45.92213" lon="6.48434">
        <ele>1441.193</ele>
        <time>2024-12-11T10:36:02Z</time>
      </trkpt>
      <trkpt lat="45.92211" lon="6.48439">
        <ele>1441.507</ele>
        <time>2024-12-11T10:36:07Z</time>
      </trkpt>
      <trkpt lat="45.92207" lon="6.48441">
        <ele>1443.516</ele>
        <time>2024-12-11T10:36:12Z</time>
      </trkpt>
      <trkpt lat="45.92206" lon="6.48442">
        <ele>1440.691</ele>
        <time>2024-12-11T10:36:17Z</time>
      </trkpt>
      <trkpt lat="45.92203" lon="6.48442">
        <ele>1441.373</ele>
        <time>2024-12-11T10:36:22Z</time>
      </trkpt>
      <trkpt lat="45.922" lon="6.48446">
        <ele>1439.777</ele>
        <time>2024-12-11T10:36:27Z</time>
      </trkpt>
      <trkpt lat="45.92198" lon="6.48446">
        <ele>1436.411</ele>
        <time>2024-12-11T10:36:32Z</time>
      </trkpt>
      <trkpt lat="45.92198" lon="6.48446">
        <ele>1435.352</ele>
        <time>2024-12-11T10:36:37Z</time>
      </trkpt>
      <trkpt lat="45.92196" lon="6.48445">
        <ele>1434.039</ele>
        <time>2024-12-11T10:36:42Z</time>
      </trkpt>
      <trkpt lat="45.92196" lon="6.48445">
        <ele>1433.19</ele>
        <time>2024-12-11T10:36:47Z</time>
      </trkpt>
      <trkpt lat="45.92195" lon="6.48447">
        <ele>1433.451</ele>
        <time>2024-12-11T10:36:52Z</time>
      </trkpt>
      <trkpt lat="45.92194" lon="6.48449">
        <ele>1433.039</ele>
        <time>2024-12-11T10:36:57Z</time>
      </trkpt>
      <trkpt lat="45.92192" lon="6.48453">
        <ele>1434.23</ele>
        <time>2024-12-11T10:37:02Z</time>
      </trkpt>
      <trkpt lat="45.9219" lon="6.48455">
        <ele>1435.534</ele>
        <time>2024-12-11T10:37:07Z</time>
      </trkpt>
      <trkpt lat="45.92187" lon="6.48458">
        <ele>1435.213</ele>
        <time>2024-12-11T10:37:12Z</time>
      </trkpt>
      <trkpt lat="45.92185" lon="6.4846">
        <ele>1436.085</ele>
        <time>2024-12-11T10:37:17Z</time>
      </trkpt>
      <trkpt lat="45.92183" lon="6.48464">
        <ele>1436.233</ele>
        <time>2024-12-11T10:37:22Z</time>
      </trkpt>
      <trkpt lat="45.92182" lon="6.48466">
        <ele>1436.938</ele>
        <time>2024-12-11T10:37:27Z</time>
      </trkpt>
      <trkpt lat="45.92179" lon="6.48471">
        <ele>1437.343</ele>
        <time>2024-12-11T10:37:32Z</time>
      </trkpt>
      <trkpt lat="45.92177" lon="6.48475">
        <ele>1437.585</ele>
        <time>2024-12-11T10:37:37Z</time>
      </trkpt>
      <trkpt lat="45.92177" lon="6.48475">
        <ele>1437.365</ele>
        <time>2024-12-11T10:37:42Z</time>
      </trkpt>
      <trkpt lat="45.92177" lon="6.48475">
        <ele>1437.347</ele>
        <time>2024-12-11T10:37:47Z</time>
      </trkpt>
      <trkpt lat="45.92177" lon="6.48475">
        <ele>1437.349</ele>
        <time>2024-12-11T10:37:52Z</time>
      </trkpt>
      <trkpt lat="45.92177" lon="6.48475">
        <ele>1437.348</ele>
        <time>2024-12-11T10:37:57Z</time>
      </trkpt>
      <trkpt lat="45.92176" lon="6.48476">
        <ele>1438.049</ele>
        <time>2024-12-11T10:38:02Z</time>
      </trkpt>
      <trkpt lat="45.92176" lon="6.48477">
        <ele>1438.089</ele>
        <time>2024-12-11T10:38:07Z</time>
      </trkpt>
      <trkpt lat="45.92176" lon="6.48477">
        <ele>1438.077</ele>
        <time>2024-12-11T10:38:12Z</time>
      </trkpt>
      <trkpt lat="45.92176" lon="6.48477">
        <ele>1438.073</ele>
        <time>2024-12-11T10:38:17Z</time>
      </trkpt>
      <trkpt lat="45.92175" lon="6.48478">
        <ele>1437.904</ele>
        <time>2024-12-11T10:38:22Z</time>
      </trkpt>
      <trkpt lat="45.92172" lon="6.48483">
        <ele>1437.038</ele>
        <time>2024-12-11T10:38:27Z</time>
      </trkpt>
      <trkpt lat="45.92169" lon="6.48486">
        <ele>1438.347</ele>
        <time>2024-12-11T10:38:32Z</time>
      </trkpt>
      <trkpt lat="45.92166" lon="6.4849">
        <ele>1438.943</ele>
        <time>2024-12-11T10:38:37Z</time>
      </trkpt>
      <trkpt lat="45.92164" lon="6.48494">
        <ele>1438.641</ele>
        <time>2024-12-11T10:38:42Z</time>
      </trkpt>
      <trkpt lat="45.9216" lon="6.48498">
        <ele>1439.617</ele>
        <time>2024-12-11T10:38:47Z</time>
      </trkpt>
      <trkpt lat="45.92158" lon="6.48504">
        <ele>1440.259</ele>
        <time>2024-12-11T10:38:52Z</time>
      </trkpt>
      <trkpt lat="45.92157" lon="6.4851">
        <ele>1443.747</ele>
        <time>2024-12-11T10:38:57Z</time>
      </trkpt>
      <trkpt lat="45.92155" lon="6.48515">
        <ele>1446.242</ele>
        <time>2024-12-11T10:39:02Z</time>
      </trkpt>
      <trkpt lat="45.92153" lon="6.48522">
        <ele>1447.515</ele>
        <time>2024-12-11T10:39:07Z</time>
      </trkpt>
      <trkpt lat="45.92152" lon="6.48528">
        <ele>1449.544</ele>
        <time>2024-12-11T10:39:12Z</time>
      </trkpt>
      <trkpt lat="45.92151" lon="6.48533">
        <ele>1451.165</ele>
        <time>2024-12-11T10:39:17Z</time>
      </trkpt>
      <trkpt lat="45.92151" lon="6.48539">
        <ele>1451.589</ele>
        <time>2024-12-11T10:39:22Z</time>
      </trkpt>
      <trkpt lat="45.92151" lon="6.48544">
        <ele>1451.569</ele>
        <time>2024-12-11T10:39:27Z</time>
      </trkpt>
      <trkpt lat="45.92151" lon="6.4855">
        <ele>1452.256</ele>
        <time>2024-12-11T10:39:32Z</time>
      </trkpt>
      <trkpt lat="45.92151" lon="6.48555">
        <ele>1451.95</ele>
        <time>2024-12-11T10:39:37Z</time>
      </trkpt>
      <trkpt lat="45.9215" lon="6.48559">
        <ele>1451.707</ele>
        <time>2024-12-11T10:39:42Z</time>
      </trkpt>
      <trkpt lat="45.92149" lon="6.48564">
        <ele>1451.321</ele>
        <time>2024-12-11T10:39:47Z</time>
      </trkpt>
      <trkpt lat="45.92148" lon="6.4857">
        <ele>1450.824</ele>
        <time>2024-12-11T10:39:52Z</time>
      </trkpt>
      <trkpt lat="45.92146" lon="6.48577">
        <ele>1450.876</ele>
        <time>2024-12-11T10:39:57Z</time>
      </trkpt>
      <trkpt lat="45.92144" lon="6.48583">
        <ele>1450.131</ele>
        <time>2024-12-11T10:40:02Z</time>
      </trkpt>
      <trkpt lat="45.92142" lon="6.48589">
        <ele>1449.823</ele>
        <time>2024-12-11T10:40:07Z</time>
      </trkpt>
      <trkpt lat="45.9214" lon="6.48595">
        <ele>1449.892</ele>
        <time>2024-12-11T10:40:12Z</time>
      </trkpt>
      <trkpt lat="45.92137" lon="6.48602">
        <ele>1451.27</ele>
        <time>2024-12-11T10:40:17Z</time>
      </trkpt>
      <trkpt lat="45.92134" lon="6.4861">
        <ele>1449.463</ele>
        <time>2024-12-11T10:40:22Z</time>
      </trkpt>
      <trkpt lat="45.9213" lon="6.48616">
        <ele>1448.968</ele>
        <time>2024-12-11T10:40:27Z</time>
      </trkpt>
      <trkpt lat="45.92126" lon="6.48622">
        <ele>1447.144</ele>
        <time>2024-12-11T10:40:32Z</time>
      </trkpt>
      <trkpt lat="45.92123" lon="6.4863">
        <ele>1445.245</ele>
        <time>2024-12-11T10:40:37Z</time>
      </trkpt>
      <trkpt lat="45.92122" lon="6.48639">
        <ele>1444.818</ele>
        <time>2024-12-11T10:40:42Z</time>
      </trkpt>
      <trkpt lat="45.92125" lon="6.4865">
        <ele>1446.912</ele>
        <time>2024-12-11T10:40:47Z</time>
      </trkpt>
      <trkpt lat="45.92129" lon="6.4866">
        <ele>1448.864</ele>
        <time>2024-12-11T10:40:52Z</time>
      </trkpt>
      <trkpt lat="45.92133" lon="6.4867">
        <ele>1450.466</ele>
        <time>2024-12-11T10:40:57Z</time>
      </trkpt>
      <trkpt lat="45.92137" lon="6.48677">
        <ele>1451.751</ele>
        <time>2024-12-11T10:41:02Z</time>
      </trkpt>
      <trkpt lat="45.92142" lon="6.48684">
        <ele>1454.661</ele>
        <time>2024-12-11T10:41:07Z</time>
      </trkpt>
      <trkpt lat="45.92146" lon="6.4869">
        <ele>1456.041</ele>
        <time>2024-12-11T10:41:12Z</time>
      </trkpt>
      <trkpt lat="45.92149" lon="6.48696">
        <ele>1456.92</ele>
        <time>2024-12-11T10:41:17Z</time>
      </trkpt>
      <trkpt lat="45.92154" lon="6.48705">
        <ele>1456.148</ele>
        <time>2024-12-11T10:41:22Z</time>
      </trkpt>
      <trkpt lat="45.92157" lon="6.48715">
        <ele>1454.87</ele>
        <time>2024-12-11T10:41:27Z</time>
      </trkpt>
      <trkpt lat="45.92159" lon="6.48726">
        <ele>1453.524</ele>
        <time>2024-12-11T10:41:32Z</time>
      </trkpt>
      <trkpt lat="45.9216" lon="6.48737">
        <ele>1453.053</ele>
        <time>2024-12-11T10:41:37Z</time>
      </trkpt>
      <trkpt lat="45.92163" lon="6.48747">
        <ele>1452.492</ele>
        <time>2024-12-11T10:41:42Z</time>
      </trkpt>
      <trkpt lat="45.92166" lon="6.48759">
        <ele>1451.41</ele>
        <time>2024-12-11T10:41:47Z</time>
      </trkpt>
      <trkpt lat="45.92169" lon="6.48771">
        <ele>1450.644</ele>
        <time>2024-12-11T10:41:52Z</time>
      </trkpt>
      <trkpt lat="45.92172" lon="6.48782">
        <ele>1449.824</ele>
        <time>2024-12-11T10:41:57Z</time>
      </trkpt>
      <trkpt lat="45.92175" lon="6.48792">
        <ele>1449.582</ele>
        <time>2024-12-11T10:42:02Z</time>
      </trkpt>
      <trkpt lat="45.92177" lon="6.48803">
        <ele>1450.033</ele>
        <time>2024-12-11T10:42:07Z</time>
      </trkpt>
      <trkpt lat="45.92177" lon="6.48813">
        <ele>1449.88</ele>
        <time>2024-12-11T10:42:12Z</time>
      </trkpt>
      <trkpt lat="45.92175" lon="6.48826">
        <ele>1450.044</ele>
        <time>2024-12-11T10:42:17Z</time>
      </trkpt>
      <trkpt lat="45.92169" lon="6.4884">
        <ele>1445.879</ele>
        <time>2024-12-11T10:42:22Z</time>
      </trkpt>
      <trkpt lat="45.92164" lon="6.48851">
        <ele>1444.888</ele>
        <time>2024-12-11T10:42:27Z</time>
      </trkpt>
      <trkpt lat="45.92162" lon="6.48861">
        <ele>1440.947</ele>
        <time>2024-12-11T10:42:32Z</time>
      </trkpt>
      <trkpt lat="45.92161" lon="6.48869">
        <ele>1439.576</ele>
        <time>2024-12-11T10:42:37Z</time>
      </trkpt>
      <trkpt lat="45.92162" lon="6.48875">
        <ele>1434.713</ele>
        <time>2024-12-11T10:42:42Z</time>
      </trkpt>
      <trkpt lat="45.92163" lon="6.4888">
        <ele>1433.624</ele>
        <time>2024-12-11T10:42:47Z</time>
      </trkpt>
      <trkpt lat="45.92162" lon="6.48885">
        <ele>1433.512</ele>
        <time>2024-12-11T10:42:52Z</time>
      </trkpt>
      <trkpt lat="45.92162" lon="6.48892">
        <ele>1435.136</ele>
        <time>2024-12-11T10:42:57Z</time>
      </trkpt>
      <trkpt lat="45.92162" lon="6.48898">
        <ele>1432.848</ele>
        <time>2024-12-11T10:43:02Z</time>
      </trkpt>
      <trkpt lat="45.92162" lon="6.48903">
        <ele>1431.003</ele>
        <time>2024-12-11T10:43:07Z</time>
      </trkpt>
      <trkpt lat="45.92162" lon="6.48908">
        <ele>1430.455</ele>
        <time>2024-12-11T10:43:12Z</time>
      </trkpt>
      <trkpt lat="45.92162" lon="6.4891">
        <ele>1432.574</ele>
        <time>2024-12-11T10:43:17Z</time>
      </trkpt>
      <trkpt lat="45.92162" lon="6.48914">
        <ele>1431.923</ele>
        <time>2024-12-11T10:43:22Z</time>
      </trkpt>
      <trkpt lat="45.92161" lon="6.48918">
        <ele>1433.018</ele>
        <time>2024-12-11T10:43:27Z</time>
      </trkpt>
      <trkpt lat="45.92161" lon="6.48923">
        <ele>1433.23</ele>
        <time>2024-12-11T10:43:32Z</time>
      </trkpt>
      <trkpt lat="45.92161" lon="6.48928">
        <ele>1434.243</ele>
        <time>2024-12-11T10:43:37Z</time>
      </trkpt>
      <trkpt lat="45.92161" lon="6.48934">
        <ele>1435.664</ele>
        <time>2024-12-11T10:43:42Z</time>
      </trkpt>
      <trkpt lat="45.92161" lon="6.48938">
        <ele>1435.596</ele>
        <time>2024-12-11T10:43:47Z</time>
      </trkpt>
      <trkpt lat="45.92162" lon="6.48942">
        <ele>1436.825</ele>
        <time>2024-12-11T10:43:52Z</time>
      </trkpt>
      <trkpt lat="45.92161" lon="6.48947">
        <ele>1438.913</ele>
        <time>2024-12-11T10:43:57Z</time>
      </trkpt>
      <trkpt lat="45.92161" lon="6.48952">
        <ele>1439.332</ele>
        <time>2024-12-11T10:44:02Z</time>
      </trkpt>
      <trkpt lat="45.9216" lon="6.48958">
        <ele>1440.884</ele>
        <time>2024-12-11T10:44:07Z</time>
      </trkpt>
      <trkpt lat="45.92159" lon="6.48964">
        <ele>1440.455</ele>
        <time>2024-12-11T10:44:12Z</time>
      </trkpt>
      <trkpt lat="45.92159" lon="6.48969">
        <ele>1442.064</ele>
        <time>2024-12-11T10:44:17Z</time>
      </trkpt>
      <trkpt lat="45.92159" lon="6.48973">
        <ele>1443.996</ele>
        <time>2024-12-11T10:44:22Z</time>
      </trkpt>
      <trkpt lat="45.92159" lon="6.4898">
        <ele>1446.102</ele>
        <time>2024-12-11T10:44:27Z</time>
      </trkpt>
      <trkpt lat="45.92159" lon="6.48985">
        <ele>1443.511</ele>
        <time>2024-12-11T10:44:32Z</time>
      </trkpt>
      <trkpt lat="45.92159" lon="6.4899">
        <ele>1443.839</ele>
        <time>2024-12-11T10:44:37Z</time>
      </trkpt>
      <trkpt lat="45.92159" lon="6.48995">
        <ele>1443.745</ele>
        <time>2024-12-11T10:44:42Z</time>
      </trkpt>
      <trkpt lat="45.92158" lon="6.48999">
        <ele>1442.942</ele>
        <time>2024-12-11T10:44:47Z</time>
      </trkpt>
      <trkpt lat="45.92158" lon="6.49003">
        <ele>1443.514</ele>
        <time>2024-12-11T10:44:52Z</time>
      </trkpt>
      <trkpt lat="45.92158" lon="6.49008">
        <ele>1443.858</ele>
        <time>2024-12-11T10:44:57Z</time>
      </trkpt>
      <trkpt lat="45.92158" lon="6.49013">
        <ele>1444.498</ele>
        <time>2024-12-11T10:45:02Z</time>
      </trkpt>
      <trkpt lat="45.92157" lon="6.49018">
        <ele>1446.625</ele>
        <time>2024-12-11T10:45:07Z</time>
      </trkpt>
      <trkpt lat="45.92158" lon="6.49021">
        <ele>1446.206</ele>
        <time>2024-12-11T10:45:12Z</time>
      </trkpt>
      <trkpt lat="45.92159" lon="6.49025">
        <ele>1450.721</ele>
        <time>2024-12-11T10:45:17Z</time>
      </trkpt>
      <trkpt lat="45.9216" lon="6.49029">
        <ele>1453.538</ele>
        <time>2024-12-11T10:45:22Z</time>
      </trkpt>
      <trkpt lat="45.92162" lon="6.49033">
        <ele>1454.742</ele>
        <time>2024-12-11T10:45:27Z</time>
      </trkpt>
      <trkpt lat="45.92163" lon="6.49037">
        <ele>1456.617</ele>
        <time>2024-12-11T10:45:32Z</time>
      </trkpt>
      <trkpt lat="45.92165" lon="6.4904">
        <ele>1458.976</ele>
        <time>2024-12-11T10:45:37Z</time>
      </trkpt>
      <trkpt lat="45.92166" lon="6.49042">
        <ele>1460.251</ele>
        <time>2024-12-11T10:45:42Z</time>
      </trkpt>
      <trkpt lat="45.92167" lon="6.49046">
        <ele>1461.479</ele>
        <time>2024-12-11T10:45:47Z</time>
      </trkpt>
      <trkpt lat="45.92168" lon="6.4905">
        <ele>1462.296</ele>
        <time>2024-12-11T10:45:52Z</time>
      </trkpt>
      <trkpt lat="45.92169" lon="6.49054">
        <ele>1461.812</ele>
        <time>2024-12-11T10:45:57Z</time>
      </trkpt>
      <trkpt lat="45.9217" lon="6.49059">
        <ele>1463.196</ele>
        <time>2024-12-11T10:46:02Z</time>
      </trkpt>
      <trkpt lat="45.92171" lon="6.49063">
        <ele>1463.138</ele>
        <time>2024-12-11T10:46:07Z</time>
      </trkpt>
      <trkpt lat="45.92173" lon="6.49067">
        <ele>1465.447</ele>
        <time>2024-12-11T10:46:12Z</time>
      </trkpt>
      <trkpt lat="45.92175" lon="6.4907">
        <ele>1467.681</ele>
        <time>2024-12-11T10:46:17Z</time>
      </trkpt>
      <trkpt lat="45.92176" lon="6.49073">
        <ele>1468.257</ele>
        <time>2024-12-11T10:46:22Z</time>
      </trkpt>
      <trkpt lat="45.92179" lon="6.49076">
        <ele>1468.528</ele>
        <time>2024-12-11T10:46:27Z</time>
      </trkpt>
      <trkpt lat="45.92181" lon="6.4908">
        <ele>1469.513</ele>
        <time>2024-12-11T10:46:32Z</time>
      </trkpt>
      <trkpt lat="45.92182" lon="6.49083">
        <ele>1470.521</ele>
        <time>2024-12-11T10:46:37Z</time>
      </trkpt>
      <trkpt lat="45.92182" lon="6.49087">
        <ele>1471.421</ele>
        <time>2024-12-11T10:46:42Z</time>
      </trkpt>
      <trkpt lat="45.92183" lon="6.4909">
        <ele>1469.635</ele>
        <time>2024-12-11T10:46:47Z</time>
      </trkpt>
      <trkpt lat="45.92184" lon="6.49094">
        <ele>1467.924</ele>
        <time>2024-12-11T10:46:52Z</time>
      </trkpt>
      <trkpt lat="45.92184" lon="6.49098">
        <ele>1466.814</ele>
        <time>2024-12-11T10:46:57Z</time>
      </trkpt>
      <trkpt lat="45.92185" lon="6.49101">
        <ele>1465.943</ele>
        <time>2024-12-11T10:47:02Z</time>
      </trkpt>
      <trkpt lat="45.92185" lon="6.49104">
        <ele>1464.202</ele>
        <time>2024-12-11T10:47:07Z</time>
      </trkpt>
      <trkpt lat="45.92186" lon="6.49108">
        <ele>1465.476</ele>
        <time>2024-12-11T10:47:12Z</time>
      </trkpt>
      <trkpt lat="45.92186" lon="6.49112">
        <ele>1466.055</ele>
        <time>2024-12-11T10:47:17Z</time>
      </trkpt>
      <trkpt lat="45.92187" lon="6.49116">
        <ele>1466.947</ele>
        <time>2024-12-11T10:47:22Z</time>
      </trkpt>
      <trkpt lat="45.92188" lon="6.4912">
        <ele>1470.107</ele>
        <time>2024-12-11T10:47:27Z</time>
      </trkpt>
      <trkpt lat="45.92188" lon="6.49123">
        <ele>1471.161</ele>
        <time>2024-12-11T10:47:32Z</time>
      </trkpt>
      <trkpt lat="45.92189" lon="6.49126">
        <ele>1472.987</ele>
        <time>2024-12-11T10:47:37Z</time>
      </trkpt>
      <trkpt lat="45.92191" lon="6.49131">
        <ele>1473.469</ele>
        <time>2024-12-11T10:47:42Z</time>
      </trkpt>
      <trkpt lat="45.92191" lon="6.49134">
        <ele>1476.309</ele>
        <time>2024-12-11T10:47:47Z</time>
      </trkpt>
      <trkpt lat="45.92191" lon="6.49136">
        <ele>1475.841</ele>
        <time>2024-12-11T10:47:52Z</time>
      </trkpt>
      <trkpt lat="45.92191" lon="6.49136">
        <ele>1475.759</ele>
        <time>2024-12-11T10:47:57Z</time>
      </trkpt>
      <trkpt lat="45.92191" lon="6.49137">
        <ele>1476.563</ele>
        <time>2024-12-11T10:48:02Z</time>
      </trkpt>
      <trkpt lat="45.92192" lon="6.49141">
        <ele>1477.931</ele>
        <time>2024-12-11T10:48:07Z</time>
      </trkpt>
      <trkpt lat="45.92193" lon="6.49143">
        <ele>1478.843</ele>
        <time>2024-12-11T10:48:12Z</time>
      </trkpt>
      <trkpt lat="45.92194" lon="6.49146">
        <ele>1480.29</ele>
        <time>2024-12-11T10:48:17Z</time>
      </trkpt>
      <trkpt lat="45.92195" lon="6.49149">
        <ele>1477.694</ele>
        <time>2024-12-11T10:48:22Z</time>
      </trkpt>
      <trkpt lat="45.92196" lon="6.49152">
        <ele>1478.075</ele>
        <time>2024-12-11T10:48:27Z</time>
      </trkpt>
      <trkpt lat="45.92196" lon="6.49156">
        <ele>1476.957</ele>
        <time>2024-12-11T10:48:32Z</time>
      </trkpt>
      <trkpt lat="45.92197" lon="6.49159">
        <ele>1478.66</ele>
        <time>2024-12-11T10:48:37Z</time>
      </trkpt>
      <trkpt lat="45.92198" lon="6.49162">
        <ele>1480.054</ele>
        <time>2024-12-11T10:48:42Z</time>
      </trkpt>
      <trkpt lat="45.92198" lon="6.49165">
        <ele>1480.846</ele>
        <time>2024-12-11T10:48:47Z</time>
      </trkpt>
      <trkpt lat="45.92198" lon="6.49169">
        <ele>1481.135</ele>
        <time>2024-12-11T10:48:52Z</time>
      </trkpt>
      <trkpt lat="45.92199" lon="6.49172">
        <ele>1484.032</ele>
        <time>2024-12-11T10:48:57Z</time>
      </trkpt>
      <trkpt lat="45.922" lon="6.49174">
        <ele>1480.066</ele>
        <time>2024-12-11T10:49:02Z</time>
      </trkpt>
      <trkpt lat="45.922" lon="6.49176">
        <ele>1477.412</ele>
        <time>2024-12-11T10:49:07Z</time>
      </trkpt>
      <trkpt lat="45.92201" lon="6.49179">
        <ele>1476.569</ele>
        <time>2024-12-11T10:49:12Z</time>
      </trkpt>
      <trkpt lat="45.92202" lon="6.49181">
        <ele>1475.037</ele>
        <time>2024-12-11T10:49:17Z</time>
      </trkpt>
      <trkpt lat="45.92203" lon="6.49183">
        <ele>1475.381</ele>
        <time>2024-12-11T10:49:22Z</time>
      </trkpt>
      <trkpt lat="45.92203" lon="6.49187">
        <ele>1475.989</ele>
        <time>2024-12-11T10:49:27Z</time>
      </trkpt>
      <trkpt lat="45.92204" lon="6.49192">
        <ele>1479.037</ele>
        <time>2024-12-11T10:49:33Z</time>
      </trkpt>
      <trkpt lat="45.92205" lon="6.49196">
        <ele>1482.339</ele>
        <time>2024-12-11T10:49:38Z</time>
      </trkpt>
      <trkpt lat="45.92206" lon="6.49199">
        <ele>1484.068</ele>
        <time>2024-12-11T10:49:43Z</time>
      </trkpt>
      <trkpt lat="45.92208" lon="6.49203">
        <ele>1486.216</ele>
        <time>2024-12-11T10:49:48Z</time>
      </trkpt>
      <trkpt lat="45.9221" lon="6.49205">
        <ele>1488.809</ele>
        <time>2024-12-11T10:49:53Z</time>
      </trkpt>
      <trkpt lat="45.92212" lon="6.49209">
        <ele>1491.044</ele>
        <time>2024-12-11T10:49:58Z</time>
      </trkpt>
      <trkpt lat="45.92214" lon="6.49213">
        <ele>1492.393</ele>
        <time>2024-12-11T10:50:03Z</time>
      </trkpt>
      <trkpt lat="45.92215" lon="6.49216">
        <ele>1493.436</ele>
        <time>2024-12-11T10:50:08Z</time>
      </trkpt>
      <trkpt lat="45.92216" lon="6.4922">
        <ele>1493.5</ele>
        <time>2024-12-11T10:50:13Z</time>
      </trkpt>
      <trkpt lat="45.92218" lon="6.49223">
        <ele>1494.154</ele>
        <time>2024-12-11T10:50:18Z</time>
      </trkpt>
      <trkpt lat="45.92218" lon="6.49226">
        <ele>1496.195</ele>
        <time>2024-12-11T10:50:23Z</time>
      </trkpt>
      <trkpt lat="45.92219" lon="6.49229">
        <ele>1496.979</ele>
        <time>2024-12-11T10:50:28Z</time>
      </trkpt>
      <trkpt lat="45.92221" lon="6.49232">
        <ele>1498.273</ele>
        <time>2024-12-11T10:50:33Z</time>
      </trkpt>
      <trkpt lat="45.92222" lon="6.49234">
        <ele>1499.352</ele>
        <time>2024-12-11T10:50:38Z</time>
      </trkpt>
      <trkpt lat="45.92224" lon="6.49237">
        <ele>1499.349</ele>
        <time>2024-12-11T10:50:43Z</time>
      </trkpt>
      <trkpt lat="45.92224" lon="6.4924">
        <ele>1498.187</ele>
        <time>2024-12-11T10:50:48Z</time>
      </trkpt>
      <trkpt lat="45.92226" lon="6.49243">
        <ele>1496.777</ele>
        <time>2024-12-11T10:50:53Z</time>
      </trkpt>
      <trkpt lat="45.92226" lon="6.49245">
        <ele>1491.196</ele>
        <time>2024-12-11T10:50:58Z</time>
      </trkpt>
      <trkpt lat="45.92224" lon="6.49247">
        <ele>1488.513</ele>
        <time>2024-12-11T10:51:03Z</time>
      </trkpt>
      <trkpt lat="45.92224" lon="6.4925">
        <ele>1485.722</ele>
        <time>2024-12-11T10:51:08Z</time>
      </trkpt>
      <trkpt lat="45.92223" lon="6.49252">
        <ele>1485.24</ele>
        <time>2024-12-11T10:51:13Z</time>
      </trkpt>
      <trkpt lat="45.92223" lon="6.49254">
        <ele>1486.98</ele>
        <time>2024-12-11T10:51:18Z</time>
      </trkpt>
      <trkpt lat="45.92222" lon="6.49259">
        <ele>1489.923</ele>
        <time>2024-12-11T10:51:23Z</time>
      </trkpt>
      <trkpt lat="45.9222" lon="6.49264">
        <ele>1492.427</ele>
        <time>2024-12-11T10:51:28Z</time>
      </trkpt>
      <trkpt lat="45.92218" lon="6.49269">
        <ele>1495.398</ele>
        <time>2024-12-11T10:51:33Z</time>
      </trkpt>
      <trkpt lat="45.92217" lon="6.49275">
        <ele>1497.882</ele>
        <time>2024-12-11T10:51:38Z</time>
      </trkpt>
      <trkpt lat="45.92215" lon="6.49278">
        <ele>1501.064</ele>
        <time>2024-12-11T10:51:43Z</time>
      </trkpt>
      <trkpt lat="45.92215" lon="6.49281">
        <ele>1502.98</ele>
        <time>2024-12-11T10:51:48Z</time>
      </trkpt>
      <trkpt lat="45.92216" lon="6.49283">
        <ele>1505.884</ele>
        <time>2024-12-11T10:51:53Z</time>
      </trkpt>
      <trkpt lat="45.92216" lon="6.49286">
        <ele>1507.002</ele>
        <time>2024-12-11T10:51:58Z</time>
      </trkpt>
      <trkpt lat="45.92216" lon="6.49288">
        <ele>1508.881</ele>
        <time>2024-12-11T10:52:03Z</time>
      </trkpt>
      <trkpt lat="45.92216" lon="6.49291">
        <ele>1509.63</ele>
        <time>2024-12-11T10:52:08Z</time>
      </trkpt>
      <trkpt lat="45.92216" lon="6.49293">
        <ele>1510.405</ele>
        <time>2024-12-11T10:52:13Z</time>
      </trkpt>
      <trkpt lat="45.92217" lon="6.49296">
        <ele>1510.975</ele>
        <time>2024-12-11T10:52:18Z</time>
      </trkpt>
      <trkpt lat="45.92218" lon="6.49298">
        <ele>1513.076</ele>
        <time>2024-12-11T10:52:23Z</time>
      </trkpt>
      <trkpt lat="45.9222" lon="6.49301">
        <ele>1513.402</ele>
        <time>2024-12-11T10:52:28Z</time>
      </trkpt>
      <trkpt lat="45.92222" lon="6.49303">
        <ele>1513.953</ele>
        <time>2024-12-11T10:52:33Z</time>
      </trkpt>
      <trkpt lat="45.92223" lon="6.49305">
        <ele>1514.141</ele>
        <time>2024-12-11T10:52:38Z</time>
      </trkpt>
      <trkpt lat="45.92224" lon="6.49307">
        <ele>1515.091</ele>
        <time>2024-12-11T10:52:43Z</time>
      </trkpt>
      <trkpt lat="45.92227" lon="6.49309">
        <ele>1514.893</ele>
        <time>2024-12-11T10:52:48Z</time>
      </trkpt>
      <trkpt lat="45.92228" lon="6.49311">
        <ele>1515.35</ele>
        <time>2024-12-11T10:52:53Z</time>
      </trkpt>
      <trkpt lat="45.92228" lon="6.49316">
        <ele>1516.387</ele>
        <time>2024-12-11T10:52:58Z</time>
      </trkpt>
      <trkpt lat="45.92227" lon="6.49319">
        <ele>1517.467</ele>
        <time>2024-12-11T10:53:03Z</time>
      </trkpt>
      <trkpt lat="45.92226" lon="6.49324">
        <ele>1518.906</ele>
        <time>2024-12-11T10:53:08Z</time>
      </trkpt>
      <trkpt lat="45.92225" lon="6.49326">
        <ele>1520.735</ele>
        <time>2024-12-11T10:53:13Z</time>
      </trkpt>
      <trkpt lat="45.92223" lon="6.49329">
        <ele>1520.978</ele>
        <time>2024-12-11T10:53:18Z</time>
      </trkpt>
      <trkpt lat="45.92223" lon="6.49334">
        <ele>1520.088</ele>
        <time>2024-12-11T10:53:23Z</time>
      </trkpt>
      <trkpt lat="45.92225" lon="6.49337">
        <ele>1520.735</ele>
        <time>2024-12-11T10:53:28Z</time>
      </trkpt>
      <trkpt lat="45.92227" lon="6.4934">
        <ele>1520.52</ele>
        <time>2024-12-11T10:53:33Z</time>
      </trkpt>
      <trkpt lat="45.92227" lon="6.49342">
        <ele>1522.339</ele>
        <time>2024-12-11T10:53:38Z</time>
      </trkpt>
      <trkpt lat="45.92225" lon="6.49345">
        <ele>1522.975</ele>
        <time>2024-12-11T10:53:43Z</time>
      </trkpt>
      <trkpt lat="45.92224" lon="6.49348">
        <ele>1523.55</ele>
        <time>2024-12-11T10:53:48Z</time>
      </trkpt>
      <trkpt lat="45.92224" lon="6.49352">
        <ele>1523.722</ele>
        <time>2024-12-11T10:53:53Z</time>
      </trkpt>
      <trkpt lat="45.92225" lon="6.49356">
        <ele>1524.69</ele>
        <time>2024-12-11T10:53:58Z</time>
      </trkpt>
      <trkpt lat="45.92227" lon="6.49359">
        <ele>1525.958</ele>
        <time>2024-12-11T10:54:03Z</time>
      </trkpt>
      <trkpt lat="45.92228" lon="6.49361">
        <ele>1526.147</ele>
        <time>2024-12-11T10:54:08Z</time>
      </trkpt>
      <trkpt lat="45.92228" lon="6.49361">
        <ele>1526.152</ele>
        <time>2024-12-11T10:54:13Z</time>
      </trkpt>
      <trkpt lat="45.92229" lon="6.49363">
        <ele>1525.805</ele>
        <time>2024-12-11T10:54:18Z</time>
      </trkpt>
      <trkpt lat="45.9223" lon="6.49366">
        <ele>1525.31</ele>
        <time>2024-12-11T10:54:23Z</time>
      </trkpt>
      <trkpt lat="45.9223" lon="6.4937">
        <ele>1525.995</ele>
        <time>2024-12-11T10:54:28Z</time>
      </trkpt>
      <trkpt lat="45.92231" lon="6.49374">
        <ele>1526.662</ele>
        <time>2024-12-11T10:54:33Z</time>
      </trkpt>
      <trkpt lat="45.92233" lon="6.49377">
        <ele>1526.003</ele>
        <time>2024-12-11T10:54:38Z</time>
      </trkpt>
      <trkpt lat="45.92233" lon="6.4938">
        <ele>1526.555</ele>
        <time>2024-12-11T10:54:43Z</time>
      </trkpt>
      <trkpt lat="45.92231" lon="6.49382">
        <ele>1528.484</ele>
        <time>2024-12-11T10:54:48Z</time>
      </trkpt>
      <trkpt lat="45.9223" lon="6.49385">
        <ele>1529.871</ele>
        <time>2024-12-11T10:54:53Z</time>
      </trkpt>
      <trkpt lat="45.9223" lon="6.49389">
        <ele>1530.328</ele>
        <time>2024-12-11T10:54:58Z</time>
      </trkpt>
      <trkpt lat="45.9223" lon="6.49393">
        <ele>1530.251</ele>
        <time>2024-12-11T10:55:03Z</time>
      </trkpt>
      <trkpt lat="45.9223" lon="6.49395">
        <ele>1531.069</ele>
        <time>2024-12-11T10:55:08Z</time>
      </trkpt>
      <trkpt lat="45.92229" lon="6.49398">
        <ele>1531.767</ele>
        <time>2024-12-11T10:55:13Z</time>
      </trkpt>
      <trkpt lat="45.92229" lon="6.49401">
        <ele>1533.438</ele>
        <time>2024-12-11T10:55:18Z</time>
      </trkpt>
      <trkpt lat="45.92228" lon="6.49404">
        <ele>1534.432</ele>
        <time>2024-12-11T10:55:23Z</time>
      </trkpt>
      <trkpt lat="45.92227" lon="6.49407">
        <ele>1535.318</ele>
        <time>2024-12-11T10:55:28Z</time>
      </trkpt>
      <trkpt lat="45.92228" lon="6.4941">
        <ele>1536.836</ele>
        <time>2024-12-11T10:55:33Z</time>
      </trkpt>
      <trkpt lat="45.9223" lon="6.49412">
        <ele>1537.729</ele>
        <time>2024-12-11T10:55:38Z</time>
      </trkpt>
      <trkpt lat="45.92233" lon="6.49415">
        <ele>1538.794</ele>
        <time>2024-12-11T10:55:43Z</time>
      </trkpt>
      <trkpt lat="45.92236" lon="6.49417">
        <ele>1539.893</ele>
        <time>2024-12-11T10:55:48Z</time>
      </trkpt>
      <trkpt lat="45.92237" lon="6.4942">
        <ele>1539.892</ele>
        <time>2024-12-11T10:55:53Z</time>
      </trkpt>
      <trkpt lat="45.92237" lon="6.49423">
        <ele>1539.727</ele>
        <time>2024-12-11T10:55:58Z</time>
      </trkpt>
      <trkpt lat="45.92237" lon="6.49426">
        <ele>1540.391</ele>
        <time>2024-12-11T10:56:03Z</time>
      </trkpt>
      <trkpt lat="45.92238" lon="6.49429">
        <ele>1541.744</ele>
        <time>2024-12-11T10:56:08Z</time>
      </trkpt>
      <trkpt lat="45.9224" lon="6.49431">
        <ele>1542.986</ele>
        <time>2024-12-11T10:56:13Z</time>
      </trkpt>
      <trkpt lat="45.92242" lon="6.49433">
        <ele>1543.229</ele>
        <time>2024-12-11T10:56:18Z</time>
      </trkpt>
      <trkpt lat="45.92243" lon="6.49436">
        <ele>1543.52</ele>
        <time>2024-12-11T10:56:23Z</time>
      </trkpt>
      <trkpt lat="45.92244" lon="6.49438">
        <ele>1542.461</ele>
        <time>2024-12-11T10:56:28Z</time>
      </trkpt>
      <trkpt lat="45.92244" lon="6.4944">
        <ele>1543.929</ele>
        <time>2024-12-11T10:56:33Z</time>
      </trkpt>
      <trkpt lat="45.92245" lon="6.49442">
        <ele>1545.468</ele>
        <time>2024-12-11T10:56:38Z</time>
      </trkpt>
      <trkpt lat="45.92246" lon="6.49445">
        <ele>1546.84</ele>
        <time>2024-12-11T10:56:43Z</time>
      </trkpt>
      <trkpt lat="45.92247" lon="6.49448">
        <ele>1546.834</ele>
        <time>2024-12-11T10:56:48Z</time>
      </trkpt>
      <trkpt lat="45.92249" lon="6.49451">
        <ele>1546.969</ele>
        <time>2024-12-11T10:56:53Z</time>
      </trkpt>
      <trkpt lat="45.9225" lon="6.49454">
        <ele>1546.801</ele>
        <time>2024-12-11T10:56:58Z</time>
      </trkpt>
      <trkpt lat="45.92251" lon="6.49457">
        <ele>1546.731</ele>
        <time>2024-12-11T10:57:03Z</time>
      </trkpt>
      <trkpt lat="45.92252" lon="6.4946">
        <ele>1547.542</ele>
        <time>2024-12-11T10:57:08Z</time>
      </trkpt>
      <trkpt lat="45.92254" lon="6.49463">
        <ele>1549.697</ele>
        <time>2024-12-11T10:57:13Z</time>
      </trkpt>
      <trkpt lat="45.92255" lon="6.49465">
        <ele>1550.9</ele>
        <time>2024-12-11T10:57:18Z</time>
      </trkpt>
      <trkpt lat="45.92256" lon="6.49468">
        <ele>1551.818</ele>
        <time>2024-12-11T10:57:23Z</time>
      </trkpt>
      <trkpt lat="45.92257" lon="6.49471">
        <ele>1552.547</ele>
        <time>2024-12-11T10:57:28Z</time>
      </trkpt>
      <trkpt lat="45.92258" lon="6.49473">
        <ele>1552.184</ele>
        <time>2024-12-11T10:57:33Z</time>
      </trkpt>
      <trkpt lat="45.92256" lon="6.49474">
        <ele>1554.946</ele>
        <time>2024-12-11T10:57:38Z</time>
      </trkpt>
      <trkpt lat="45.92254" lon="6.49475">
        <ele>1556.754</ele>
        <time>2024-12-11T10:57:43Z</time>
      </trkpt>
      <trkpt lat="45.92252" lon="6.49476">
        <ele>1557.855</ele>
        <time>2024-12-11T10:57:48Z</time>
      </trkpt>
      <trkpt lat="45.9225" lon="6.49478">
        <ele>1558.795</ele>
        <time>2024-12-11T10:57:53Z</time>
      </trkpt>
      <trkpt lat="45.92249" lon="6.4948">
        <ele>1559.494</ele>
        <time>2024-12-11T10:57:58Z</time>
      </trkpt>
      <trkpt lat="45.92248" lon="6.49483">
        <ele>1560.555</ele>
        <time>2024-12-11T10:58:03Z</time>
      </trkpt>
      <trkpt lat="45.9225" lon="6.49486">
        <ele>1561.105</ele>
        <time>2024-12-11T10:58:08Z</time>
      </trkpt>
      <trkpt lat="45.92253" lon="6.49488">
        <ele>1561.14</ele>
        <time>2024-12-11T10:58:13Z</time>
      </trkpt>
      <trkpt lat="45.92256" lon="6.4949">
        <ele>1561.246</ele>
        <time>2024-12-11T10:58:18Z</time>
      </trkpt>
      <trkpt lat="45.92257" lon="6.49492">
        <ele>1561.02</ele>
        <time>2024-12-11T10:58:23Z</time>
      </trkpt>
      <trkpt lat="45.92254" lon="6.49494">
        <ele>1562.692</ele>
        <time>2024-12-11T10:58:28Z</time>
      </trkpt>
      <trkpt lat="45.92252" lon="6.49496">
        <ele>1564.412</ele>
        <time>2024-12-11T10:58:33Z</time>
      </trkpt>
      <trkpt lat="45.9225" lon="6.49497">
        <ele>1565.78</ele>
        <time>2024-12-11T10:58:38Z</time>
      </trkpt>
      <trkpt lat="45.92248" lon="6.495">
        <ele>1565.635</ele>
        <time>2024-12-11T10:58:43Z</time>
      </trkpt>
      <trkpt lat="45.92246" lon="6.49501">
        <ele>1566.146</ele>
        <time>2024-12-11T10:58:48Z</time>
      </trkpt>
      <trkpt lat="45.92244" lon="6.49501">
        <ele>1566.444</ele>
        <time>2024-12-11T10:58:53Z</time>
      </trkpt>
      <trkpt lat="45.92243" lon="6.49503">
        <ele>1565.782</ele>
        <time>2024-12-11T10:58:58Z</time>
      </trkpt>
      <trkpt lat="45.92243" lon="6.49506">
        <ele>1565.198</ele>
        <time>2024-12-11T10:59:03Z</time>
      </trkpt>
      <trkpt lat="45.92242" lon="6.49509">
        <ele>1566.657</ele>
        <time>2024-12-11T10:59:08Z</time>
      </trkpt>
      <trkpt lat="45.9224" lon="6.49512">
        <ele>1567.398</ele>
        <time>2024-12-11T10:59:13Z</time>
      </trkpt>
      <trkpt lat="45.92239" lon="6.49515">
        <ele>1568.201</ele>
        <time>2024-12-11T10:59:18Z</time>
      </trkpt>
      <trkpt lat="45.92239" lon="6.49517">
        <ele>1567.894</ele>
        <time>2024-12-11T10:59:23Z</time>
      </trkpt>
      <trkpt lat="45.9224" lon="6.49521">
        <ele>1567.806</ele>
        <time>2024-12-11T10:59:28Z</time>
      </trkpt>
      <trkpt lat="45.92241" lon="6.49523">
        <ele>1568.475</ele>
        <time>2024-12-11T10:59:33Z</time>
      </trkpt>
      <trkpt lat="45.92244" lon="6.49526">
        <ele>1568.243</ele>
        <time>2024-12-11T10:59:38Z</time>
      </trkpt>
      <trkpt lat="45.92246" lon="6.49528">
        <ele>1569.952</ele>
        <time>2024-12-11T10:59:43Z</time>
      </trkpt>
      <trkpt lat="45.92248" lon="6.4953">
        <ele>1571.68</ele>
        <time>2024-12-11T10:59:48Z</time>
      </trkpt>
      <trkpt lat="45.9225" lon="6.49532">
        <ele>1572.468</ele>
        <time>2024-12-11T10:59:53Z</time>
      </trkpt>
      <trkpt lat="45.92252" lon="6.49534">
        <ele>1571.231</ele>
        <time>2024-12-11T10:59:58Z</time>
      </trkpt>
      <trkpt lat="45.92252" lon="6.49536">
        <ele>1571.287</ele>
        <time>2024-12-11T11:00:03Z</time>
      </trkpt>
      <trkpt lat="45.92253" lon="6.49537">
        <ele>1571.08</ele>
        <time>2024-12-11T11:00:08Z</time>
      </trkpt>
      <trkpt lat="45.92254" lon="6.4954">
        <ele>1572.412</ele>
        <time>2024-12-11T11:00:13Z</time>
      </trkpt>
      <trkpt lat="45.92254" lon="6.49541">
        <ele>1573.159</ele>
        <time>2024-12-11T11:00:18Z</time>
      </trkpt>
      <trkpt lat="45.92252" lon="6.49543">
        <ele>1573.513</ele>
        <time>2024-12-11T11:00:23Z</time>
      </trkpt>
      <trkpt lat="45.9225" lon="6.49544">
        <ele>1573.463</ele>
        <time>2024-12-11T11:00:28Z</time>
      </trkpt>
      <trkpt lat="45.92248" lon="6.49547">
        <ele>1573.607</ele>
        <time>2024-12-11T11:00:33Z</time>
      </trkpt>
      <trkpt lat="45.92248" lon="6.49549">
        <ele>1575.109</ele>
        <time>2024-12-11T11:00:38Z</time>
      </trkpt>
      <trkpt lat="45.92246" lon="6.4955">
        <ele>1576.338</ele>
        <time>2024-12-11T11:00:43Z</time>
      </trkpt>
      <trkpt lat="45.92245" lon="6.49552">
        <ele>1578.168</ele>
        <time>2024-12-11T11:00:48Z</time>
      </trkpt>
      <trkpt lat="45.92244" lon="6.49554">
        <ele>1579.336</ele>
        <time>2024-12-11T11:00:53Z</time>
      </trkpt>
      <trkpt lat="45.92243" lon="6.49557">
        <ele>1579.398</ele>
        <time>2024-12-11T11:00:58Z</time>
      </trkpt>
      <trkpt lat="45.92242" lon="6.49559">
        <ele>1580.685</ele>
        <time>2024-12-11T11:01:03Z</time>
      </trkpt>
      <trkpt lat="45.92242" lon="6.49562">
        <ele>1581.501</ele>
        <time>2024-12-11T11:01:08Z</time>
      </trkpt>
      <trkpt lat="45.92244" lon="6.49564">
        <ele>1582.397</ele>
        <time>2024-12-11T11:01:13Z</time>
      </trkpt>
      <trkpt lat="45.92246" lon="6.49566">
        <ele>1582.487</ele>
        <time>2024-12-11T11:01:18Z</time>
      </trkpt>
      <trkpt lat="45.92248" lon="6.49568">
        <ele>1584.101</ele>
        <time>2024-12-11T11:01:23Z</time>
      </trkpt>
      <trkpt lat="45.9225" lon="6.49569">
        <ele>1585.334</ele>
        <time>2024-12-11T11:01:28Z</time>
      </trkpt>
      <trkpt lat="45.92251" lon="6.49569">
        <ele>1585.441</ele>
        <time>2024-12-11T11:01:33Z</time>
      </trkpt>
      <trkpt lat="45.92252" lon="6.49572">
        <ele>1585.74</ele>
        <time>2024-12-11T11:01:38Z</time>
      </trkpt>
      <trkpt lat="45.92254" lon="6.49574">
        <ele>1585.564</ele>
        <time>2024-12-11T11:01:43Z</time>
      </trkpt>
      <trkpt lat="45.92255" lon="6.49575">
        <ele>1585.537</ele>
        <time>2024-12-11T11:01:48Z</time>
      </trkpt>
      <trkpt lat="45.92258" lon="6.49577">
        <ele>1586.361</ele>
        <time>2024-12-11T11:01:53Z</time>
      </trkpt>
      <trkpt lat="45.92259" lon="6.49578">
        <ele>1586.975</ele>
        <time>2024-12-11T11:01:58Z</time>
      </trkpt>
      <trkpt lat="45.9226" lon="6.49581">
        <ele>1588.291</ele>
        <time>2024-12-11T11:02:03Z</time>
      </trkpt>
      <trkpt lat="45.92262" lon="6.49583">
        <ele>1588.498</ele>
        <time>2024-12-11T11:02:08Z</time>
      </trkpt>
      <trkpt lat="45.92261" lon="6.49585">
        <ele>1588.928</ele>
        <time>2024-12-11T11:02:13Z</time>
      </trkpt>
      <trkpt lat="45.92258" lon="6.49586">
        <ele>1589.937</ele>
        <time>2024-12-11T11:02:18Z</time>
      </trkpt>
      <trkpt lat="45.92256" lon="6.49586">
        <ele>1591.63</ele>
        <time>2024-12-11T11:02:23Z</time>
      </trkpt>
      <trkpt lat="45.92254" lon="6.49587">
        <ele>1592.342</ele>
        <time>2024-12-11T11:02:28Z</time>
      </trkpt>
      <trkpt lat="45.92252" lon="6.49588">
        <ele>1593.032</ele>
        <time>2024-12-11T11:02:33Z</time>
      </trkpt>
      <trkpt lat="45.92249" lon="6.49589">
        <ele>1593.657</ele>
        <time>2024-12-11T11:02:38Z</time>
      </trkpt>
      <trkpt lat="45.92247" lon="6.4959">
        <ele>1594.828</ele>
        <time>2024-12-11T11:02:43Z</time>
      </trkpt>
      <trkpt lat="45.92246" lon="6.49591">
        <ele>1596.294</ele>
        <time>2024-12-11T11:02:48Z</time>
      </trkpt>
      <trkpt lat="45.92244" lon="6.49593">
        <ele>1597.158</ele>
        <time>2024-12-11T11:02:53Z</time>
      </trkpt>
      <trkpt lat="45.92244" lon="6.49595">
        <ele>1596.311</ele>
        <time>2024-12-11T11:02:58Z</time>
      </trkpt>
      <trkpt lat="45.92244" lon="6.49599">
        <ele>1596.164</ele>
        <time>2024-12-11T11:03:03Z</time>
      </trkpt>
      <trkpt lat="45.92243" lon="6.49601">
        <ele>1597.531</ele>
        <time>2024-12-11T11:03:08Z</time>
      </trkpt>
      <trkpt lat="45.92243" lon="6.49601">
        <ele>1598.845</ele>
        <time>2024-12-11T11:03:13Z</time>
      </trkpt>
      <trkpt lat="45.92243" lon="6.49601">
        <ele>1599.624</ele>
        <time>2024-12-11T11:03:18Z</time>
      </trkpt>
      <trkpt lat="45.92243" lon="6.49601">
        <ele>1600.474</ele>
        <time>2024-12-11T11:03:23Z</time>
      </trkpt>
      <trkpt lat="45.92243" lon="6.49601">
        <ele>1601.2</ele>
        <time>2024-12-11T11:03:28Z</time>
      </trkpt>
      <trkpt lat="45.92243" lon="6.49601">
        <ele>1601.869</ele>
        <time>2024-12-11T11:03:33Z</time>
      </trkpt>
      <trkpt lat="45.92243" lon="6.49601">
        <ele>1602.107</ele>
        <time>2024-12-11T11:03:38Z</time>
      </trkpt>
      <trkpt lat="45.92243" lon="6.49601">
        <ele>1602.513</ele>
        <time>2024-12-11T11:03:43Z</time>
      </trkpt>
      <trkpt lat="45.92243" lon="6.49601">
        <ele>1602.503</ele>
        <time>2024-12-11T11:03:48Z</time>
      </trkpt>
      <trkpt lat="45.92243" lon="6.49601">
        <ele>1603.28</ele>
        <time>2024-12-11T11:03:53Z</time>
      </trkpt>
      <trkpt lat="45.92243" lon="6.49611">
        <ele>1603.397</ele>
        <time>2024-12-11T11:03:58Z</time>
      </trkpt>
      <trkpt lat="45.92241" lon="6.49612">
        <ele>1604.61</ele>
        <time>2024-12-11T11:04:03Z</time>
      </trkpt>
      <trkpt lat="45.92239" lon="6.49614">
        <ele>1605.639</ele>
        <time>2024-12-11T11:04:08Z</time>
      </trkpt>
      <trkpt lat="45.92237" lon="6.49615">
        <ele>1606.903</ele>
        <time>2024-12-11T11:04:13Z</time>
      </trkpt>
      <trkpt lat="45.92235" lon="6.49616">
        <ele>1607.364</ele>
        <time>2024-12-11T11:04:18Z</time>
      </trkpt>
      <trkpt lat="45.92237" lon="6.49619">
        <ele>1608.954</ele>
        <time>2024-12-11T11:04:23Z</time>
      </trkpt>
      <trkpt lat="45.92238" lon="6.49621">
        <ele>1609.673</ele>
        <time>2024-12-11T11:04:28Z</time>
      </trkpt>
      <trkpt lat="45.9224" lon="6.49624">
        <ele>1609.608</ele>
        <time>2024-12-11T11:04:33Z</time>
      </trkpt>
      <trkpt lat="45.92242" lon="6.49627">
        <ele>1610.267</ele>
        <time>2024-12-11T11:04:38Z</time>
      </trkpt>
      <trkpt lat="45.92244" lon="6.49629">
        <ele>1610.974</ele>
        <time>2024-12-11T11:04:43Z</time>
      </trkpt>
      <trkpt lat="45.92246" lon="6.4963">
        <ele>1612.894</ele>
        <time>2024-12-11T11:04:48Z</time>
      </trkpt>
      <trkpt lat="45.92248" lon="6.49632">
        <ele>1613.391</ele>
        <time>2024-12-11T11:04:53Z</time>
      </trkpt>
      <trkpt lat="45.92249" lon="6.49634">
        <ele>1613.993</ele>
        <time>2024-12-11T11:04:58Z</time>
      </trkpt>
      <trkpt lat="45.9225" lon="6.49635">
        <ele>1615.127</ele>
        <time>2024-12-11T11:05:03Z</time>
      </trkpt>
      <trkpt lat="45.92251" lon="6.49637">
        <ele>1615.987</ele>
        <time>2024-12-11T11:05:08Z</time>
      </trkpt>
      <trkpt lat="45.92253" lon="6.4964">
        <ele>1615.968</ele>
        <time>2024-12-11T11:05:13Z</time>
      </trkpt>
      <trkpt lat="45.92254" lon="6.49642">
        <ele>1617.437</ele>
        <time>2024-12-11T11:05:18Z</time>
      </trkpt>
      <trkpt lat="45.92254" lon="6.49643">
        <ele>1617.528</ele>
        <time>2024-12-11T11:05:23Z</time>
      </trkpt>
      <trkpt lat="45.92251" lon="6.49643">
        <ele>1617.701</ele>
        <time>2024-12-11T11:05:28Z</time>
      </trkpt>
      <trkpt lat="45.92249" lon="6.49644">
        <ele>1617.984</ele>
        <time>2024-12-11T11:05:33Z</time>
      </trkpt>
      <trkpt lat="45.92245" lon="6.49644">
        <ele>1618.665</ele>
        <time>2024-12-11T11:05:38Z</time>
      </trkpt>
      <trkpt lat="45.92242" lon="6.49644">
        <ele>1619.668</ele>
        <time>2024-12-11T11:05:43Z</time>
      </trkpt>
      <trkpt lat="45.9224" lon="6.49644">
        <ele>1619.824</ele>
        <time>2024-12-11T11:05:48Z</time>
      </trkpt>
      <trkpt lat="45.92238" lon="6.49645">
        <ele>1620.505</ele>
        <time>2024-12-11T11:05:53Z</time>
      </trkpt>
      <trkpt lat="45.92236" lon="6.49647">
        <ele>1621.058</ele>
        <time>2024-12-11T11:05:58Z</time>
      </trkpt>
      <trkpt lat="45.92234" lon="6.49647">
        <ele>1621.166</ele>
        <time>2024-12-11T11:06:03Z</time>
      </trkpt>
      <trkpt lat="45.92232" lon="6.49647">
        <ele>1621.937</ele>
        <time>2024-12-11T11:06:08Z</time>
      </trkpt>
      <trkpt lat="45.9223" lon="6.49647">
        <ele>1623.422</ele>
        <time>2024-12-11T11:06:13Z</time>
      </trkpt>
      <trkpt lat="45.92228" lon="6.49649">
        <ele>1623.816</ele>
        <time>2024-12-11T11:06:18Z</time>
      </trkpt>
      <trkpt lat="45.92226" lon="6.49649">
        <ele>1622.97</ele>
        <time>2024-12-11T11:06:23Z</time>
      </trkpt>
      <trkpt lat="45.92223" lon="6.49648">
        <ele>1622.925</ele>
        <time>2024-12-11T11:06:28Z</time>
      </trkpt>
      <trkpt lat="45.92221" lon="6.49648">
        <ele>1622.993</ele>
        <time>2024-12-11T11:06:33Z</time>
      </trkpt>
      <trkpt lat="45.92219" lon="6.49648">
        <ele>1623.856</ele>
        <time>2024-12-11T11:06:38Z</time>
      </trkpt>
      <trkpt lat="45.92216" lon="6.49648">
        <ele>1624.192</ele>
        <time>2024-12-11T11:06:43Z</time>
      </trkpt>
      <trkpt lat="45.92215" lon="6.49648">
        <ele>1624.047</ele>
        <time>2024-12-11T11:06:48Z</time>
      </trkpt>
      <trkpt lat="45.92212" lon="6.49646">
        <ele>1624.701</ele>
        <time>2024-12-11T11:06:53Z</time>
      </trkpt>
      <trkpt lat="45.92209" lon="6.49644">
        <ele>1626.052</ele>
        <time>2024-12-11T11:06:58Z</time>
      </trkpt>
      <trkpt lat="45.92207" lon="6.49643">
        <ele>1625.421</ele>
        <time>2024-12-11T11:07:03Z</time>
      </trkpt>
      <trkpt lat="45.92205" lon="6.49642">
        <ele>1625.927</ele>
        <time>2024-12-11T11:07:08Z</time>
      </trkpt>
      <trkpt lat="45.92203" lon="6.49641">
        <ele>1627.046</ele>
        <time>2024-12-11T11:07:13Z</time>
      </trkpt>
      <trkpt lat="45.922" lon="6.49642">
        <ele>1626.501</ele>
        <time>2024-12-11T11:07:18Z</time>
      </trkpt>
      <trkpt lat="45.92198" lon="6.49643">
        <ele>1627.975</ele>
        <time>2024-12-11T11:07:23Z</time>
      </trkpt>
      <trkpt lat="45.92196" lon="6.49643">
        <ele>1629.042</ele>
        <time>2024-12-11T11:07:28Z</time>
      </trkpt>
      <trkpt lat="45.92194" lon="6.49643">
        <ele>1630.133</ele>
        <time>2024-12-11T11:07:33Z</time>
      </trkpt>
      <trkpt lat="45.92192" lon="6.49643">
        <ele>1630.235</ele>
        <time>2024-12-11T11:07:38Z</time>
      </trkpt>
      <trkpt lat="45.92189" lon="6.49642">
        <ele>1631.062</ele>
        <time>2024-12-11T11:07:43Z</time>
      </trkpt>
      <trkpt lat="45.92186" lon="6.49642">
        <ele>1631.015</ele>
        <time>2024-12-11T11:07:48Z</time>
      </trkpt>
      <trkpt lat="45.92184" lon="6.49642">
        <ele>1630.933</ele>
        <time>2024-12-11T11:07:53Z</time>
      </trkpt>
      <trkpt lat="45.92182" lon="6.49641">
        <ele>1631.594</ele>
        <time>2024-12-11T11:07:58Z</time>
      </trkpt>
      <trkpt lat="45.92179" lon="6.4964">
        <ele>1632.689</ele>
        <time>2024-12-11T11:08:03Z</time>
      </trkpt>
      <trkpt lat="45.92178" lon="6.49641">
        <ele>1632.899</ele>
        <time>2024-12-11T11:08:08Z</time>
      </trkpt>
      <trkpt lat="45.92178" lon="6.49644">
        <ele>1633.767</ele>
        <time>2024-12-11T11:08:13Z</time>
      </trkpt>
      <trkpt lat="45.9218" lon="6.49646">
        <ele>1634.34</ele>
        <time>2024-12-11T11:08:18Z</time>
      </trkpt>
      <trkpt lat="45.92182" lon="6.49648">
        <ele>1633.551</ele>
        <time>2024-12-11T11:08:23Z</time>
      </trkpt>
      <trkpt lat="45.92183" lon="6.49652">
        <ele>1633.279</ele>
        <time>2024-12-11T11:08:28Z</time>
      </trkpt>
      <trkpt lat="45.92183" lon="6.49655">
        <ele>1633.971</ele>
        <time>2024-12-11T11:08:33Z</time>
      </trkpt>
      <trkpt lat="45.92185" lon="6.49658">
        <ele>1632.945</ele>
        <time>2024-12-11T11:08:38Z</time>
      </trkpt>
      <trkpt lat="45.92185" lon="6.49661">
        <ele>1632.232</ele>
        <time>2024-12-11T11:08:43Z</time>
      </trkpt>
      <trkpt lat="45.92185" lon="6.49665">
        <ele>1633.678</ele>
        <time>2024-12-11T11:08:48Z</time>
      </trkpt>
      <trkpt lat="45.92186" lon="6.49668">
        <ele>1635.085</ele>
        <time>2024-12-11T11:08:53Z</time>
      </trkpt>
      <trkpt lat="45.92186" lon="6.49671">
        <ele>1638.244</ele>
        <time>2024-12-11T11:08:58Z</time>
      </trkpt>
      <trkpt lat="45.92186" lon="6.49672">
        <ele>1638.423</ele>
        <time>2024-12-11T11:09:03Z</time>
      </trkpt>
      <trkpt lat="45.92186" lon="6.49675">
        <ele>1638.673</ele>
        <time>2024-12-11T11:09:08Z</time>
      </trkpt>
      <trkpt lat="45.92185" lon="6.49677">
        <ele>1639.479</ele>
        <time>2024-12-11T11:09:13Z</time>
      </trkpt>
      <trkpt lat="45.92182" lon="6.49677">
        <ele>1639.226</ele>
        <time>2024-12-11T11:09:18Z</time>
      </trkpt>
      <trkpt lat="45.9218" lon="6.49676">
        <ele>1639.968</ele>
        <time>2024-12-11T11:09:23Z</time>
      </trkpt>
      <trkpt lat="45.92178" lon="6.49676">
        <ele>1640.781</ele>
        <time>2024-12-11T11:09:28Z</time>
      </trkpt>
      <trkpt lat="45.92175" lon="6.49675">
        <ele>1641.748</ele>
        <time>2024-12-11T11:09:33Z</time>
      </trkpt>
      <trkpt lat="45.92173" lon="6.49673">
        <ele>1642.017</ele>
        <time>2024-12-11T11:09:38Z</time>
      </trkpt>
      <trkpt lat="45.9217" lon="6.49672">
        <ele>1642.967</ele>
        <time>2024-12-11T11:09:43Z</time>
      </trkpt>
      <trkpt lat="45.92168" lon="6.49671">
        <ele>1645.587</ele>
        <time>2024-12-11T11:09:48Z</time>
      </trkpt>
      <trkpt lat="45.92166" lon="6.49671">
        <ele>1646.101</ele>
        <time>2024-12-11T11:09:53Z</time>
      </trkpt>
      <trkpt lat="45.92164" lon="6.49671">
        <ele>1648.349</ele>
        <time>2024-12-11T11:09:58Z</time>
      </trkpt>
      <trkpt lat="45.92161" lon="6.4967">
        <ele>1648.512</ele>
        <time>2024-12-11T11:10:03Z</time>
      </trkpt>
      <trkpt lat="45.92159" lon="6.49672">
        <ele>1648.935</ele>
        <time>2024-12-11T11:10:08Z</time>
      </trkpt>
      <trkpt lat="45.92158" lon="6.49674">
        <ele>1649.908</ele>
        <time>2024-12-11T11:10:13Z</time>
      </trkpt>
      <trkpt lat="45.92156" lon="6.49675">
        <ele>1650.891</ele>
        <time>2024-12-11T11:10:18Z</time>
      </trkpt>
      <trkpt lat="45.92154" lon="6.49676">
        <ele>1651.395</ele>
        <time>2024-12-11T11:10:23Z</time>
      </trkpt>
      <trkpt lat="45.92153" lon="6.49679">
        <ele>1653.528</ele>
        <time>2024-12-11T11:10:28Z</time>
      </trkpt>
      <trkpt lat="45.92152" lon="6.49681">
        <ele>1652.883</ele>
        <time>2024-12-11T11:10:33Z</time>
      </trkpt>
      <trkpt lat="45.92152" lon="6.49684">
        <ele>1653.09</ele>
        <time>2024-12-11T11:10:38Z</time>
      </trkpt>
      <trkpt lat="45.92152" lon="6.49687">
        <ele>1654.486</ele>
        <time>2024-12-11T11:10:43Z</time>
      </trkpt>
      <trkpt lat="45.92152" lon="6.4969">
        <ele>1654.328</ele>
        <time>2024-12-11T11:10:48Z</time>
      </trkpt>
      <trkpt lat="45.92152" lon="6.49693">
        <ele>1654.473</ele>
        <time>2024-12-11T11:10:53Z</time>
      </trkpt>
      <trkpt lat="45.92152" lon="6.49697">
        <ele>1655.329</ele>
        <time>2024-12-11T11:10:58Z</time>
      </trkpt>
      <trkpt lat="45.92153" lon="6.49701">
        <ele>1655.876</ele>
        <time>2024-12-11T11:11:03Z</time>
      </trkpt>
      <trkpt lat="45.92153" lon="6.49704">
        <ele>1656.27</ele>
        <time>2024-12-11T11:11:08Z</time>
      </trkpt>
      <trkpt lat="45.92154" lon="6.49706">
        <ele>1656.423</ele>
        <time>2024-12-11T11:11:13Z</time>
      </trkpt>
      <trkpt lat="45.92153" lon="6.49708">
        <ele>1656.986</ele>
        <time>2024-12-11T11:11:18Z</time>
      </trkpt>
      <trkpt lat="45.9215" lon="6.49708">
        <ele>1657.817</ele>
        <time>2024-12-11T11:11:23Z</time>
      </trkpt>
      <trkpt lat="45.92147" lon="6.49708">
        <ele>1658.944</ele>
        <time>2024-12-11T11:11:28Z</time>
      </trkpt>
      <trkpt lat="45.92145" lon="6.49708">
        <ele>1659.795</ele>
        <time>2024-12-11T11:11:33Z</time>
      </trkpt>
      <trkpt lat="45.92142" lon="6.49708">
        <ele>1661.47</ele>
        <time>2024-12-11T11:11:38Z</time>
      </trkpt>
      <trkpt lat="45.9214" lon="6.49709">
        <ele>1662.116</ele>
        <time>2024-12-11T11:11:43Z</time>
      </trkpt>
      <trkpt lat="45.92137" lon="6.49709">
        <ele>1662.32</ele>
        <time>2024-12-11T11:11:48Z</time>
      </trkpt>
      <trkpt lat="45.92134" lon="6.49709">
        <ele>1662.93</ele>
        <time>2024-12-11T11:11:53Z</time>
      </trkpt>
      <trkpt lat="45.92132" lon="6.49711">
        <ele>1663.093</ele>
        <time>2024-12-11T11:11:58Z</time>
      </trkpt>
      <trkpt lat="45.9213" lon="6.49713">
        <ele>1664.19</ele>
        <time>2024-12-11T11:12:03Z</time>
      </trkpt>
      <trkpt lat="45.92131" lon="6.49717">
        <ele>1664.628</ele>
        <time>2024-12-11T11:12:08Z</time>
      </trkpt>
      <trkpt lat="45.92132" lon="6.4972">
        <ele>1664.841</ele>
        <time>2024-12-11T11:12:13Z</time>
      </trkpt>
      <trkpt lat="45.92134" lon="6.49723">
        <ele>1665.045</ele>
        <time>2024-12-11T11:12:18Z</time>
      </trkpt>
      <trkpt lat="45.92136" lon="6.49726">
        <ele>1665.565</ele>
        <time>2024-12-11T11:12:23Z</time>
      </trkpt>
      <trkpt lat="45.92137" lon="6.49729">
        <ele>1667.764</ele>
        <time>2024-12-11T11:12:28Z</time>
      </trkpt>
      <trkpt lat="45.92137" lon="6.49731">
        <ele>1668.457</ele>
        <time>2024-12-11T11:12:33Z</time>
      </trkpt>
      <trkpt lat="45.92138" lon="6.49731">
        <ele>1668.345</ele>
        <time>2024-12-11T11:12:38Z</time>
      </trkpt>
      <trkpt lat="45.92139" lon="6.49733">
        <ele>1668.284</ele>
        <time>2024-12-11T11:12:43Z</time>
      </trkpt>
      <trkpt lat="45.92139" lon="6.49736">
        <ele>1668.628</ele>
        <time>2024-12-11T11:12:48Z</time>
      </trkpt>
      <trkpt lat="45.9214" lon="6.49739">
        <ele>1668.178</ele>
        <time>2024-12-11T11:12:53Z</time>
      </trkpt>
      <trkpt lat="45.9214" lon="6.49742">
        <ele>1667.524</ele>
        <time>2024-12-11T11:12:58Z</time>
      </trkpt>
      <trkpt lat="45.92141" lon="6.49745">
        <ele>1669.205</ele>
        <time>2024-12-11T11:13:03Z</time>
      </trkpt>
      <trkpt lat="45.92142" lon="6.49747">
        <ele>1671.26</ele>
        <time>2024-12-11T11:13:08Z</time>
      </trkpt>
      <trkpt lat="45.92142" lon="6.4975">
        <ele>1672.881</ele>
        <time>2024-12-11T11:13:13Z</time>
      </trkpt>
      <trkpt lat="45.92142" lon="6.49754">
        <ele>1673.783</ele>
        <time>2024-12-11T11:13:18Z</time>
      </trkpt>
      <trkpt lat="45.92141" lon="6.49755">
        <ele>1673.971</ele>
        <time>2024-12-11T11:13:23Z</time>
      </trkpt>
      <trkpt lat="45.92139" lon="6.49755">
        <ele>1673.643</ele>
        <time>2024-12-11T11:13:28Z</time>
      </trkpt>
      <trkpt lat="45.92137" lon="6.49756">
        <ele>1674.412</ele>
        <time>2024-12-11T11:13:33Z</time>
      </trkpt>
      <trkpt lat="45.92135" lon="6.49756">
        <ele>1675.325</ele>
        <time>2024-12-11T11:13:38Z</time>
      </trkpt>
      <trkpt lat="45.92133" lon="6.49756">
        <ele>1676.296</ele>
        <time>2024-12-11T11:13:43Z</time>
      </trkpt>
      <trkpt lat="45.9213" lon="6.49755">
        <ele>1676.103</ele>
        <time>2024-12-11T11:13:48Z</time>
      </trkpt>
      <trkpt lat="45.92128" lon="6.49754">
        <ele>1676.451</ele>
        <time>2024-12-11T11:13:53Z</time>
      </trkpt>
      <trkpt lat="45.92125" lon="6.49753">
        <ele>1678.117</ele>
        <time>2024-12-11T11:13:58Z</time>
      </trkpt>
      <trkpt lat="45.92124" lon="6.49754">
        <ele>1678.947</ele>
        <time>2024-12-11T11:14:03Z</time>
      </trkpt>
      <trkpt lat="45.92124" lon="6.49758">
        <ele>1679.585</ele>
        <time>2024-12-11T11:14:08Z</time>
      </trkpt>
      <trkpt lat="45.92125" lon="6.49761">
        <ele>1680.388</ele>
        <time>2024-12-11T11:14:13Z</time>
      </trkpt>
      <trkpt lat="45.92125" lon="6.49764">
        <ele>1681.052</ele>
        <time>2024-12-11T11:14:18Z</time>
      </trkpt>
      <trkpt lat="45.92125" lon="6.49766">
        <ele>1682.106</ele>
        <time>2024-12-11T11:14:23Z</time>
      </trkpt>
      <trkpt lat="45.92125" lon="6.49768">
        <ele>1681.542</ele>
        <time>2024-12-11T11:14:28Z</time>
      </trkpt>
      <trkpt lat="45.92122" lon="6.49769">
        <ele>1682.253</ele>
        <time>2024-12-11T11:14:33Z</time>
      </trkpt>
      <trkpt lat="45.92119" lon="6.49768">
        <ele>1683.121</ele>
        <time>2024-12-11T11:14:38Z</time>
      </trkpt>
      <trkpt lat="45.92117" lon="6.49767">
        <ele>1683.139</ele>
        <time>2024-12-11T11:14:43Z</time>
      </trkpt>
      <trkpt lat="45.92114" lon="6.49766">
        <ele>1683.479</ele>
        <time>2024-12-11T11:14:48Z</time>
      </trkpt>
      <trkpt lat="45.92112" lon="6.49766">
        <ele>1682.467</ele>
        <time>2024-12-11T11:14:53Z</time>
      </trkpt>
      <trkpt lat="45.9211" lon="6.49765">
        <ele>1682.4</ele>
        <time>2024-12-11T11:14:58Z</time>
      </trkpt>
      <trkpt lat="45.92108" lon="6.49764">
        <ele>1682.709</ele>
        <time>2024-12-11T11:15:03Z</time>
      </trkpt>
      <trkpt lat="45.92106" lon="6.49763">
        <ele>1683.404</ele>
        <time>2024-12-11T11:15:08Z</time>
      </trkpt>
      <trkpt lat="45.92106" lon="6.49765">
        <ele>1683.648</ele>
        <time>2024-12-11T11:15:13Z</time>
      </trkpt>
      <trkpt lat="45.92105" lon="6.49768">
        <ele>1684.912</ele>
        <time>2024-12-11T11:15:18Z</time>
      </trkpt>
      <trkpt lat="45.92105" lon="6.49772">
        <ele>1685.162</ele>
        <time>2024-12-11T11:15:23Z</time>
      </trkpt>
      <trkpt lat="45.92105" lon="6.49775">
        <ele>1685.775</ele>
        <time>2024-12-11T11:15:28Z</time>
      </trkpt>
      <trkpt lat="45.92104" lon="6.49779">
        <ele>1688.138</ele>
        <time>2024-12-11T11:15:33Z</time>
      </trkpt>
      <trkpt lat="45.92104" lon="6.49781">
        <ele>1688.165</ele>
        <time>2024-12-11T11:15:38Z</time>
      </trkpt>
      <trkpt lat="45.92103" lon="6.49784">
        <ele>1689.104</ele>
        <time>2024-12-11T11:15:43Z</time>
      </trkpt>
      <trkpt lat="45.92103" lon="6.49787">
        <ele>1689.44</ele>
        <time>2024-12-11T11:15:48Z</time>
      </trkpt>
      <trkpt lat="45.92103" lon="6.4979">
        <ele>1690.227</ele>
        <time>2024-12-11T11:15:53Z</time>
      </trkpt>
      <trkpt lat="45.92102" lon="6.49792">
        <ele>1690.586</ele>
        <time>2024-12-11T11:15:58Z</time>
      </trkpt>
      <trkpt lat="45.92102" lon="6.49795">
        <ele>1690.166</ele>
        <time>2024-12-11T11:16:03Z</time>
      </trkpt>
      <trkpt lat="45.92102" lon="6.49798">
        <ele>1690.666</ele>
        <time>2024-12-11T11:16:08Z</time>
      </trkpt>
      <trkpt lat="45.92102" lon="6.49801">
        <ele>1691.36</ele>
        <time>2024-12-11T11:16:13Z</time>
      </trkpt>
      <trkpt lat="45.92101" lon="6.49803">
        <ele>1692.742</ele>
        <time>2024-12-11T11:16:18Z</time>
      </trkpt>
      <trkpt lat="45.92101" lon="6.49806">
        <ele>1693.783</ele>
        <time>2024-12-11T11:16:23Z</time>
      </trkpt>
      <trkpt lat="45.921" lon="6.49808">
        <ele>1694.576</ele>
        <time>2024-12-11T11:16:28Z</time>
      </trkpt>
      <trkpt lat="45.92099" lon="6.4981">
        <ele>1695.065</ele>
        <time>2024-12-11T11:16:33Z</time>
      </trkpt>
      <trkpt lat="45.92098" lon="6.49814">
        <ele>1693.003</ele>
        <time>2024-12-11T11:16:38Z</time>
      </trkpt>
      <trkpt lat="45.92098" lon="6.49817">
        <ele>1695.074</ele>
        <time>2024-12-11T11:16:43Z</time>
      </trkpt>
      <trkpt lat="45.92097" lon="6.49819">
        <ele>1696.06</ele>
        <time>2024-12-11T11:16:48Z</time>
      </trkpt>
      <trkpt lat="45.92096" lon="6.49822">
        <ele>1697.325</ele>
        <time>2024-12-11T11:16:53Z</time>
      </trkpt>
      <trkpt lat="45.92094" lon="6.49825">
        <ele>1697.055</ele>
        <time>2024-12-11T11:16:58Z</time>
      </trkpt>
      <trkpt lat="45.92093" lon="6.49828">
        <ele>1698.092</ele>
        <time>2024-12-11T11:17:03Z</time>
      </trkpt>
      <trkpt lat="45.92092" lon="6.49829">
        <ele>1699.174</ele>
        <time>2024-12-11T11:17:08Z</time>
      </trkpt>
      <trkpt lat="45.9209" lon="6.4983">
        <ele>1698.741</ele>
        <time>2024-12-11T11:17:13Z</time>
      </trkpt>
      <trkpt lat="45.92089" lon="6.4983">
        <ele>1699.395</ele>
        <time>2024-12-11T11:17:18Z</time>
      </trkpt>
      <trkpt lat="45.92087" lon="6.49829">
        <ele>1700.88</ele>
        <time>2024-12-11T11:17:23Z</time>
      </trkpt>
      <trkpt lat="45.92085" lon="6.49828">
        <ele>1701.682</ele>
        <time>2024-12-11T11:17:28Z</time>
      </trkpt>
      <trkpt lat="45.92084" lon="6.49827">
        <ele>1702.423</ele>
        <time>2024-12-11T11:17:33Z</time>
      </trkpt>
      <trkpt lat="45.92081" lon="6.49826">
        <ele>1702.42</ele>
        <time>2024-12-11T11:17:38Z</time>
      </trkpt>
      <trkpt lat="45.9208" lon="6.49825">
        <ele>1702.985</ele>
        <time>2024-12-11T11:17:43Z</time>
      </trkpt>
      <trkpt lat="45.92077" lon="6.49824">
        <ele>1703.906</ele>
        <time>2024-12-11T11:17:48Z</time>
      </trkpt>
      <trkpt lat="45.92075" lon="6.49824">
        <ele>1706.577</ele>
        <time>2024-12-11T11:17:53Z</time>
      </trkpt>
      <trkpt lat="45.92073" lon="6.49824">
        <ele>1708.355</ele>
        <time>2024-12-11T11:17:58Z</time>
      </trkpt>
      <trkpt lat="45.92071" lon="6.49823">
        <ele>1709.143</ele>
        <time>2024-12-11T11:18:03Z</time>
      </trkpt>
      <trkpt lat="45.92068" lon="6.49823">
        <ele>1709.578</ele>
        <time>2024-12-11T11:18:08Z</time>
      </trkpt>
      <trkpt lat="45.92066" lon="6.49823">
        <ele>1710.605</ele>
        <time>2024-12-11T11:18:13Z</time>
      </trkpt>
      <trkpt lat="45.92064" lon="6.49824">
        <ele>1710.721</ele>
        <time>2024-12-11T11:18:18Z</time>
      </trkpt>
      <trkpt lat="45.92062" lon="6.49825">
        <ele>1711.737</ele>
        <time>2024-12-11T11:18:23Z</time>
      </trkpt>
      <trkpt lat="45.92062" lon="6.49828">
        <ele>1712.803</ele>
        <time>2024-12-11T11:18:28Z</time>
      </trkpt>
      <trkpt lat="45.92062" lon="6.49831">
        <ele>1713.192</ele>
        <time>2024-12-11T11:18:33Z</time>
      </trkpt>
      <trkpt lat="45.92062" lon="6.49833">
        <ele>1713.905</ele>
        <time>2024-12-11T11:18:38Z</time>
      </trkpt>
      <trkpt lat="45.92061" lon="6.49836">
        <ele>1715.098</ele>
        <time>2024-12-11T11:18:43Z</time>
      </trkpt>
      <trkpt lat="45.92061" lon="6.49839">
        <ele>1715.54</ele>
        <time>2024-12-11T11:18:48Z</time>
      </trkpt>
      <trkpt lat="45.9206" lon="6.49841">
        <ele>1715.768</ele>
        <time>2024-12-11T11:18:53Z</time>
      </trkpt>
      <trkpt lat="45.9206" lon="6.49844">
        <ele>1716.112</ele>
        <time>2024-12-11T11:18:58Z</time>
      </trkpt>
      <trkpt lat="45.92059" lon="6.49847">
        <ele>1715.64</ele>
        <time>2024-12-11T11:19:03Z</time>
      </trkpt>
      <trkpt lat="45.92059" lon="6.4985">
        <ele>1715.97</ele>
        <time>2024-12-11T11:19:08Z</time>
      </trkpt>
      <trkpt lat="45.92059" lon="6.49853">
        <ele>1717.124</ele>
        <time>2024-12-11T11:19:13Z</time>
      </trkpt>
      <trkpt lat="45.92059" lon="6.49855">
        <ele>1717.731</ele>
        <time>2024-12-11T11:19:18Z</time>
      </trkpt>
      <trkpt lat="45.92058" lon="6.49858">
        <ele>1718.355</ele>
        <time>2024-12-11T11:19:23Z</time>
      </trkpt>
      <trkpt lat="45.92057" lon="6.49861">
        <ele>1719.535</ele>
        <time>2024-12-11T11:19:28Z</time>
      </trkpt>
      <trkpt lat="45.92054" lon="6.49861">
        <ele>1720.053</ele>
        <time>2024-12-11T11:19:33Z</time>
      </trkpt>
      <trkpt lat="45.92052" lon="6.49861">
        <ele>1720.63</ele>
        <time>2024-12-11T11:19:38Z</time>
      </trkpt>
      <trkpt lat="45.9205" lon="6.4986">
        <ele>1721.361</ele>
        <time>2024-12-11T11:19:43Z</time>
      </trkpt>
      <trkpt lat="45.92049" lon="6.49859">
        <ele>1722.164</ele>
        <time>2024-12-11T11:19:48Z</time>
      </trkpt>
      <trkpt lat="45.92047" lon="6.49858">
        <ele>1723.279</ele>
        <time>2024-12-11T11:19:53Z</time>
      </trkpt>
      <trkpt lat="45.92044" lon="6.49858">
        <ele>1724.186</ele>
        <time>2024-12-11T11:19:58Z</time>
      </trkpt>
      <trkpt lat="45.92042" lon="6.49858">
        <ele>1725.044</ele>
        <time>2024-12-11T11:20:03Z</time>
      </trkpt>
      <trkpt lat="45.9204" lon="6.49859">
        <ele>1726.251</ele>
        <time>2024-12-11T11:20:08Z</time>
      </trkpt>
      <trkpt lat="45.92039" lon="6.49859">
        <ele>1727.505</ele>
        <time>2024-12-11T11:20:13Z</time>
      </trkpt>
      <trkpt lat="45.92038" lon="6.49858">
        <ele>1728.752</ele>
        <time>2024-12-11T11:20:18Z</time>
      </trkpt>
      <trkpt lat="45.92037" lon="6.49861">
        <ele>1728.301</ele>
        <time>2024-12-11T11:20:23Z</time>
      </trkpt>
      <trkpt lat="45.92037" lon="6.49865">
        <ele>1728.537</ele>
        <time>2024-12-11T11:20:28Z</time>
      </trkpt>
      <trkpt lat="45.92037" lon="6.49868">
        <ele>1730.549</ele>
        <time>2024-12-11T11:20:33Z</time>
      </trkpt>
      <trkpt lat="45.92036" lon="6.4987">
        <ele>1732.394</ele>
        <time>2024-12-11T11:20:38Z</time>
      </trkpt>
      <trkpt lat="45.92036" lon="6.49873">
        <ele>1733.322</ele>
        <time>2024-12-11T11:20:43Z</time>
      </trkpt>
      <trkpt lat="45.92036" lon="6.49875">
        <ele>1734.366</ele>
        <time>2024-12-11T11:20:48Z</time>
      </trkpt>
      <trkpt lat="45.92036" lon="6.49876">
        <ele>1734.679</ele>
        <time>2024-12-11T11:20:53Z</time>
      </trkpt>
      <trkpt lat="45.92035" lon="6.49879">
        <ele>1734.503</ele>
        <time>2024-12-11T11:20:58Z</time>
      </trkpt>
      <trkpt lat="45.92035" lon="6.49884">
        <ele>1734.217</ele>
        <time>2024-12-11T11:21:03Z</time>
      </trkpt>
      <trkpt lat="45.92035" lon="6.49887">
        <ele>1733.795</ele>
        <time>2024-12-11T11:21:08Z</time>
      </trkpt>
      <trkpt lat="45.92036" lon="6.4989">
        <ele>1733.947</ele>
        <time>2024-12-11T11:21:13Z</time>
      </trkpt>
      <trkpt lat="45.92035" lon="6.49893">
        <ele>1735.563</ele>
        <time>2024-12-11T11:21:18Z</time>
      </trkpt>
      <trkpt lat="45.92035" lon="6.49895">
        <ele>1736.124</ele>
        <time>2024-12-11T11:21:23Z</time>
      </trkpt>
      <trkpt lat="45.92033" lon="6.49895">
        <ele>1736.982</ele>
        <time>2024-12-11T11:21:28Z</time>
      </trkpt>
      <trkpt lat="45.92032" lon="6.49894">
        <ele>1737.655</ele>
        <time>2024-12-11T11:21:33Z</time>
      </trkpt>
      <trkpt lat="45.9203" lon="6.49894">
        <ele>1737.394</ele>
        <time>2024-12-11T11:21:38Z</time>
      </trkpt>
      <trkpt lat="45.92028" lon="6.49893">
        <ele>1738.461</ele>
        <time>2024-12-11T11:21:43Z</time>
      </trkpt>
      <trkpt lat="45.92027" lon="6.49892">
        <ele>1739.064</ele>
        <time>2024-12-11T11:21:48Z</time>
      </trkpt>
      <trkpt lat="45.92025" lon="6.49891">
        <ele>1739.749</ele>
        <time>2024-12-11T11:21:53Z</time>
      </trkpt>
      <trkpt lat="45.92023" lon="6.49892">
        <ele>1740.836</ele>
        <time>2024-12-11T11:21:58Z</time>
      </trkpt>
      <trkpt lat="45.92022" lon="6.49895">
        <ele>1740.876</ele>
        <time>2024-12-11T11:22:03Z</time>
      </trkpt>
      <trkpt lat="45.92022" lon="6.49897">
        <ele>1741.104</ele>
        <time>2024-12-11T11:22:08Z</time>
      </trkpt>
      <trkpt lat="45.92022" lon="6.49899">
        <ele>1741.629</ele>
        <time>2024-12-11T11:22:13Z</time>
      </trkpt>
      <trkpt lat="45.92021" lon="6.49901">
        <ele>1742.032</ele>
        <time>2024-12-11T11:22:18Z</time>
      </trkpt>
      <trkpt lat="45.9202" lon="6.49903">
        <ele>1742.065</ele>
        <time>2024-12-11T11:22:23Z</time>
      </trkpt>
      <trkpt lat="45.9202" lon="6.49905">
        <ele>1743.026</ele>
        <time>2024-12-11T11:22:28Z</time>
      </trkpt>
      <trkpt lat="45.92019" lon="6.49906">
        <ele>1743.709</ele>
        <time>2024-12-11T11:22:33Z</time>
      </trkpt>
      <trkpt lat="45.92017" lon="6.49906">
        <ele>1744.262</ele>
        <time>2024-12-11T11:22:38Z</time>
      </trkpt>
      <trkpt lat="45.92015" lon="6.49906">
        <ele>1745.366</ele>
        <time>2024-12-11T11:22:43Z</time>
      </trkpt>
      <trkpt lat="45.92013" lon="6.49904">
        <ele>1746.345</ele>
        <time>2024-12-11T11:22:48Z</time>
      </trkpt>
      <trkpt lat="45.92012" lon="6.49903">
        <ele>1746.897</ele>
        <time>2024-12-11T11:22:53Z</time>
      </trkpt>
      <trkpt lat="45.9201" lon="6.49902">
        <ele>1747.953</ele>
        <time>2024-12-11T11:22:58Z</time>
      </trkpt>
      <trkpt lat="45.92008" lon="6.49901">
        <ele>1749.368</ele>
        <time>2024-12-11T11:23:03Z</time>
      </trkpt>
      <trkpt lat="45.92007" lon="6.49899">
        <ele>1750.224</ele>
        <time>2024-12-11T11:23:08Z</time>
      </trkpt>
      <trkpt lat="45.92005" lon="6.49898">
        <ele>1750.94</ele>
        <time>2024-12-11T11:23:13Z</time>
      </trkpt>
      <trkpt lat="45.92003" lon="6.49896">
        <ele>1750.982</ele>
        <time>2024-12-11T11:23:18Z</time>
      </trkpt>
      <trkpt lat="45.92001" lon="6.49896">
        <ele>1751.708</ele>
        <time>2024-12-11T11:23:23Z</time>
      </trkpt>
      <trkpt lat="45.91999" lon="6.49896">
        <ele>1752.468</ele>
        <time>2024-12-11T11:23:28Z</time>
      </trkpt>
      <trkpt lat="45.91997" lon="6.49896">
        <ele>1753.614</ele>
        <time>2024-12-11T11:23:33Z</time>
      </trkpt>
      <trkpt lat="45.91995" lon="6.49896">
        <ele>1754.254</ele>
        <time>2024-12-11T11:23:38Z</time>
      </trkpt>
      <trkpt lat="45.91993" lon="6.49896">
        <ele>1754.687</ele>
        <time>2024-12-11T11:23:43Z</time>
      </trkpt>
      <trkpt lat="45.91991" lon="6.49897">
        <ele>1755.624</ele>
        <time>2024-12-11T11:23:48Z</time>
      </trkpt>
      <trkpt lat="45.91991" lon="6.499">
        <ele>1756.063</ele>
        <time>2024-12-11T11:23:53Z</time>
      </trkpt>
      <trkpt lat="45.91991" lon="6.49902">
        <ele>1755.966</ele>
        <time>2024-12-11T11:23:58Z</time>
      </trkpt>
      <trkpt lat="45.9199" lon="6.49905">
        <ele>1754.879</ele>
        <time>2024-12-11T11:24:03Z</time>
      </trkpt>
      <trkpt lat="45.9199" lon="6.49908">
        <ele>1755.869</ele>
        <time>2024-12-11T11:24:08Z</time>
      </trkpt>
      <trkpt lat="45.91989" lon="6.49909">
        <ele>1757.655</ele>
        <time>2024-12-11T11:24:13Z</time>
      </trkpt>
      <trkpt lat="45.91988" lon="6.49911">
        <ele>1757.301</ele>
        <time>2024-12-11T11:24:18Z</time>
      </trkpt>
      <trkpt lat="45.91987" lon="6.49911">
        <ele>1758.192</ele>
        <time>2024-12-11T11:24:23Z</time>
      </trkpt>
      <trkpt lat="45.91984" lon="6.4991">
        <ele>1758.682</ele>
        <time>2024-12-11T11:24:28Z</time>
      </trkpt>
      <trkpt lat="45.91982" lon="6.4991">
        <ele>1759.352</ele>
        <time>2024-12-11T11:24:33Z</time>
      </trkpt>
      <trkpt lat="45.9198" lon="6.4991">
        <ele>1760.175</ele>
        <time>2024-12-11T11:24:38Z</time>
      </trkpt>
      <trkpt lat="45.91977" lon="6.49909">
        <ele>1760.805</ele>
        <time>2024-12-11T11:24:43Z</time>
      </trkpt>
      <trkpt lat="45.91976" lon="6.49908">
        <ele>1761.89</ele>
        <time>2024-12-11T11:24:48Z</time>
      </trkpt>
      <trkpt lat="45.91973" lon="6.49908">
        <ele>1761.536</ele>
        <time>2024-12-11T11:24:53Z</time>
      </trkpt>
      <trkpt lat="45.91972" lon="6.49909">
        <ele>1762.127</ele>
        <time>2024-12-11T11:24:58Z</time>
      </trkpt>
      <trkpt lat="45.9197" lon="6.49909">
        <ele>1762.151</ele>
        <time>2024-12-11T11:25:03Z</time>
      </trkpt>
      <trkpt lat="45.91968" lon="6.4991">
        <ele>1762.727</ele>
        <time>2024-12-11T11:25:08Z</time>
      </trkpt>
      <trkpt lat="45.91966" lon="6.49911">
        <ele>1763.414</ele>
        <time>2024-12-11T11:25:13Z</time>
      </trkpt>
      <trkpt lat="45.91965" lon="6.49912">
        <ele>1764.393</ele>
        <time>2024-12-11T11:25:18Z</time>
      </trkpt>
      <trkpt lat="45.91963" lon="6.49912">
        <ele>1764.351</ele>
        <time>2024-12-11T11:25:23Z</time>
      </trkpt>
      <trkpt lat="45.91961" lon="6.49914">
        <ele>1765.387</ele>
        <time>2024-12-11T11:25:28Z</time>
      </trkpt>
      <trkpt lat="45.91961" lon="6.49918">
        <ele>1765.302</ele>
        <time>2024-12-11T11:25:33Z</time>
      </trkpt>
      <trkpt lat="45.91962" lon="6.49922">
        <ele>1765.283</ele>
        <time>2024-12-11T11:25:38Z</time>
      </trkpt>
      <trkpt lat="45.91963" lon="6.49924">
        <ele>1766.479</ele>
        <time>2024-12-11T11:25:43Z</time>
      </trkpt>
      <trkpt lat="45.91964" lon="6.49926">
        <ele>1767.325</ele>
        <time>2024-12-11T11:25:48Z</time>
      </trkpt>
      <trkpt lat="45.91964" lon="6.49928">
        <ele>1768.012</ele>
        <time>2024-12-11T11:25:53Z</time>
      </trkpt>
      <trkpt lat="45.91964" lon="6.49931">
        <ele>1768.772</ele>
        <time>2024-12-11T11:25:58Z</time>
      </trkpt>
      <trkpt lat="45.91964" lon="6.49934">
        <ele>1770.131</ele>
        <time>2024-12-11T11:26:03Z</time>
      </trkpt>
      <trkpt lat="45.91965" lon="6.49936">
        <ele>1769.387</ele>
        <time>2024-12-11T11:26:08Z</time>
      </trkpt>
      <trkpt lat="45.91964" lon="6.49936">
        <ele>1769.435</ele>
        <time>2024-12-11T11:26:13Z</time>
      </trkpt>
      <trkpt lat="45.91961" lon="6.49937">
        <ele>1770.441</ele>
        <time>2024-12-11T11:26:18Z</time>
      </trkpt>
      <trkpt lat="45.91959" lon="6.4994">
        <ele>1771.681</ele>
        <time>2024-12-11T11:26:23Z</time>
      </trkpt>
      <trkpt lat="45.91958" lon="6.49941">
        <ele>1772.284</ele>
        <time>2024-12-11T11:26:28Z</time>
      </trkpt>
      <trkpt lat="45.91956" lon="6.49943">
        <ele>1772.857</ele>
        <time>2024-12-11T11:26:33Z</time>
      </trkpt>
      <trkpt lat="45.91954" lon="6.49943">
        <ele>1773.532</ele>
        <time>2024-12-11T11:26:38Z</time>
      </trkpt>
      <trkpt lat="45.91952" lon="6.49942">
        <ele>1773.905</ele>
        <time>2024-12-11T11:26:43Z</time>
      </trkpt>
      <trkpt lat="45.91951" lon="6.49941">
        <ele>1774.949</ele>
        <time>2024-12-11T11:26:48Z</time>
      </trkpt>
      <trkpt lat="45.91951" lon="6.49941">
        <ele>1775.624</ele>
        <time>2024-12-11T11:26:53Z</time>
      </trkpt>
      <trkpt lat="45.91951" lon="6.49941">
        <ele>1778.131</ele>
        <time>2024-12-11T11:26:58Z</time>
      </trkpt>
      <trkpt lat="45.91951" lon="6.49941">
        <ele>1779.743</ele>
        <time>2024-12-11T11:27:03Z</time>
      </trkpt>
      <trkpt lat="45.91951" lon="6.49941">
        <ele>1782.078</ele>
        <time>2024-12-11T11:27:08Z</time>
      </trkpt>
      <trkpt lat="45.91951" lon="6.49941">
        <ele>1781.515</ele>
        <time>2024-12-11T11:27:13Z</time>
      </trkpt>
      <trkpt lat="45.91951" lon="6.49941">
        <ele>1782.127</ele>
        <time>2024-12-11T11:27:18Z</time>
      </trkpt>
      <trkpt lat="45.91951" lon="6.49941">
        <ele>1781.981</ele>
        <time>2024-12-11T11:27:23Z</time>
      </trkpt>
      <trkpt lat="45.91951" lon="6.49941">
        <ele>1780.282</ele>
        <time>2024-12-11T11:27:28Z</time>
      </trkpt>
      <trkpt lat="45.91951" lon="6.49941">
        <ele>1780.704</ele>
        <time>2024-12-11T11:27:33Z</time>
      </trkpt>
      <trkpt lat="45.9195" lon="6.49956">
        <ele>1780.202</ele>
        <time>2024-12-11T11:27:38Z</time>
      </trkpt>
      <trkpt lat="45.91948" lon="6.49957">
        <ele>1780.915</ele>
        <time>2024-12-11T11:27:43Z</time>
      </trkpt>
      <trkpt lat="45.91945" lon="6.49957">
        <ele>1781.18</ele>
        <time>2024-12-11T11:27:48Z</time>
      </trkpt>
      <trkpt lat="45.91945" lon="6.49958">
        <ele>1781.867</ele>
        <time>2024-12-11T11:27:53Z</time>
      </trkpt>
      <trkpt lat="45.91947" lon="6.49963">
        <ele>1783.508</ele>
        <time>2024-12-11T11:27:58Z</time>
      </trkpt>
      <trkpt lat="45.91947" lon="6.49964">
        <ele>1785.693</ele>
        <time>2024-12-11T11:28:03Z</time>
      </trkpt>
      <trkpt lat="45.91948" lon="6.49966">
        <ele>1786.204</ele>
        <time>2024-12-11T11:28:08Z</time>
      </trkpt>
      <trkpt lat="45.91948" lon="6.49969">
        <ele>1786.711</ele>
        <time>2024-12-11T11:28:13Z</time>
      </trkpt>
      <trkpt lat="45.91949" lon="6.49971">
        <ele>1786.774</ele>
        <time>2024-12-11T11:28:18Z</time>
      </trkpt>
      <trkpt lat="45.9195" lon="6.49974">
        <ele>1788.992</ele>
        <time>2024-12-11T11:28:23Z</time>
      </trkpt>
      <trkpt lat="45.9195" lon="6.49975">
        <ele>1789.199</ele>
        <time>2024-12-11T11:28:28Z</time>
      </trkpt>
      <trkpt lat="45.9195" lon="6.49977">
        <ele>1789.698</ele>
        <time>2024-12-11T11:28:33Z</time>
      </trkpt>
      <trkpt lat="45.91949" lon="6.49977">
        <ele>1788.726</ele>
        <time>2024-12-11T11:28:38Z</time>
      </trkpt>
      <trkpt lat="45.91947" lon="6.49978">
        <ele>1788.584</ele>
        <time>2024-12-11T11:28:43Z</time>
      </trkpt>
      <trkpt lat="45.91945" lon="6.49978">
        <ele>1788.431</ele>
        <time>2024-12-11T11:28:48Z</time>
      </trkpt>
      <trkpt lat="45.91943" lon="6.49978">
        <ele>1789.251</ele>
        <time>2024-12-11T11:28:53Z</time>
      </trkpt>
      <trkpt lat="45.91941" lon="6.49979">
        <ele>1789.653</ele>
        <time>2024-12-11T11:28:58Z</time>
      </trkpt>
      <trkpt lat="45.91939" lon="6.49978">
        <ele>1789.483</ele>
        <time>2024-12-11T11:29:03Z</time>
      </trkpt>
      <trkpt lat="45.91937" lon="6.49976">
        <ele>1790.187</ele>
        <time>2024-12-11T11:29:08Z</time>
      </trkpt>
      <trkpt lat="45.91935" lon="6.49977">
        <ele>1790.798</ele>
        <time>2024-12-11T11:29:13Z</time>
      </trkpt>
      <trkpt lat="45.91933" lon="6.49976">
        <ele>1791.841</ele>
        <time>2024-12-11T11:29:18Z</time>
      </trkpt>
      <trkpt lat="45.91931" lon="6.49975">
        <ele>1792.4</ele>
        <time>2024-12-11T11:29:23Z</time>
      </trkpt>
      <trkpt lat="45.9193" lon="6.49974">
        <ele>1793.975</ele>
        <time>2024-12-11T11:29:28Z</time>
      </trkpt>
      <trkpt lat="45.91929" lon="6.49972">
        <ele>1794.679</ele>
        <time>2024-12-11T11:29:33Z</time>
      </trkpt>
      <trkpt lat="45.91926" lon="6.49971">
        <ele>1795.637</ele>
        <time>2024-12-11T11:29:38Z</time>
      </trkpt>
      <trkpt lat="45.91924" lon="6.49969">
        <ele>1795.876</ele>
        <time>2024-12-11T11:29:43Z</time>
      </trkpt>
      <trkpt lat="45.91921" lon="6.49969">
        <ele>1797.031</ele>
        <time>2024-12-11T11:29:48Z</time>
      </trkpt>
      <trkpt lat="45.91921" lon="6.49969">
        <ele>1797.224</ele>
        <time>2024-12-11T11:29:53Z</time>
      </trkpt>
      <trkpt lat="45.91921" lon="6.49969">
        <ele>1797.479</ele>
        <time>2024-12-11T11:29:58Z</time>
      </trkpt>
      <trkpt lat="45.91921" lon="6.49969">
        <ele>1798.986</ele>
        <time>2024-12-11T11:30:03Z</time>
      </trkpt>
      <trkpt lat="45.91921" lon="6.49969">
        <ele>1799.639</ele>
        <time>2024-12-11T11:30:08Z</time>
      </trkpt>
      <trkpt lat="45.91921" lon="6.49969">
        <ele>1799.597</ele>
        <time>2024-12-11T11:30:13Z</time>
      </trkpt>
      <trkpt lat="45.91921" lon="6.49969">
        <ele>1799.724</ele>
        <time>2024-12-11T11:30:18Z</time>
      </trkpt>
      <trkpt lat="45.91921" lon="6.49969">
        <ele>1798.827</ele>
        <time>2024-12-11T11:30:23Z</time>
      </trkpt>
      <trkpt lat="45.91921" lon="6.49969">
        <ele>1799.444</ele>
        <time>2024-12-11T11:30:28Z</time>
      </trkpt>
      <trkpt lat="45.91921" lon="6.49969">
        <ele>1799.789</ele>
        <time>2024-12-11T11:30:33Z</time>
      </trkpt>
      <trkpt lat="45.91921" lon="6.49969">
        <ele>1800.58</ele>
        <time>2024-12-11T11:30:38Z</time>
      </trkpt>
      <trkpt lat="45.91921" lon="6.49969">
        <ele>1801.265</ele>
        <time>2024-12-11T11:30:43Z</time>
      </trkpt>
      <trkpt lat="45.91921" lon="6.49969">
        <ele>1801.599</ele>
        <time>2024-12-11T11:30:48Z</time>
      </trkpt>
      <trkpt lat="45.91911" lon="6.49975">
        <ele>1803.516</ele>
        <time>2024-12-11T11:30:53Z</time>
      </trkpt>
      <trkpt lat="45.91911" lon="6.49978">
        <ele>1804.268</ele>
        <time>2024-12-11T11:30:58Z</time>
      </trkpt>
      <trkpt lat="45.91912" lon="6.4998">
        <ele>1806.364</ele>
        <time>2024-12-11T11:31:03Z</time>
      </trkpt>
      <trkpt lat="45.91913" lon="6.49982">
        <ele>1807.721</ele>
        <time>2024-12-11T11:31:08Z</time>
      </trkpt>
      <trkpt lat="45.91914" lon="6.49984">
        <ele>1808.557</ele>
        <time>2024-12-11T11:31:13Z</time>
      </trkpt>
      <trkpt lat="45.91914" lon="6.49986">
        <ele>1810.017</ele>
        <time>2024-12-11T11:31:18Z</time>
      </trkpt>
      <trkpt lat="45.91914" lon="6.49988">
        <ele>1811.051</ele>
        <time>2024-12-11T11:31:23Z</time>
      </trkpt>
      <trkpt lat="45.91916" lon="6.49991">
        <ele>1810.803</ele>
        <time>2024-12-11T11:31:28Z</time>
      </trkpt>
      <trkpt lat="45.91916" lon="6.49993">
        <ele>1811.321</ele>
        <time>2024-12-11T11:31:33Z</time>
      </trkpt>
      <trkpt lat="45.91916" lon="6.49993">
        <ele>1810.115</ele>
        <time>2024-12-11T11:31:38Z</time>
      </trkpt>
      <trkpt lat="45.91916" lon="6.49993">
        <ele>1809.608</ele>
        <time>2024-12-11T11:31:43Z</time>
      </trkpt>
      <trkpt lat="45.91916" lon="6.49993">
        <ele>1810.136</ele>
        <time>2024-12-11T11:31:48Z</time>
      </trkpt>
      <trkpt lat="45.91916" lon="6.49993">
        <ele>1810.666</ele>
        <time>2024-12-11T11:31:53Z</time>
      </trkpt>
      <trkpt lat="45.91916" lon="6.49993">
        <ele>1811.266</ele>
        <time>2024-12-11T11:31:58Z</time>
      </trkpt>
      <trkpt lat="45.91916" lon="6.49993">
        <ele>1811.986</ele>
        <time>2024-12-11T11:32:03Z</time>
      </trkpt>
      <trkpt lat="45.91916" lon="6.49993">
        <ele>1812.203</ele>
        <time>2024-12-11T11:32:08Z</time>
      </trkpt>
      <trkpt lat="45.91916" lon="6.49993">
        <ele>1811.807</ele>
        <time>2024-12-11T11:32:13Z</time>
      </trkpt>
      <trkpt lat="45.91916" lon="6.49993">
        <ele>1812.527</ele>
        <time>2024-12-11T11:32:18Z</time>
      </trkpt>
      <trkpt lat="45.91916" lon="6.49993">
        <ele>1812.136</ele>
        <time>2024-12-11T11:32:23Z</time>
      </trkpt>
      <trkpt lat="45.91909" lon="6.4999">
        <ele>1811.677</ele>
        <time>2024-12-11T11:32:28Z</time>
      </trkpt>
      <trkpt lat="45.91909" lon="6.49991">
        <ele>1811.451</ele>
        <time>2024-12-11T11:32:33Z</time>
      </trkpt>
      <trkpt lat="45.91909" lon="6.49991">
        <ele>1811.429</ele>
        <time>2024-12-11T11:32:38Z</time>
      </trkpt>
      <trkpt lat="45.91909" lon="6.49991">
        <ele>1811.23</ele>
        <time>2024-12-11T11:32:43Z</time>
      </trkpt>
      <trkpt lat="45.91908" lon="6.4999">
        <ele>1811.614</ele>
        <time>2024-12-11T11:32:48Z</time>
      </trkpt>
      <trkpt lat="45.91905" lon="6.49989">
        <ele>1811.814</ele>
        <time>2024-12-11T11:32:53Z</time>
      </trkpt>
      <trkpt lat="45.91903" lon="6.49988">
        <ele>1812.562</ele>
        <time>2024-12-11T11:32:58Z</time>
      </trkpt>
      <trkpt lat="45.91901" lon="6.49987">
        <ele>1813.463</ele>
        <time>2024-12-11T11:33:03Z</time>
      </trkpt>
      <trkpt lat="45.91898" lon="6.49985">
        <ele>1813.508</ele>
        <time>2024-12-11T11:33:08Z</time>
      </trkpt>
      <trkpt lat="45.91897" lon="6.49986">
        <ele>1813.753</ele>
        <time>2024-12-11T11:33:13Z</time>
      </trkpt>
      <trkpt lat="45.91897" lon="6.49986">
        <ele>1813.719</ele>
        <time>2024-12-11T11:33:18Z</time>
      </trkpt>
      <trkpt lat="45.91897" lon="6.49986">
        <ele>1814.16</ele>
        <time>2024-12-11T11:33:23Z</time>
      </trkpt>
      <trkpt lat="45.91897" lon="6.49986">
        <ele>1814.604</ele>
        <time>2024-12-11T11:33:28Z</time>
      </trkpt>
      <trkpt lat="45.91897" lon="6.49986">
        <ele>1815.5</ele>
        <time>2024-12-11T11:33:33Z</time>
      </trkpt>
      <trkpt lat="45.91895" lon="6.49989">
        <ele>1815.759</ele>
        <time>2024-12-11T11:33:38Z</time>
      </trkpt>
      <trkpt lat="45.91895" lon="6.49989">
        <ele>1815.768</ele>
        <time>2024-12-11T11:33:43Z</time>
      </trkpt>
      <trkpt lat="45.91895" lon="6.49989">
        <ele>1815.773</ele>
        <time>2024-12-11T11:33:48Z</time>
      </trkpt>
      <trkpt lat="45.91895" lon="6.4999">
        <ele>1815.541</ele>
        <time>2024-12-11T11:33:53Z</time>
      </trkpt>
      <trkpt lat="45.91895" lon="6.49996">
        <ele>1816.973</ele>
        <time>2024-12-11T11:33:58Z</time>
      </trkpt>
      <trkpt lat="45.91896" lon="6.49997">
        <ele>1818.285</ele>
        <time>2024-12-11T11:34:03Z</time>
      </trkpt>
      <trkpt lat="45.91897" lon="6.5">
        <ele>1819.985</ele>
        <time>2024-12-11T11:34:08Z</time>
      </trkpt>
      <trkpt lat="45.91898" lon="6.50003">
        <ele>1820.137</ele>
        <time>2024-12-11T11:34:13Z</time>
      </trkpt>
      <trkpt lat="45.91899" lon="6.50006">
        <ele>1821.74</ele>
        <time>2024-12-11T11:34:18Z</time>
      </trkpt>
      <trkpt lat="45.91901" lon="6.50008">
        <ele>1822.962</ele>
        <time>2024-12-11T11:34:23Z</time>
      </trkpt>
      <trkpt lat="45.91902" lon="6.5001">
        <ele>1822.401</ele>
        <time>2024-12-11T11:34:28Z</time>
      </trkpt>
      <trkpt lat="45.919" lon="6.50009">
        <ele>1822.735</ele>
        <time>2024-12-11T11:34:33Z</time>
      </trkpt>
      <trkpt lat="45.91898" lon="6.50008">
        <ele>1822.664</ele>
        <time>2024-12-11T11:34:38Z</time>
      </trkpt>
      <trkpt lat="45.91896" lon="6.50006">
        <ele>1823.141</ele>
        <time>2024-12-11T11:34:43Z</time>
      </trkpt>
      <trkpt lat="45.91893" lon="6.50005">
        <ele>1822.749</ele>
        <time>2024-12-11T11:34:48Z</time>
      </trkpt>
      <trkpt lat="45.91891" lon="6.50005">
        <ele>1822.905</ele>
        <time>2024-12-11T11:34:53Z</time>
      </trkpt>
      <trkpt lat="45.91888" lon="6.50006">
        <ele>1823.027</ele>
        <time>2024-12-11T11:34:58Z</time>
      </trkpt>
      <trkpt lat="45.91886" lon="6.50006">
        <ele>1824.276</ele>
        <time>2024-12-11T11:35:03Z</time>
      </trkpt>
      <trkpt lat="45.91885" lon="6.50009">
        <ele>1824.753</ele>
        <time>2024-12-11T11:35:08Z</time>
      </trkpt>
      <trkpt lat="45.91887" lon="6.50011">
        <ele>1826.461</ele>
        <time>2024-12-11T11:35:13Z</time>
      </trkpt>
      <trkpt lat="45.91888" lon="6.50014">
        <ele>1826.713</ele>
        <time>2024-12-11T11:35:18Z</time>
      </trkpt>
      <trkpt lat="45.91889" lon="6.50017">
        <ele>1828.074</ele>
        <time>2024-12-11T11:35:23Z</time>
      </trkpt>
      <trkpt lat="45.91889" lon="6.50019">
        <ele>1827.917</ele>
        <time>2024-12-11T11:35:28Z</time>
      </trkpt>
      <trkpt lat="45.9189" lon="6.50023">
        <ele>1828.066</ele>
        <time>2024-12-11T11:35:33Z</time>
      </trkpt>
      <trkpt lat="45.9189" lon="6.50023">
        <ele>1828.339</ele>
        <time>2024-12-11T11:35:38Z</time>
      </trkpt>
      <trkpt lat="45.91889" lon="6.50023">
        <ele>1828.374</ele>
        <time>2024-12-11T11:35:43Z</time>
      </trkpt>
      <trkpt lat="45.91887" lon="6.50022">
        <ele>1828.83</ele>
        <time>2024-12-11T11:35:48Z</time>
      </trkpt>
      <trkpt lat="45.91885" lon="6.50022">
        <ele>1829.314</ele>
        <time>2024-12-11T11:35:53Z</time>
      </trkpt>
      <trkpt lat="45.91882" lon="6.50023">
        <ele>1829.569</ele>
        <time>2024-12-11T11:35:58Z</time>
      </trkpt>
      <trkpt lat="45.9188" lon="6.50023">
        <ele>1830.164</ele>
        <time>2024-12-11T11:36:03Z</time>
      </trkpt>
      <trkpt lat="45.91878" lon="6.50024">
        <ele>1830.386</ele>
        <time>2024-12-11T11:36:08Z</time>
      </trkpt>
      <trkpt lat="45.91875" lon="6.50023">
        <ele>1830.773</ele>
        <time>2024-12-11T11:36:13Z</time>
      </trkpt>
      <trkpt lat="45.91873" lon="6.50023">
        <ele>1831.698</ele>
        <time>2024-12-11T11:36:18Z</time>
      </trkpt>
      <trkpt lat="45.91871" lon="6.50023">
        <ele>1832.738</ele>
        <time>2024-12-11T11:36:23Z</time>
      </trkpt>
      <trkpt lat="45.91871" lon="6.50023">
        <ele>1832.555</ele>
        <time>2024-12-11T11:36:28Z</time>
      </trkpt>
      <trkpt lat="45.91871" lon="6.50023">
        <ele>1832.55</ele>
        <time>2024-12-11T11:36:33Z</time>
      </trkpt>
      <trkpt lat="45.9187" lon="6.50024">
        <ele>1833.246</ele>
        <time>2024-12-11T11:36:38Z</time>
      </trkpt>
      <trkpt lat="45.91873" lon="6.50028">
        <ele>1834.513</ele>
        <time>2024-12-11T11:36:44Z</time>
      </trkpt>
      <trkpt lat="45.91874" lon="6.5003">
        <ele>1834.393</ele>
        <time>2024-12-11T11:36:49Z</time>
      </trkpt>
      <trkpt lat="45.91875" lon="6.50032">
        <ele>1835.324</ele>
        <time>2024-12-11T11:36:54Z</time>
      </trkpt>
      <trkpt lat="45.91875" lon="6.50035">
        <ele>1837.125</ele>
        <time>2024-12-11T11:36:59Z</time>
      </trkpt>
      <trkpt lat="45.91875" lon="6.50037">
        <ele>1838.607</ele>
        <time>2024-12-11T11:37:04Z</time>
      </trkpt>
      <trkpt lat="45.91875" lon="6.50038">
        <ele>1838.893</ele>
        <time>2024-12-11T11:37:09Z</time>
      </trkpt>
      <trkpt lat="45.91875" lon="6.50039">
        <ele>1839.57</ele>
        <time>2024-12-11T11:37:14Z</time>
      </trkpt>
      <trkpt lat="45.91875" lon="6.50039">
        <ele>1838.489</ele>
        <time>2024-12-11T11:37:19Z</time>
      </trkpt>
      <trkpt lat="45.91875" lon="6.50042">
        <ele>1839.227</ele>
        <time>2024-12-11T11:37:24Z</time>
      </trkpt>
      <trkpt lat="45.91875" lon="6.50045">
        <ele>1841.582</ele>
        <time>2024-12-11T11:37:29Z</time>
      </trkpt>
      <trkpt lat="45.91876" lon="6.50046">
        <ele>1842.628</ele>
        <time>2024-12-11T11:37:34Z</time>
      </trkpt>
      <trkpt lat="45.91877" lon="6.5005">
        <ele>1843.429</ele>
        <time>2024-12-11T11:37:39Z</time>
      </trkpt>
      <trkpt lat="45.91878" lon="6.50052">
        <ele>1842.867</ele>
        <time>2024-12-11T11:37:44Z</time>
      </trkpt>
      <trkpt lat="45.91879" lon="6.50055">
        <ele>1843.535</ele>
        <time>2024-12-11T11:37:49Z</time>
      </trkpt>
      <trkpt lat="45.91879" lon="6.50058">
        <ele>1845.178</ele>
        <time>2024-12-11T11:37:54Z</time>
      </trkpt>
      <trkpt lat="45.91879" lon="6.5006">
        <ele>1845.647</ele>
        <time>2024-12-11T11:37:59Z</time>
      </trkpt>
      <trkpt lat="45.91881" lon="6.50063">
        <ele>1846.918</ele>
        <time>2024-12-11T11:38:04Z</time>
      </trkpt>
      <trkpt lat="45.91883" lon="6.50066">
        <ele>1848.031</ele>
        <time>2024-12-11T11:38:09Z</time>
      </trkpt>
      <trkpt lat="45.91884" lon="6.50068">
        <ele>1848.273</ele>
        <time>2024-12-11T11:38:14Z</time>
      </trkpt>
      <trkpt lat="45.91884" lon="6.50071">
        <ele>1849.92</ele>
        <time>2024-12-11T11:38:19Z</time>
      </trkpt>
      <trkpt lat="45.91885" lon="6.50073">
        <ele>1849.222</ele>
        <time>2024-12-11T11:38:24Z</time>
      </trkpt>
      <trkpt lat="45.91885" lon="6.50075">
        <ele>1849.282</ele>
        <time>2024-12-11T11:38:29Z</time>
      </trkpt>
      <trkpt lat="45.91885" lon="6.50077">
        <ele>1849.838</ele>
        <time>2024-12-11T11:38:34Z</time>
      </trkpt>
      <trkpt lat="45.91887" lon="6.50079">
        <ele>1853.363</ele>
        <time>2024-12-11T11:38:39Z</time>
      </trkpt>
      <trkpt lat="45.91888" lon="6.5008">
        <ele>1854.193</ele>
        <time>2024-12-11T11:38:44Z</time>
      </trkpt>
      <trkpt lat="45.91887" lon="6.5008">
        <ele>1853.537</ele>
        <time>2024-12-11T11:38:49Z</time>
      </trkpt>
      <trkpt lat="45.91886" lon="6.5008">
        <ele>1851.676</ele>
        <time>2024-12-11T11:38:54Z</time>
      </trkpt>
      <trkpt lat="45.91884" lon="6.50079">
        <ele>1851.255</ele>
        <time>2024-12-11T11:38:59Z</time>
      </trkpt>
      <trkpt lat="45.91882" lon="6.50079">
        <ele>1851.657</ele>
        <time>2024-12-11T11:39:04Z</time>
      </trkpt>
      <trkpt lat="45.9188" lon="6.50079">
        <ele>1852.55</ele>
        <time>2024-12-11T11:39:09Z</time>
      </trkpt>
      <trkpt lat="45.91878" lon="6.50077">
        <ele>1853.114</ele>
        <time>2024-12-11T11:39:14Z</time>
      </trkpt>
      <trkpt lat="45.91876" lon="6.50077">
        <ele>1853.202</ele>
        <time>2024-12-11T11:39:19Z</time>
      </trkpt>
      <trkpt lat="45.91876" lon="6.50078">
        <ele>1853.396</ele>
        <time>2024-12-11T11:39:24Z</time>
      </trkpt>
      <trkpt lat="45.91878" lon="6.50081">
        <ele>1856.166</ele>
        <time>2024-12-11T11:39:29Z</time>
      </trkpt>
      <trkpt lat="45.91879" lon="6.50083">
        <ele>1857.46</ele>
        <time>2024-12-11T11:39:34Z</time>
      </trkpt>
      <trkpt lat="45.9188" lon="6.50085">
        <ele>1859.176</ele>
        <time>2024-12-11T11:39:39Z</time>
      </trkpt>
      <trkpt lat="45.9188" lon="6.50086">
        <ele>1858.758</ele>
        <time>2024-12-11T11:39:44Z</time>
      </trkpt>
      <trkpt lat="45.91878" lon="6.50086">
        <ele>1855.617</ele>
        <time>2024-12-11T11:39:49Z</time>
      </trkpt>
      <trkpt lat="45.91876" lon="6.50088">
        <ele>1855.865</ele>
        <time>2024-12-11T11:39:54Z</time>
      </trkpt>
      <trkpt lat="45.91875" lon="6.50088">
        <ele>1857.443</ele>
        <time>2024-12-11T11:39:59Z</time>
      </trkpt>
      <trkpt lat="45.91874" lon="6.50088">
        <ele>1858.072</ele>
        <time>2024-12-11T11:40:04Z</time>
      </trkpt>
      <trkpt lat="45.91873" lon="6.50089">
        <ele>1858.329</ele>
        <time>2024-12-11T11:40:09Z</time>
      </trkpt>
      <trkpt lat="45.91873" lon="6.50089">
        <ele>1858.367</ele>
        <time>2024-12-11T11:40:14Z</time>
      </trkpt>
      <trkpt lat="45.91871" lon="6.50089">
        <ele>1859.574</ele>
        <time>2024-12-11T11:40:19Z</time>
      </trkpt>
      <trkpt lat="45.91869" lon="6.5009">
        <ele>1860.487</ele>
        <time>2024-12-11T11:40:25Z</time>
      </trkpt>
      <trkpt lat="45.91867" lon="6.5009">
        <ele>1860.801</ele>
        <time>2024-12-11T11:40:30Z</time>
      </trkpt>
      <trkpt lat="45.91865" lon="6.5009">
        <ele>1861.321</ele>
        <time>2024-12-11T11:40:35Z</time>
      </trkpt>
      <trkpt lat="45.91862" lon="6.5009">
        <ele>1861.219</ele>
        <time>2024-12-11T11:40:40Z</time>
      </trkpt>
      <trkpt lat="45.91861" lon="6.50091">
        <ele>1862.221</ele>
        <time>2024-12-11T11:40:45Z</time>
      </trkpt>
      <trkpt lat="45.91861" lon="6.50091">
        <ele>1862.782</ele>
        <time>2024-12-11T11:40:50Z</time>
      </trkpt>
      <trkpt lat="45.91861" lon="6.50091">
        <ele>1864.576</ele>
        <time>2024-12-11T11:40:55Z</time>
      </trkpt>
      <trkpt lat="45.91861" lon="6.50091">
        <ele>1864.738</ele>
        <time>2024-12-11T11:41:00Z</time>
      </trkpt>
      <trkpt lat="45.91861" lon="6.50091">
        <ele>1865.844</ele>
        <time>2024-12-11T11:41:05Z</time>
      </trkpt>
      <trkpt lat="45.91861" lon="6.50091">
        <ele>1866.544</ele>
        <time>2024-12-11T11:41:10Z</time>
      </trkpt>
      <trkpt lat="45.91861" lon="6.50091">
        <ele>1866.52</ele>
        <time>2024-12-11T11:41:15Z</time>
      </trkpt>
      <trkpt lat="45.91861" lon="6.50091">
        <ele>1866.387</ele>
        <time>2024-12-11T11:41:20Z</time>
      </trkpt>
      <trkpt lat="45.91858" lon="6.50101">
        <ele>1866.649</ele>
        <time>2024-12-11T11:41:25Z</time>
      </trkpt>
      <trkpt lat="45.91856" lon="6.50101">
        <ele>1867.291</ele>
        <time>2024-12-11T11:41:30Z</time>
      </trkpt>
      <trkpt lat="45.91854" lon="6.501">
        <ele>1867.982</ele>
        <time>2024-12-11T11:41:35Z</time>
      </trkpt>
      <trkpt lat="45.91852" lon="6.501">
        <ele>1868.534</ele>
        <time>2024-12-11T11:41:40Z</time>
      </trkpt>
      <trkpt lat="45.9185" lon="6.50099">
        <ele>1868.824</ele>
        <time>2024-12-11T11:41:45Z</time>
      </trkpt>
      <trkpt lat="45.91849" lon="6.501">
        <ele>1869.55</ele>
        <time>2024-12-11T11:41:50Z</time>
      </trkpt>
      <trkpt lat="45.91847" lon="6.50099">
        <ele>1870.326</ele>
        <time>2024-12-11T11:41:55Z</time>
      </trkpt>
      <trkpt lat="45.91846" lon="6.50099">
        <ele>1870.704</ele>
        <time>2024-12-11T11:42:00Z</time>
      </trkpt>
      <trkpt lat="45.91844" lon="6.50099">
        <ele>1872.316</ele>
        <time>2024-12-11T11:42:05Z</time>
      </trkpt>
      <trkpt lat="45.91842" lon="6.501">
        <ele>1873.249</ele>
        <time>2024-12-11T11:42:10Z</time>
      </trkpt>
      <trkpt lat="45.91842" lon="6.50101">
        <ele>1874.743</ele>
        <time>2024-12-11T11:42:15Z</time>
      </trkpt>
      <trkpt lat="45.91842" lon="6.50103">
        <ele>1875.548</ele>
        <time>2024-12-11T11:42:20Z</time>
      </trkpt>
      <trkpt lat="45.91843" lon="6.50106">
        <ele>1875.991</ele>
        <time>2024-12-11T11:42:25Z</time>
      </trkpt>
      <trkpt lat="45.91844" lon="6.50108">
        <ele>1877.539</ele>
        <time>2024-12-11T11:42:30Z</time>
      </trkpt>
      <trkpt lat="45.91844" lon="6.50109">
        <ele>1879.892</ele>
        <time>2024-12-11T11:42:35Z</time>
      </trkpt>
      <trkpt lat="45.91845" lon="6.50111">
        <ele>1880.159</ele>
        <time>2024-12-11T11:42:40Z</time>
      </trkpt>
      <trkpt lat="45.91845" lon="6.50114">
        <ele>1880.921</ele>
        <time>2024-12-11T11:42:45Z</time>
      </trkpt>
      <trkpt lat="45.91846" lon="6.50116">
        <ele>1880.822</ele>
        <time>2024-12-11T11:42:50Z</time>
      </trkpt>
      <trkpt lat="45.91846" lon="6.50118">
        <ele>1881.944</ele>
        <time>2024-12-11T11:42:55Z</time>
      </trkpt>
      <trkpt lat="45.91847" lon="6.5012">
        <ele>1882.18</ele>
        <time>2024-12-11T11:43:00Z</time>
      </trkpt>
      <trkpt lat="45.91847" lon="6.50122">
        <ele>1882.66</ele>
        <time>2024-12-11T11:43:05Z</time>
      </trkpt>
      <trkpt lat="45.91848" lon="6.50124">
        <ele>1883.973</ele>
        <time>2024-12-11T11:43:10Z</time>
      </trkpt>
      <trkpt lat="45.9185" lon="6.50126">
        <ele>1884.797</ele>
        <time>2024-12-11T11:43:15Z</time>
      </trkpt>
      <trkpt lat="45.9185" lon="6.50128">
        <ele>1883.865</ele>
        <time>2024-12-11T11:43:20Z</time>
      </trkpt>
      <trkpt lat="45.91851" lon="6.5013">
        <ele>1885.432</ele>
        <time>2024-12-11T11:43:25Z</time>
      </trkpt>
      <trkpt lat="45.91852" lon="6.50132">
        <ele>1883.639</ele>
        <time>2024-12-11T11:43:30Z</time>
      </trkpt>
      <trkpt lat="45.91853" lon="6.50135">
        <ele>1883.583</ele>
        <time>2024-12-11T11:43:35Z</time>
      </trkpt>
      <trkpt lat="45.91854" lon="6.50137">
        <ele>1885.583</ele>
        <time>2024-12-11T11:43:40Z</time>
      </trkpt>
      <trkpt lat="45.91854" lon="6.50137">
        <ele>1885.923</ele>
        <time>2024-12-11T11:43:45Z</time>
      </trkpt>
      <trkpt lat="45.91855" lon="6.50139">
        <ele>1887.349</ele>
        <time>2024-12-11T11:43:50Z</time>
      </trkpt>
      <trkpt lat="45.91856" lon="6.50141">
        <ele>1888.312</ele>
        <time>2024-12-11T11:43:55Z</time>
      </trkpt>
      <trkpt lat="45.91857" lon="6.50143">
        <ele>1890.258</ele>
        <time>2024-12-11T11:44:00Z</time>
      </trkpt>
      <trkpt lat="45.91858" lon="6.50145">
        <ele>1890.895</ele>
        <time>2024-12-11T11:44:05Z</time>
      </trkpt>
      <trkpt lat="45.91857" lon="6.50146">
        <ele>1891.701</ele>
        <time>2024-12-11T11:44:10Z</time>
      </trkpt>
      <trkpt lat="45.91855" lon="6.50146">
        <ele>1891.056</ele>
        <time>2024-12-11T11:44:15Z</time>
      </trkpt>
      <trkpt lat="45.91854" lon="6.50148">
        <ele>1891.147</ele>
        <time>2024-12-11T11:44:20Z</time>
      </trkpt>
      <trkpt lat="45.91852" lon="6.5015">
        <ele>1891.273</ele>
        <time>2024-12-11T11:44:25Z</time>
      </trkpt>
      <trkpt lat="45.9185" lon="6.50151">
        <ele>1892.165</ele>
        <time>2024-12-11T11:44:30Z</time>
      </trkpt>
      <trkpt lat="45.91848" lon="6.5015">
        <ele>1892.449</ele>
        <time>2024-12-11T11:44:35Z</time>
      </trkpt>
      <trkpt lat="45.91847" lon="6.50151">
        <ele>1892.874</ele>
        <time>2024-12-11T11:44:40Z</time>
      </trkpt>
      <trkpt lat="45.91845" lon="6.50151">
        <ele>1893.193</ele>
        <time>2024-12-11T11:44:45Z</time>
      </trkpt>
      <trkpt lat="45.91843" lon="6.50151">
        <ele>1893.612</ele>
        <time>2024-12-11T11:44:50Z</time>
      </trkpt>
      <trkpt lat="45.91841" lon="6.5015">
        <ele>1893.896</ele>
        <time>2024-12-11T11:44:55Z</time>
      </trkpt>
      <trkpt lat="45.9184" lon="6.50149">
        <ele>1894.129</ele>
        <time>2024-12-11T11:45:00Z</time>
      </trkpt>
      <trkpt lat="45.91837" lon="6.50148">
        <ele>1894.124</ele>
        <time>2024-12-11T11:45:05Z</time>
      </trkpt>
      <trkpt lat="45.91837" lon="6.50148">
        <ele>1895.085</ele>
        <time>2024-12-11T11:45:10Z</time>
      </trkpt>
      <trkpt lat="45.91837" lon="6.50151">
        <ele>1897.048</ele>
        <time>2024-12-11T11:45:15Z</time>
      </trkpt>
      <trkpt lat="45.91837" lon="6.50154">
        <ele>1898.218</ele>
        <time>2024-12-11T11:45:20Z</time>
      </trkpt>
      <trkpt lat="45.91838" lon="6.50156">
        <ele>1898.146</ele>
        <time>2024-12-11T11:45:25Z</time>
      </trkpt>
      <trkpt lat="45.91839" lon="6.50159">
        <ele>1898.753</ele>
        <time>2024-12-11T11:45:30Z</time>
      </trkpt>
      <trkpt lat="45.9184" lon="6.50161">
        <ele>1900.517</ele>
        <time>2024-12-11T11:45:35Z</time>
      </trkpt>
      <trkpt lat="45.91842" lon="6.50164">
        <ele>1901.314</ele>
        <time>2024-12-11T11:45:40Z</time>
      </trkpt>
      <trkpt lat="45.91842" lon="6.50166">
        <ele>1902.623</ele>
        <time>2024-12-11T11:45:45Z</time>
      </trkpt>
      <trkpt lat="45.91844" lon="6.50168">
        <ele>1903.268</ele>
        <time>2024-12-11T11:45:50Z</time>
      </trkpt>
      <trkpt lat="45.91845" lon="6.5017">
        <ele>1904.61</ele>
        <time>2024-12-11T11:45:55Z</time>
      </trkpt>
      <trkpt lat="45.91846" lon="6.50172">
        <ele>1906.065</ele>
        <time>2024-12-11T11:46:00Z</time>
      </trkpt>
      <trkpt lat="45.91847" lon="6.50173">
        <ele>1906.566</ele>
        <time>2024-12-11T11:46:05Z</time>
      </trkpt>
      <trkpt lat="45.91848" lon="6.50176">
        <ele>1907.671</ele>
        <time>2024-12-11T11:46:10Z</time>
      </trkpt>
      <trkpt lat="45.91849" lon="6.50178">
        <ele>1907.713</ele>
        <time>2024-12-11T11:46:15Z</time>
      </trkpt>
      <trkpt lat="45.9185" lon="6.5018">
        <ele>1908.776</ele>
        <time>2024-12-11T11:46:20Z</time>
      </trkpt>
      <trkpt lat="45.9185" lon="6.5018">
        <ele>1908.396</ele>
        <time>2024-12-11T11:46:25Z</time>
      </trkpt>
      <trkpt lat="45.9185" lon="6.5018">
        <ele>1908.365</ele>
        <time>2024-12-11T11:46:30Z</time>
      </trkpt>
      <trkpt lat="45.9185" lon="6.50182">
        <ele>1907.992</ele>
        <time>2024-12-11T11:46:35Z</time>
      </trkpt>
      <trkpt lat="45.91848" lon="6.50183">
        <ele>1907.562</ele>
        <time>2024-12-11T11:46:40Z</time>
      </trkpt>
      <trkpt lat="45.91846" lon="6.50184">
        <ele>1906.986</ele>
        <time>2024-12-11T11:46:45Z</time>
      </trkpt>
      <trkpt lat="45.91845" lon="6.50184">
        <ele>1907.959</ele>
        <time>2024-12-11T11:46:50Z</time>
      </trkpt>
      <trkpt lat="45.91844" lon="6.50185">
        <ele>1907.777</ele>
        <time>2024-12-11T11:46:55Z</time>
      </trkpt>
      <trkpt lat="45.91842" lon="6.50186">
        <ele>1908.518</ele>
        <time>2024-12-11T11:47:00Z</time>
      </trkpt>
      <trkpt lat="45.91842" lon="6.50185">
        <ele>1908.913</ele>
        <time>2024-12-11T11:47:05Z</time>
      </trkpt>
      <trkpt lat="45.9184" lon="6.50184">
        <ele>1909.851</ele>
        <time>2024-12-11T11:47:10Z</time>
      </trkpt>
      <trkpt lat="45.91838" lon="6.50185">
        <ele>1910.058</ele>
        <time>2024-12-11T11:47:15Z</time>
      </trkpt>
      <trkpt lat="45.91836" lon="6.50184">
        <ele>1911.359</ele>
        <time>2024-12-11T11:47:20Z</time>
      </trkpt>
      <trkpt lat="45.91836" lon="6.50184">
        <ele>1911.139</ele>
        <time>2024-12-11T11:47:25Z</time>
      </trkpt>
      <trkpt lat="45.91836" lon="6.50184">
        <ele>1911.154</ele>
        <time>2024-12-11T11:47:30Z</time>
      </trkpt>
      <trkpt lat="45.91836" lon="6.50185">
        <ele>1911.878</ele>
        <time>2024-12-11T11:47:35Z</time>
      </trkpt>
      <trkpt lat="45.91836" lon="6.50187">
        <ele>1913.51</ele>
        <time>2024-12-11T11:47:40Z</time>
      </trkpt>
      <trkpt lat="45.91837" lon="6.50188">
        <ele>1914.718</ele>
        <time>2024-12-11T11:47:45Z</time>
      </trkpt>
      <trkpt lat="45.91837" lon="6.5019">
        <ele>1916.37</ele>
        <time>2024-12-11T11:47:50Z</time>
      </trkpt>
      <trkpt lat="45.91838" lon="6.50192">
        <ele>1917.167</ele>
        <time>2024-12-11T11:47:55Z</time>
      </trkpt>
      <trkpt lat="45.91838" lon="6.50194">
        <ele>1918.686</ele>
        <time>2024-12-11T11:48:00Z</time>
      </trkpt>
      <trkpt lat="45.91839" lon="6.50196">
        <ele>1919.995</ele>
        <time>2024-12-11T11:48:05Z</time>
      </trkpt>
      <trkpt lat="45.91839" lon="6.50198">
        <ele>1921.839</ele>
        <time>2024-12-11T11:48:10Z</time>
      </trkpt>
      <trkpt lat="45.91839" lon="6.50198">
        <ele>1921.84</ele>
        <time>2024-12-11T11:48:15Z</time>
      </trkpt>
      <trkpt lat="45.91839" lon="6.50198">
        <ele>1921.831</ele>
        <time>2024-12-11T11:48:20Z</time>
      </trkpt>
      <trkpt lat="45.91839" lon="6.50198">
        <ele>1921.818</ele>
        <time>2024-12-11T11:48:25Z</time>
      </trkpt>
      <trkpt lat="45.91839" lon="6.50198">
        <ele>1921.817</ele>
        <time>2024-12-11T11:48:30Z</time>
      </trkpt>
      <trkpt lat="45.91838" lon="6.50199">
        <ele>1921.087</ele>
        <time>2024-12-11T11:48:35Z</time>
      </trkpt>
      <trkpt lat="45.91837" lon="6.50199">
        <ele>1921.844</ele>
        <time>2024-12-11T11:48:40Z</time>
      </trkpt>
      <trkpt lat="45.91835" lon="6.50199">
        <ele>1922.167</ele>
        <time>2024-12-11T11:48:45Z</time>
      </trkpt>
      <trkpt lat="45.91833" lon="6.502">
        <ele>1921.731</ele>
        <time>2024-12-11T11:48:50Z</time>
      </trkpt>
      <trkpt lat="45.91831" lon="6.502">
        <ele>1921.995</ele>
        <time>2024-12-11T11:48:55Z</time>
      </trkpt>
      <trkpt lat="45.91829" lon="6.50199">
        <ele>1922.999</ele>
        <time>2024-12-11T11:49:00Z</time>
      </trkpt>
      <trkpt lat="45.91828" lon="6.50199">
        <ele>1923.409</ele>
        <time>2024-12-11T11:49:05Z</time>
      </trkpt>
      <trkpt lat="45.91826" lon="6.50199">
        <ele>1924.07</ele>
        <time>2024-12-11T11:49:10Z</time>
      </trkpt>
      <trkpt lat="45.91824" lon="6.50199">
        <ele>1924.741</ele>
        <time>2024-12-11T11:49:15Z</time>
      </trkpt>
      <trkpt lat="45.91823" lon="6.50199">
        <ele>1925.524</ele>
        <time>2024-12-11T11:49:20Z</time>
      </trkpt>
      <trkpt lat="45.91821" lon="6.50199">
        <ele>1925.801</ele>
        <time>2024-12-11T11:49:25Z</time>
      </trkpt>
      <trkpt lat="45.91819" lon="6.50199">
        <ele>1926.993</ele>
        <time>2024-12-11T11:49:30Z</time>
      </trkpt>
      <trkpt lat="45.91819" lon="6.502">
        <ele>1927.008</ele>
        <time>2024-12-11T11:49:35Z</time>
      </trkpt>
      <trkpt lat="45.91819" lon="6.502">
        <ele>1927.489</ele>
        <time>2024-12-11T11:49:40Z</time>
      </trkpt>
      <trkpt lat="45.91817" lon="6.502">
        <ele>1928.236</ele>
        <time>2024-12-11T11:49:45Z</time>
      </trkpt>
      <trkpt lat="45.91815" lon="6.50201">
        <ele>1928.861</ele>
        <time>2024-12-11T11:49:50Z</time>
      </trkpt>
      <trkpt lat="45.91812" lon="6.50201">
        <ele>1929.098</ele>
        <time>2024-12-11T11:49:55Z</time>
      </trkpt>
      <trkpt lat="45.9181" lon="6.502">
        <ele>1929.157</ele>
        <time>2024-12-11T11:50:00Z</time>
      </trkpt>
      <trkpt lat="45.91808" lon="6.50199">
        <ele>1929.99</ele>
        <time>2024-12-11T11:50:05Z</time>
      </trkpt>
      <trkpt lat="45.91807" lon="6.50197">
        <ele>1931.133</ele>
        <time>2024-12-11T11:50:10Z</time>
      </trkpt>
      <trkpt lat="45.91804" lon="6.50196">
        <ele>1930.973</ele>
        <time>2024-12-11T11:50:15Z</time>
      </trkpt>
      <trkpt lat="45.91802" lon="6.50196">
        <ele>1930.789</ele>
        <time>2024-12-11T11:50:20Z</time>
      </trkpt>
      <trkpt lat="45.918" lon="6.50195">
        <ele>1932.205</ele>
        <time>2024-12-11T11:50:25Z</time>
      </trkpt>
      <trkpt lat="45.91799" lon="6.50196">
        <ele>1933.507</ele>
        <time>2024-12-11T11:50:30Z</time>
      </trkpt>
      <trkpt lat="45.91797" lon="6.50195">
        <ele>1934.093</ele>
        <time>2024-12-11T11:50:35Z</time>
      </trkpt>
      <trkpt lat="45.91797" lon="6.50197">
        <ele>1933.905</ele>
        <time>2024-12-11T11:50:40Z</time>
      </trkpt>
      <trkpt lat="45.91797" lon="6.50198">
        <ele>1934.546</ele>
        <time>2024-12-11T11:50:45Z</time>
      </trkpt>
      <trkpt lat="45.91797" lon="6.50198">
        <ele>1934.422</ele>
        <time>2024-12-11T11:50:50Z</time>
      </trkpt>
      <trkpt lat="45.91798" lon="6.502">
        <ele>1934.781</ele>
        <time>2024-12-11T11:50:55Z</time>
      </trkpt>
      <trkpt lat="45.91799" lon="6.50202">
        <ele>1935.733</ele>
        <time>2024-12-11T11:51:00Z</time>
      </trkpt>
      <trkpt lat="45.91799" lon="6.50204">
        <ele>1937.716</ele>
        <time>2024-12-11T11:51:05Z</time>
      </trkpt>
      <trkpt lat="45.918" lon="6.50207">
        <ele>1938.579</ele>
        <time>2024-12-11T11:51:10Z</time>
      </trkpt>
      <trkpt lat="45.918" lon="6.5021">
        <ele>1938.436</ele>
        <time>2024-12-11T11:51:15Z</time>
      </trkpt>
      <trkpt lat="45.91801" lon="6.50212">
        <ele>1939.645</ele>
        <time>2024-12-11T11:51:20Z</time>
      </trkpt>
      <trkpt lat="45.91801" lon="6.50213">
        <ele>1940.434</ele>
        <time>2024-12-11T11:51:25Z</time>
      </trkpt>
      <trkpt lat="45.91801" lon="6.50215">
        <ele>1940.297</ele>
        <time>2024-12-11T11:51:30Z</time>
      </trkpt>
      <trkpt lat="45.91803" lon="6.50218">
        <ele>1941.891</ele>
        <time>2024-12-11T11:51:35Z</time>
      </trkpt>
      <trkpt lat="45.91803" lon="6.5022">
        <ele>1942.883</ele>
        <time>2024-12-11T11:51:40Z</time>
      </trkpt>
      <trkpt lat="45.91802" lon="6.5022">
        <ele>1942.9</ele>
        <time>2024-12-11T11:51:45Z</time>
      </trkpt>
      <trkpt lat="45.91802" lon="6.5022">
        <ele>1942.72</ele>
        <time>2024-12-11T11:51:50Z</time>
      </trkpt>
      <trkpt lat="45.91801" lon="6.5022">
        <ele>1942.451</ele>
        <time>2024-12-11T11:51:55Z</time>
      </trkpt>
      <trkpt lat="45.91801" lon="6.50221">
        <ele>1941.515</ele>
        <time>2024-12-11T11:52:00Z</time>
      </trkpt>
      <trkpt lat="45.91799" lon="6.50221">
        <ele>1941.312</ele>
        <time>2024-12-11T11:52:05Z</time>
      </trkpt>
      <trkpt lat="45.91797" lon="6.50222">
        <ele>1941.017</ele>
        <time>2024-12-11T11:52:10Z</time>
      </trkpt>
      <trkpt lat="45.91795" lon="6.50222">
        <ele>1941.854</ele>
        <time>2024-12-11T11:52:15Z</time>
      </trkpt>
      <trkpt lat="45.91793" lon="6.50222">
        <ele>1941.802</ele>
        <time>2024-12-11T11:52:20Z</time>
      </trkpt>
      <trkpt lat="45.91791" lon="6.50223">
        <ele>1942.741</ele>
        <time>2024-12-11T11:52:25Z</time>
      </trkpt>
      <trkpt lat="45.9179" lon="6.50223">
        <ele>1943.725</ele>
        <time>2024-12-11T11:52:30Z</time>
      </trkpt>
      <trkpt lat="45.91788" lon="6.50223">
        <ele>1944.159</ele>
        <time>2024-12-11T11:52:35Z</time>
      </trkpt>
      <trkpt lat="45.91789" lon="6.50223">
        <ele>1945.183</ele>
        <time>2024-12-11T11:52:40Z</time>
      </trkpt>
      <trkpt lat="45.9179" lon="6.50226">
        <ele>1945.217</ele>
        <time>2024-12-11T11:52:45Z</time>
      </trkpt>
      <trkpt lat="45.91791" lon="6.50228">
        <ele>1945.873</ele>
        <time>2024-12-11T11:52:50Z</time>
      </trkpt>
      <trkpt lat="45.91791" lon="6.5023">
        <ele>1946.563</ele>
        <time>2024-12-11T11:52:55Z</time>
      </trkpt>
      <trkpt lat="45.91793" lon="6.50233">
        <ele>1947.6</ele>
        <time>2024-12-11T11:53:00Z</time>
      </trkpt>
      <trkpt lat="45.91795" lon="6.50235">
        <ele>1948.339</ele>
        <time>2024-12-11T11:53:05Z</time>
      </trkpt>
      <trkpt lat="45.91797" lon="6.50237">
        <ele>1949.123</ele>
        <time>2024-12-11T11:53:10Z</time>
      </trkpt>
      <trkpt lat="45.91799" lon="6.5024">
        <ele>1949.915</ele>
        <time>2024-12-11T11:53:15Z</time>
      </trkpt>
      <trkpt lat="45.918" lon="6.50242">
        <ele>1950.417</ele>
        <time>2024-12-11T11:53:20Z</time>
      </trkpt>
      <trkpt lat="45.918" lon="6.50244">
        <ele>1951.503</ele>
        <time>2024-12-11T11:53:25Z</time>
      </trkpt>
      <trkpt lat="45.918" lon="6.50244">
        <ele>1952.751</ele>
        <time>2024-12-11T11:53:30Z</time>
      </trkpt>
      <trkpt lat="45.918" lon="6.50244">
        <ele>1953.196</ele>
        <time>2024-12-11T11:53:35Z</time>
      </trkpt>
      <trkpt lat="45.918" lon="6.50244">
        <ele>1955.121</ele>
        <time>2024-12-11T11:53:40Z</time>
      </trkpt>
      <trkpt lat="45.918" lon="6.50244">
        <ele>1956.306</ele>
        <time>2024-12-11T11:53:45Z</time>
      </trkpt>
      <trkpt lat="45.918" lon="6.50244">
        <ele>1955.985</ele>
        <time>2024-12-11T11:53:50Z</time>
      </trkpt>
      <trkpt lat="45.918" lon="6.50244">
        <ele>1955.92</ele>
        <time>2024-12-11T11:53:55Z</time>
      </trkpt>
      <trkpt lat="45.918" lon="6.50244">
        <ele>1955.586</ele>
        <time>2024-12-11T11:54:00Z</time>
      </trkpt>
      <trkpt lat="45.918" lon="6.5025">
        <ele>1956.168</ele>
        <time>2024-12-11T11:54:05Z</time>
      </trkpt>
      <trkpt lat="45.91799" lon="6.5025">
        <ele>1956.512</ele>
        <time>2024-12-11T11:54:10Z</time>
      </trkpt>
      <trkpt lat="45.91797" lon="6.50251">
        <ele>1957.031</ele>
        <time>2024-12-11T11:54:15Z</time>
      </trkpt>
      <trkpt lat="45.91794" lon="6.50251">
        <ele>1958.08</ele>
        <time>2024-12-11T11:54:20Z</time>
      </trkpt>
      <trkpt lat="45.91792" lon="6.50252">
        <ele>1957.668</ele>
        <time>2024-12-11T11:54:25Z</time>
      </trkpt>
      <trkpt lat="45.91789" lon="6.50253">
        <ele>1958.44</ele>
        <time>2024-12-11T11:54:30Z</time>
      </trkpt>
      <trkpt lat="45.91787" lon="6.50254">
        <ele>1958.889</ele>
        <time>2024-12-11T11:54:35Z</time>
      </trkpt>
      <trkpt lat="45.91785" lon="6.50253">
        <ele>1958.897</ele>
        <time>2024-12-11T11:54:40Z</time>
      </trkpt>
      <trkpt lat="45.91784" lon="6.50253">
        <ele>1959.169</ele>
        <time>2024-12-11T11:54:45Z</time>
      </trkpt>
      <trkpt lat="45.91782" lon="6.50254">
        <ele>1959.96</ele>
        <time>2024-12-11T11:54:50Z</time>
      </trkpt>
      <trkpt lat="45.9178" lon="6.50254">
        <ele>1960.851</ele>
        <time>2024-12-11T11:54:55Z</time>
      </trkpt>
      <trkpt lat="45.91779" lon="6.50255">
        <ele>1960.857</ele>
        <time>2024-12-11T11:55:00Z</time>
      </trkpt>
      <trkpt lat="45.9178" lon="6.50256">
        <ele>1961.295</ele>
        <time>2024-12-11T11:55:05Z</time>
      </trkpt>
      <trkpt lat="45.9178" lon="6.50257">
        <ele>1961.273</ele>
        <time>2024-12-11T11:55:10Z</time>
      </trkpt>
      <trkpt lat="45.9178" lon="6.50257">
        <ele>1961.294</ele>
        <time>2024-12-11T11:55:15Z</time>
      </trkpt>
      <trkpt lat="45.91781" lon="6.50258">
        <ele>1961.992</ele>
        <time>2024-12-11T11:55:20Z</time>
      </trkpt>
      <trkpt lat="45.91782" lon="6.50261">
        <ele>1963.617</ele>
        <time>2024-12-11T11:55:25Z</time>
      </trkpt>
      <trkpt lat="45.91783" lon="6.50264">
        <ele>1963.852</ele>
        <time>2024-12-11T11:55:30Z</time>
      </trkpt>
      <trkpt lat="45.91785" lon="6.50267">
        <ele>1963.574</ele>
        <time>2024-12-11T11:55:35Z</time>
      </trkpt>
      <trkpt lat="45.91785" lon="6.50269">
        <ele>1965.429</ele>
        <time>2024-12-11T11:55:40Z</time>
      </trkpt>
      <trkpt lat="45.91787" lon="6.50271">
        <ele>1965.754</ele>
        <time>2024-12-11T11:55:45Z</time>
      </trkpt>
      <trkpt lat="45.91789" lon="6.50272">
        <ele>1967.087</ele>
        <time>2024-12-11T11:55:50Z</time>
      </trkpt>
      <trkpt lat="45.9179" lon="6.50274">
        <ele>1967.394</ele>
        <time>2024-12-11T11:55:55Z</time>
      </trkpt>
      <trkpt lat="45.91791" lon="6.50276">
        <ele>1968.246</ele>
        <time>2024-12-11T11:56:00Z</time>
      </trkpt>
      <trkpt lat="45.91793" lon="6.50278">
        <ele>1968.702</ele>
        <time>2024-12-11T11:56:05Z</time>
      </trkpt>
      <trkpt lat="45.91793" lon="6.50278">
        <ele>1968.572</ele>
        <time>2024-12-11T11:56:10Z</time>
      </trkpt>
      <trkpt lat="45.91793" lon="6.50278">
        <ele>1968.946</ele>
        <time>2024-12-11T11:56:15Z</time>
      </trkpt>
      <trkpt lat="45.9179" lon="6.50279">
        <ele>1968.908</ele>
        <time>2024-12-11T11:56:20Z</time>
      </trkpt>
      <trkpt lat="45.91788" lon="6.50279">
        <ele>1969.821</ele>
        <time>2024-12-11T11:56:25Z</time>
      </trkpt>
      <trkpt lat="45.91785" lon="6.5028">
        <ele>1970.535</ele>
        <time>2024-12-11T11:56:30Z</time>
      </trkpt>
      <trkpt lat="45.91783" lon="6.50281">
        <ele>1971.482</ele>
        <time>2024-12-11T11:56:35Z</time>
      </trkpt>
      <trkpt lat="45.91783" lon="6.50281">
        <ele>1972.337</ele>
        <time>2024-12-11T11:56:40Z</time>
      </trkpt>
      <trkpt lat="45.91781" lon="6.50282">
        <ele>1972.048</ele>
        <time>2024-12-11T11:56:45Z</time>
      </trkpt>
      <trkpt lat="45.9178" lon="6.50283">
        <ele>1973.103</ele>
        <time>2024-12-11T11:56:50Z</time>
      </trkpt>
      <trkpt lat="45.91779" lon="6.50283">
        <ele>1973.775</ele>
        <time>2024-12-11T11:56:55Z</time>
      </trkpt>
      <trkpt lat="45.91777" lon="6.50283">
        <ele>1974.328</ele>
        <time>2024-12-11T11:57:00Z</time>
      </trkpt>
      <trkpt lat="45.91776" lon="6.50283">
        <ele>1975.032</ele>
        <time>2024-12-11T11:57:05Z</time>
      </trkpt>
      <trkpt lat="45.91774" lon="6.50284">
        <ele>1975.712</ele>
        <time>2024-12-11T11:57:10Z</time>
      </trkpt>
      <trkpt lat="45.91773" lon="6.50285">
        <ele>1976.194</ele>
        <time>2024-12-11T11:57:15Z</time>
      </trkpt>
      <trkpt lat="45.91772" lon="6.50285">
        <ele>1977.15</ele>
        <time>2024-12-11T11:57:20Z</time>
      </trkpt>
      <trkpt lat="45.91769" lon="6.50284">
        <ele>1977.811</ele>
        <time>2024-12-11T11:57:25Z</time>
      </trkpt>
      <trkpt lat="45.91768" lon="6.50284">
        <ele>1978.735</ele>
        <time>2024-12-11T11:57:30Z</time>
      </trkpt>
      <trkpt lat="45.91766" lon="6.50283">
        <ele>1979.701</ele>
        <time>2024-12-11T11:57:35Z</time>
      </trkpt>
      <trkpt lat="45.91764" lon="6.50283">
        <ele>1980.045</ele>
        <time>2024-12-11T11:57:40Z</time>
      </trkpt>
      <trkpt lat="45.91762" lon="6.50283">
        <ele>1980.945</ele>
        <time>2024-12-11T11:57:45Z</time>
      </trkpt>
      <trkpt lat="45.91762" lon="6.50284">
        <ele>1981.377</ele>
        <time>2024-12-11T11:57:50Z</time>
      </trkpt>
      <trkpt lat="45.91763" lon="6.50287">
        <ele>1981.841</ele>
        <time>2024-12-11T11:57:55Z</time>
      </trkpt>
      <trkpt lat="45.91764" lon="6.50289">
        <ele>1982.353</ele>
        <time>2024-12-11T11:58:00Z</time>
      </trkpt>
      <trkpt lat="45.91766" lon="6.50292">
        <ele>1982.58</ele>
        <time>2024-12-11T11:58:05Z</time>
      </trkpt>
      <trkpt lat="45.91767" lon="6.50294">
        <ele>1982.751</ele>
        <time>2024-12-11T11:58:10Z</time>
      </trkpt>
      <trkpt lat="45.91767" lon="6.50297">
        <ele>1985.228</ele>
        <time>2024-12-11T11:58:15Z</time>
      </trkpt>
      <trkpt lat="45.91768" lon="6.50299">
        <ele>1986.456</ele>
        <time>2024-12-11T11:58:20Z</time>
      </trkpt>
      <trkpt lat="45.91769" lon="6.50301">
        <ele>1987.187</ele>
        <time>2024-12-11T11:58:25Z</time>
      </trkpt>
      <trkpt lat="45.9177" lon="6.50303">
        <ele>1987.684</ele>
        <time>2024-12-11T11:58:30Z</time>
      </trkpt>
      <trkpt lat="45.91771" lon="6.50304">
        <ele>1987.673</ele>
        <time>2024-12-11T11:58:35Z</time>
      </trkpt>
      <trkpt lat="45.91771" lon="6.50307">
        <ele>1988.981</ele>
        <time>2024-12-11T11:58:40Z</time>
      </trkpt>
      <trkpt lat="45.91771" lon="6.5031">
        <ele>1988.514</ele>
        <time>2024-12-11T11:58:45Z</time>
      </trkpt>
      <trkpt lat="45.91771" lon="6.50312">
        <ele>1989.156</ele>
        <time>2024-12-11T11:58:50Z</time>
      </trkpt>
      <trkpt lat="45.91772" lon="6.50315">
        <ele>1990.038</ele>
        <time>2024-12-11T11:58:55Z</time>
      </trkpt>
      <trkpt lat="45.91774" lon="6.50317">
        <ele>1989.853</ele>
        <time>2024-12-11T11:59:00Z</time>
      </trkpt>
      <trkpt lat="45.91775" lon="6.50319">
        <ele>1989.618</ele>
        <time>2024-12-11T11:59:05Z</time>
      </trkpt>
      <trkpt lat="45.91776" lon="6.50322">
        <ele>1990.606</ele>
        <time>2024-12-11T11:59:10Z</time>
      </trkpt>
      <trkpt lat="45.91777" lon="6.50322">
        <ele>1990.618</ele>
        <time>2024-12-11T11:59:15Z</time>
      </trkpt>
      <trkpt lat="45.91779" lon="6.50324">
        <ele>1990.883</ele>
        <time>2024-12-11T11:59:20Z</time>
      </trkpt>
      <trkpt lat="45.91781" lon="6.50325">
        <ele>1991.214</ele>
        <time>2024-12-11T11:59:25Z</time>
      </trkpt>
      <trkpt lat="45.91782" lon="6.50326">
        <ele>1991.341</ele>
        <time>2024-12-11T11:59:30Z</time>
      </trkpt>
      <trkpt lat="45.91783" lon="6.50326">
        <ele>1991.02</ele>
        <time>2024-12-11T11:59:35Z</time>
      </trkpt>
      <trkpt lat="45.91783" lon="6.50326">
        <ele>1991.05</ele>
        <time>2024-12-11T11:59:40Z</time>
      </trkpt>
      <trkpt lat="45.91781" lon="6.50326">
        <ele>1992.094</ele>
        <time>2024-12-11T11:59:45Z</time>
      </trkpt>
      <trkpt lat="45.91779" lon="6.50327">
        <ele>1992.961</ele>
        <time>2024-12-11T11:59:50Z</time>
      </trkpt>
      <trkpt lat="45.91777" lon="6.50328">
        <ele>1993.868</ele>
        <time>2024-12-11T11:59:55Z</time>
      </trkpt>
      <trkpt lat="45.91775" lon="6.50328">
        <ele>1994.465</ele>
        <time>2024-12-11T12:00:00Z</time>
      </trkpt>
      <trkpt lat="45.91773" lon="6.50329">
        <ele>1995.588</ele>
        <time>2024-12-11T12:00:05Z</time>
      </trkpt>
      <trkpt lat="45.9177" lon="6.50329">
        <ele>1996.2</ele>
        <time>2024-12-11T12:00:10Z</time>
      </trkpt>
      <trkpt lat="45.91769" lon="6.50331">
        <ele>1997.083</ele>
        <time>2024-12-11T12:00:15Z</time>
      </trkpt>
      <trkpt lat="45.91769" lon="6.50331">
        <ele>1997.366</ele>
        <time>2024-12-11T12:00:20Z</time>
      </trkpt>
      <trkpt lat="45.91768" lon="6.50332">
        <ele>1997.163</ele>
        <time>2024-12-11T12:00:25Z</time>
      </trkpt>
      <trkpt lat="45.91774" lon="6.50333">
        <ele>1995.6</ele>
        <time>2024-12-11T12:00:30Z</time>
      </trkpt>
      <trkpt lat="45.91774" lon="6.50335">
        <ele>1997.155</ele>
        <time>2024-12-11T12:00:35Z</time>
      </trkpt>
      <trkpt lat="45.91775" lon="6.50337">
        <ele>1997.445</ele>
        <time>2024-12-11T12:00:40Z</time>
      </trkpt>
      <trkpt lat="45.91777" lon="6.50338">
        <ele>1999.004</ele>
        <time>2024-12-11T12:00:45Z</time>
      </trkpt>
      <trkpt lat="45.91779" lon="6.50339">
        <ele>1996.132</ele>
        <time>2024-12-11T12:00:50Z</time>
      </trkpt>
      <trkpt lat="45.91781" lon="6.5034">
        <ele>1994.853</ele>
        <time>2024-12-11T12:00:55Z</time>
      </trkpt>
      <trkpt lat="45.91783" lon="6.50342">
        <ele>1995.435</ele>
        <time>2024-12-11T12:01:00Z</time>
      </trkpt>
      <trkpt lat="45.91785" lon="6.50343">
        <ele>1995.036</ele>
        <time>2024-12-11T12:01:05Z</time>
      </trkpt>
      <trkpt lat="45.91786" lon="6.50344">
        <ele>1995.343</ele>
        <time>2024-12-11T12:01:10Z</time>
      </trkpt>
      <trkpt lat="45.91789" lon="6.50344">
        <ele>1996.369</ele>
        <time>2024-12-11T12:01:15Z</time>
      </trkpt>
      <trkpt lat="45.91791" lon="6.50345">
        <ele>1997.928</ele>
        <time>2024-12-11T12:01:20Z</time>
      </trkpt>
      <trkpt lat="45.91791" lon="6.50345">
        <ele>1998.381</ele>
        <time>2024-12-11T12:01:25Z</time>
      </trkpt>
      <trkpt lat="45.91791" lon="6.50345">
        <ele>1998.949</ele>
        <time>2024-12-11T12:01:30Z</time>
      </trkpt>
      <trkpt lat="45.91791" lon="6.50345">
        <ele>1998.508</ele>
        <time>2024-12-11T12:01:35Z</time>
      </trkpt>
      <trkpt lat="45.91791" lon="6.50345">
        <ele>1998.499</ele>
        <time>2024-12-11T12:01:40Z</time>
      </trkpt>
      <trkpt lat="45.91791" lon="6.50345">
        <ele>1998.518</ele>
        <time>2024-12-11T12:01:45Z</time>
      </trkpt>
      <trkpt lat="45.91791" lon="6.50345">
        <ele>1998.51</ele>
        <time>2024-12-11T12:01:50Z</time>
      </trkpt>
      <trkpt lat="45.91791" lon="6.50345">
        <ele>1998.51</ele>
        <time>2024-12-11T12:01:55Z</time>
      </trkpt>
      <trkpt lat="45.91791" lon="6.50345">
        <ele>1998.53</ele>
        <time>2024-12-11T12:02:00Z</time>
      </trkpt>
      <trkpt lat="45.91791" lon="6.50345">
        <ele>1998.531</ele>
        <time>2024-12-11T12:02:05Z</time>
      </trkpt>
      <trkpt lat="45.91791" lon="6.50345">
        <ele>1999.018</ele>
        <time>2024-12-11T12:02:10Z</time>
      </trkpt>
      <trkpt lat="45.91788" lon="6.50347">
        <ele>2000.413</ele>
        <time>2024-12-11T12:02:15Z</time>
      </trkpt>
      <trkpt lat="45.91784" lon="6.50348">
        <ele>2000.847</ele>
        <time>2024-12-11T12:02:20Z</time>
      </trkpt>
      <trkpt lat="45.91782" lon="6.50348">
        <ele>2002.348</ele>
        <time>2024-12-11T12:02:25Z</time>
      </trkpt>
      <trkpt lat="45.91779" lon="6.5035">
        <ele>2003.392</ele>
        <time>2024-12-11T12:02:30Z</time>
      </trkpt>
      <trkpt lat="45.91778" lon="6.50352">
        <ele>2004.775</ele>
        <time>2024-12-11T12:02:35Z</time>
      </trkpt>
      <trkpt lat="45.91776" lon="6.50354">
        <ele>2005.856</ele>
        <time>2024-12-11T12:02:40Z</time>
      </trkpt>
      <trkpt lat="45.91774" lon="6.50355">
        <ele>2007.047</ele>
        <time>2024-12-11T12:02:45Z</time>
      </trkpt>
      <trkpt lat="45.91772" lon="6.50357">
        <ele>2007.628</ele>
        <time>2024-12-11T12:02:50Z</time>
      </trkpt>
      <trkpt lat="45.91772" lon="6.50357">
        <ele>2008.579</ele>
        <time>2024-12-11T12:02:55Z</time>
      </trkpt>
      <trkpt lat="45.91772" lon="6.50357">
        <ele>2009.221</ele>
        <time>2024-12-11T12:03:00Z</time>
      </trkpt>
      <trkpt lat="45.91772" lon="6.50357">
        <ele>2009.36</ele>
        <time>2024-12-11T12:03:05Z</time>
      </trkpt>
      <trkpt lat="45.91772" lon="6.50357">
        <ele>2010.214</ele>
        <time>2024-12-11T12:03:10Z</time>
      </trkpt>
      <trkpt lat="45.91772" lon="6.50357">
        <ele>2009.924</ele>
        <time>2024-12-11T12:03:15Z</time>
      </trkpt>
      <trkpt lat="45.91772" lon="6.50357">
        <ele>2011.285</ele>
        <time>2024-12-11T12:03:20Z</time>
      </trkpt>
      <trkpt lat="45.91772" lon="6.50357">
        <ele>2012.319</ele>
        <time>2024-12-11T12:03:25Z</time>
      </trkpt>
      <trkpt lat="45.91772" lon="6.50357">
        <ele>2013.234</ele>
        <time>2024-12-11T12:03:30Z</time>
      </trkpt>
      <trkpt lat="45.91772" lon="6.50357">
        <ele>2014.354</ele>
        <time>2024-12-11T12:03:35Z</time>
      </trkpt>
      <trkpt lat="45.91771" lon="6.50367">
        <ele>2014.474</ele>
        <time>2024-12-11T12:03:40Z</time>
      </trkpt>
      <trkpt lat="45.91772" lon="6.50369">
        <ele>2014.772</ele>
        <time>2024-12-11T12:03:45Z</time>
      </trkpt>
      <trkpt lat="45.91774" lon="6.50372">
        <ele>2015.186</ele>
        <time>2024-12-11T12:03:50Z</time>
      </trkpt>
      <trkpt lat="45.91775" lon="6.50374">
        <ele>2015.377</ele>
        <time>2024-12-11T12:03:55Z</time>
      </trkpt>
      <trkpt lat="45.91776" lon="6.50376">
        <ele>2015.209</ele>
        <time>2024-12-11T12:04:00Z</time>
      </trkpt>
      <trkpt lat="45.91777" lon="6.50377">
        <ele>2014.556</ele>
        <time>2024-12-11T12:04:05Z</time>
      </trkpt>
      <trkpt lat="45.91777" lon="6.50377">
        <ele>2014.558</ele>
        <time>2024-12-11T12:04:10Z</time>
      </trkpt>
      <trkpt lat="45.91777" lon="6.50377">
        <ele>2014.546</ele>
        <time>2024-12-11T12:04:15Z</time>
      </trkpt>
      <trkpt lat="45.91777" lon="6.50377">
        <ele>2015.37</ele>
        <time>2024-12-11T12:04:20Z</time>
      </trkpt>
      <trkpt lat="45.91777" lon="6.50377">
        <ele>2016.4</ele>
        <time>2024-12-11T12:04:25Z</time>
      </trkpt>
      <trkpt lat="45.91777" lon="6.50377">
        <ele>2017.529</ele>
        <time>2024-12-11T12:04:30Z</time>
      </trkpt>
      <trkpt lat="45.91777" lon="6.50377">
        <ele>2019.168</ele>
        <time>2024-12-11T12:04:35Z</time>
      </trkpt>
      <trkpt lat="45.91777" lon="6.50377">
        <ele>2020.142</ele>
        <time>2024-12-11T12:04:40Z</time>
      </trkpt>
      <trkpt lat="45.91777" lon="6.50377">
        <ele>2021.075</ele>
        <time>2024-12-11T12:04:45Z</time>
      </trkpt>
      <trkpt lat="45.91777" lon="6.50377">
        <ele>2021.342</ele>
        <time>2024-12-11T12:04:50Z</time>
      </trkpt>
      <trkpt lat="45.91773" lon="6.50383">
        <ele>2020.433</ele>
        <time>2024-12-11T12:04:55Z</time>
      </trkpt>
      <trkpt lat="45.91774" lon="6.50387">
        <ele>2021.152</ele>
        <time>2024-12-11T12:05:00Z</time>
      </trkpt>
      <trkpt lat="45.91777" lon="6.50389">
        <ele>2020.774</ele>
        <time>2024-12-11T12:05:05Z</time>
      </trkpt>
      <trkpt lat="45.91778" lon="6.5039">
        <ele>2021.327</ele>
        <time>2024-12-11T12:05:10Z</time>
      </trkpt>
      <trkpt lat="45.91779" lon="6.50391">
        <ele>2022.194</ele>
        <time>2024-12-11T12:05:15Z</time>
      </trkpt>
      <trkpt lat="45.91779" lon="6.50391">
        <ele>2022.731</ele>
        <time>2024-12-11T12:05:20Z</time>
      </trkpt>
      <trkpt lat="45.91777" lon="6.50393">
        <ele>2023.962</ele>
        <time>2024-12-11T12:05:25Z</time>
      </trkpt>
      <trkpt lat="45.91775" lon="6.50394">
        <ele>2024.463</ele>
        <time>2024-12-11T12:05:30Z</time>
      </trkpt>
      <trkpt lat="45.91773" lon="6.50394">
        <ele>2025.721</ele>
        <time>2024-12-11T12:05:35Z</time>
      </trkpt>
      <trkpt lat="45.91771" lon="6.50394">
        <ele>2026.072</ele>
        <time>2024-12-11T12:05:40Z</time>
      </trkpt>
      <trkpt lat="45.91771" lon="6.50394">
        <ele>2026.075</ele>
        <time>2024-12-11T12:05:45Z</time>
      </trkpt>
      <trkpt lat="45.91772" lon="6.50397">
        <ele>2026.307</ele>
        <time>2024-12-11T12:05:50Z</time>
      </trkpt>
      <trkpt lat="45.91773" lon="6.50399">
        <ele>2026.669</ele>
        <time>2024-12-11T12:05:55Z</time>
      </trkpt>
      <trkpt lat="45.91774" lon="6.50401">
        <ele>2026.775</ele>
        <time>2024-12-11T12:06:00Z</time>
      </trkpt>
      <trkpt lat="45.91775" lon="6.50402">
        <ele>2026.619</ele>
        <time>2024-12-11T12:06:05Z</time>
      </trkpt>
      <trkpt lat="45.91777" lon="6.50403">
        <ele>2027.687</ele>
        <time>2024-12-11T12:06:10Z</time>
      </trkpt>
      <trkpt lat="45.91778" lon="6.50406">
        <ele>2028.722</ele>
        <time>2024-12-11T12:06:15Z</time>
      </trkpt>
      <trkpt lat="45.91781" lon="6.50406">
        <ele>2027.672</ele>
        <time>2024-12-11T12:06:20Z</time>
      </trkpt>
      <trkpt lat="45.91781" lon="6.50408">
        <ele>2029.931</ele>
        <time>2024-12-11T12:06:25Z</time>
      </trkpt>
      <trkpt lat="45.91784" lon="6.50409">
        <ele>2028.881</ele>
        <time>2024-12-11T12:06:30Z</time>
      </trkpt>
      <trkpt lat="45.91785" lon="6.50409">
        <ele>2030.262</ele>
        <time>2024-12-11T12:06:35Z</time>
      </trkpt>
      <trkpt lat="45.91787" lon="6.50412">
        <ele>2030.683</ele>
        <time>2024-12-11T12:06:40Z</time>
      </trkpt>
      <trkpt lat="45.9179" lon="6.50412">
        <ele>2030.773</ele>
        <time>2024-12-11T12:06:45Z</time>
      </trkpt>
      <trkpt lat="45.91792" lon="6.50412">
        <ele>2031.395</ele>
        <time>2024-12-11T12:06:50Z</time>
      </trkpt>
      <trkpt lat="45.91794" lon="6.50412">
        <ele>2032.095</ele>
        <time>2024-12-11T12:06:55Z</time>
      </trkpt>
      <trkpt lat="45.91795" lon="6.50412">
        <ele>2032.091</ele>
        <time>2024-12-11T12:07:00Z</time>
      </trkpt>
      <trkpt lat="45.91795" lon="6.50412">
        <ele>2033.233</ele>
        <time>2024-12-11T12:07:05Z</time>
      </trkpt>
      <trkpt lat="45.91792" lon="6.50413">
        <ele>2035.333</ele>
        <time>2024-12-11T12:07:10Z</time>
      </trkpt>
      <trkpt lat="45.91789" lon="6.50415">
        <ele>2036.798</ele>
        <time>2024-12-11T12:07:15Z</time>
      </trkpt>
      <trkpt lat="45.91788" lon="6.50416">
        <ele>2038.174</ele>
        <time>2024-12-11T12:07:20Z</time>
      </trkpt>
      <trkpt lat="45.91786" lon="6.50418">
        <ele>2039.943</ele>
        <time>2024-12-11T12:07:25Z</time>
      </trkpt>
      <trkpt lat="45.91783" lon="6.5042">
        <ele>2040.328</ele>
        <time>2024-12-11T12:07:30Z</time>
      </trkpt>
      <trkpt lat="45.91781" lon="6.50422">
        <ele>2040.343</ele>
        <time>2024-12-11T12:07:35Z</time>
      </trkpt>
      <trkpt lat="45.91778" lon="6.50423">
        <ele>2041.386</ele>
        <time>2024-12-11T12:07:40Z</time>
      </trkpt>
      <trkpt lat="45.91777" lon="6.50424">
        <ele>2042.701</ele>
        <time>2024-12-11T12:07:45Z</time>
      </trkpt>
      <trkpt lat="45.91774" lon="6.50426">
        <ele>2042.791</ele>
        <time>2024-12-11T12:07:50Z</time>
      </trkpt>
      <trkpt lat="45.91772" lon="6.50427">
        <ele>2043.513</ele>
        <time>2024-12-11T12:07:55Z</time>
      </trkpt>
      <trkpt lat="45.9177" lon="6.50428">
        <ele>2043.72</ele>
        <time>2024-12-11T12:08:00Z</time>
      </trkpt>
      <trkpt lat="45.91767" lon="6.5043">
        <ele>2044.261</ele>
        <time>2024-12-11T12:08:05Z</time>
      </trkpt>
      <trkpt lat="45.91767" lon="6.5043">
        <ele>2044.649</ele>
        <time>2024-12-11T12:08:10Z</time>
      </trkpt>
      <trkpt lat="45.91767" lon="6.5043">
        <ele>2044.272</ele>
        <time>2024-12-11T12:08:15Z</time>
      </trkpt>
      <trkpt lat="45.91767" lon="6.5043">
        <ele>2044.04</ele>
        <time>2024-12-11T12:08:20Z</time>
      </trkpt>
      <trkpt lat="45.91767" lon="6.5043">
        <ele>2043.553</ele>
        <time>2024-12-11T12:08:25Z</time>
      </trkpt>
      <trkpt lat="45.91767" lon="6.5043">
        <ele>2043.495</ele>
        <time>2024-12-11T12:08:30Z</time>
      </trkpt>
      <trkpt lat="45.91767" lon="6.5043">
        <ele>2044.032</ele>
        <time>2024-12-11T12:08:35Z</time>
      </trkpt>
      <trkpt lat="45.91767" lon="6.5043">
        <ele>2044.04</ele>
        <time>2024-12-11T12:08:40Z</time>
      </trkpt>
      <trkpt lat="45.91767" lon="6.5043">
        <ele>2044.505</ele>
        <time>2024-12-11T12:08:45Z</time>
      </trkpt>
      <trkpt lat="45.91767" lon="6.5043">
        <ele>2045.291</ele>
        <time>2024-12-11T12:08:50Z</time>
      </trkpt>
      <trkpt lat="45.91767" lon="6.5043">
        <ele>2047.003</ele>
        <time>2024-12-11T12:08:55Z</time>
      </trkpt>
      <trkpt lat="45.91772" lon="6.50443">
        <ele>2047.242</ele>
        <time>2024-12-11T12:09:00Z</time>
      </trkpt>
      <trkpt lat="45.91772" lon="6.50445">
        <ele>2047.776</ele>
        <time>2024-12-11T12:09:05Z</time>
      </trkpt>
      <trkpt lat="45.91774" lon="6.50447">
        <ele>2047.453</ele>
        <time>2024-12-11T12:09:10Z</time>
      </trkpt>
      <trkpt lat="45.91776" lon="6.50448">
        <ele>2048.487</ele>
        <time>2024-12-11T12:09:15Z</time>
      </trkpt>
      <trkpt lat="45.91778" lon="6.5045">
        <ele>2047.76</ele>
        <time>2024-12-11T12:09:20Z</time>
      </trkpt>
      <trkpt lat="45.91779" lon="6.5045">
        <ele>2048.35</ele>
        <time>2024-12-11T12:09:25Z</time>
      </trkpt>
      <trkpt lat="45.91779" lon="6.5045">
        <ele>2049.071</ele>
        <time>2024-12-11T12:09:30Z</time>
      </trkpt>
      <trkpt lat="45.91777" lon="6.50451">
        <ele>2051.118</ele>
        <time>2024-12-11T12:09:35Z</time>
      </trkpt>
      <trkpt lat="45.91775" lon="6.50452">
        <ele>2051.901</ele>
        <time>2024-12-11T12:09:40Z</time>
      </trkpt>
      <trkpt lat="45.91773" lon="6.50453">
        <ele>2052.857</ele>
        <time>2024-12-11T12:09:45Z</time>
      </trkpt>
      <trkpt lat="45.9177" lon="6.50455">
        <ele>2053.561</ele>
        <time>2024-12-11T12:09:50Z</time>
      </trkpt>
      <trkpt lat="45.91768" lon="6.50455">
        <ele>2054.743</ele>
        <time>2024-12-11T12:09:55Z</time>
      </trkpt>
      <trkpt lat="45.91766" lon="6.50456">
        <ele>2054.659</ele>
        <time>2024-12-11T12:10:00Z</time>
      </trkpt>
      <trkpt lat="45.91764" lon="6.50457">
        <ele>2055.351</ele>
        <time>2024-12-11T12:10:05Z</time>
      </trkpt>
      <trkpt lat="45.91762" lon="6.50459">
        <ele>2057.118</ele>
        <time>2024-12-11T12:10:10Z</time>
      </trkpt>
      <trkpt lat="45.91761" lon="6.50459">
        <ele>2058.589</ele>
        <time>2024-12-11T12:10:15Z</time>
      </trkpt>
      <trkpt lat="45.91761" lon="6.50459">
        <ele>2058.589</ele>
        <time>2024-12-11T12:10:20Z</time>
      </trkpt>
      <trkpt lat="45.91761" lon="6.50459">
        <ele>2058.372</ele>
        <time>2024-12-11T12:10:25Z</time>
      </trkpt>
      <trkpt lat="45.91761" lon="6.50459">
        <ele>2059.147</ele>
        <time>2024-12-11T12:10:30Z</time>
      </trkpt>
      <trkpt lat="45.91761" lon="6.50459">
        <ele>2058.373</ele>
        <time>2024-12-11T12:10:35Z</time>
      </trkpt>
      <trkpt lat="45.91761" lon="6.50459">
        <ele>2059.631</ele>
        <time>2024-12-11T12:10:40Z</time>
      </trkpt>
      <trkpt lat="45.91761" lon="6.50459">
        <ele>2061.337</ele>
        <time>2024-12-11T12:10:45Z</time>
      </trkpt>
      <trkpt lat="45.91761" lon="6.50459">
        <ele>2062.175</ele>
        <time>2024-12-11T12:10:50Z</time>
      </trkpt>
      <trkpt lat="45.91761" lon="6.50459">
        <ele>2062.807</ele>
        <time>2024-12-11T12:10:55Z</time>
      </trkpt>
      <trkpt lat="45.91761" lon="6.50459">
        <ele>2063.007</ele>
        <time>2024-12-11T12:11:00Z</time>
      </trkpt>
      <trkpt lat="45.91758" lon="6.50469">
        <ele>2063.027</ele>
        <time>2024-12-11T12:11:05Z</time>
      </trkpt>
      <trkpt lat="45.91756" lon="6.5047">
        <ele>2063.498</ele>
        <time>2024-12-11T12:11:10Z</time>
      </trkpt>
      <trkpt lat="45.91754" lon="6.50471">
        <ele>2063.884</ele>
        <time>2024-12-11T12:11:15Z</time>
      </trkpt>
      <trkpt lat="45.91751" lon="6.50471">
        <ele>2065.146</ele>
        <time>2024-12-11T12:11:20Z</time>
      </trkpt>
      <trkpt lat="45.9175" lon="6.50471">
        <ele>2065.862</ele>
        <time>2024-12-11T12:11:25Z</time>
      </trkpt>
      <trkpt lat="45.91749" lon="6.50472">
        <ele>2065.554</ele>
        <time>2024-12-11T12:11:30Z</time>
      </trkpt>
      <trkpt lat="45.91747" lon="6.50473">
        <ele>2065.465</ele>
        <time>2024-12-11T12:11:35Z</time>
      </trkpt>
      <trkpt lat="45.91745" lon="6.50472">
        <ele>2065.497</ele>
        <time>2024-12-11T12:11:40Z</time>
      </trkpt>
      <trkpt lat="45.91743" lon="6.50472">
        <ele>2066.29</ele>
        <time>2024-12-11T12:11:45Z</time>
      </trkpt>
      <trkpt lat="45.9174" lon="6.50472">
        <ele>2066.747</ele>
        <time>2024-12-11T12:11:50Z</time>
      </trkpt>
      <trkpt lat="45.91739" lon="6.50472">
        <ele>2067.621</ele>
        <time>2024-12-11T12:11:55Z</time>
      </trkpt>
      <trkpt lat="45.91738" lon="6.50472">
        <ele>2067.648</ele>
        <time>2024-12-11T12:12:00Z</time>
      </trkpt>
      <trkpt lat="45.91738" lon="6.50472">
        <ele>2067.662</ele>
        <time>2024-12-11T12:12:05Z</time>
      </trkpt>
      <trkpt lat="45.91737" lon="6.50472">
        <ele>2067.795</ele>
        <time>2024-12-11T12:12:10Z</time>
      </trkpt>
      <trkpt lat="45.91736" lon="6.50472">
        <ele>2068.527</ele>
        <time>2024-12-11T12:12:15Z</time>
      </trkpt>
      <trkpt lat="45.91733" lon="6.50471">
        <ele>2068.535</ele>
        <time>2024-12-11T12:12:20Z</time>
      </trkpt>
      <trkpt lat="45.91732" lon="6.50471">
        <ele>2068.65</ele>
        <time>2024-12-11T12:12:25Z</time>
      </trkpt>
      <trkpt lat="45.91732" lon="6.50471">
        <ele>2068.669</ele>
        <time>2024-12-11T12:12:30Z</time>
      </trkpt>
      <trkpt lat="45.91732" lon="6.50471">
        <ele>2068.681</ele>
        <time>2024-12-11T12:12:35Z</time>
      </trkpt>
      <trkpt lat="45.91732" lon="6.50471">
        <ele>2068.691</ele>
        <time>2024-12-11T12:12:40Z</time>
      </trkpt>
      <trkpt lat="45.91732" lon="6.50471">
        <ele>2068.697</ele>
        <time>2024-12-11T12:12:45Z</time>
      </trkpt>
      <trkpt lat="45.91732" lon="6.50471">
        <ele>2068.713</ele>
        <time>2024-12-11T12:12:50Z</time>
      </trkpt>
      <trkpt lat="45.91732" lon="6.50471">
        <ele>2068.729</ele>
        <time>2024-12-11T12:12:55Z</time>
      </trkpt>
      <trkpt lat="45.91732" lon="6.50471">
        <ele>2068.74</ele>
        <time>2024-12-11T12:13:00Z</time>
      </trkpt>
      <trkpt lat="45.91731" lon="6.50471">
        <ele>2068.746</ele>
        <time>2024-12-11T12:13:05Z</time>
      </trkpt>
      <trkpt lat="45.91731" lon="6.50471">
        <ele>2068.753</ele>
        <time>2024-12-11T12:13:10Z</time>
      </trkpt>
      <trkpt lat="45.91731" lon="6.50471">
        <ele>2068.757</ele>
        <time>2024-12-11T12:13:15Z</time>
      </trkpt>
      <trkpt lat="45.91731" lon="6.50471">
        <ele>2068.765</ele>
        <time>2024-12-11T12:13:20Z</time>
      </trkpt>
      <trkpt lat="45.9173" lon="6.50472">
        <ele>2069.665</ele>
        <time>2024-12-11T12:13:25Z</time>
      </trkpt>
      <trkpt lat="45.91728" lon="6.50475">
        <ele>2070.795</ele>
        <time>2024-12-11T12:13:30Z</time>
      </trkpt>
      <trkpt lat="45.91728" lon="6.50479">
        <ele>2072.454</ele>
        <time>2024-12-11T12:13:35Z</time>
      </trkpt>
      <trkpt lat="45.91727" lon="6.50482">
        <ele>2073.235</ele>
        <time>2024-12-11T12:13:40Z</time>
      </trkpt>
      <trkpt lat="45.91728" lon="6.50486">
        <ele>2073.511</ele>
        <time>2024-12-11T12:13:45Z</time>
      </trkpt>
      <trkpt lat="45.91729" lon="6.5049">
        <ele>2074.762</ele>
        <time>2024-12-11T12:13:50Z</time>
      </trkpt>
      <trkpt lat="45.91728" lon="6.50492">
        <ele>2074.963</ele>
        <time>2024-12-11T12:13:55Z</time>
      </trkpt>
      <trkpt lat="45.91726" lon="6.50493">
        <ele>2075.991</ele>
        <time>2024-12-11T12:14:00Z</time>
      </trkpt>
      <trkpt lat="45.91724" lon="6.50494">
        <ele>2076.719</ele>
        <time>2024-12-11T12:14:05Z</time>
      </trkpt>
      <trkpt lat="45.91722" lon="6.50495">
        <ele>2077.825</ele>
        <time>2024-12-11T12:14:10Z</time>
      </trkpt>
      <trkpt lat="45.9172" lon="6.50498">
        <ele>2078.689</ele>
        <time>2024-12-11T12:14:15Z</time>
      </trkpt>
      <trkpt lat="45.9172" lon="6.50499">
        <ele>2078.904</ele>
        <time>2024-12-11T12:14:20Z</time>
      </trkpt>
      <trkpt lat="45.9172" lon="6.50499">
        <ele>2078.864</ele>
        <time>2024-12-11T12:14:25Z</time>
      </trkpt>
      <trkpt lat="45.9172" lon="6.50499">
        <ele>2078.849</ele>
        <time>2024-12-11T12:14:30Z</time>
      </trkpt>
      <trkpt lat="45.9172" lon="6.50499">
        <ele>2078.857</ele>
        <time>2024-12-11T12:14:35Z</time>
      </trkpt>
      <trkpt lat="45.9172" lon="6.50499">
        <ele>2079.156</ele>
        <time>2024-12-11T12:14:40Z</time>
      </trkpt>
      <trkpt lat="45.9172" lon="6.50499">
        <ele>2080.152</ele>
        <time>2024-12-11T12:14:45Z</time>
      </trkpt>
      <trkpt lat="45.9172" lon="6.50499">
        <ele>2081.075</ele>
        <time>2024-12-11T12:14:50Z</time>
      </trkpt>
      <trkpt lat="45.9172" lon="6.50499">
        <ele>2081.492</ele>
        <time>2024-12-11T12:14:55Z</time>
      </trkpt>
      <trkpt lat="45.9172" lon="6.50499">
        <ele>2081.492</ele>
        <time>2024-12-11T12:15:00Z</time>
      </trkpt>
      <trkpt lat="45.9172" lon="6.50499">
        <ele>2081.107</ele>
        <time>2024-12-11T12:15:05Z</time>
      </trkpt>
      <trkpt lat="45.9172" lon="6.50499">
        <ele>2081.605</ele>
        <time>2024-12-11T12:15:10Z</time>
      </trkpt>
      <trkpt lat="45.9172" lon="6.50499">
        <ele>2082.425</ele>
        <time>2024-12-11T12:15:15Z</time>
      </trkpt>
      <trkpt lat="45.9172" lon="6.50499">
        <ele>2082.721</ele>
        <time>2024-12-11T12:15:20Z</time>
      </trkpt>
      <trkpt lat="45.9172" lon="6.50499">
        <ele>2083.074</ele>
        <time>2024-12-11T12:15:25Z</time>
      </trkpt>
      <trkpt lat="45.9172" lon="6.50499">
        <ele>2083.069</ele>
        <time>2024-12-11T12:15:30Z</time>
      </trkpt>
      <trkpt lat="45.9172" lon="6.50499">
        <ele>2083.069</ele>
        <time>2024-12-11T12:15:35Z</time>
      </trkpt>
      <trkpt lat="45.9172" lon="6.50499">
        <ele>2083.065</ele>
        <time>2024-12-11T12:15:40Z</time>
      </trkpt>
      <trkpt lat="45.9172" lon="6.50499">
        <ele>2083.064</ele>
        <time>2024-12-11T12:15:45Z</time>
      </trkpt>
      <trkpt lat="45.9172" lon="6.50499">
        <ele>2083.063</ele>
        <time>2024-12-11T12:15:50Z</time>
      </trkpt>
      <trkpt lat="45.9172" lon="6.50499">
        <ele>2083.067</ele>
        <time>2024-12-11T12:15:55Z</time>
      </trkpt>
      <trkpt lat="45.9172" lon="6.50499">
        <ele>2083.064</ele>
        <time>2024-12-11T12:16:00Z</time>
      </trkpt>
      <trkpt lat="45.9172" lon="6.50499">
        <ele>2083.067</ele>
        <time>2024-12-11T12:16:05Z</time>
      </trkpt>
      <trkpt lat="45.9172" lon="6.50499">
        <ele>2083.132</ele>
        <time>2024-12-11T12:16:10Z</time>
      </trkpt>
      <trkpt lat="45.91713" lon="6.50507">
        <ele>2083.127</ele>
        <time>2024-12-11T12:16:15Z</time>
      </trkpt>
      <trkpt lat="45.91713" lon="6.50507">
        <ele>2083.112</ele>
        <time>2024-12-11T12:16:20Z</time>
      </trkpt>
      <trkpt lat="45.91711" lon="6.50502">
        <ele>2080.742</ele>
        <time>2024-12-11T12:16:25Z</time>
      </trkpt>
      <trkpt lat="45.91709" lon="6.50495">
        <ele>2079.951</ele>
        <time>2024-12-11T12:16:30Z</time>
      </trkpt>
      <trkpt lat="45.91707" lon="6.5049">
        <ele>2079.542</ele>
        <time>2024-12-11T12:16:35Z</time>
      </trkpt>
      <trkpt lat="45.91706" lon="6.50487">
        <ele>2079.89</ele>
        <time>2024-12-11T12:16:40Z</time>
      </trkpt>
      <trkpt lat="45.91706" lon="6.50483">
        <ele>2080.593</ele>
        <time>2024-12-11T12:16:45Z</time>
      </trkpt>
      <trkpt lat="45.91705" lon="6.50481">
        <ele>2081.204</ele>
        <time>2024-12-11T12:16:50Z</time>
      </trkpt>
      <trkpt lat="45.91705" lon="6.50481">
        <ele>2081.324</ele>
        <time>2024-12-11T12:16:55Z</time>
      </trkpt>
      <trkpt lat="45.91705" lon="6.50481">
        <ele>2081.308</ele>
        <time>2024-12-11T12:17:00Z</time>
      </trkpt>
      <trkpt lat="45.91705" lon="6.50481">
        <ele>2081.309</ele>
        <time>2024-12-11T12:17:05Z</time>
      </trkpt>
      <trkpt lat="45.91705" lon="6.50481">
        <ele>2081.308</ele>
        <time>2024-12-11T12:17:10Z</time>
      </trkpt>
      <trkpt lat="45.91705" lon="6.50481">
        <ele>2081.003</ele>
        <time>2024-12-11T12:17:15Z</time>
      </trkpt>
      <trkpt lat="45.91705" lon="6.50481">
        <ele>2081.015</ele>
        <time>2024-12-11T12:17:20Z</time>
      </trkpt>
      <trkpt lat="45.91705" lon="6.50481">
        <ele>2081.025</ele>
        <time>2024-12-11T12:17:25Z</time>
      </trkpt>
      <trkpt lat="45.91705" lon="6.50481">
        <ele>2081.034</ele>
        <time>2024-12-11T12:17:30Z</time>
      </trkpt>
      <trkpt lat="45.91705" lon="6.50481">
        <ele>2081.037</ele>
        <time>2024-12-11T12:17:35Z</time>
      </trkpt>
      <trkpt lat="45.91705" lon="6.50481">
        <ele>2081.397</ele>
        <time>2024-12-11T12:17:40Z</time>
      </trkpt>
      <trkpt lat="45.91705" lon="6.50481">
        <ele>2081.409</ele>
        <time>2024-12-11T12:17:45Z</time>
      </trkpt>
      <trkpt lat="45.91705" lon="6.50481">
        <ele>2081.403</ele>
        <time>2024-12-11T12:17:50Z</time>
      </trkpt>
      <trkpt lat="45.91705" lon="6.50481">
        <ele>2081.406</ele>
        <time>2024-12-11T12:17:55Z</time>
      </trkpt>
      <trkpt lat="45.91705" lon="6.50481">
        <ele>2081.401</ele>
        <time>2024-12-11T12:18:00Z</time>
      </trkpt>
      <trkpt lat="45.91705" lon="6.50481">
        <ele>2081.396</ele>
        <time>2024-12-11T12:18:05Z</time>
      </trkpt>
      <trkpt lat="45.91705" lon="6.50481">
        <ele>2081.383</ele>
        <time>2024-12-11T12:18:10Z</time>
      </trkpt>
      <trkpt lat="45.91705" lon="6.50481">
        <ele>2081.369</ele>
        <time>2024-12-11T12:18:15Z</time>
      </trkpt>
      <trkpt lat="45.91705" lon="6.50481">
        <ele>2081.361</ele>
        <time>2024-12-11T12:18:20Z</time>
      </trkpt>
      <trkpt lat="45.91705" lon="6.50481">
        <ele>2081.343</ele>
        <time>2024-12-11T12:18:25Z</time>
      </trkpt>
      <trkpt lat="45.91705" lon="6.50481">
        <ele>2081.322</ele>
        <time>2024-12-11T12:18:30Z</time>
      </trkpt>
      <trkpt lat="45.91705" lon="6.50481">
        <ele>2081.299</ele>
        <time>2024-12-11T12:18:35Z</time>
      </trkpt>
      <trkpt lat="45.91705" lon="6.50481">
        <ele>2081.284</ele>
        <time>2024-12-11T12:18:40Z</time>
      </trkpt>
      <trkpt lat="45.91705" lon="6.50481">
        <ele>2081.261</ele>
        <time>2024-12-11T12:18:45Z</time>
      </trkpt>
      <trkpt lat="45.91705" lon="6.50481">
        <ele>2081.248</ele>
        <time>2024-12-11T12:18:50Z</time>
      </trkpt>
      <trkpt lat="45.91705" lon="6.50481">
        <ele>2081.236</ele>
        <time>2024-12-11T12:18:55Z</time>
      </trkpt>
      <trkpt lat="45.91705" lon="6.50481">
        <ele>2081.23</ele>
        <time>2024-12-11T12:19:00Z</time>
      </trkpt>
      <trkpt lat="45.91705" lon="6.50481">
        <ele>2081.219</ele>
        <time>2024-12-11T12:19:05Z</time>
      </trkpt>
      <trkpt lat="45.91705" lon="6.50481">
        <ele>2081.193</ele>
        <time>2024-12-11T12:19:10Z</time>
      </trkpt>
      <trkpt lat="45.91705" lon="6.50481">
        <ele>2081.172</ele>
        <time>2024-12-11T12:19:15Z</time>
      </trkpt>
      <trkpt lat="45.91705" lon="6.50481">
        <ele>2081.144</ele>
        <time>2024-12-11T12:19:20Z</time>
      </trkpt>
      <trkpt lat="45.91705" lon="6.50481">
        <ele>2081.118</ele>
        <time>2024-12-11T12:19:25Z</time>
      </trkpt>
      <trkpt lat="45.91705" lon="6.50481">
        <ele>2081.1</ele>
        <time>2024-12-11T12:19:30Z</time>
      </trkpt>
      <trkpt lat="45.91705" lon="6.50481">
        <ele>2081.087</ele>
        <time>2024-12-11T12:19:35Z</time>
      </trkpt>
      <trkpt lat="45.91705" lon="6.50481">
        <ele>2081.071</ele>
        <time>2024-12-11T12:19:40Z</time>
      </trkpt>
      <trkpt lat="45.91705" lon="6.50481">
        <ele>2081.064</ele>
        <time>2024-12-11T12:19:45Z</time>
      </trkpt>
      <trkpt lat="45.91705" lon="6.50481">
        <ele>2081.052</ele>
        <time>2024-12-11T12:19:50Z</time>
      </trkpt>
      <trkpt lat="45.91705" lon="6.50481">
        <ele>2081.041</ele>
        <time>2024-12-11T12:19:55Z</time>
      </trkpt>
      <trkpt lat="45.91705" lon="6.50481">
        <ele>2080.188</ele>
        <time>2024-12-11T12:20:00Z</time>
      </trkpt>
      <trkpt lat="45.91705" lon="6.50481">
        <ele>2080.189</ele>
        <time>2024-12-11T12:20:05Z</time>
      </trkpt>
      <trkpt lat="45.91705" lon="6.50481">
        <ele>2080.177</ele>
        <time>2024-12-11T12:20:10Z</time>
      </trkpt>
      <trkpt lat="45.91705" lon="6.50481">
        <ele>2080.167</ele>
        <time>2024-12-11T12:20:15Z</time>
      </trkpt>
      <trkpt lat="45.91703" lon="6.50481">
        <ele>2079.8</ele>
        <time>2024-12-11T12:20:20Z</time>
      </trkpt>
      <trkpt lat="45.91703" lon="6.50482">
        <ele>2079.804</ele>
        <time>2024-12-11T12:20:25Z</time>
      </trkpt>
      <trkpt lat="45.91703" lon="6.50482">
        <ele>2079.499</ele>
        <time>2024-12-11T12:20:30Z</time>
      </trkpt>
      <trkpt lat="45.91704" lon="6.50487">
        <ele>2079.322</ele>
        <time>2024-12-11T12:20:35Z</time>
      </trkpt>
      <trkpt lat="45.91706" lon="6.50496">
        <ele>2076.027</ele>
        <time>2024-12-11T12:20:40Z</time>
      </trkpt>
      <trkpt lat="45.91709" lon="6.50502">
        <ele>2074.385</ele>
        <time>2024-12-11T12:20:45Z</time>
      </trkpt>
      <trkpt lat="45.91711" lon="6.50506">
        <ele>2076.244</ele>
        <time>2024-12-11T12:20:50Z</time>
      </trkpt>
      <trkpt lat="45.9171" lon="6.50509">
        <ele>2076.678</ele>
        <time>2024-12-11T12:20:55Z</time>
      </trkpt>
      <trkpt lat="45.91709" lon="6.5051">
        <ele>2076.857</ele>
        <time>2024-12-11T12:21:00Z</time>
      </trkpt>
      <trkpt lat="45.91709" lon="6.5051">
        <ele>2076.859</ele>
        <time>2024-12-11T12:21:05Z</time>
      </trkpt>
      <trkpt lat="45.91708" lon="6.50511">
        <ele>2076.776</ele>
        <time>2024-12-11T12:21:10Z</time>
      </trkpt>
      <trkpt lat="45.91707" lon="6.50512">
        <ele>2076.411</ele>
        <time>2024-12-11T12:21:15Z</time>
      </trkpt>
      <trkpt lat="45.91707" lon="6.50512">
        <ele>2076.414</ele>
        <time>2024-12-11T12:21:20Z</time>
      </trkpt>
      <trkpt lat="45.91707" lon="6.50512">
        <ele>2076.408</ele>
        <time>2024-12-11T12:21:25Z</time>
      </trkpt>
      <trkpt lat="45.91707" lon="6.50512">
        <ele>2076.413</ele>
        <time>2024-12-11T12:21:30Z</time>
      </trkpt>
      <trkpt lat="45.91706" lon="6.50512">
        <ele>2077.195</ele>
        <time>2024-12-11T12:21:35Z</time>
      </trkpt>
      <trkpt lat="45.91706" lon="6.5051">
        <ele>2077.318</ele>
        <time>2024-12-11T12:21:40Z</time>
      </trkpt>
      <trkpt lat="45.91706" lon="6.5051">
        <ele>2077.322</ele>
        <time>2024-12-11T12:21:45Z</time>
      </trkpt>
      <trkpt lat="45.91706" lon="6.5051">
        <ele>2077.325</ele>
        <time>2024-12-11T12:21:50Z</time>
      </trkpt>
      <trkpt lat="45.91706" lon="6.5051">
        <ele>2077.329</ele>
        <time>2024-12-11T12:21:55Z</time>
      </trkpt>
      <trkpt lat="45.91706" lon="6.5051">
        <ele>2077.336</ele>
        <time>2024-12-11T12:22:00Z</time>
      </trkpt>
      <trkpt lat="45.91706" lon="6.5051">
        <ele>2077.345</ele>
        <time>2024-12-11T12:22:05Z</time>
      </trkpt>
      <trkpt lat="45.91706" lon="6.5051">
        <ele>2077.323</ele>
        <time>2024-12-11T12:22:10Z</time>
      </trkpt>
      <trkpt lat="45.91706" lon="6.5051">
        <ele>2077.497</ele>
        <time>2024-12-11T12:22:15Z</time>
      </trkpt>
      <trkpt lat="45.91706" lon="6.5051">
        <ele>2077.495</ele>
        <time>2024-12-11T12:22:20Z</time>
      </trkpt>
      <trkpt lat="45.91706" lon="6.5051">
        <ele>2077.485</ele>
        <time>2024-12-11T12:22:25Z</time>
      </trkpt>
      <trkpt lat="45.91706" lon="6.5051">
        <ele>2077.493</ele>
        <time>2024-12-11T12:22:30Z</time>
      </trkpt>
      <trkpt lat="45.91706" lon="6.5051">
        <ele>2077.481</ele>
        <time>2024-12-11T12:22:35Z</time>
      </trkpt>
      <trkpt lat="45.91706" lon="6.5051">
        <ele>2077.475</ele>
        <time>2024-12-11T12:22:40Z</time>
      </trkpt>
      <trkpt lat="45.91706" lon="6.5051">
        <ele>2077.461</ele>
        <time>2024-12-11T12:22:45Z</time>
      </trkpt>
      <trkpt lat="45.91706" lon="6.5051">
        <ele>2077.616</ele>
        <time>2024-12-11T12:22:50Z</time>
      </trkpt>
      <trkpt lat="45.91706" lon="6.5051">
        <ele>2077.606</ele>
        <time>2024-12-11T12:22:55Z</time>
      </trkpt>
      <trkpt lat="45.91706" lon="6.5051">
        <ele>2077.599</ele>
        <time>2024-12-11T12:23:00Z</time>
      </trkpt>
      <trkpt lat="45.91706" lon="6.5051">
        <ele>2077.577</ele>
        <time>2024-12-11T12:23:05Z</time>
      </trkpt>
      <trkpt lat="45.91706" lon="6.5051">
        <ele>2077.551</ele>
        <time>2024-12-11T12:23:10Z</time>
      </trkpt>
      <trkpt lat="45.91706" lon="6.5051">
        <ele>2077.694</ele>
        <time>2024-12-11T12:23:15Z</time>
      </trkpt>
      <trkpt lat="45.91706" lon="6.5051">
        <ele>2077.675</ele>
        <time>2024-12-11T12:23:20Z</time>
      </trkpt>
      <trkpt lat="45.91706" lon="6.5051">
        <ele>2077.643</ele>
        <time>2024-12-11T12:23:25Z</time>
      </trkpt>
      <trkpt lat="45.91706" lon="6.5051">
        <ele>2077.609</ele>
        <time>2024-12-11T12:23:30Z</time>
      </trkpt>
      <trkpt lat="45.91706" lon="6.5051">
        <ele>2077.588</ele>
        <time>2024-12-11T12:23:35Z</time>
      </trkpt>
      <trkpt lat="45.91706" lon="6.5051">
        <ele>2077.581</ele>
        <time>2024-12-11T12:23:40Z</time>
      </trkpt>
      <trkpt lat="45.91706" lon="6.5051">
        <ele>2077.572</ele>
        <time>2024-12-11T12:23:45Z</time>
      </trkpt>
      <trkpt lat="45.91706" lon="6.5051">
        <ele>2077.571</ele>
        <time>2024-12-11T12:23:50Z</time>
      </trkpt>
      <trkpt lat="45.91706" lon="6.5051">
        <ele>2077.556</ele>
        <time>2024-12-11T12:23:55Z</time>
      </trkpt>
      <trkpt lat="45.91706" lon="6.5051">
        <ele>2077.547</ele>
        <time>2024-12-11T12:24:00Z</time>
      </trkpt>
      <trkpt lat="45.91706" lon="6.5051">
        <ele>2077.518</ele>
        <time>2024-12-11T12:24:05Z</time>
      </trkpt>
      <trkpt lat="45.91706" lon="6.5051">
        <ele>2077.505</ele>
        <time>2024-12-11T12:24:10Z</time>
      </trkpt>
      <trkpt lat="45.91706" lon="6.5051">
        <ele>2077.475</ele>
        <time>2024-12-11T12:24:15Z</time>
      </trkpt>
      <trkpt lat="45.91706" lon="6.5051">
        <ele>2077.443</ele>
        <time>2024-12-11T12:24:20Z</time>
      </trkpt>
      <trkpt lat="45.91706" lon="6.5051">
        <ele>2077.421</ele>
        <time>2024-12-11T12:24:25Z</time>
      </trkpt>
      <trkpt lat="45.91706" lon="6.5051">
        <ele>2077.374</ele>
        <time>2024-12-11T12:24:30Z</time>
      </trkpt>
      <trkpt lat="45.91706" lon="6.5051">
        <ele>2077.351</ele>
        <time>2024-12-11T12:24:35Z</time>
      </trkpt>
      <trkpt lat="45.91706" lon="6.5051">
        <ele>2077.336</ele>
        <time>2024-12-11T12:24:40Z</time>
      </trkpt>
      <trkpt lat="45.91706" lon="6.5051">
        <ele>2077.332</ele>
        <time>2024-12-11T12:24:45Z</time>
      </trkpt>
      <trkpt lat="45.91706" lon="6.5051">
        <ele>2077.315</ele>
        <time>2024-12-11T12:24:50Z</time>
      </trkpt>
      <trkpt lat="45.91706" lon="6.5051">
        <ele>2077.296</ele>
        <time>2024-12-11T12:24:55Z</time>
      </trkpt>
      <trkpt lat="45.91706" lon="6.5051">
        <ele>2077.263</ele>
        <time>2024-12-11T12:25:00Z</time>
      </trkpt>
      <trkpt lat="45.91706" lon="6.5051">
        <ele>2077.245</ele>
        <time>2024-12-11T12:25:05Z</time>
      </trkpt>
      <trkpt lat="45.91706" lon="6.5051">
        <ele>2077.229</ele>
        <time>2024-12-11T12:25:10Z</time>
      </trkpt>
      <trkpt lat="45.91706" lon="6.5051">
        <ele>2077.213</ele>
        <time>2024-12-11T12:25:15Z</time>
      </trkpt>
      <trkpt lat="45.91706" lon="6.5051">
        <ele>2077.187</ele>
        <time>2024-12-11T12:25:20Z</time>
      </trkpt>
      <trkpt lat="45.91706" lon="6.5051">
        <ele>2077.165</ele>
        <time>2024-12-11T12:25:25Z</time>
      </trkpt>
      <trkpt lat="45.91706" lon="6.5051">
        <ele>2077.15</ele>
        <time>2024-12-11T12:25:30Z</time>
      </trkpt>
      <trkpt lat="45.91706" lon="6.5051">
        <ele>2077.131</ele>
        <time>2024-12-11T12:25:35Z</time>
      </trkpt>
      <trkpt lat="45.91706" lon="6.5051">
        <ele>2077.103</ele>
        <time>2024-12-11T12:25:40Z</time>
      </trkpt>
      <trkpt lat="45.91706" lon="6.5051">
        <ele>2077.099</ele>
        <time>2024-12-11T12:25:45Z</time>
      </trkpt>
      <trkpt lat="45.91706" lon="6.5051">
        <ele>2077.084</ele>
        <time>2024-12-11T12:25:50Z</time>
      </trkpt>
      <trkpt lat="45.91706" lon="6.5051">
        <ele>2077.066</ele>
        <time>2024-12-11T12:25:55Z</time>
      </trkpt>
      <trkpt lat="45.91706" lon="6.5051">
        <ele>2077.051</ele>
        <time>2024-12-11T12:26:00Z</time>
      </trkpt>
      <trkpt lat="45.91706" lon="6.5051">
        <ele>2077.043</ele>
        <time>2024-12-11T12:26:05Z</time>
      </trkpt>
      <trkpt lat="45.91706" lon="6.5051">
        <ele>2077.036</ele>
        <time>2024-12-11T12:26:10Z</time>
      </trkpt>
      <trkpt lat="45.91706" lon="6.5051">
        <ele>2077.032</ele>
        <time>2024-12-11T12:26:15Z</time>
      </trkpt>
      <trkpt lat="45.91706" lon="6.5051">
        <ele>2077.024</ele>
        <time>2024-12-11T12:26:20Z</time>
      </trkpt>
      <trkpt lat="45.91706" lon="6.5051">
        <ele>2077.024</ele>
        <time>2024-12-11T12:26:25Z</time>
      </trkpt>
      <trkpt lat="45.91706" lon="6.5051">
        <ele>2077.019</ele>
        <time>2024-12-11T12:26:30Z</time>
      </trkpt>
      <trkpt lat="45.91706" lon="6.5051">
        <ele>2077.003</ele>
        <time>2024-12-11T12:26:35Z</time>
      </trkpt>
      <trkpt lat="45.91706" lon="6.5051">
        <ele>2077</ele>
        <time>2024-12-11T12:26:40Z</time>
      </trkpt>
      <trkpt lat="45.91706" lon="6.5051">
        <ele>2076.986</ele>
        <time>2024-12-11T12:26:45Z</time>
      </trkpt>
      <trkpt lat="45.91706" lon="6.5051">
        <ele>2077.079</ele>
        <time>2024-12-11T12:26:50Z</time>
      </trkpt>
      <trkpt lat="45.91706" lon="6.5051">
        <ele>2077.076</ele>
        <time>2024-12-11T12:26:55Z</time>
      </trkpt>
      <trkpt lat="45.91706" lon="6.5051">
        <ele>2077.076</ele>
        <time>2024-12-11T12:27:00Z</time>
      </trkpt>
      <trkpt lat="45.91706" lon="6.5051">
        <ele>2077.07</ele>
        <time>2024-12-11T12:27:05Z</time>
      </trkpt>
      <trkpt lat="45.91706" lon="6.5051">
        <ele>2077.064</ele>
        <time>2024-12-11T12:27:10Z</time>
      </trkpt>
      <trkpt lat="45.91706" lon="6.5051">
        <ele>2077.054</ele>
        <time>2024-12-11T12:27:15Z</time>
      </trkpt>
      <trkpt lat="45.91706" lon="6.5051">
        <ele>2077.056</ele>
        <time>2024-12-11T12:27:20Z</time>
      </trkpt>
      <trkpt lat="45.91706" lon="6.5051">
        <ele>2077.009</ele>
        <time>2024-12-11T12:27:25Z</time>
      </trkpt>
      <trkpt lat="45.91706" lon="6.5051">
        <ele>2077.005</ele>
        <time>2024-12-11T12:27:30Z</time>
      </trkpt>
      <trkpt lat="45.91706" lon="6.5051">
        <ele>2077.01</ele>
        <time>2024-12-11T12:27:35Z</time>
      </trkpt>
      <trkpt lat="45.91706" lon="6.5051">
        <ele>2077.001</ele>
        <time>2024-12-11T12:27:40Z</time>
      </trkpt>
      <trkpt lat="45.91706" lon="6.5051">
        <ele>2076.992</ele>
        <time>2024-12-11T12:27:45Z</time>
      </trkpt>
      <trkpt lat="45.91706" lon="6.5051">
        <ele>2076.985</ele>
        <time>2024-12-11T12:27:50Z</time>
      </trkpt>
      <trkpt lat="45.91706" lon="6.5051">
        <ele>2076.989</ele>
        <time>2024-12-11T12:27:55Z</time>
      </trkpt>
      <trkpt lat="45.91706" lon="6.5051">
        <ele>2076.989</ele>
        <time>2024-12-11T12:28:00Z</time>
      </trkpt>
      <trkpt lat="45.91706" lon="6.5051">
        <ele>2076.986</ele>
        <time>2024-12-11T12:28:05Z</time>
      </trkpt>
      <trkpt lat="45.91706" lon="6.5051">
        <ele>2076.984</ele>
        <time>2024-12-11T12:28:10Z</time>
      </trkpt>
      <trkpt lat="45.91706" lon="6.5051">
        <ele>2076.979</ele>
        <time>2024-12-11T12:28:15Z</time>
      </trkpt>
      <trkpt lat="45.91706" lon="6.5051">
        <ele>2076.972</ele>
        <time>2024-12-11T12:28:20Z</time>
      </trkpt>
      <trkpt lat="45.91706" lon="6.5051">
        <ele>2076.964</ele>
        <time>2024-12-11T12:28:25Z</time>
      </trkpt>
      <trkpt lat="45.91705" lon="6.50511">
        <ele>2076.513</ele>
        <time>2024-12-11T12:28:30Z</time>
      </trkpt>
      <trkpt lat="45.91703" lon="6.5051">
        <ele>2076.761</ele>
        <time>2024-12-11T12:28:35Z</time>
      </trkpt>
      <trkpt lat="45.91701" lon="6.50512">
        <ele>2076.979</ele>
        <time>2024-12-11T12:28:40Z</time>
      </trkpt>
      <trkpt lat="45.91698" lon="6.50511">
        <ele>2076.796</ele>
        <time>2024-12-11T12:28:45Z</time>
      </trkpt>
      <trkpt lat="45.91694" lon="6.50511">
        <ele>2077.243</ele>
        <time>2024-12-11T12:28:50Z</time>
      </trkpt>
      <trkpt lat="45.91691" lon="6.50511">
        <ele>2077.078</ele>
        <time>2024-12-11T12:28:55Z</time>
      </trkpt>
      <trkpt lat="45.91688" lon="6.50513">
        <ele>2078.371</ele>
        <time>2024-12-11T12:29:00Z</time>
      </trkpt>
      <trkpt lat="45.91685" lon="6.50513">
        <ele>2077.709</ele>
        <time>2024-12-11T12:29:05Z</time>
      </trkpt>
      <trkpt lat="45.91682" lon="6.50512">
        <ele>2078.154</ele>
        <time>2024-12-11T12:29:10Z</time>
      </trkpt>
      <trkpt lat="45.91679" lon="6.50513">
        <ele>2079.077</ele>
        <time>2024-12-11T12:29:15Z</time>
      </trkpt>
      <trkpt lat="45.91676" lon="6.50512">
        <ele>2080.624</ele>
        <time>2024-12-11T12:29:20Z</time>
      </trkpt>
      <trkpt lat="45.91674" lon="6.50511">
        <ele>2081.103</ele>
        <time>2024-12-11T12:29:25Z</time>
      </trkpt>
      <trkpt lat="45.91672" lon="6.50509">
        <ele>2083.348</ele>
        <time>2024-12-11T12:29:30Z</time>
      </trkpt>
      <trkpt lat="45.9167" lon="6.50509">
        <ele>2083.639</ele>
        <time>2024-12-11T12:29:35Z</time>
      </trkpt>
      <trkpt lat="45.91667" lon="6.5051">
        <ele>2084.128</ele>
        <time>2024-12-11T12:29:40Z</time>
      </trkpt>
      <trkpt lat="45.91665" lon="6.50511">
        <ele>2084.037</ele>
        <time>2024-12-11T12:29:45Z</time>
      </trkpt>
      <trkpt lat="45.91662" lon="6.50511">
        <ele>2085.073</ele>
        <time>2024-12-11T12:29:50Z</time>
      </trkpt>
      <trkpt lat="45.9166" lon="6.50511">
        <ele>2087.028</ele>
        <time>2024-12-11T12:29:55Z</time>
      </trkpt>
      <trkpt lat="45.91657" lon="6.50512">
        <ele>2086.53</ele>
        <time>2024-12-11T12:30:00Z</time>
      </trkpt>
      <trkpt lat="45.91654" lon="6.50513">
        <ele>2086.387</ele>
        <time>2024-12-11T12:30:05Z</time>
      </trkpt>
      <trkpt lat="45.91652" lon="6.50514">
        <ele>2086.889</ele>
        <time>2024-12-11T12:30:10Z</time>
      </trkpt>
      <trkpt lat="45.91649" lon="6.50515">
        <ele>2087.547</ele>
        <time>2024-12-11T12:30:15Z</time>
      </trkpt>
      <trkpt lat="45.91646" lon="6.50514">
        <ele>2087.858</ele>
        <time>2024-12-11T12:30:20Z</time>
      </trkpt>
      <trkpt lat="45.91643" lon="6.50515">
        <ele>2088.389</ele>
        <time>2024-12-11T12:30:25Z</time>
      </trkpt>
      <trkpt lat="45.91641" lon="6.50515">
        <ele>2089.431</ele>
        <time>2024-12-11T12:30:30Z</time>
      </trkpt>
      <trkpt lat="45.91638" lon="6.50517">
        <ele>2090.498</ele>
        <time>2024-12-11T12:30:35Z</time>
      </trkpt>
      <trkpt lat="45.91635" lon="6.50518">
        <ele>2090.525</ele>
        <time>2024-12-11T12:30:40Z</time>
      </trkpt>
      <trkpt lat="45.91632" lon="6.50518">
        <ele>2090.86</ele>
        <time>2024-12-11T12:30:45Z</time>
      </trkpt>
      <trkpt lat="45.91629" lon="6.50519">
        <ele>2092.226</ele>
        <time>2024-12-11T12:30:50Z</time>
      </trkpt>
      <trkpt lat="45.91626" lon="6.50519">
        <ele>2091.729</ele>
        <time>2024-12-11T12:30:55Z</time>
      </trkpt>
      <trkpt lat="45.91623" lon="6.50519">
        <ele>2092.353</ele>
        <time>2024-12-11T12:31:00Z</time>
      </trkpt>
      <trkpt lat="45.91621" lon="6.50519">
        <ele>2093.166</ele>
        <time>2024-12-11T12:31:05Z</time>
      </trkpt>
      <trkpt lat="45.91618" lon="6.50519">
        <ele>2094.345</ele>
        <time>2024-12-11T12:31:10Z</time>
      </trkpt>
      <trkpt lat="45.91615" lon="6.5052">
        <ele>2094.992</ele>
        <time>2024-12-11T12:31:15Z</time>
      </trkpt>
      <trkpt lat="45.91613" lon="6.5052">
        <ele>2095.57</ele>
        <time>2024-12-11T12:31:20Z</time>
      </trkpt>
      <trkpt lat="45.9161" lon="6.50519">
        <ele>2096.586</ele>
        <time>2024-12-11T12:31:25Z</time>
      </trkpt>
      <trkpt lat="45.91608" lon="6.50518">
        <ele>2097.399</ele>
        <time>2024-12-11T12:31:30Z</time>
      </trkpt>
      <trkpt lat="45.91607" lon="6.5052">
        <ele>2098.559</ele>
        <time>2024-12-11T12:31:35Z</time>
      </trkpt>
      <trkpt lat="45.91606" lon="6.50521">
        <ele>2100.264</ele>
        <time>2024-12-11T12:31:40Z</time>
      </trkpt>
      <trkpt lat="45.91604" lon="6.50521">
        <ele>2101.072</ele>
        <time>2024-12-11T12:31:45Z</time>
      </trkpt>
      <trkpt lat="45.91603" lon="6.50522">
        <ele>2101.693</ele>
        <time>2024-12-11T12:31:50Z</time>
      </trkpt>
      <trkpt lat="45.91602" lon="6.50523">
        <ele>2102.852</ele>
        <time>2024-12-11T12:31:55Z</time>
      </trkpt>
      <trkpt lat="45.91601" lon="6.50524">
        <ele>2102.887</ele>
        <time>2024-12-11T12:32:00Z</time>
      </trkpt>
      <trkpt lat="45.91599" lon="6.50524">
        <ele>2103.541</ele>
        <time>2024-12-11T12:32:05Z</time>
      </trkpt>
      <trkpt lat="45.91597" lon="6.50525">
        <ele>2103.996</ele>
        <time>2024-12-11T12:32:10Z</time>
      </trkpt>
      <trkpt lat="45.91595" lon="6.50525">
        <ele>2103.856</ele>
        <time>2024-12-11T12:32:15Z</time>
      </trkpt>
      <trkpt lat="45.91594" lon="6.50525">
        <ele>2104.433</ele>
        <time>2024-12-11T12:32:20Z</time>
      </trkpt>
      <trkpt lat="45.91592" lon="6.50526">
        <ele>2105.826</ele>
        <time>2024-12-11T12:32:25Z</time>
      </trkpt>
      <trkpt lat="45.9159" lon="6.50526">
        <ele>2106.219</ele>
        <time>2024-12-11T12:32:30Z</time>
      </trkpt>
      <trkpt lat="45.91588" lon="6.50528">
        <ele>2105.732</ele>
        <time>2024-12-11T12:32:35Z</time>
      </trkpt>
      <trkpt lat="45.91586" lon="6.50529">
        <ele>2106.017</ele>
        <time>2024-12-11T12:32:40Z</time>
      </trkpt>
      <trkpt lat="45.91584" lon="6.50529">
        <ele>2107.157</ele>
        <time>2024-12-11T12:32:45Z</time>
      </trkpt>
      <trkpt lat="45.91582" lon="6.50531">
        <ele>2106.652</ele>
        <time>2024-12-11T12:32:50Z</time>
      </trkpt>
      <trkpt lat="45.91579" lon="6.5053">
        <ele>2108.09</ele>
        <time>2024-12-11T12:32:55Z</time>
      </trkpt>
      <trkpt lat="45.91576" lon="6.50529">
        <ele>2109.117</ele>
        <time>2024-12-11T12:33:00Z</time>
      </trkpt>
      <trkpt lat="45.91574" lon="6.50529">
        <ele>2109.894</ele>
        <time>2024-12-11T12:33:05Z</time>
      </trkpt>
      <trkpt lat="45.91573" lon="6.50529">
        <ele>2111.442</ele>
        <time>2024-12-11T12:33:10Z</time>
      </trkpt>
      <trkpt lat="45.91569" lon="6.50528">
        <ele>2111.995</ele>
        <time>2024-12-11T12:33:15Z</time>
      </trkpt>
      <trkpt lat="45.91567" lon="6.50527">
        <ele>2111.601</ele>
        <time>2024-12-11T12:33:20Z</time>
      </trkpt>
      <trkpt lat="45.91564" lon="6.50528">
        <ele>2112.418</ele>
        <time>2024-12-11T12:33:25Z</time>
      </trkpt>
      <trkpt lat="45.91562" lon="6.5053">
        <ele>2112.802</ele>
        <time>2024-12-11T12:33:30Z</time>
      </trkpt>
      <trkpt lat="45.9156" lon="6.50532">
        <ele>2113.831</ele>
        <time>2024-12-11T12:33:35Z</time>
      </trkpt>
      <trkpt lat="45.9156" lon="6.50532">
        <ele>2113.806</ele>
        <time>2024-12-11T12:33:40Z</time>
      </trkpt>
      <trkpt lat="45.9156" lon="6.50533">
        <ele>2113.171</ele>
        <time>2024-12-11T12:33:45Z</time>
      </trkpt>
      <trkpt lat="45.9156" lon="6.50538">
        <ele>2111.806</ele>
        <time>2024-12-11T12:33:50Z</time>
      </trkpt>
      <trkpt lat="45.9156" lon="6.50543">
        <ele>2113.321</ele>
        <time>2024-12-11T12:33:55Z</time>
      </trkpt>
      <trkpt lat="45.9156" lon="6.50547">
        <ele>2113.483</ele>
        <time>2024-12-11T12:34:00Z</time>
      </trkpt>
      <trkpt lat="45.91559" lon="6.5055">
        <ele>2114.149</ele>
        <time>2024-12-11T12:34:05Z</time>
      </trkpt>
      <trkpt lat="45.91558" lon="6.50555">
        <ele>2114.261</ele>
        <time>2024-12-11T12:34:10Z</time>
      </trkpt>
      <trkpt lat="45.91558" lon="6.50557">
        <ele>2114.498</ele>
        <time>2024-12-11T12:34:15Z</time>
      </trkpt>
      <trkpt lat="45.91557" lon="6.50563">
        <ele>2115.408</ele>
        <time>2024-12-11T12:34:20Z</time>
      </trkpt>
      <trkpt lat="45.91557" lon="6.50566">
        <ele>2117.295</ele>
        <time>2024-12-11T12:34:25Z</time>
      </trkpt>
      <trkpt lat="45.91556" lon="6.50569">
        <ele>2116.296</ele>
        <time>2024-12-11T12:34:30Z</time>
      </trkpt>
      <trkpt lat="45.91556" lon="6.50571">
        <ele>2116.37</ele>
        <time>2024-12-11T12:34:35Z</time>
      </trkpt>
      <trkpt lat="45.91556" lon="6.50572">
        <ele>2116.683</ele>
        <time>2024-12-11T12:34:40Z</time>
      </trkpt>
      <trkpt lat="45.91555" lon="6.50574">
        <ele>2117.609</ele>
        <time>2024-12-11T12:34:45Z</time>
      </trkpt>
      <trkpt lat="45.91554" lon="6.50576">
        <ele>2120.091</ele>
        <time>2024-12-11T12:34:50Z</time>
      </trkpt>
      <trkpt lat="45.91553" lon="6.50577">
        <ele>2121.59</ele>
        <time>2024-12-11T12:34:55Z</time>
      </trkpt>
      <trkpt lat="45.91552" lon="6.5058">
        <ele>2121.76</ele>
        <time>2024-12-11T12:35:00Z</time>
      </trkpt>
      <trkpt lat="45.91551" lon="6.50582">
        <ele>2122.434</ele>
        <time>2024-12-11T12:35:05Z</time>
      </trkpt>
      <trkpt lat="45.91549" lon="6.50586">
        <ele>2123.362</ele>
        <time>2024-12-11T12:35:10Z</time>
      </trkpt>
      <trkpt lat="45.91547" lon="6.50589">
        <ele>2123.378</ele>
        <time>2024-12-11T12:35:15Z</time>
      </trkpt>
      <trkpt lat="45.91547" lon="6.50592">
        <ele>2123.846</ele>
        <time>2024-12-11T12:35:20Z</time>
      </trkpt>
      <trkpt lat="45.91547" lon="6.50595">
        <ele>2122.749</ele>
        <time>2024-12-11T12:35:25Z</time>
      </trkpt>
      <trkpt lat="45.91548" lon="6.50599">
        <ele>2122.399</ele>
        <time>2024-12-11T12:35:30Z</time>
      </trkpt>
      <trkpt lat="45.91549" lon="6.50602">
        <ele>2122.368</ele>
        <time>2024-12-11T12:35:35Z</time>
      </trkpt>
      <trkpt lat="45.9155" lon="6.50605">
        <ele>2121.68</ele>
        <time>2024-12-11T12:35:40Z</time>
      </trkpt>
      <trkpt lat="45.91549" lon="6.50607">
        <ele>2123.427</ele>
        <time>2024-12-11T12:35:45Z</time>
      </trkpt>
      <trkpt lat="45.91548" lon="6.50609">
        <ele>2125.061</ele>
        <time>2024-12-11T12:35:50Z</time>
      </trkpt>
      <trkpt lat="45.91548" lon="6.5061">
        <ele>2126.095</ele>
        <time>2024-12-11T12:35:55Z</time>
      </trkpt>
      <trkpt lat="45.91548" lon="6.50613">
        <ele>2127.913</ele>
        <time>2024-12-11T12:36:00Z</time>
      </trkpt>
      <trkpt lat="45.91547" lon="6.50616">
        <ele>2128.212</ele>
        <time>2024-12-11T12:36:05Z</time>
      </trkpt>
      <trkpt lat="45.91546" lon="6.50619">
        <ele>2129.266</ele>
        <time>2024-12-11T12:36:10Z</time>
      </trkpt>
      <trkpt lat="45.91546" lon="6.50622">
        <ele>2128.736</ele>
        <time>2024-12-11T12:36:15Z</time>
      </trkpt>
      <trkpt lat="45.91546" lon="6.50624">
        <ele>2129.342</ele>
        <time>2024-12-11T12:36:20Z</time>
      </trkpt>
      <trkpt lat="45.91545" lon="6.50626">
        <ele>2130.673</ele>
        <time>2024-12-11T12:36:25Z</time>
      </trkpt>
      <trkpt lat="45.91545" lon="6.5063">
        <ele>2132.17</ele>
        <time>2024-12-11T12:36:30Z</time>
      </trkpt>
      <trkpt lat="45.91544" lon="6.50633">
        <ele>2133.048</ele>
        <time>2024-12-11T12:36:35Z</time>
      </trkpt>
      <trkpt lat="45.91544" lon="6.50636">
        <ele>2132.975</ele>
        <time>2024-12-11T12:36:40Z</time>
      </trkpt>
      <trkpt lat="45.91543" lon="6.50638">
        <ele>2133.665</ele>
        <time>2024-12-11T12:36:45Z</time>
      </trkpt>
      <trkpt lat="45.91542" lon="6.50641">
        <ele>2133.441</ele>
        <time>2024-12-11T12:36:50Z</time>
      </trkpt>
      <trkpt lat="45.91542" lon="6.50642">
        <ele>2134.344</ele>
        <time>2024-12-11T12:36:55Z</time>
      </trkpt>
      <trkpt lat="45.9154" lon="6.50643">
        <ele>2135.129</ele>
        <time>2024-12-11T12:37:00Z</time>
      </trkpt>
      <trkpt lat="45.91538" lon="6.50645">
        <ele>2135.486</ele>
        <time>2024-12-11T12:37:05Z</time>
      </trkpt>
      <trkpt lat="45.91537" lon="6.50646">
        <ele>2136.617</ele>
        <time>2024-12-11T12:37:10Z</time>
      </trkpt>
      <trkpt lat="45.91535" lon="6.50647">
        <ele>2137.98</ele>
        <time>2024-12-11T12:37:15Z</time>
      </trkpt>
      <trkpt lat="45.91533" lon="6.50648">
        <ele>2138.769</ele>
        <time>2024-12-11T12:37:20Z</time>
      </trkpt>
      <trkpt lat="45.91531" lon="6.50649">
        <ele>2139.759</ele>
        <time>2024-12-11T12:37:25Z</time>
      </trkpt>
      <trkpt lat="45.9153" lon="6.50651">
        <ele>2140.19</ele>
        <time>2024-12-11T12:37:30Z</time>
      </trkpt>
      <trkpt lat="45.91532" lon="6.50656">
        <ele>2140.133</ele>
        <time>2024-12-11T12:37:35Z</time>
      </trkpt>
      <trkpt lat="45.91534" lon="6.50659">
        <ele>2138.431</ele>
        <time>2024-12-11T12:37:40Z</time>
      </trkpt>
      <trkpt lat="45.91535" lon="6.50662">
        <ele>2139.096</ele>
        <time>2024-12-11T12:37:45Z</time>
      </trkpt>
      <trkpt lat="45.91536" lon="6.50664">
        <ele>2139.321</ele>
        <time>2024-12-11T12:37:50Z</time>
      </trkpt>
      <trkpt lat="45.91537" lon="6.50666">
        <ele>2140.631</ele>
        <time>2024-12-11T12:37:55Z</time>
      </trkpt>
      <trkpt lat="45.91538" lon="6.50668">
        <ele>2140.757</ele>
        <time>2024-12-11T12:38:00Z</time>
      </trkpt>
      <trkpt lat="45.91538" lon="6.5067">
        <ele>2142.505</ele>
        <time>2024-12-11T12:38:05Z</time>
      </trkpt>
      <trkpt lat="45.91538" lon="6.50671">
        <ele>2143.115</ele>
        <time>2024-12-11T12:38:10Z</time>
      </trkpt>
      <trkpt lat="45.91537" lon="6.50673">
        <ele>2144.572</ele>
        <time>2024-12-11T12:38:15Z</time>
      </trkpt>
      <trkpt lat="45.91537" lon="6.50674">
        <ele>2145.643</ele>
        <time>2024-12-11T12:38:20Z</time>
      </trkpt>
      <trkpt lat="45.91536" lon="6.50677">
        <ele>2145.254</ele>
        <time>2024-12-11T12:38:25Z</time>
      </trkpt>
      <trkpt lat="45.91536" lon="6.5068">
        <ele>2145.907</ele>
        <time>2024-12-11T12:38:30Z</time>
      </trkpt>
      <trkpt lat="45.91535" lon="6.50683">
        <ele>2146.346</ele>
        <time>2024-12-11T12:38:35Z</time>
      </trkpt>
      <trkpt lat="45.91534" lon="6.50686">
        <ele>2147.342</ele>
        <time>2024-12-11T12:38:40Z</time>
      </trkpt>
      <trkpt lat="45.91534" lon="6.50686">
        <ele>2147.371</ele>
        <time>2024-12-11T12:38:45Z</time>
      </trkpt>
      <trkpt lat="45.91534" lon="6.50686">
        <ele>2147.374</ele>
        <time>2024-12-11T12:38:50Z</time>
      </trkpt>
      <trkpt lat="45.91534" lon="6.50686">
        <ele>2147.376</ele>
        <time>2024-12-11T12:38:55Z</time>
      </trkpt>
      <trkpt lat="45.91534" lon="6.50686">
        <ele>2147.404</ele>
        <time>2024-12-11T12:39:00Z</time>
      </trkpt>
      <trkpt lat="45.91534" lon="6.50686">
        <ele>2147.908</ele>
        <time>2024-12-11T12:39:05Z</time>
      </trkpt>
      <trkpt lat="45.91533" lon="6.50687">
        <ele>2149.038</ele>
        <time>2024-12-11T12:39:10Z</time>
      </trkpt>
      <trkpt lat="45.91531" lon="6.50689">
        <ele>2149.47</ele>
        <time>2024-12-11T12:39:15Z</time>
      </trkpt>
      <trkpt lat="45.91529" lon="6.50692">
        <ele>2149.794</ele>
        <time>2024-12-11T12:39:20Z</time>
      </trkpt>
      <trkpt lat="45.91527" lon="6.50694">
        <ele>2151.469</ele>
        <time>2024-12-11T12:39:25Z</time>
      </trkpt>
      <trkpt lat="45.91525" lon="6.50695">
        <ele>2152.273</ele>
        <time>2024-12-11T12:39:30Z</time>
      </trkpt>
      <trkpt lat="45.91523" lon="6.50696">
        <ele>2153.452</ele>
        <time>2024-12-11T12:39:35Z</time>
      </trkpt>
      <trkpt lat="45.91521" lon="6.50697">
        <ele>2153.794</ele>
        <time>2024-12-11T12:39:40Z</time>
      </trkpt>
      <trkpt lat="45.9152" lon="6.50698">
        <ele>2155.262</ele>
        <time>2024-12-11T12:39:45Z</time>
      </trkpt>
      <trkpt lat="45.91519" lon="6.50698">
        <ele>2155.768</ele>
        <time>2024-12-11T12:39:50Z</time>
      </trkpt>
      <trkpt lat="45.91517" lon="6.507">
        <ele>2156.325</ele>
        <time>2024-12-11T12:39:55Z</time>
      </trkpt>
      <trkpt lat="45.91516" lon="6.50702">
        <ele>2156.926</ele>
        <time>2024-12-11T12:40:00Z</time>
      </trkpt>
      <trkpt lat="45.91514" lon="6.50703">
        <ele>2157.45</ele>
        <time>2024-12-11T12:40:05Z</time>
      </trkpt>
      <trkpt lat="45.91513" lon="6.50704">
        <ele>2158.618</ele>
        <time>2024-12-11T12:40:10Z</time>
      </trkpt>
      <trkpt lat="45.91511" lon="6.50706">
        <ele>2159.302</ele>
        <time>2024-12-11T12:40:15Z</time>
      </trkpt>
      <trkpt lat="45.9151" lon="6.50708">
        <ele>2159.845</ele>
        <time>2024-12-11T12:40:20Z</time>
      </trkpt>
      <trkpt lat="45.91509" lon="6.5071">
        <ele>2160.386</ele>
        <time>2024-12-11T12:40:25Z</time>
      </trkpt>
      <trkpt lat="45.91508" lon="6.50712">
        <ele>2161.106</ele>
        <time>2024-12-11T12:40:30Z</time>
      </trkpt>
      <trkpt lat="45.91508" lon="6.50715">
        <ele>2159.424</ele>
        <time>2024-12-11T12:40:35Z</time>
      </trkpt>
      <trkpt lat="45.9151" lon="6.50719">
        <ele>2158.963</ele>
        <time>2024-12-11T12:40:40Z</time>
      </trkpt>
      <trkpt lat="45.91511" lon="6.50721">
        <ele>2158.168</ele>
        <time>2024-12-11T12:40:45Z</time>
      </trkpt>
      <trkpt lat="45.91512" lon="6.50724">
        <ele>2158.513</ele>
        <time>2024-12-11T12:40:50Z</time>
      </trkpt>
      <trkpt lat="45.91514" lon="6.50726">
        <ele>2159.249</ele>
        <time>2024-12-11T12:40:55Z</time>
      </trkpt>
      <trkpt lat="45.91516" lon="6.50727">
        <ele>2158.425</ele>
        <time>2024-12-11T12:41:00Z</time>
      </trkpt>
      <trkpt lat="45.91518" lon="6.50728">
        <ele>2159.411</ele>
        <time>2024-12-11T12:41:05Z</time>
      </trkpt>
      <trkpt lat="45.9152" lon="6.50728">
        <ele>2161.023</ele>
        <time>2024-12-11T12:41:10Z</time>
      </trkpt>
      <trkpt lat="45.91521" lon="6.50729">
        <ele>2160.962</ele>
        <time>2024-12-11T12:41:15Z</time>
      </trkpt>
      <trkpt lat="45.91523" lon="6.5073">
        <ele>2162.239</ele>
        <time>2024-12-11T12:41:20Z</time>
      </trkpt>
      <trkpt lat="45.91523" lon="6.5073">
        <ele>2162.529</ele>
        <time>2024-12-11T12:41:25Z</time>
      </trkpt>
      <trkpt lat="45.91521" lon="6.50731">
        <ele>2164.784</ele>
        <time>2024-12-11T12:41:30Z</time>
      </trkpt>
      <trkpt lat="45.91519" lon="6.50732">
        <ele>2166.059</ele>
        <time>2024-12-11T12:41:35Z</time>
      </trkpt>
      <trkpt lat="45.91516" lon="6.50734">
        <ele>2165.463</ele>
        <time>2024-12-11T12:41:40Z</time>
      </trkpt>
      <trkpt lat="45.91515" lon="6.50736">
        <ele>2166.989</ele>
        <time>2024-12-11T12:41:45Z</time>
      </trkpt>
      <trkpt lat="45.91512" lon="6.50737">
        <ele>2168.62</ele>
        <time>2024-12-11T12:41:50Z</time>
      </trkpt>
      <trkpt lat="45.91511" lon="6.50738">
        <ele>2168.988</ele>
        <time>2024-12-11T12:41:55Z</time>
      </trkpt>
      <trkpt lat="45.91509" lon="6.5074">
        <ele>2169.639</ele>
        <time>2024-12-11T12:42:00Z</time>
      </trkpt>
      <trkpt lat="45.91507" lon="6.50741">
        <ele>2170.142</ele>
        <time>2024-12-11T12:42:05Z</time>
      </trkpt>
      <trkpt lat="45.91505" lon="6.50742">
        <ele>2170.59</ele>
        <time>2024-12-11T12:42:10Z</time>
      </trkpt>
      <trkpt lat="45.91503" lon="6.50742">
        <ele>2171.776</ele>
        <time>2024-12-11T12:42:15Z</time>
      </trkpt>
      <trkpt lat="45.91502" lon="6.50743">
        <ele>2172.409</ele>
        <time>2024-12-11T12:42:20Z</time>
      </trkpt>
      <trkpt lat="45.91502" lon="6.50744">
        <ele>2171.026</ele>
        <time>2024-12-11T12:42:25Z</time>
      </trkpt>
      <trkpt lat="45.91503" lon="6.50748">
        <ele>2170.399</ele>
        <time>2024-12-11T12:42:30Z</time>
      </trkpt>
      <trkpt lat="45.91505" lon="6.50751">
        <ele>2171.238</ele>
        <time>2024-12-11T12:42:35Z</time>
      </trkpt>
      <trkpt lat="45.91507" lon="6.50752">
        <ele>2172.046</ele>
        <time>2024-12-11T12:42:40Z</time>
      </trkpt>
      <trkpt lat="45.91509" lon="6.50754">
        <ele>2171.539</ele>
        <time>2024-12-11T12:42:45Z</time>
      </trkpt>
      <trkpt lat="45.91512" lon="6.50754">
        <ele>2170.998</ele>
        <time>2024-12-11T12:42:50Z</time>
      </trkpt>
      <trkpt lat="45.91515" lon="6.50755">
        <ele>2172.162</ele>
        <time>2024-12-11T12:42:55Z</time>
      </trkpt>
      <trkpt lat="45.91517" lon="6.50756">
        <ele>2172.407</ele>
        <time>2024-12-11T12:43:00Z</time>
      </trkpt>
      <trkpt lat="45.91518" lon="6.50757">
        <ele>2172.74</ele>
        <time>2024-12-11T12:43:05Z</time>
      </trkpt>
      <trkpt lat="45.9152" lon="6.50759">
        <ele>2172.973</ele>
        <time>2024-12-11T12:43:10Z</time>
      </trkpt>
      <trkpt lat="45.91522" lon="6.50761">
        <ele>2172.755</ele>
        <time>2024-12-11T12:43:15Z</time>
      </trkpt>
      <trkpt lat="45.91523" lon="6.50762">
        <ele>2174.943</ele>
        <time>2024-12-11T12:43:20Z</time>
      </trkpt>
      <trkpt lat="45.91523" lon="6.50764">
        <ele>2174.409</ele>
        <time>2024-12-11T12:43:25Z</time>
      </trkpt>
      <trkpt lat="45.91524" lon="6.50766">
        <ele>2175.338</ele>
        <time>2024-12-11T12:43:30Z</time>
      </trkpt>
      <trkpt lat="45.91523" lon="6.50767">
        <ele>2177.581</ele>
        <time>2024-12-11T12:43:35Z</time>
      </trkpt>
      <trkpt lat="45.91521" lon="6.50767">
        <ele>2178.971</ele>
        <time>2024-12-11T12:43:40Z</time>
      </trkpt>
      <trkpt lat="45.9152" lon="6.50768">
        <ele>2180.628</ele>
        <time>2024-12-11T12:43:45Z</time>
      </trkpt>
      <trkpt lat="45.91519" lon="6.5077">
        <ele>2181.166</ele>
        <time>2024-12-11T12:43:50Z</time>
      </trkpt>
      <trkpt lat="45.9152" lon="6.50772">
        <ele>2181.959</ele>
        <time>2024-12-11T12:43:55Z</time>
      </trkpt>
      <trkpt lat="45.9152" lon="6.50773">
        <ele>2182.824</ele>
        <time>2024-12-11T12:44:00Z</time>
      </trkpt>
      <trkpt lat="45.91522" lon="6.50777">
        <ele>2182.881</ele>
        <time>2024-12-11T12:44:05Z</time>
      </trkpt>
      <trkpt lat="45.91521" lon="6.50779">
        <ele>2183.437</ele>
        <time>2024-12-11T12:44:10Z</time>
      </trkpt>
      <trkpt lat="45.91522" lon="6.50781">
        <ele>2184.5</ele>
        <time>2024-12-11T12:44:15Z</time>
      </trkpt>
      <trkpt lat="45.91524" lon="6.50786">
        <ele>2182.678</ele>
        <time>2024-12-11T12:44:20Z</time>
      </trkpt>
      <trkpt lat="45.91525" lon="6.50789">
        <ele>2183.636</ele>
        <time>2024-12-11T12:44:25Z</time>
      </trkpt>
      <trkpt lat="45.91526" lon="6.50792">
        <ele>2183.71</ele>
        <time>2024-12-11T12:44:30Z</time>
      </trkpt>
      <trkpt lat="45.91527" lon="6.50794">
        <ele>2184.138</ele>
        <time>2024-12-11T12:44:35Z</time>
      </trkpt>
      <trkpt lat="45.91527" lon="6.50795">
        <ele>2184.678</ele>
        <time>2024-12-11T12:44:40Z</time>
      </trkpt>
      <trkpt lat="45.91528" lon="6.50798">
        <ele>2185.267</ele>
        <time>2024-12-11T12:44:45Z</time>
      </trkpt>
      <trkpt lat="45.91529" lon="6.508">
        <ele>2186.162</ele>
        <time>2024-12-11T12:44:50Z</time>
      </trkpt>
      <trkpt lat="45.9153" lon="6.50801">
        <ele>2187.225</ele>
        <time>2024-12-11T12:44:55Z</time>
      </trkpt>
      <trkpt lat="45.91531" lon="6.50803">
        <ele>2188.312</ele>
        <time>2024-12-11T12:45:00Z</time>
      </trkpt>
      <trkpt lat="45.91533" lon="6.50805">
        <ele>2189.766</ele>
        <time>2024-12-11T12:45:05Z</time>
      </trkpt>
      <trkpt lat="45.91534" lon="6.50808">
        <ele>2188.223</ele>
        <time>2024-12-11T12:45:10Z</time>
      </trkpt>
      <trkpt lat="45.91535" lon="6.50809">
        <ele>2189</ele>
        <time>2024-12-11T12:45:15Z</time>
      </trkpt>
      <trkpt lat="45.91538" lon="6.5081">
        <ele>2190.48</ele>
        <time>2024-12-11T12:45:20Z</time>
      </trkpt>
      <trkpt lat="45.9154" lon="6.50811">
        <ele>2191.007</ele>
        <time>2024-12-11T12:45:25Z</time>
      </trkpt>
      <trkpt lat="45.91541" lon="6.50812">
        <ele>2192.097</ele>
        <time>2024-12-11T12:45:30Z</time>
      </trkpt>
      <trkpt lat="45.91543" lon="6.50813">
        <ele>2194.213</ele>
        <time>2024-12-11T12:45:35Z</time>
      </trkpt>
      <trkpt lat="45.91543" lon="6.50812">
        <ele>2193.81</ele>
        <time>2024-12-11T12:45:40Z</time>
      </trkpt>
      <trkpt lat="45.91543" lon="6.50812">
        <ele>2194.328</ele>
        <time>2024-12-11T12:45:45Z</time>
      </trkpt>
      <trkpt lat="45.91543" lon="6.50812">
        <ele>2194.33</ele>
        <time>2024-12-11T12:45:50Z</time>
      </trkpt>
      <trkpt lat="45.91543" lon="6.50812">
        <ele>2194.556</ele>
        <time>2024-12-11T12:45:55Z</time>
      </trkpt>
      <trkpt lat="45.91543" lon="6.50812">
        <ele>2194.549</ele>
        <time>2024-12-11T12:46:00Z</time>
      </trkpt>
      <trkpt lat="45.91543" lon="6.50812">
        <ele>2194.545</ele>
        <time>2024-12-11T12:46:05Z</time>
      </trkpt>
      <trkpt lat="45.91543" lon="6.50812">
        <ele>2194.549</ele>
        <time>2024-12-11T12:46:10Z</time>
      </trkpt>
      <trkpt lat="45.91543" lon="6.50812">
        <ele>2194.554</ele>
        <time>2024-12-11T12:46:15Z</time>
      </trkpt>
      <trkpt lat="45.91543" lon="6.50812">
        <ele>2194.556</ele>
        <time>2024-12-11T12:46:20Z</time>
      </trkpt>
      <trkpt lat="45.91543" lon="6.50812">
        <ele>2194.559</ele>
        <time>2024-12-11T12:46:25Z</time>
      </trkpt>
      <trkpt lat="45.91543" lon="6.50812">
        <ele>2194.561</ele>
        <time>2024-12-11T12:46:30Z</time>
      </trkpt>
      <trkpt lat="45.91543" lon="6.50812">
        <ele>2194.551</ele>
        <time>2024-12-11T12:46:35Z</time>
      </trkpt>
      <trkpt lat="45.91543" lon="6.50812">
        <ele>2194.558</ele>
        <time>2024-12-11T12:46:40Z</time>
      </trkpt>
      <trkpt lat="45.91543" lon="6.50812">
        <ele>2194.575</ele>
        <time>2024-12-11T12:46:45Z</time>
      </trkpt>
      <trkpt lat="45.91543" lon="6.50812">
        <ele>2194.591</ele>
        <time>2024-12-11T12:46:50Z</time>
      </trkpt>
      <trkpt lat="45.91543" lon="6.50812">
        <ele>2194.596</ele>
        <time>2024-12-11T12:46:55Z</time>
      </trkpt>
      <trkpt lat="45.91543" lon="6.50812">
        <ele>2194.601</ele>
        <time>2024-12-11T12:47:00Z</time>
      </trkpt>
      <trkpt lat="45.91543" lon="6.50812">
        <ele>2194.61</ele>
        <time>2024-12-11T12:47:05Z</time>
      </trkpt>
      <trkpt lat="45.91543" lon="6.50812">
        <ele>2194.613</ele>
        <time>2024-12-11T12:47:10Z</time>
      </trkpt>
      <trkpt lat="45.91543" lon="6.50812">
        <ele>2194.619</ele>
        <time>2024-12-11T12:47:15Z</time>
      </trkpt>
      <trkpt lat="45.91543" lon="6.50812">
        <ele>2194.623</ele>
        <time>2024-12-11T12:47:20Z</time>
      </trkpt>
      <trkpt lat="45.91543" lon="6.50812">
        <ele>2194.627</ele>
        <time>2024-12-11T12:47:25Z</time>
      </trkpt>
      <trkpt lat="45.91543" lon="6.50812">
        <ele>2194.634</ele>
        <time>2024-12-11T12:47:30Z</time>
      </trkpt>
      <trkpt lat="45.91543" lon="6.50812">
        <ele>2194.638</ele>
        <time>2024-12-11T12:47:35Z</time>
      </trkpt>
      <trkpt lat="45.91543" lon="6.50812">
        <ele>2194.647</ele>
        <time>2024-12-11T12:47:40Z</time>
      </trkpt>
      <trkpt lat="45.91543" lon="6.50812">
        <ele>2194.654</ele>
        <time>2024-12-11T12:47:45Z</time>
      </trkpt>
      <trkpt lat="45.91543" lon="6.50812">
        <ele>2194.659</ele>
        <time>2024-12-11T12:47:50Z</time>
      </trkpt>
      <trkpt lat="45.91543" lon="6.50812">
        <ele>2194.671</ele>
        <time>2024-12-11T12:47:55Z</time>
      </trkpt>
      <trkpt lat="45.91543" lon="6.50812">
        <ele>2194.678</ele>
        <time>2024-12-11T12:48:00Z</time>
      </trkpt>
      <trkpt lat="45.91543" lon="6.50812">
        <ele>2194.672</ele>
        <time>2024-12-11T12:48:05Z</time>
      </trkpt>
      <trkpt lat="45.91543" lon="6.50812">
        <ele>2194.674</ele>
        <time>2024-12-11T12:48:10Z</time>
      </trkpt>
      <trkpt lat="45.91543" lon="6.50812">
        <ele>2194.675</ele>
        <time>2024-12-11T12:48:15Z</time>
      </trkpt>
      <trkpt lat="45.91543" lon="6.50812">
        <ele>2194.674</ele>
        <time>2024-12-11T12:48:20Z</time>
      </trkpt>
      <trkpt lat="45.91543" lon="6.50812">
        <ele>2194.679</ele>
        <time>2024-12-11T12:48:25Z</time>
      </trkpt>
      <trkpt lat="45.91543" lon="6.50812">
        <ele>2194.683</ele>
        <time>2024-12-11T12:48:30Z</time>
      </trkpt>
      <trkpt lat="45.91543" lon="6.50812">
        <ele>2194.682</ele>
        <time>2024-12-11T12:48:35Z</time>
      </trkpt>
      <trkpt lat="45.91543" lon="6.50812">
        <ele>2194.681</ele>
        <time>2024-12-11T12:48:40Z</time>
      </trkpt>
      <trkpt lat="45.91543" lon="6.50812">
        <ele>2194.681</ele>
        <time>2024-12-11T12:48:45Z</time>
      </trkpt>
      <trkpt lat="45.91543" lon="6.50812">
        <ele>2194.686</ele>
        <time>2024-12-11T12:48:50Z</time>
      </trkpt>
      <trkpt lat="45.91543" lon="6.50812">
        <ele>2194.696</ele>
        <time>2024-12-11T12:48:55Z</time>
      </trkpt>
      <trkpt lat="45.91543" lon="6.50812">
        <ele>2194.687</ele>
        <time>2024-12-11T12:49:00Z</time>
      </trkpt>
      <trkpt lat="45.91543" lon="6.50812">
        <ele>2194.682</ele>
        <time>2024-12-11T12:49:05Z</time>
      </trkpt>
      <trkpt lat="45.91543" lon="6.50812">
        <ele>2194.68</ele>
        <time>2024-12-11T12:49:10Z</time>
      </trkpt>
      <trkpt lat="45.91543" lon="6.50812">
        <ele>2194.67</ele>
        <time>2024-12-11T12:49:15Z</time>
      </trkpt>
      <trkpt lat="45.91543" lon="6.50812">
        <ele>2194.66</ele>
        <time>2024-12-11T12:49:20Z</time>
      </trkpt>
      <trkpt lat="45.91543" lon="6.50812">
        <ele>2194.657</ele>
        <time>2024-12-11T12:49:25Z</time>
      </trkpt>
      <trkpt lat="45.91543" lon="6.50812">
        <ele>2194.663</ele>
        <time>2024-12-11T12:49:30Z</time>
      </trkpt>
      <trkpt lat="45.91543" lon="6.50812">
        <ele>2194.652</ele>
        <time>2024-12-11T12:49:35Z</time>
      </trkpt>
      <trkpt lat="45.91543" lon="6.50812">
        <ele>2194.646</ele>
        <time>2024-12-11T12:49:40Z</time>
      </trkpt>
      <trkpt lat="45.91543" lon="6.50812">
        <ele>2194.661</ele>
        <time>2024-12-11T12:49:45Z</time>
      </trkpt>
      <trkpt lat="45.91543" lon="6.50812">
        <ele>2194.664</ele>
        <time>2024-12-11T12:49:50Z</time>
      </trkpt>
      <trkpt lat="45.91543" lon="6.50812">
        <ele>2194.675</ele>
        <time>2024-12-11T12:49:55Z</time>
      </trkpt>
      <trkpt lat="45.91543" lon="6.50812">
        <ele>2194.689</ele>
        <time>2024-12-11T12:50:00Z</time>
      </trkpt>
      <trkpt lat="45.91543" lon="6.50812">
        <ele>2194.7</ele>
        <time>2024-12-11T12:50:05Z</time>
      </trkpt>
      <trkpt lat="45.91543" lon="6.50812">
        <ele>2194.71</ele>
        <time>2024-12-11T12:50:10Z</time>
      </trkpt>
      <trkpt lat="45.91543" lon="6.50812">
        <ele>2194.721</ele>
        <time>2024-12-11T12:50:15Z</time>
      </trkpt>
      <trkpt lat="45.91543" lon="6.50812">
        <ele>2194.731</ele>
        <time>2024-12-11T12:50:20Z</time>
      </trkpt>
      <trkpt lat="45.91543" lon="6.50812">
        <ele>2194.73</ele>
        <time>2024-12-11T12:50:25Z</time>
      </trkpt>
      <trkpt lat="45.91543" lon="6.50812">
        <ele>2194.731</ele>
        <time>2024-12-11T12:50:30Z</time>
      </trkpt>
      <trkpt lat="45.91543" lon="6.50812">
        <ele>2194.725</ele>
        <time>2024-12-11T12:50:35Z</time>
      </trkpt>
      <trkpt lat="45.91543" lon="6.50812">
        <ele>2194.724</ele>
        <time>2024-12-11T12:50:40Z</time>
      </trkpt>
      <trkpt lat="45.91543" lon="6.50812">
        <ele>2194.726</ele>
        <time>2024-12-11T12:50:45Z</time>
      </trkpt>
      <trkpt lat="45.91543" lon="6.50812">
        <ele>2194.742</ele>
        <time>2024-12-11T12:50:50Z</time>
      </trkpt>
      <trkpt lat="45.91542" lon="6.50812">
        <ele>2195.943</ele>
        <time>2024-12-11T12:50:55Z</time>
      </trkpt>
      <trkpt lat="45.9154" lon="6.50815">
        <ele>2197.218</ele>
        <time>2024-12-11T12:51:00Z</time>
      </trkpt>
      <trkpt lat="45.91538" lon="6.50817">
        <ele>2198.32</ele>
        <time>2024-12-11T12:51:05Z</time>
      </trkpt>
      <trkpt lat="45.91536" lon="6.50819">
        <ele>2198.819</ele>
        <time>2024-12-11T12:51:10Z</time>
      </trkpt>
      <trkpt lat="45.91535" lon="6.50821">
        <ele>2199.812</ele>
        <time>2024-12-11T12:51:15Z</time>
      </trkpt>
      <trkpt lat="45.91533" lon="6.50824">
        <ele>2200.863</ele>
        <time>2024-12-11T12:51:20Z</time>
      </trkpt>
      <trkpt lat="45.91531" lon="6.50827">
        <ele>2201.115</ele>
        <time>2024-12-11T12:51:25Z</time>
      </trkpt>
      <trkpt lat="45.91529" lon="6.5083">
        <ele>2202.055</ele>
        <time>2024-12-11T12:51:30Z</time>
      </trkpt>
      <trkpt lat="45.91527" lon="6.50832">
        <ele>2201.433</ele>
        <time>2024-12-11T12:51:35Z</time>
      </trkpt>
      <trkpt lat="45.91527" lon="6.50832">
        <ele>2201.376</ele>
        <time>2024-12-11T12:51:40Z</time>
      </trkpt>
      <trkpt lat="45.91527" lon="6.50832">
        <ele>2201.372</ele>
        <time>2024-12-11T12:51:45Z</time>
      </trkpt>
      <trkpt lat="45.91527" lon="6.50832">
        <ele>2202.413</ele>
        <time>2024-12-11T12:51:50Z</time>
      </trkpt>
      <trkpt lat="45.91527" lon="6.50832">
        <ele>2203.972</ele>
        <time>2024-12-11T12:51:55Z</time>
      </trkpt>
      <trkpt lat="45.91527" lon="6.50832">
        <ele>2205.369</ele>
        <time>2024-12-11T12:52:00Z</time>
      </trkpt>
      <trkpt lat="45.91527" lon="6.50832">
        <ele>2205.441</ele>
        <time>2024-12-11T12:52:05Z</time>
      </trkpt>
      <trkpt lat="45.91523" lon="6.50835">
        <ele>2205.447</ele>
        <time>2024-12-11T12:52:10Z</time>
      </trkpt>
      <trkpt lat="45.91522" lon="6.50835">
        <ele>2206.345</ele>
        <time>2024-12-11T12:52:15Z</time>
      </trkpt>
      <trkpt lat="45.91519" lon="6.50836">
        <ele>2206.626</ele>
        <time>2024-12-11T12:52:20Z</time>
      </trkpt>
      <trkpt lat="45.91517" lon="6.50837">
        <ele>2207.493</ele>
        <time>2024-12-11T12:52:25Z</time>
      </trkpt>
      <trkpt lat="45.91515" lon="6.50838">
        <ele>2208.235</ele>
        <time>2024-12-11T12:52:30Z</time>
      </trkpt>
      <trkpt lat="45.91513" lon="6.50837">
        <ele>2209.166</ele>
        <time>2024-12-11T12:52:35Z</time>
      </trkpt>
      <trkpt lat="45.91511" lon="6.50837">
        <ele>2210.133</ele>
        <time>2024-12-11T12:52:40Z</time>
      </trkpt>
      <trkpt lat="45.91509" lon="6.50837">
        <ele>2211.052</ele>
        <time>2024-12-11T12:52:45Z</time>
      </trkpt>
      <trkpt lat="45.91507" lon="6.50836">
        <ele>2212.217</ele>
        <time>2024-12-11T12:52:50Z</time>
      </trkpt>
      <trkpt lat="45.91507" lon="6.50838">
        <ele>2212.802</ele>
        <time>2024-12-11T12:52:55Z</time>
      </trkpt>
      <trkpt lat="45.91507" lon="6.50842">
        <ele>2212.69</ele>
        <time>2024-12-11T12:53:00Z</time>
      </trkpt>
      <trkpt lat="45.91508" lon="6.50845">
        <ele>2211.908</ele>
        <time>2024-12-11T12:53:05Z</time>
      </trkpt>
      <trkpt lat="45.91508" lon="6.50849">
        <ele>2211.618</ele>
        <time>2024-12-11T12:53:10Z</time>
      </trkpt>
      <trkpt lat="45.91509" lon="6.50853">
        <ele>2209.946</ele>
        <time>2024-12-11T12:53:15Z</time>
      </trkpt>
      <trkpt lat="45.9151" lon="6.50856">
        <ele>2209.486</ele>
        <time>2024-12-11T12:53:20Z</time>
      </trkpt>
      <trkpt lat="45.91511" lon="6.50859">
        <ele>2209.964</ele>
        <time>2024-12-11T12:53:25Z</time>
      </trkpt>
      <trkpt lat="45.91512" lon="6.50861">
        <ele>2211.667</ele>
        <time>2024-12-11T12:53:30Z</time>
      </trkpt>
      <trkpt lat="45.91513" lon="6.50864">
        <ele>2213.059</ele>
        <time>2024-12-11T12:53:35Z</time>
      </trkpt>
      <trkpt lat="45.91514" lon="6.50866">
        <ele>2212.203</ele>
        <time>2024-12-11T12:53:40Z</time>
      </trkpt>
      <trkpt lat="45.91516" lon="6.50868">
        <ele>2212.157</ele>
        <time>2024-12-11T12:53:45Z</time>
      </trkpt>
      <trkpt lat="45.91516" lon="6.5087">
        <ele>2212.421</ele>
        <time>2024-12-11T12:53:50Z</time>
      </trkpt>
      <trkpt lat="45.91514" lon="6.50871">
        <ele>2214.541</ele>
        <time>2024-12-11T12:53:55Z</time>
      </trkpt>
      <trkpt lat="45.91512" lon="6.5087">
        <ele>2216.028</ele>
        <time>2024-12-11T12:54:00Z</time>
      </trkpt>
      <trkpt lat="45.91509" lon="6.5087">
        <ele>2216.65</ele>
        <time>2024-12-11T12:54:05Z</time>
      </trkpt>
      <trkpt lat="45.91508" lon="6.5087">
        <ele>2218.308</ele>
        <time>2024-12-11T12:54:10Z</time>
      </trkpt>
      <trkpt lat="45.91506" lon="6.5087">
        <ele>2220.414</ele>
        <time>2024-12-11T12:54:15Z</time>
      </trkpt>
      <trkpt lat="45.91504" lon="6.5087">
        <ele>2220.946</ele>
        <time>2024-12-11T12:54:20Z</time>
      </trkpt>
      <trkpt lat="45.91502" lon="6.50871">
        <ele>2221.506</ele>
        <time>2024-12-11T12:54:25Z</time>
      </trkpt>
      <trkpt lat="45.91501" lon="6.5087">
        <ele>2222.37</ele>
        <time>2024-12-11T12:54:30Z</time>
      </trkpt>
      <trkpt lat="45.91499" lon="6.5087">
        <ele>2223.656</ele>
        <time>2024-12-11T12:54:35Z</time>
      </trkpt>
      <trkpt lat="45.91498" lon="6.50869">
        <ele>2224.214</ele>
        <time>2024-12-11T12:54:40Z</time>
      </trkpt>
      <trkpt lat="45.91498" lon="6.50871">
        <ele>2224.325</ele>
        <time>2024-12-11T12:54:45Z</time>
      </trkpt>
      <trkpt lat="45.91498" lon="6.50875">
        <ele>2224.316</ele>
        <time>2024-12-11T12:54:50Z</time>
      </trkpt>
      <trkpt lat="45.91497" lon="6.50879">
        <ele>2224.471</ele>
        <time>2024-12-11T12:54:55Z</time>
      </trkpt>
      <trkpt lat="45.91497" lon="6.50882">
        <ele>2224.986</ele>
        <time>2024-12-11T12:55:00Z</time>
      </trkpt>
      <trkpt lat="45.91497" lon="6.50885">
        <ele>2225.21</ele>
        <time>2024-12-11T12:55:05Z</time>
      </trkpt>
      <trkpt lat="45.91497" lon="6.50888">
        <ele>2225.382</ele>
        <time>2024-12-11T12:55:10Z</time>
      </trkpt>
      <trkpt lat="45.91499" lon="6.50891">
        <ele>2225.424</ele>
        <time>2024-12-11T12:55:15Z</time>
      </trkpt>
      <trkpt lat="45.915" lon="6.50895">
        <ele>2225.044</ele>
        <time>2024-12-11T12:55:20Z</time>
      </trkpt>
      <trkpt lat="45.91501" lon="6.50898">
        <ele>2226.035</ele>
        <time>2024-12-11T12:55:25Z</time>
      </trkpt>
      <trkpt lat="45.91502" lon="6.50901">
        <ele>2225.737</ele>
        <time>2024-12-11T12:55:30Z</time>
      </trkpt>
      <trkpt lat="45.91503" lon="6.50903">
        <ele>2227.317</ele>
        <time>2024-12-11T12:55:35Z</time>
      </trkpt>
      <trkpt lat="45.91505" lon="6.50905">
        <ele>2227.253</ele>
        <time>2024-12-11T12:55:40Z</time>
      </trkpt>
      <trkpt lat="45.91505" lon="6.50906">
        <ele>2227.756</ele>
        <time>2024-12-11T12:55:45Z</time>
      </trkpt>
      <trkpt lat="45.91505" lon="6.50906">
        <ele>2228.266</ele>
        <time>2024-12-11T12:55:50Z</time>
      </trkpt>
      <trkpt lat="45.91503" lon="6.50907">
        <ele>2229.924</ele>
        <time>2024-12-11T12:55:55Z</time>
      </trkpt>
      <trkpt lat="45.91502" lon="6.50908">
        <ele>2231.451</ele>
        <time>2024-12-11T12:56:00Z</time>
      </trkpt>
      <trkpt lat="45.91499" lon="6.50908">
        <ele>2232.998</ele>
        <time>2024-12-11T12:56:05Z</time>
      </trkpt>
      <trkpt lat="45.91497" lon="6.50908">
        <ele>2233.742</ele>
        <time>2024-12-11T12:56:10Z</time>
      </trkpt>
      <trkpt lat="45.91496" lon="6.50908">
        <ele>2234.399</ele>
        <time>2024-12-11T12:56:15Z</time>
      </trkpt>
      <trkpt lat="45.91493" lon="6.50908">
        <ele>2235.309</ele>
        <time>2024-12-11T12:56:20Z</time>
      </trkpt>
      <trkpt lat="45.91491" lon="6.50908">
        <ele>2235.846</ele>
        <time>2024-12-11T12:56:25Z</time>
      </trkpt>
      <trkpt lat="45.91489" lon="6.50908">
        <ele>2237.2</ele>
        <time>2024-12-11T12:56:30Z</time>
      </trkpt>
      <trkpt lat="45.91486" lon="6.50907">
        <ele>2237.617</ele>
        <time>2024-12-11T12:56:35Z</time>
      </trkpt>
      <trkpt lat="45.91484" lon="6.50906">
        <ele>2239.6</ele>
        <time>2024-12-11T12:56:40Z</time>
      </trkpt>
      <trkpt lat="45.91482" lon="6.50905">
        <ele>2240.576</ele>
        <time>2024-12-11T12:56:45Z</time>
      </trkpt>
      <trkpt lat="45.9148" lon="6.50904">
        <ele>2241.428</ele>
        <time>2024-12-11T12:56:50Z</time>
      </trkpt>
      <trkpt lat="45.91478" lon="6.50903">
        <ele>2242.304</ele>
        <time>2024-12-11T12:56:55Z</time>
      </trkpt>
      <trkpt lat="45.91477" lon="6.50903">
        <ele>2242.799</ele>
        <time>2024-12-11T12:57:00Z</time>
      </trkpt>
      <trkpt lat="45.91477" lon="6.50905">
        <ele>2242.903</ele>
        <time>2024-12-11T12:57:05Z</time>
      </trkpt>
      <trkpt lat="45.91477" lon="6.50908">
        <ele>2241.79</ele>
        <time>2024-12-11T12:57:10Z</time>
      </trkpt>
      <trkpt lat="45.91477" lon="6.50911">
        <ele>2240.771</ele>
        <time>2024-12-11T12:57:15Z</time>
      </trkpt>
      <trkpt lat="45.91478" lon="6.50914">
        <ele>2240.464</ele>
        <time>2024-12-11T12:57:20Z</time>
      </trkpt>
      <trkpt lat="45.91479" lon="6.50917">
        <ele>2240.644</ele>
        <time>2024-12-11T12:57:25Z</time>
      </trkpt>
      <trkpt lat="45.91481" lon="6.50921">
        <ele>2241.473</ele>
        <time>2024-12-11T12:57:30Z</time>
      </trkpt>
      <trkpt lat="45.91482" lon="6.50923">
        <ele>2242.176</ele>
        <time>2024-12-11T12:57:35Z</time>
      </trkpt>
      <trkpt lat="45.91483" lon="6.50926">
        <ele>2242.133</ele>
        <time>2024-12-11T12:57:40Z</time>
      </trkpt>
      <trkpt lat="45.91484" lon="6.50928">
        <ele>2242.4</ele>
        <time>2024-12-11T12:57:45Z</time>
      </trkpt>
      <trkpt lat="45.91486" lon="6.5093">
        <ele>2241.824</ele>
        <time>2024-12-11T12:57:50Z</time>
      </trkpt>
      <trkpt lat="45.91487" lon="6.50932">
        <ele>2242.394</ele>
        <time>2024-12-11T12:57:55Z</time>
      </trkpt>
      <trkpt lat="45.91487" lon="6.50931">
        <ele>2244.055</ele>
        <time>2024-12-11T12:58:00Z</time>
      </trkpt>
      <trkpt lat="45.91487" lon="6.50931">
        <ele>2244.196</ele>
        <time>2024-12-11T12:58:05Z</time>
      </trkpt>
      <trkpt lat="45.91486" lon="6.50931">
        <ele>2245.537</ele>
        <time>2024-12-11T12:58:10Z</time>
      </trkpt>
      <trkpt lat="45.91483" lon="6.50929">
        <ele>2247.441</ele>
        <time>2024-12-11T12:58:15Z</time>
      </trkpt>
      <trkpt lat="45.91481" lon="6.50928">
        <ele>2248.382</ele>
        <time>2024-12-11T12:58:20Z</time>
      </trkpt>
      <trkpt lat="45.91479" lon="6.50927">
        <ele>2248.873</ele>
        <time>2024-12-11T12:58:25Z</time>
      </trkpt>
      <trkpt lat="45.91477" lon="6.50925">
        <ele>2249.561</ele>
        <time>2024-12-11T12:58:30Z</time>
      </trkpt>
      <trkpt lat="45.91474" lon="6.50923">
        <ele>2250.106</ele>
        <time>2024-12-11T12:58:35Z</time>
      </trkpt>
      <trkpt lat="45.91472" lon="6.50922">
        <ele>2249.946</ele>
        <time>2024-12-11T12:58:40Z</time>
      </trkpt>
      <trkpt lat="45.91469" lon="6.5092">
        <ele>2251.124</ele>
        <time>2024-12-11T12:58:45Z</time>
      </trkpt>
      <trkpt lat="45.91466" lon="6.50918">
        <ele>2251.038</ele>
        <time>2024-12-11T12:58:50Z</time>
      </trkpt>
      <trkpt lat="45.91464" lon="6.50917">
        <ele>2251.774</ele>
        <time>2024-12-11T12:58:55Z</time>
      </trkpt>
      <trkpt lat="45.91462" lon="6.50915">
        <ele>2253.298</ele>
        <time>2024-12-11T12:59:00Z</time>
      </trkpt>
      <trkpt lat="45.9146" lon="6.50914">
        <ele>2253.949</ele>
        <time>2024-12-11T12:59:05Z</time>
      </trkpt>
      <trkpt lat="45.91457" lon="6.50913">
        <ele>2255.224</ele>
        <time>2024-12-11T12:59:10Z</time>
      </trkpt>
      <trkpt lat="45.91455" lon="6.50913">
        <ele>2256.187</ele>
        <time>2024-12-11T12:59:15Z</time>
      </trkpt>
      <trkpt lat="45.91453" lon="6.50915">
        <ele>2256.665</ele>
        <time>2024-12-11T12:59:20Z</time>
      </trkpt>
      <trkpt lat="45.91451" lon="6.50916">
        <ele>2258.159</ele>
        <time>2024-12-11T12:59:25Z</time>
      </trkpt>
      <trkpt lat="45.9145" lon="6.50917">
        <ele>2259.122</ele>
        <time>2024-12-11T12:59:30Z</time>
      </trkpt>
      <trkpt lat="45.91448" lon="6.50918">
        <ele>2259.806</ele>
        <time>2024-12-11T12:59:35Z</time>
      </trkpt>
      <trkpt lat="45.91447" lon="6.5092">
        <ele>2260.177</ele>
        <time>2024-12-11T12:59:40Z</time>
      </trkpt>
      <trkpt lat="45.91447" lon="6.50925">
        <ele>2259.58</ele>
        <time>2024-12-11T12:59:45Z</time>
      </trkpt>
      <trkpt lat="45.91447" lon="6.50928">
        <ele>2259.312</ele>
        <time>2024-12-11T12:59:50Z</time>
      </trkpt>
      <trkpt lat="45.91449" lon="6.50931">
        <ele>2257.678</ele>
        <time>2024-12-11T12:59:55Z</time>
      </trkpt>
      <trkpt lat="45.91449" lon="6.50933">
        <ele>2257.989</ele>
        <time>2024-12-11T13:00:00Z</time>
      </trkpt>
      <trkpt lat="45.91451" lon="6.50935">
        <ele>2258.139</ele>
        <time>2024-12-11T13:00:05Z</time>
      </trkpt>
      <trkpt lat="45.91452" lon="6.50937">
        <ele>2258.275</ele>
        <time>2024-12-11T13:00:10Z</time>
      </trkpt>
      <trkpt lat="45.91452" lon="6.50939">
        <ele>2258.449</ele>
        <time>2024-12-11T13:00:15Z</time>
      </trkpt>
      <trkpt lat="45.91453" lon="6.50942">
        <ele>2258.802</ele>
        <time>2024-12-11T13:00:20Z</time>
      </trkpt>
      <trkpt lat="45.91453" lon="6.50942">
        <ele>2258.803</ele>
        <time>2024-12-11T13:00:25Z</time>
      </trkpt>
      <trkpt lat="45.91453" lon="6.50942">
        <ele>2258.802</ele>
        <time>2024-12-11T13:00:30Z</time>
      </trkpt>
      <trkpt lat="45.91453" lon="6.50942">
        <ele>2258.797</ele>
        <time>2024-12-11T13:00:35Z</time>
      </trkpt>
      <trkpt lat="45.91453" lon="6.50942">
        <ele>2258.798</ele>
        <time>2024-12-11T13:00:40Z</time>
      </trkpt>
      <trkpt lat="45.91453" lon="6.50942">
        <ele>2258.794</ele>
        <time>2024-12-11T13:00:45Z</time>
      </trkpt>
      <trkpt lat="45.91453" lon="6.50942">
        <ele>2258.795</ele>
        <time>2024-12-11T13:00:50Z</time>
      </trkpt>
      <trkpt lat="45.91453" lon="6.50942">
        <ele>2258.795</ele>
        <time>2024-12-11T13:00:55Z</time>
      </trkpt>
      <trkpt lat="45.91453" lon="6.50942">
        <ele>2258.798</ele>
        <time>2024-12-11T13:01:00Z</time>
      </trkpt>
      <trkpt lat="45.91453" lon="6.50942">
        <ele>2258.796</ele>
        <time>2024-12-11T13:01:05Z</time>
      </trkpt>
      <trkpt lat="45.91453" lon="6.50942">
        <ele>2258.787</ele>
        <time>2024-12-11T13:01:10Z</time>
      </trkpt>
      <trkpt lat="45.91453" lon="6.50942">
        <ele>2258.776</ele>
        <time>2024-12-11T13:01:15Z</time>
      </trkpt>
      <trkpt lat="45.91453" lon="6.50942">
        <ele>2258.765</ele>
        <time>2024-12-11T13:01:20Z</time>
      </trkpt>
      <trkpt lat="45.91453" lon="6.50942">
        <ele>2258.907</ele>
        <time>2024-12-11T13:01:25Z</time>
      </trkpt>
      <trkpt lat="45.91454" lon="6.50946">
        <ele>2258.896</ele>
        <time>2024-12-11T13:01:30Z</time>
      </trkpt>
      <trkpt lat="45.91454" lon="6.5095">
        <ele>2259.662</ele>
        <time>2024-12-11T13:01:35Z</time>
      </trkpt>
      <trkpt lat="45.91454" lon="6.50954">
        <ele>2259.888</ele>
        <time>2024-12-11T13:01:40Z</time>
      </trkpt>
      <trkpt lat="45.91454" lon="6.50959">
        <ele>2261.059</ele>
        <time>2024-12-11T13:01:45Z</time>
      </trkpt>
      <trkpt lat="45.91453" lon="6.50964">
        <ele>2261.212</ele>
        <time>2024-12-11T13:01:50Z</time>
      </trkpt>
      <trkpt lat="45.91453" lon="6.50968">
        <ele>2262.209</ele>
        <time>2024-12-11T13:01:55Z</time>
      </trkpt>
      <trkpt lat="45.91452" lon="6.50972">
        <ele>2262.455</ele>
        <time>2024-12-11T13:02:00Z</time>
      </trkpt>
      <trkpt lat="45.91452" lon="6.50977">
        <ele>2262.928</ele>
        <time>2024-12-11T13:02:05Z</time>
      </trkpt>
      <trkpt lat="45.91452" lon="6.50982">
        <ele>2263.444</ele>
        <time>2024-12-11T13:02:10Z</time>
      </trkpt>
      <trkpt lat="45.91452" lon="6.50986">
        <ele>2263.906</ele>
        <time>2024-12-11T13:02:15Z</time>
      </trkpt>
      <trkpt lat="45.91451" lon="6.5099">
        <ele>2264.168</ele>
        <time>2024-12-11T13:02:20Z</time>
      </trkpt>
      <trkpt lat="45.9145" lon="6.50994">
        <ele>2264.604</ele>
        <time>2024-12-11T13:02:25Z</time>
      </trkpt>
      <trkpt lat="45.91449" lon="6.50999">
        <ele>2265.112</ele>
        <time>2024-12-11T13:02:30Z</time>
      </trkpt>
      <trkpt lat="45.91448" lon="6.51002">
        <ele>2266.042</ele>
        <time>2024-12-11T13:02:35Z</time>
      </trkpt>
      <trkpt lat="45.91447" lon="6.51005">
        <ele>2266.236</ele>
        <time>2024-12-11T13:02:40Z</time>
      </trkpt>
      <trkpt lat="45.91446" lon="6.51008">
        <ele>2267.467</ele>
        <time>2024-12-11T13:02:45Z</time>
      </trkpt>
      <trkpt lat="45.91446" lon="6.51011">
        <ele>2267.928</ele>
        <time>2024-12-11T13:02:50Z</time>
      </trkpt>
      <trkpt lat="45.91445" lon="6.51014">
        <ele>2268.38</ele>
        <time>2024-12-11T13:02:55Z</time>
      </trkpt>
      <trkpt lat="45.91445" lon="6.51017">
        <ele>2268.965</ele>
        <time>2024-12-11T13:03:00Z</time>
      </trkpt>
      <trkpt lat="45.91444" lon="6.51019">
        <ele>2269.393</ele>
        <time>2024-12-11T13:03:05Z</time>
      </trkpt>
      <trkpt lat="45.91443" lon="6.51022">
        <ele>2270.39</ele>
        <time>2024-12-11T13:03:10Z</time>
      </trkpt>
      <trkpt lat="45.91442" lon="6.51024">
        <ele>2271.745</ele>
        <time>2024-12-11T13:03:15Z</time>
      </trkpt>
      <trkpt lat="45.91442" lon="6.51026">
        <ele>2272.606</ele>
        <time>2024-12-11T13:03:20Z</time>
      </trkpt>
      <trkpt lat="45.91441" lon="6.51028">
        <ele>2273.427</ele>
        <time>2024-12-11T13:03:25Z</time>
      </trkpt>
      <trkpt lat="45.9144" lon="6.51031">
        <ele>2274.198</ele>
        <time>2024-12-11T13:03:30Z</time>
      </trkpt>
      <trkpt lat="45.91439" lon="6.51034">
        <ele>2274.528</ele>
        <time>2024-12-11T13:03:35Z</time>
      </trkpt>
      <trkpt lat="45.91438" lon="6.51037">
        <ele>2275.083</ele>
        <time>2024-12-11T13:03:40Z</time>
      </trkpt>
      <trkpt lat="45.91437" lon="6.5104">
        <ele>2275.868</ele>
        <time>2024-12-11T13:03:45Z</time>
      </trkpt>
      <trkpt lat="45.91436" lon="6.51043">
        <ele>2276.803</ele>
        <time>2024-12-11T13:03:50Z</time>
      </trkpt>
      <trkpt lat="45.91435" lon="6.51046">
        <ele>2277.183</ele>
        <time>2024-12-11T13:03:55Z</time>
      </trkpt>
      <trkpt lat="45.91434" lon="6.51049">
        <ele>2278.1</ele>
        <time>2024-12-11T13:04:00Z</time>
      </trkpt>
      <trkpt lat="45.91434" lon="6.5105">
        <ele>2278.028</ele>
        <time>2024-12-11T13:04:05Z</time>
      </trkpt>
      <trkpt lat="45.91434" lon="6.51052">
        <ele>2277.289</ele>
        <time>2024-12-11T13:04:10Z</time>
      </trkpt>
      <trkpt lat="45.91436" lon="6.51052">
        <ele>2277.348</ele>
        <time>2024-12-11T13:04:15Z</time>
      </trkpt>
      <trkpt lat="45.91438" lon="6.51051">
        <ele>2277.864</ele>
        <time>2024-12-11T13:04:20Z</time>
      </trkpt>
      <trkpt lat="45.91441" lon="6.51049">
        <ele>2278.145</ele>
        <time>2024-12-11T13:04:25Z</time>
      </trkpt>
      <trkpt lat="45.91443" lon="6.51048">
        <ele>2277.348</ele>
        <time>2024-12-11T13:04:30Z</time>
      </trkpt>
      <trkpt lat="45.91445" lon="6.51048">
        <ele>2277.67</ele>
        <time>2024-12-11T13:04:35Z</time>
      </trkpt>
      <trkpt lat="45.91447" lon="6.51047">
        <ele>2279.263</ele>
        <time>2024-12-11T13:04:40Z</time>
      </trkpt>
      <trkpt lat="45.9145" lon="6.51045">
        <ele>2281.346</ele>
        <time>2024-12-11T13:04:45Z</time>
      </trkpt>
      <trkpt lat="45.91451" lon="6.51045">
        <ele>2280.37</ele>
        <time>2024-12-11T13:04:50Z</time>
      </trkpt>
      <trkpt lat="45.91451" lon="6.51045">
        <ele>2280.177</ele>
        <time>2024-12-11T13:04:55Z</time>
      </trkpt>
      <trkpt lat="45.91451" lon="6.51045">
        <ele>2280.157</ele>
        <time>2024-12-11T13:05:00Z</time>
      </trkpt>
      <trkpt lat="45.91451" lon="6.51045">
        <ele>2280.15</ele>
        <time>2024-12-11T13:05:05Z</time>
      </trkpt>
      <trkpt lat="45.91451" lon="6.51045">
        <ele>2280.146</ele>
        <time>2024-12-11T13:05:10Z</time>
      </trkpt>
      <trkpt lat="45.91451" lon="6.51045">
        <ele>2280.144</ele>
        <time>2024-12-11T13:05:15Z</time>
      </trkpt>
      <trkpt lat="45.91451" lon="6.51045">
        <ele>2280.128</ele>
        <time>2024-12-11T13:05:20Z</time>
      </trkpt>
      <trkpt lat="45.91451" lon="6.51045">
        <ele>2280.109</ele>
        <time>2024-12-11T13:05:25Z</time>
      </trkpt>
      <trkpt lat="45.91451" lon="6.51045">
        <ele>2280.101</ele>
        <time>2024-12-11T13:05:30Z</time>
      </trkpt>
      <trkpt lat="45.91451" lon="6.51045">
        <ele>2280.096</ele>
        <time>2024-12-11T13:05:35Z</time>
      </trkpt>
      <trkpt lat="45.91451" lon="6.51045">
        <ele>2280.089</ele>
        <time>2024-12-11T13:05:40Z</time>
      </trkpt>
      <trkpt lat="45.91451" lon="6.51045">
        <ele>2280.086</ele>
        <time>2024-12-11T13:05:45Z</time>
      </trkpt>
      <trkpt lat="45.91451" lon="6.51045">
        <ele>2280.076</ele>
        <time>2024-12-11T13:05:50Z</time>
      </trkpt>
      <trkpt lat="45.91451" lon="6.51045">
        <ele>2280.059</ele>
        <time>2024-12-11T13:05:55Z</time>
      </trkpt>
      <trkpt lat="45.91451" lon="6.51045">
        <ele>2280.043</ele>
        <time>2024-12-11T13:06:00Z</time>
      </trkpt>
      <trkpt lat="45.91451" lon="6.51045">
        <ele>2280.033</ele>
        <time>2024-12-11T13:06:05Z</time>
      </trkpt>
      <trkpt lat="45.91451" lon="6.51045">
        <ele>2280.046</ele>
        <time>2024-12-11T13:06:10Z</time>
      </trkpt>
      <trkpt lat="45.91451" lon="6.51045">
        <ele>2280.038</ele>
        <time>2024-12-11T13:06:15Z</time>
      </trkpt>
      <trkpt lat="45.91451" lon="6.51045">
        <ele>2280.351</ele>
        <time>2024-12-11T13:06:20Z</time>
      </trkpt>
      <trkpt lat="45.91451" lon="6.51045">
        <ele>2280.359</ele>
        <time>2024-12-11T13:06:25Z</time>
      </trkpt>
      <trkpt lat="45.91451" lon="6.51045">
        <ele>2280.359</ele>
        <time>2024-12-11T13:06:30Z</time>
      </trkpt>
      <trkpt lat="45.91451" lon="6.51045">
        <ele>2280.355</ele>
        <time>2024-12-11T13:06:35Z</time>
      </trkpt>
      <trkpt lat="45.91451" lon="6.51045">
        <ele>2280.344</ele>
        <time>2024-12-11T13:06:40Z</time>
      </trkpt>
      <trkpt lat="45.91451" lon="6.51045">
        <ele>2280.328</ele>
        <time>2024-12-11T13:06:45Z</time>
      </trkpt>
      <trkpt lat="45.91451" lon="6.51045">
        <ele>2280.305</ele>
        <time>2024-12-11T13:06:50Z</time>
      </trkpt>
      <trkpt lat="45.91451" lon="6.51045">
        <ele>2280.287</ele>
        <time>2024-12-11T13:06:55Z</time>
      </trkpt>
      <trkpt lat="45.91451" lon="6.51045">
        <ele>2280.261</ele>
        <time>2024-12-11T13:07:00Z</time>
      </trkpt>
      <trkpt lat="45.91451" lon="6.51045">
        <ele>2280.464</ele>
        <time>2024-12-11T13:07:05Z</time>
      </trkpt>
      <trkpt lat="45.91451" lon="6.51045">
        <ele>2280.429</ele>
        <time>2024-12-11T13:07:10Z</time>
      </trkpt>
      <trkpt lat="45.91451" lon="6.51045">
        <ele>2280.415</ele>
        <time>2024-12-11T13:07:15Z</time>
      </trkpt>
      <trkpt lat="45.91451" lon="6.51045">
        <ele>2280.395</ele>
        <time>2024-12-11T13:07:20Z</time>
      </trkpt>
      <trkpt lat="45.91451" lon="6.51045">
        <ele>2280.767</ele>
        <time>2024-12-11T13:07:25Z</time>
      </trkpt>
      <trkpt lat="45.91451" lon="6.51045">
        <ele>2280.783</ele>
        <time>2024-12-11T13:07:30Z</time>
      </trkpt>
      <trkpt lat="45.91451" lon="6.51045">
        <ele>2280.765</ele>
        <time>2024-12-11T13:07:35Z</time>
      </trkpt>
      <trkpt lat="45.91451" lon="6.51045">
        <ele>2280.743</ele>
        <time>2024-12-11T13:07:40Z</time>
      </trkpt>
      <trkpt lat="45.91451" lon="6.51045">
        <ele>2280.74</ele>
        <time>2024-12-11T13:07:45Z</time>
      </trkpt>
      <trkpt lat="45.91451" lon="6.51045">
        <ele>2280.731</ele>
        <time>2024-12-11T13:07:50Z</time>
      </trkpt>
      <trkpt lat="45.91451" lon="6.51045">
        <ele>2280.712</ele>
        <time>2024-12-11T13:07:55Z</time>
      </trkpt>
      <trkpt lat="45.91451" lon="6.51045">
        <ele>2280.702</ele>
        <time>2024-12-11T13:08:00Z</time>
      </trkpt>
      <trkpt lat="45.91451" lon="6.51045">
        <ele>2280.68</ele>
        <time>2024-12-11T13:08:05Z</time>
      </trkpt>
      <trkpt lat="45.91451" lon="6.51045">
        <ele>2280.052</ele>
        <time>2024-12-11T13:08:10Z</time>
      </trkpt>
      <trkpt lat="45.91451" lon="6.51045">
        <ele>2280.029</ele>
        <time>2024-12-11T13:08:15Z</time>
      </trkpt>
      <trkpt lat="45.91451" lon="6.51045">
        <ele>2280.021</ele>
        <time>2024-12-11T13:08:20Z</time>
      </trkpt>
      <trkpt lat="45.91451" lon="6.51045">
        <ele>2279.337</ele>
        <time>2024-12-11T13:08:25Z</time>
      </trkpt>
      <trkpt lat="45.91451" lon="6.51045">
        <ele>2279.32</ele>
        <time>2024-12-11T13:08:30Z</time>
      </trkpt>
      <trkpt lat="45.91451" lon="6.51045">
        <ele>2279.314</ele>
        <time>2024-12-11T13:08:35Z</time>
      </trkpt>
      <trkpt lat="45.91451" lon="6.51045">
        <ele>2279.302</ele>
        <time>2024-12-11T13:08:40Z</time>
      </trkpt>
      <trkpt lat="45.91451" lon="6.51045">
        <ele>2279.281</ele>
        <time>2024-12-11T13:08:45Z</time>
      </trkpt>
      <trkpt lat="45.91451" lon="6.51045">
        <ele>2279.279</ele>
        <time>2024-12-11T13:08:50Z</time>
      </trkpt>
      <trkpt lat="45.91451" lon="6.51045">
        <ele>2279.143</ele>
        <time>2024-12-11T13:08:55Z</time>
      </trkpt>
      <trkpt lat="45.9145" lon="6.51047">
        <ele>2279.501</ele>
        <time>2024-12-11T13:09:00Z</time>
      </trkpt>
      <trkpt lat="45.9145" lon="6.51047">
        <ele>2279.504</ele>
        <time>2024-12-11T13:09:05Z</time>
      </trkpt>
      <trkpt lat="45.9145" lon="6.51047">
        <ele>2279.563</ele>
        <time>2024-12-11T13:09:10Z</time>
      </trkpt>
      <trkpt lat="45.91448" lon="6.51049">
        <ele>2280.304</ele>
        <time>2024-12-11T13:09:15Z</time>
      </trkpt>
      <trkpt lat="45.91446" lon="6.51053">
        <ele>2281.244</ele>
        <time>2024-12-11T13:09:20Z</time>
      </trkpt>
      <trkpt lat="45.91444" lon="6.51057">
        <ele>2281.522</ele>
        <time>2024-12-11T13:09:25Z</time>
      </trkpt>
      <trkpt lat="45.91442" lon="6.5106">
        <ele>2282.093</ele>
        <time>2024-12-11T13:09:30Z</time>
      </trkpt>
      <trkpt lat="45.91441" lon="6.51063">
        <ele>2283.362</ele>
        <time>2024-12-11T13:09:35Z</time>
      </trkpt>
      <trkpt lat="45.9144" lon="6.51065">
        <ele>2284.178</ele>
        <time>2024-12-11T13:09:40Z</time>
      </trkpt>
      <trkpt lat="45.91438" lon="6.51068">
        <ele>2285.43</ele>
        <time>2024-12-11T13:09:45Z</time>
      </trkpt>
      <trkpt lat="45.91435" lon="6.51072">
        <ele>2286.844</ele>
        <time>2024-12-11T13:09:50Z</time>
      </trkpt>
      <trkpt lat="45.91435" lon="6.51074">
        <ele>2287.168</ele>
        <time>2024-12-11T13:09:55Z</time>
      </trkpt>
      <trkpt lat="45.91434" lon="6.51077">
        <ele>2287.744</ele>
        <time>2024-12-11T13:10:00Z</time>
      </trkpt>
      <trkpt lat="45.91433" lon="6.51079">
        <ele>2288.054</ele>
        <time>2024-12-11T13:10:05Z</time>
      </trkpt>
      <trkpt lat="45.91433" lon="6.51082">
        <ele>2288.404</ele>
        <time>2024-12-11T13:10:10Z</time>
      </trkpt>
      <trkpt lat="45.91432" lon="6.51085">
        <ele>2288.241</ele>
        <time>2024-12-11T13:10:15Z</time>
      </trkpt>
      <trkpt lat="45.9143" lon="6.51087">
        <ele>2289.37</ele>
        <time>2024-12-11T13:10:20Z</time>
      </trkpt>
      <trkpt lat="45.9143" lon="6.51091">
        <ele>2289.659</ele>
        <time>2024-12-11T13:10:25Z</time>
      </trkpt>
      <trkpt lat="45.91431" lon="6.51092">
        <ele>2289.889</ele>
        <time>2024-12-11T13:10:30Z</time>
      </trkpt>
      <trkpt lat="45.91433" lon="6.51091">
        <ele>2291.721</ele>
        <time>2024-12-11T13:10:35Z</time>
      </trkpt>
      <trkpt lat="45.91436" lon="6.5109">
        <ele>2290.563</ele>
        <time>2024-12-11T13:10:40Z</time>
      </trkpt>
      <trkpt lat="45.91437" lon="6.5109">
        <ele>2291.088</ele>
        <time>2024-12-11T13:10:45Z</time>
      </trkpt>
      <trkpt lat="45.91439" lon="6.51089">
        <ele>2291.955</ele>
        <time>2024-12-11T13:10:50Z</time>
      </trkpt>
      <trkpt lat="45.91441" lon="6.51089">
        <ele>2293.963</ele>
        <time>2024-12-11T13:10:55Z</time>
      </trkpt>
      <trkpt lat="45.91443" lon="6.51089">
        <ele>2293.871</ele>
        <time>2024-12-11T13:11:00Z</time>
      </trkpt>
      <trkpt lat="45.91445" lon="6.51088">
        <ele>2294.544</ele>
        <time>2024-12-11T13:11:05Z</time>
      </trkpt>
      <trkpt lat="45.91447" lon="6.51087">
        <ele>2296.592</ele>
        <time>2024-12-11T13:11:10Z</time>
      </trkpt>
      <trkpt lat="45.91449" lon="6.51086">
        <ele>2296.317</ele>
        <time>2024-12-11T13:11:15Z</time>
      </trkpt>
      <trkpt lat="45.91451" lon="6.51085">
        <ele>2297.199</ele>
        <time>2024-12-11T13:11:20Z</time>
      </trkpt>
      <trkpt lat="45.91453" lon="6.51085">
        <ele>2297.322</ele>
        <time>2024-12-11T13:11:25Z</time>
      </trkpt>
      <trkpt lat="45.91455" lon="6.51085">
        <ele>2298.265</ele>
        <time>2024-12-11T13:11:30Z</time>
      </trkpt>
      <trkpt lat="45.91457" lon="6.51085">
        <ele>2298.891</ele>
        <time>2024-12-11T13:11:35Z</time>
      </trkpt>
      <trkpt lat="45.91459" lon="6.51084">
        <ele>2300.68</ele>
        <time>2024-12-11T13:11:40Z</time>
      </trkpt>
      <trkpt lat="45.91462" lon="6.51083">
        <ele>2300.667</ele>
        <time>2024-12-11T13:11:45Z</time>
      </trkpt>
      <trkpt lat="45.91464" lon="6.51083">
        <ele>2300.732</ele>
        <time>2024-12-11T13:11:50Z</time>
      </trkpt>
      <trkpt lat="45.91467" lon="6.51083">
        <ele>2300.997</ele>
        <time>2024-12-11T13:11:55Z</time>
      </trkpt>
      <trkpt lat="45.91468" lon="6.51082">
        <ele>2301.473</ele>
        <time>2024-12-11T13:12:00Z</time>
      </trkpt>
      <trkpt lat="45.91469" lon="6.51083">
        <ele>2301.69</ele>
        <time>2024-12-11T13:12:05Z</time>
      </trkpt>
      <trkpt lat="45.91469" lon="6.51084">
        <ele>2301.888</ele>
        <time>2024-12-11T13:12:10Z</time>
      </trkpt>
      <trkpt lat="45.91469" lon="6.51085">
        <ele>2302.775</ele>
        <time>2024-12-11T13:12:15Z</time>
      </trkpt>
      <trkpt lat="45.91468" lon="6.51086">
        <ele>2303.492</ele>
        <time>2024-12-11T13:12:20Z</time>
      </trkpt>
      <trkpt lat="45.91465" lon="6.51089">
        <ele>2303.831</ele>
        <time>2024-12-11T13:12:25Z</time>
      </trkpt>
      <trkpt lat="45.91463" lon="6.5109">
        <ele>2304.182</ele>
        <time>2024-12-11T13:12:30Z</time>
      </trkpt>
      <trkpt lat="45.91461" lon="6.51093">
        <ele>2304.636</ele>
        <time>2024-12-11T13:12:35Z</time>
      </trkpt>
      <trkpt lat="45.9146" lon="6.51095">
        <ele>2304.968</ele>
        <time>2024-12-11T13:12:40Z</time>
      </trkpt>
      <trkpt lat="45.91459" lon="6.51098">
        <ele>2305.726</ele>
        <time>2024-12-11T13:12:45Z</time>
      </trkpt>
      <trkpt lat="45.91457" lon="6.511">
        <ele>2305.758</ele>
        <time>2024-12-11T13:12:50Z</time>
      </trkpt>
      <trkpt lat="45.91456" lon="6.51102">
        <ele>2306.003</ele>
        <time>2024-12-11T13:12:55Z</time>
      </trkpt>
      <trkpt lat="45.91455" lon="6.51104">
        <ele>2305.781</ele>
        <time>2024-12-11T13:13:00Z</time>
      </trkpt>
      <trkpt lat="45.91457" lon="6.51105">
        <ele>2305.352</ele>
        <time>2024-12-11T13:13:05Z</time>
      </trkpt>
      <trkpt lat="45.91459" lon="6.51105">
        <ele>2306.659</ele>
        <time>2024-12-11T13:13:10Z</time>
      </trkpt>
      <trkpt lat="45.91461" lon="6.51106">
        <ele>2307.837</ele>
        <time>2024-12-11T13:13:15Z</time>
      </trkpt>
      <trkpt lat="45.91463" lon="6.51106">
        <ele>2307.034</ele>
        <time>2024-12-11T13:13:20Z</time>
      </trkpt>
      <trkpt lat="45.91465" lon="6.51106">
        <ele>2307.487</ele>
        <time>2024-12-11T13:13:25Z</time>
      </trkpt>
      <trkpt lat="45.91468" lon="6.51106">
        <ele>2307.578</ele>
        <time>2024-12-11T13:13:30Z</time>
      </trkpt>
      <trkpt lat="45.9147" lon="6.51106">
        <ele>2310.263</ele>
        <time>2024-12-11T13:13:35Z</time>
      </trkpt>
      <trkpt lat="45.91473" lon="6.51106">
        <ele>2312.046</ele>
        <time>2024-12-11T13:13:40Z</time>
      </trkpt>
      <trkpt lat="45.91476" lon="6.51106">
        <ele>2311.07</ele>
        <time>2024-12-11T13:13:45Z</time>
      </trkpt>
      <trkpt lat="45.91478" lon="6.51107">
        <ele>2313.686</ele>
        <time>2024-12-11T13:13:50Z</time>
      </trkpt>
      <trkpt lat="45.91481" lon="6.51106">
        <ele>2313.331</ele>
        <time>2024-12-11T13:13:55Z</time>
      </trkpt>
      <trkpt lat="45.91482" lon="6.51105">
        <ele>2312.486</ele>
        <time>2024-12-11T13:14:00Z</time>
      </trkpt>
      <trkpt lat="45.91484" lon="6.51104">
        <ele>2313.552</ele>
        <time>2024-12-11T13:14:05Z</time>
      </trkpt>
      <trkpt lat="45.91487" lon="6.51103">
        <ele>2314.587</ele>
        <time>2024-12-11T13:14:10Z</time>
      </trkpt>
      <trkpt lat="45.91489" lon="6.51101">
        <ele>2315.247</ele>
        <time>2024-12-11T13:14:15Z</time>
      </trkpt>
      <trkpt lat="45.91492" lon="6.51099">
        <ele>2316.489</ele>
        <time>2024-12-11T13:14:20Z</time>
      </trkpt>
      <trkpt lat="45.91494" lon="6.51097">
        <ele>2315.925</ele>
        <time>2024-12-11T13:14:25Z</time>
      </trkpt>
      <trkpt lat="45.91494" lon="6.51097">
        <ele>2315.329</ele>
        <time>2024-12-11T13:14:30Z</time>
      </trkpt>
      <trkpt lat="45.91496" lon="6.51095">
        <ele>2317.008</ele>
        <time>2024-12-11T13:14:35Z</time>
      </trkpt>
      <trkpt lat="45.91498" lon="6.51092">
        <ele>2318.068</ele>
        <time>2024-12-11T13:14:40Z</time>
      </trkpt>
      <trkpt lat="45.91499" lon="6.51089">
        <ele>2319.229</ele>
        <time>2024-12-11T13:14:45Z</time>
      </trkpt>
      <trkpt lat="45.91499" lon="6.51089">
        <ele>2318.957</ele>
        <time>2024-12-11T13:14:50Z</time>
      </trkpt>
      <trkpt lat="45.91497" lon="6.51091">
        <ele>2315.198</ele>
        <time>2024-12-11T13:14:55Z</time>
      </trkpt>
      <trkpt lat="45.91497" lon="6.51093">
        <ele>2315.841</ele>
        <time>2024-12-11T13:15:00Z</time>
      </trkpt>
      <trkpt lat="45.91497" lon="6.51093">
        <ele>2315.817</ele>
        <time>2024-12-11T13:15:05Z</time>
      </trkpt>
      <trkpt lat="45.91497" lon="6.51094">
        <ele>2316.251</ele>
        <time>2024-12-11T13:15:10Z</time>
      </trkpt>
      <trkpt lat="45.91497" lon="6.51098">
        <ele>2315.445</ele>
        <time>2024-12-11T13:15:15Z</time>
      </trkpt>
      <trkpt lat="45.91497" lon="6.511">
        <ele>2316.603</ele>
        <time>2024-12-11T13:15:20Z</time>
      </trkpt>
      <trkpt lat="45.91496" lon="6.51103">
        <ele>2317.357</ele>
        <time>2024-12-11T13:15:25Z</time>
      </trkpt>
      <trkpt lat="45.91496" lon="6.51104">
        <ele>2318.579</ele>
        <time>2024-12-11T13:15:30Z</time>
      </trkpt>
      <trkpt lat="45.91496" lon="6.51105">
        <ele>2318.761</ele>
        <time>2024-12-11T13:15:35Z</time>
      </trkpt>
      <trkpt lat="45.91495" lon="6.51107">
        <ele>2318.353</ele>
        <time>2024-12-11T13:15:40Z</time>
      </trkpt>
      <trkpt lat="45.91495" lon="6.5111">
        <ele>2318.214</ele>
        <time>2024-12-11T13:15:45Z</time>
      </trkpt>
      <trkpt lat="45.91495" lon="6.51111">
        <ele>2318.295</ele>
        <time>2024-12-11T13:15:50Z</time>
      </trkpt>
      <trkpt lat="45.91493" lon="6.51115">
        <ele>2318.852</ele>
        <time>2024-12-11T13:15:55Z</time>
      </trkpt>
      <trkpt lat="45.91492" lon="6.51118">
        <ele>2319.771</ele>
        <time>2024-12-11T13:16:00Z</time>
      </trkpt>
      <trkpt lat="45.91491" lon="6.5112">
        <ele>2321.465</ele>
        <time>2024-12-11T13:16:05Z</time>
      </trkpt>
      <trkpt lat="45.9149" lon="6.5112">
        <ele>2321.796</ele>
        <time>2024-12-11T13:16:10Z</time>
      </trkpt>
      <trkpt lat="45.91489" lon="6.51122">
        <ele>2322.364</ele>
        <time>2024-12-11T13:16:15Z</time>
      </trkpt>
      <trkpt lat="45.91488" lon="6.51124">
        <ele>2323.902</ele>
        <time>2024-12-11T13:16:20Z</time>
      </trkpt>
      <trkpt lat="45.91486" lon="6.51126">
        <ele>2324.18</ele>
        <time>2024-12-11T13:16:25Z</time>
      </trkpt>
      <trkpt lat="45.91484" lon="6.51128">
        <ele>2325.223</ele>
        <time>2024-12-11T13:16:30Z</time>
      </trkpt>
      <trkpt lat="45.91483" lon="6.5113">
        <ele>2326.275</ele>
        <time>2024-12-11T13:16:35Z</time>
      </trkpt>
      <trkpt lat="45.91482" lon="6.51132">
        <ele>2326.878</ele>
        <time>2024-12-11T13:16:40Z</time>
      </trkpt>
      <trkpt lat="45.91481" lon="6.51134">
        <ele>2327.488</ele>
        <time>2024-12-11T13:16:45Z</time>
      </trkpt>
      <trkpt lat="45.91481" lon="6.51136">
        <ele>2328.474</ele>
        <time>2024-12-11T13:16:50Z</time>
      </trkpt>
      <trkpt lat="45.91479" lon="6.51138">
        <ele>2329.768</ele>
        <time>2024-12-11T13:16:55Z</time>
      </trkpt>
      <trkpt lat="45.91477" lon="6.51139">
        <ele>2331.216</ele>
        <time>2024-12-11T13:17:00Z</time>
      </trkpt>
      <trkpt lat="45.91476" lon="6.51142">
        <ele>2331.729</ele>
        <time>2024-12-11T13:17:05Z</time>
      </trkpt>
      <trkpt lat="45.91476" lon="6.51144">
        <ele>2331.303</ele>
        <time>2024-12-11T13:17:10Z</time>
      </trkpt>
      <trkpt lat="45.91475" lon="6.51146">
        <ele>2332.222</ele>
        <time>2024-12-11T13:17:15Z</time>
      </trkpt>
      <trkpt lat="45.91474" lon="6.51148">
        <ele>2332.302</ele>
        <time>2024-12-11T13:17:20Z</time>
      </trkpt>
      <trkpt lat="45.91471" lon="6.51151">
        <ele>2332.891</ele>
        <time>2024-12-11T13:17:25Z</time>
      </trkpt>
      <trkpt lat="45.9147" lon="6.51153">
        <ele>2332.964</ele>
        <time>2024-12-11T13:17:30Z</time>
      </trkpt>
      <trkpt lat="45.91468" lon="6.51155">
        <ele>2332.93</ele>
        <time>2024-12-11T13:17:35Z</time>
      </trkpt>
      <trkpt lat="45.91467" lon="6.51159">
        <ele>2333.005</ele>
        <time>2024-12-11T13:17:40Z</time>
      </trkpt>
      <trkpt lat="45.91466" lon="6.51162">
        <ele>2333.35</ele>
        <time>2024-12-11T13:17:45Z</time>
      </trkpt>
      <trkpt lat="45.91465" lon="6.51164">
        <ele>2333.086</ele>
        <time>2024-12-11T13:17:50Z</time>
      </trkpt>
      <trkpt lat="45.91466" lon="6.51165">
        <ele>2333.674</ele>
        <time>2024-12-11T13:17:55Z</time>
      </trkpt>
      <trkpt lat="45.91466" lon="6.51165">
        <ele>2333.28</ele>
        <time>2024-12-11T13:18:00Z</time>
      </trkpt>
      <trkpt lat="45.91469" lon="6.51164">
        <ele>2334.063</ele>
        <time>2024-12-11T13:18:05Z</time>
      </trkpt>
      <trkpt lat="45.91471" lon="6.51164">
        <ele>2334.196</ele>
        <time>2024-12-11T13:18:10Z</time>
      </trkpt>
      <trkpt lat="45.91474" lon="6.51162">
        <ele>2335.584</ele>
        <time>2024-12-11T13:18:15Z</time>
      </trkpt>
      <trkpt lat="45.91473" lon="6.5116">
        <ele>2335.331</ele>
        <time>2024-12-11T13:18:20Z</time>
      </trkpt>
      <trkpt lat="45.91473" lon="6.5116">
        <ele>2335.341</ele>
        <time>2024-12-11T13:18:25Z</time>
      </trkpt>
      <trkpt lat="45.91474" lon="6.51159">
        <ele>2335.106</ele>
        <time>2024-12-11T13:18:30Z</time>
      </trkpt>
      <trkpt lat="45.91477" lon="6.51158">
        <ele>2335.411</ele>
        <time>2024-12-11T13:18:35Z</time>
      </trkpt>
      <trkpt lat="45.9148" lon="6.51158">
        <ele>2336.831</ele>
        <time>2024-12-11T13:18:40Z</time>
      </trkpt>
      <trkpt lat="45.91482" lon="6.51159">
        <ele>2336.211</ele>
        <time>2024-12-11T13:18:45Z</time>
      </trkpt>
      <trkpt lat="45.91484" lon="6.51158">
        <ele>2336.082</ele>
        <time>2024-12-11T13:18:50Z</time>
      </trkpt>
      <trkpt lat="45.91484" lon="6.51158">
        <ele>2334.52</ele>
        <time>2024-12-11T13:18:55Z</time>
      </trkpt>
      <trkpt lat="45.91483" lon="6.5116">
        <ele>2334.844</ele>
        <time>2024-12-11T13:19:00Z</time>
      </trkpt>
      <trkpt lat="45.9148" lon="6.51162">
        <ele>2336.784</ele>
        <time>2024-12-11T13:19:05Z</time>
      </trkpt>
      <trkpt lat="45.91478" lon="6.51163">
        <ele>2339.35</ele>
        <time>2024-12-11T13:19:10Z</time>
      </trkpt>
      <trkpt lat="45.91475" lon="6.51165">
        <ele>2340.022</ele>
        <time>2024-12-11T13:19:15Z</time>
      </trkpt>
      <trkpt lat="45.91474" lon="6.51168">
        <ele>2341.329</ele>
        <time>2024-12-11T13:19:20Z</time>
      </trkpt>
      <trkpt lat="45.91473" lon="6.51171">
        <ele>2341.76</ele>
        <time>2024-12-11T13:19:25Z</time>
      </trkpt>
      <trkpt lat="45.91472" lon="6.51174">
        <ele>2341.765</ele>
        <time>2024-12-11T13:19:30Z</time>
      </trkpt>
      <trkpt lat="45.91472" lon="6.51176">
        <ele>2341.871</ele>
        <time>2024-12-11T13:19:35Z</time>
      </trkpt>
      <trkpt lat="45.91473" lon="6.51177">
        <ele>2341.958</ele>
        <time>2024-12-11T13:19:40Z</time>
      </trkpt>
      <trkpt lat="45.91474" lon="6.51176">
        <ele>2342.048</ele>
        <time>2024-12-11T13:19:45Z</time>
      </trkpt>
      <trkpt lat="45.91474" lon="6.51176">
        <ele>2342.04</ele>
        <time>2024-12-11T13:19:50Z</time>
      </trkpt>
      <trkpt lat="45.91474" lon="6.51176">
        <ele>2342.034</ele>
        <time>2024-12-11T13:19:55Z</time>
      </trkpt>
      <trkpt lat="45.91474" lon="6.51176">
        <ele>2342.029</ele>
        <time>2024-12-11T13:20:00Z</time>
      </trkpt>
      <trkpt lat="45.91474" lon="6.51176">
        <ele>2342.029</ele>
        <time>2024-12-11T13:20:05Z</time>
      </trkpt>
      <trkpt lat="45.91474" lon="6.51176">
        <ele>2342.02</ele>
        <time>2024-12-11T13:20:10Z</time>
      </trkpt>
      <trkpt lat="45.91474" lon="6.51176">
        <ele>2342.013</ele>
        <time>2024-12-11T13:20:15Z</time>
      </trkpt>
      <trkpt lat="45.91474" lon="6.51176">
        <ele>2342.05</ele>
        <time>2024-12-11T13:20:20Z</time>
      </trkpt>
      <trkpt lat="45.91474" lon="6.51176">
        <ele>2341.929</ele>
        <time>2024-12-11T13:20:25Z</time>
      </trkpt>
      <trkpt lat="45.91474" lon="6.51176">
        <ele>2341.924</ele>
        <time>2024-12-11T13:20:30Z</time>
      </trkpt>
      <trkpt lat="45.91474" lon="6.51176">
        <ele>2341.918</ele>
        <time>2024-12-11T13:20:35Z</time>
      </trkpt>
      <trkpt lat="45.91474" lon="6.51176">
        <ele>2341.923</ele>
        <time>2024-12-11T13:20:40Z</time>
      </trkpt>
      <trkpt lat="45.91474" lon="6.51176">
        <ele>2341.926</ele>
        <time>2024-12-11T13:20:45Z</time>
      </trkpt>
      <trkpt lat="45.91474" lon="6.51176">
        <ele>2341.874</ele>
        <time>2024-12-11T13:20:50Z</time>
      </trkpt>
      <trkpt lat="45.91474" lon="6.51176">
        <ele>2342.013</ele>
        <time>2024-12-11T13:20:55Z</time>
      </trkpt>
      <trkpt lat="45.91474" lon="6.51176">
        <ele>2342.433</ele>
        <time>2024-12-11T13:21:00Z</time>
      </trkpt>
      <trkpt lat="45.91474" lon="6.51176">
        <ele>2342.431</ele>
        <time>2024-12-11T13:21:05Z</time>
      </trkpt>
      <trkpt lat="45.91474" lon="6.51176">
        <ele>2342.439</ele>
        <time>2024-12-11T13:21:10Z</time>
      </trkpt>
      <trkpt lat="45.91474" lon="6.51176">
        <ele>2342.445</ele>
        <time>2024-12-11T13:21:15Z</time>
      </trkpt>
      <trkpt lat="45.91474" lon="6.51176">
        <ele>2342.453</ele>
        <time>2024-12-11T13:21:20Z</time>
      </trkpt>
      <trkpt lat="45.91474" lon="6.51176">
        <ele>2342.462</ele>
        <time>2024-12-11T13:21:25Z</time>
      </trkpt>
      <trkpt lat="45.91474" lon="6.51176">
        <ele>2342.466</ele>
        <time>2024-12-11T13:21:30Z</time>
      </trkpt>
      <trkpt lat="45.91474" lon="6.51176">
        <ele>2342.48</ele>
        <time>2024-12-11T13:21:35Z</time>
      </trkpt>
      <trkpt lat="45.91474" lon="6.51176">
        <ele>2342.489</ele>
        <time>2024-12-11T13:21:40Z</time>
      </trkpt>
      <trkpt lat="45.91474" lon="6.51176">
        <ele>2342.487</ele>
        <time>2024-12-11T13:21:45Z</time>
      </trkpt>
      <trkpt lat="45.91475" lon="6.51175">
        <ele>2343.033</ele>
        <time>2024-12-11T13:21:50Z</time>
      </trkpt>
      <trkpt lat="45.91477" lon="6.51175">
        <ele>2342.987</ele>
        <time>2024-12-11T13:21:55Z</time>
      </trkpt>
      <trkpt lat="45.9148" lon="6.51174">
        <ele>2343.605</ele>
        <time>2024-12-11T13:22:00Z</time>
      </trkpt>
      <trkpt lat="45.91481" lon="6.51173">
        <ele>2343.226</ele>
        <time>2024-12-11T13:22:05Z</time>
      </trkpt>
      <trkpt lat="45.91483" lon="6.51173">
        <ele>2344.159</ele>
        <time>2024-12-11T13:22:10Z</time>
      </trkpt>
      <trkpt lat="45.91485" lon="6.51172">
        <ele>2345.572</ele>
        <time>2024-12-11T13:22:15Z</time>
      </trkpt>
      <trkpt lat="45.91488" lon="6.51171">
        <ele>2346.178</ele>
        <time>2024-12-11T13:22:20Z</time>
      </trkpt>
      <trkpt lat="45.91491" lon="6.5117">
        <ele>2347.155</ele>
        <time>2024-12-11T13:22:25Z</time>
      </trkpt>
      <trkpt lat="45.91491" lon="6.5117">
        <ele>2346.427</ele>
        <time>2024-12-11T13:22:30Z</time>
      </trkpt>
      <trkpt lat="45.91491" lon="6.5117">
        <ele>2346.36</ele>
        <time>2024-12-11T13:22:35Z</time>
      </trkpt>
      <trkpt lat="45.91491" lon="6.5117">
        <ele>2346.387</ele>
        <time>2024-12-11T13:22:40Z</time>
      </trkpt>
      <trkpt lat="45.91491" lon="6.5117">
        <ele>2346.401</ele>
        <time>2024-12-11T13:22:45Z</time>
      </trkpt>
      <trkpt lat="45.91488" lon="6.5117">
        <ele>2346.386</ele>
        <time>2024-12-11T13:22:50Z</time>
      </trkpt>
      <trkpt lat="45.91487" lon="6.51172">
        <ele>2347.244</ele>
        <time>2024-12-11T13:22:55Z</time>
      </trkpt>
      <trkpt lat="45.91485" lon="6.51175">
        <ele>2348.002</ele>
        <time>2024-12-11T13:23:00Z</time>
      </trkpt>
      <trkpt lat="45.91483" lon="6.51178">
        <ele>2348.919</ele>
        <time>2024-12-11T13:23:05Z</time>
      </trkpt>
      <trkpt lat="45.91481" lon="6.51181">
        <ele>2349.937</ele>
        <time>2024-12-11T13:23:10Z</time>
      </trkpt>
      <trkpt lat="45.9148" lon="6.51184">
        <ele>2351.404</ele>
        <time>2024-12-11T13:23:15Z</time>
      </trkpt>
      <trkpt lat="45.91479" lon="6.51185">
        <ele>2351.612</ele>
        <time>2024-12-11T13:23:20Z</time>
      </trkpt>
      <trkpt lat="45.91479" lon="6.51186">
        <ele>2351.656</ele>
        <time>2024-12-11T13:23:25Z</time>
      </trkpt>
      <trkpt lat="45.9148" lon="6.51188">
        <ele>2352.292</ele>
        <time>2024-12-11T13:23:30Z</time>
      </trkpt>
      <trkpt lat="45.91482" lon="6.51187">
        <ele>2351.714</ele>
        <time>2024-12-11T13:23:35Z</time>
      </trkpt>
      <trkpt lat="45.91482" lon="6.51187">
        <ele>2351.673</ele>
        <time>2024-12-11T13:23:40Z</time>
      </trkpt>
      <trkpt lat="45.91482" lon="6.51187">
        <ele>2351.404</ele>
        <time>2024-12-11T13:23:45Z</time>
      </trkpt>
      <trkpt lat="45.91482" lon="6.51187">
        <ele>2351.107</ele>
        <time>2024-12-11T13:23:50Z</time>
      </trkpt>
      <trkpt lat="45.91482" lon="6.51187">
        <ele>2350.982</ele>
        <time>2024-12-11T13:23:55Z</time>
      </trkpt>
      <trkpt lat="45.91482" lon="6.51187">
        <ele>2350.968</ele>
        <time>2024-12-11T13:24:00Z</time>
      </trkpt>
      <trkpt lat="45.91482" lon="6.51187">
        <ele>2350.959</ele>
        <time>2024-12-11T13:24:05Z</time>
      </trkpt>
      <trkpt lat="45.91482" lon="6.51187">
        <ele>2350.994</ele>
        <time>2024-12-11T13:24:10Z</time>
      </trkpt>
      <trkpt lat="45.91482" lon="6.51187">
        <ele>2350.987</ele>
        <time>2024-12-11T13:24:15Z</time>
      </trkpt>
      <trkpt lat="45.91482" lon="6.51187">
        <ele>2350.102</ele>
        <time>2024-12-11T13:24:20Z</time>
      </trkpt>
      <trkpt lat="45.91482" lon="6.51187">
        <ele>2350.101</ele>
        <time>2024-12-11T13:24:25Z</time>
      </trkpt>
      <trkpt lat="45.91482" lon="6.51187">
        <ele>2350.108</ele>
        <time>2024-12-11T13:24:30Z</time>
      </trkpt>
      <trkpt lat="45.91482" lon="6.51187">
        <ele>2350.119</ele>
        <time>2024-12-11T13:24:35Z</time>
      </trkpt>
      <trkpt lat="45.91482" lon="6.51187">
        <ele>2350.119</ele>
        <time>2024-12-11T13:24:40Z</time>
      </trkpt>
      <trkpt lat="45.91482" lon="6.51187">
        <ele>2350.128</ele>
        <time>2024-12-11T13:24:45Z</time>
      </trkpt>
      <trkpt lat="45.91482" lon="6.51187">
        <ele>2350.124</ele>
        <time>2024-12-11T13:24:50Z</time>
      </trkpt>
      <trkpt lat="45.91482" lon="6.51187">
        <ele>2350.125</ele>
        <time>2024-12-11T13:24:55Z</time>
      </trkpt>
      <trkpt lat="45.91482" lon="6.51187">
        <ele>2350.13</ele>
        <time>2024-12-11T13:25:00Z</time>
      </trkpt>
      <trkpt lat="45.91482" lon="6.51187">
        <ele>2350.144</ele>
        <time>2024-12-11T13:25:05Z</time>
      </trkpt>
      <trkpt lat="45.91482" lon="6.51187">
        <ele>2350.154</ele>
        <time>2024-12-11T13:25:10Z</time>
      </trkpt>
      <trkpt lat="45.91482" lon="6.51187">
        <ele>2350.144</ele>
        <time>2024-12-11T13:25:15Z</time>
      </trkpt>
      <trkpt lat="45.91482" lon="6.51187">
        <ele>2350.141</ele>
        <time>2024-12-11T13:25:20Z</time>
      </trkpt>
      <trkpt lat="45.91482" lon="6.51187">
        <ele>2350.132</ele>
        <time>2024-12-11T13:25:25Z</time>
      </trkpt>
      <trkpt lat="45.91482" lon="6.51187">
        <ele>2350.128</ele>
        <time>2024-12-11T13:25:30Z</time>
      </trkpt>
      <trkpt lat="45.91482" lon="6.51187">
        <ele>2350.12</ele>
        <time>2024-12-11T13:25:35Z</time>
      </trkpt>
      <trkpt lat="45.91482" lon="6.51187">
        <ele>2350.114</ele>
        <time>2024-12-11T13:25:40Z</time>
      </trkpt>
      <trkpt lat="45.91482" lon="6.51187">
        <ele>2350.106</ele>
        <time>2024-12-11T13:25:45Z</time>
      </trkpt>
      <trkpt lat="45.91482" lon="6.51187">
        <ele>2350.929</ele>
        <time>2024-12-11T13:25:50Z</time>
      </trkpt>
      <trkpt lat="45.91482" lon="6.51187">
        <ele>2350.934</ele>
        <time>2024-12-11T13:25:55Z</time>
      </trkpt>
      <trkpt lat="45.91482" lon="6.51187">
        <ele>2350.933</ele>
        <time>2024-12-11T13:26:00Z</time>
      </trkpt>
      <trkpt lat="45.91482" lon="6.51187">
        <ele>2350.684</ele>
        <time>2024-12-11T13:26:05Z</time>
      </trkpt>
      <trkpt lat="45.91482" lon="6.51187">
        <ele>2350.319</ele>
        <time>2024-12-11T13:26:10Z</time>
      </trkpt>
      <trkpt lat="45.91482" lon="6.51187">
        <ele>2351.164</ele>
        <time>2024-12-11T13:26:15Z</time>
      </trkpt>
      <trkpt lat="45.91482" lon="6.51187">
        <ele>2351.015</ele>
        <time>2024-12-11T13:26:20Z</time>
      </trkpt>
      <trkpt lat="45.91482" lon="6.51187">
        <ele>2350.558</ele>
        <time>2024-12-11T13:26:25Z</time>
      </trkpt>
      <trkpt lat="45.91482" lon="6.51187">
        <ele>2350.372</ele>
        <time>2024-12-11T13:26:30Z</time>
      </trkpt>
      <trkpt lat="45.91483" lon="6.51188">
        <ele>2350.402</ele>
        <time>2024-12-11T13:26:35Z</time>
      </trkpt>
      <trkpt lat="45.91483" lon="6.51188">
        <ele>2350.401</ele>
        <time>2024-12-11T13:26:40Z</time>
      </trkpt>
      <trkpt lat="45.91483" lon="6.51188">
        <ele>2350.399</ele>
        <time>2024-12-11T13:26:45Z</time>
      </trkpt>
      <trkpt lat="45.91483" lon="6.51188">
        <ele>2350.399</ele>
        <time>2024-12-11T13:26:50Z</time>
      </trkpt>
      <trkpt lat="45.91483" lon="6.51188">
        <ele>2350.391</ele>
        <time>2024-12-11T13:26:55Z</time>
      </trkpt>
      <trkpt lat="45.91483" lon="6.51188">
        <ele>2350.382</ele>
        <time>2024-12-11T13:27:00Z</time>
      </trkpt>
      <trkpt lat="45.91483" lon="6.51188">
        <ele>2350.368</ele>
        <time>2024-12-11T13:27:05Z</time>
      </trkpt>
      <trkpt lat="45.91484" lon="6.51188">
        <ele>2350.735</ele>
        <time>2024-12-11T13:27:10Z</time>
      </trkpt>
      <trkpt lat="45.91485" lon="6.51186">
        <ele>2353.008</ele>
        <time>2024-12-11T13:27:15Z</time>
      </trkpt>
      <trkpt lat="45.91488" lon="6.51185">
        <ele>2353.121</ele>
        <time>2024-12-11T13:27:20Z</time>
      </trkpt>
      <trkpt lat="45.91491" lon="6.51186">
        <ele>2354.224</ele>
        <time>2024-12-11T13:27:25Z</time>
      </trkpt>
      <trkpt lat="45.91494" lon="6.51184">
        <ele>2354.074</ele>
        <time>2024-12-11T13:27:30Z</time>
      </trkpt>
      <trkpt lat="45.91497" lon="6.51182">
        <ele>2353.583</ele>
        <time>2024-12-11T13:27:35Z</time>
      </trkpt>
      <trkpt lat="45.91499" lon="6.51181">
        <ele>2354.117</ele>
        <time>2024-12-11T13:27:40Z</time>
      </trkpt>
      <trkpt lat="45.91498" lon="6.51181">
        <ele>2353.955</ele>
        <time>2024-12-11T13:27:45Z</time>
      </trkpt>
      <trkpt lat="45.91498" lon="6.51181">
        <ele>2353.705</ele>
        <time>2024-12-11T13:27:50Z</time>
      </trkpt>
      <trkpt lat="45.91497" lon="6.51184">
        <ele>2354.082</ele>
        <time>2024-12-11T13:27:55Z</time>
      </trkpt>
      <trkpt lat="45.91496" lon="6.51186">
        <ele>2355.59</ele>
        <time>2024-12-11T13:28:00Z</time>
      </trkpt>
      <trkpt lat="45.91494" lon="6.51189">
        <ele>2355.895</ele>
        <time>2024-12-11T13:28:05Z</time>
      </trkpt>
      <trkpt lat="45.91492" lon="6.51191">
        <ele>2357.256</ele>
        <time>2024-12-11T13:28:10Z</time>
      </trkpt>
      <trkpt lat="45.9149" lon="6.51194">
        <ele>2358.838</ele>
        <time>2024-12-11T13:28:15Z</time>
      </trkpt>
      <trkpt lat="45.91487" lon="6.51194">
        <ele>2359.167</ele>
        <time>2024-12-11T13:28:20Z</time>
      </trkpt>
      <trkpt lat="45.91485" lon="6.51197">
        <ele>2359.274</ele>
        <time>2024-12-11T13:28:25Z</time>
      </trkpt>
      <trkpt lat="45.91485" lon="6.51199">
        <ele>2359.127</ele>
        <time>2024-12-11T13:28:30Z</time>
      </trkpt>
      <trkpt lat="45.91487" lon="6.512">
        <ele>2358.807</ele>
        <time>2024-12-11T13:28:35Z</time>
      </trkpt>
      <trkpt lat="45.9149" lon="6.51201">
        <ele>2358.328</ele>
        <time>2024-12-11T13:28:40Z</time>
      </trkpt>
      <trkpt lat="45.91494" lon="6.51199">
        <ele>2358.138</ele>
        <time>2024-12-11T13:28:45Z</time>
      </trkpt>
      <trkpt lat="45.91496" lon="6.51197">
        <ele>2359.381</ele>
        <time>2024-12-11T13:28:50Z</time>
      </trkpt>
      <trkpt lat="45.91499" lon="6.51197">
        <ele>2359.454</ele>
        <time>2024-12-11T13:28:55Z</time>
      </trkpt>
      <trkpt lat="45.91501" lon="6.51196">
        <ele>2359.247</ele>
        <time>2024-12-11T13:29:00Z</time>
      </trkpt>
      <trkpt lat="45.91503" lon="6.51193">
        <ele>2359.66</ele>
        <time>2024-12-11T13:29:05Z</time>
      </trkpt>
      <trkpt lat="45.91505" lon="6.51192">
        <ele>2360.207</ele>
        <time>2024-12-11T13:29:10Z</time>
      </trkpt>
      <trkpt lat="45.91505" lon="6.51193">
        <ele>2360.656</ele>
        <time>2024-12-11T13:29:15Z</time>
      </trkpt>
      <trkpt lat="45.91502" lon="6.51195">
        <ele>2361.421</ele>
        <time>2024-12-11T13:29:20Z</time>
      </trkpt>
      <trkpt lat="45.91501" lon="6.51197">
        <ele>2362.214</ele>
        <time>2024-12-11T13:29:25Z</time>
      </trkpt>
      <trkpt lat="45.91499" lon="6.512">
        <ele>2363.718</ele>
        <time>2024-12-11T13:29:30Z</time>
      </trkpt>
      <trkpt lat="45.91496" lon="6.51202">
        <ele>2364.098</ele>
        <time>2024-12-11T13:29:35Z</time>
      </trkpt>
      <trkpt lat="45.91494" lon="6.51204">
        <ele>2365.17</ele>
        <time>2024-12-11T13:29:40Z</time>
      </trkpt>
      <trkpt lat="45.91493" lon="6.51206">
        <ele>2365.326</ele>
        <time>2024-12-11T13:29:45Z</time>
      </trkpt>
      <trkpt lat="45.91491" lon="6.51209">
        <ele>2365.61</ele>
        <time>2024-12-11T13:29:50Z</time>
      </trkpt>
      <trkpt lat="45.91489" lon="6.51212">
        <ele>2365.536</ele>
        <time>2024-12-11T13:29:55Z</time>
      </trkpt>
      <trkpt lat="45.91488" lon="6.51214">
        <ele>2366.051</ele>
        <time>2024-12-11T13:30:00Z</time>
      </trkpt>
      <trkpt lat="45.91487" lon="6.51216">
        <ele>2364.916</ele>
        <time>2024-12-11T13:30:05Z</time>
      </trkpt>
      <trkpt lat="45.91487" lon="6.51218">
        <ele>2366.795</ele>
        <time>2024-12-11T13:30:10Z</time>
      </trkpt>
      <trkpt lat="45.9149" lon="6.51218">
        <ele>2366.313</ele>
        <time>2024-12-11T13:30:15Z</time>
      </trkpt>
      <trkpt lat="45.91492" lon="6.51216">
        <ele>2367.73</ele>
        <time>2024-12-11T13:30:20Z</time>
      </trkpt>
      <trkpt lat="45.91496" lon="6.51215">
        <ele>2367.716</ele>
        <time>2024-12-11T13:30:25Z</time>
      </trkpt>
      <trkpt lat="45.91499" lon="6.51214">
        <ele>2368.117</ele>
        <time>2024-12-11T13:30:30Z</time>
      </trkpt>
      <trkpt lat="45.91501" lon="6.51212">
        <ele>2368.476</ele>
        <time>2024-12-11T13:30:35Z</time>
      </trkpt>
      <trkpt lat="45.91504" lon="6.5121">
        <ele>2367.541</ele>
        <time>2024-12-11T13:30:40Z</time>
      </trkpt>
      <trkpt lat="45.91506" lon="6.5121">
        <ele>2368.638</ele>
        <time>2024-12-11T13:30:45Z</time>
      </trkpt>
      <trkpt lat="45.91508" lon="6.51208">
        <ele>2368.874</ele>
        <time>2024-12-11T13:30:50Z</time>
      </trkpt>
      <trkpt lat="45.9151" lon="6.51205">
        <ele>2367.968</ele>
        <time>2024-12-11T13:30:55Z</time>
      </trkpt>
      <trkpt lat="45.91513" lon="6.51207">
        <ele>2369.733</ele>
        <time>2024-12-11T13:31:00Z</time>
      </trkpt>
      <trkpt lat="45.91513" lon="6.51207">
        <ele>2369.588</ele>
        <time>2024-12-11T13:31:05Z</time>
      </trkpt>
      <trkpt lat="45.91512" lon="6.51209">
        <ele>2368.997</ele>
        <time>2024-12-11T13:31:10Z</time>
      </trkpt>
      <trkpt lat="45.9151" lon="6.5121">
        <ele>2370.059</ele>
        <time>2024-12-11T13:31:15Z</time>
      </trkpt>
      <trkpt lat="45.91508" lon="6.51212">
        <ele>2370.988</ele>
        <time>2024-12-11T13:31:20Z</time>
      </trkpt>
      <trkpt lat="45.91506" lon="6.51214">
        <ele>2371.643</ele>
        <time>2024-12-11T13:31:25Z</time>
      </trkpt>
      <trkpt lat="45.91505" lon="6.51216">
        <ele>2372.726</ele>
        <time>2024-12-11T13:31:30Z</time>
      </trkpt>
      <trkpt lat="45.91503" lon="6.51219">
        <ele>2373.497</ele>
        <time>2024-12-11T13:31:35Z</time>
      </trkpt>
      <trkpt lat="45.915" lon="6.51222">
        <ele>2373.574</ele>
        <time>2024-12-11T13:31:40Z</time>
      </trkpt>
      <trkpt lat="45.91498" lon="6.51224">
        <ele>2374.485</ele>
        <time>2024-12-11T13:31:45Z</time>
      </trkpt>
      <trkpt lat="45.91497" lon="6.51225">
        <ele>2374.675</ele>
        <time>2024-12-11T13:31:50Z</time>
      </trkpt>
      <trkpt lat="45.91497" lon="6.51226">
        <ele>2374.394</ele>
        <time>2024-12-11T13:31:55Z</time>
      </trkpt>
      <trkpt lat="45.91497" lon="6.51227">
        <ele>2374.079</ele>
        <time>2024-12-11T13:32:00Z</time>
      </trkpt>
      <trkpt lat="45.91499" lon="6.51228">
        <ele>2374.436</ele>
        <time>2024-12-11T13:32:05Z</time>
      </trkpt>
      <trkpt lat="45.91501" lon="6.51227">
        <ele>2374.142</ele>
        <time>2024-12-11T13:32:10Z</time>
      </trkpt>
      <trkpt lat="45.91504" lon="6.51226">
        <ele>2373.837</ele>
        <time>2024-12-11T13:32:15Z</time>
      </trkpt>
      <trkpt lat="45.91507" lon="6.51224">
        <ele>2374.349</ele>
        <time>2024-12-11T13:32:20Z</time>
      </trkpt>
      <trkpt lat="45.9151" lon="6.51222">
        <ele>2374.343</ele>
        <time>2024-12-11T13:32:25Z</time>
      </trkpt>
      <trkpt lat="45.91512" lon="6.51222">
        <ele>2374.7</ele>
        <time>2024-12-11T13:32:30Z</time>
      </trkpt>
      <trkpt lat="45.91514" lon="6.51221">
        <ele>2375.345</ele>
        <time>2024-12-11T13:32:35Z</time>
      </trkpt>
      <trkpt lat="45.91513" lon="6.5122">
        <ele>2374.561</ele>
        <time>2024-12-11T13:32:40Z</time>
      </trkpt>
      <trkpt lat="45.91511" lon="6.51223">
        <ele>2375.008</ele>
        <time>2024-12-11T13:32:45Z</time>
      </trkpt>
      <trkpt lat="45.9151" lon="6.51224">
        <ele>2376.315</ele>
        <time>2024-12-11T13:32:50Z</time>
      </trkpt>
      <trkpt lat="45.91508" lon="6.51227">
        <ele>2377.576</ele>
        <time>2024-12-11T13:32:55Z</time>
      </trkpt>
      <trkpt lat="45.91506" lon="6.51229">
        <ele>2378.107</ele>
        <time>2024-12-11T13:33:00Z</time>
      </trkpt>
      <trkpt lat="45.91505" lon="6.51232">
        <ele>2378.909</ele>
        <time>2024-12-11T13:33:05Z</time>
      </trkpt>
      <trkpt lat="45.91503" lon="6.51235">
        <ele>2379.912</ele>
        <time>2024-12-11T13:33:10Z</time>
      </trkpt>
      <trkpt lat="45.91501" lon="6.51237">
        <ele>2380.239</ele>
        <time>2024-12-11T13:33:15Z</time>
      </trkpt>
      <trkpt lat="45.91499" lon="6.51239">
        <ele>2380.474</ele>
        <time>2024-12-11T13:33:20Z</time>
      </trkpt>
      <trkpt lat="45.91497" lon="6.51241">
        <ele>2381.408</ele>
        <time>2024-12-11T13:33:25Z</time>
      </trkpt>
      <trkpt lat="45.91496" lon="6.51243">
        <ele>2381.412</ele>
        <time>2024-12-11T13:33:30Z</time>
      </trkpt>
      <trkpt lat="45.91495" lon="6.51246">
        <ele>2381.291</ele>
        <time>2024-12-11T13:33:35Z</time>
      </trkpt>
      <trkpt lat="45.91495" lon="6.51246">
        <ele>2381.138</ele>
        <time>2024-12-11T13:33:40Z</time>
      </trkpt>
      <trkpt lat="45.91496" lon="6.51246">
        <ele>2380.33</ele>
        <time>2024-12-11T13:33:45Z</time>
      </trkpt>
      <trkpt lat="45.91499" lon="6.51246">
        <ele>2380.763</ele>
        <time>2024-12-11T13:33:50Z</time>
      </trkpt>
      <trkpt lat="45.91502" lon="6.51246">
        <ele>2381.695</ele>
        <time>2024-12-11T13:33:55Z</time>
      </trkpt>
      <trkpt lat="45.91506" lon="6.51245">
        <ele>2382.817</ele>
        <time>2024-12-11T13:34:00Z</time>
      </trkpt>
      <trkpt lat="45.91508" lon="6.51244">
        <ele>2383.913</ele>
        <time>2024-12-11T13:34:05Z</time>
      </trkpt>
      <trkpt lat="45.91511" lon="6.51243">
        <ele>2385.091</ele>
        <time>2024-12-11T13:34:10Z</time>
      </trkpt>
      <trkpt lat="45.91513" lon="6.51242">
        <ele>2384.674</ele>
        <time>2024-12-11T13:34:15Z</time>
      </trkpt>
      <trkpt lat="45.91516" lon="6.5124">
        <ele>2383.612</ele>
        <time>2024-12-11T13:34:20Z</time>
      </trkpt>
      <trkpt lat="45.91518" lon="6.51239">
        <ele>2384.808</ele>
        <time>2024-12-11T13:34:25Z</time>
      </trkpt>
      <trkpt lat="45.91521" lon="6.51238">
        <ele>2384.399</ele>
        <time>2024-12-11T13:34:30Z</time>
      </trkpt>
      <trkpt lat="45.9152" lon="6.51238">
        <ele>2383.985</ele>
        <time>2024-12-11T13:34:35Z</time>
      </trkpt>
      <trkpt lat="45.9152" lon="6.51238">
        <ele>2383.944</ele>
        <time>2024-12-11T13:34:40Z</time>
      </trkpt>
      <trkpt lat="45.9152" lon="6.51238">
        <ele>2384.195</ele>
        <time>2024-12-11T13:34:45Z</time>
      </trkpt>
      <trkpt lat="45.91519" lon="6.5124">
        <ele>2384.797</ele>
        <time>2024-12-11T13:34:50Z</time>
      </trkpt>
      <trkpt lat="45.91517" lon="6.51242">
        <ele>2385.716</ele>
        <time>2024-12-11T13:34:55Z</time>
      </trkpt>
      <trkpt lat="45.91515" lon="6.51246">
        <ele>2385.919</ele>
        <time>2024-12-11T13:35:00Z</time>
      </trkpt>
      <trkpt lat="45.91513" lon="6.51248">
        <ele>2386.396</ele>
        <time>2024-12-11T13:35:05Z</time>
      </trkpt>
      <trkpt lat="45.91512" lon="6.51251">
        <ele>2387.186</ele>
        <time>2024-12-11T13:35:10Z</time>
      </trkpt>
      <trkpt lat="45.91509" lon="6.51253">
        <ele>2388.727</ele>
        <time>2024-12-11T13:35:15Z</time>
      </trkpt>
      <trkpt lat="45.91507" lon="6.51255">
        <ele>2389.085</ele>
        <time>2024-12-11T13:35:20Z</time>
      </trkpt>
      <trkpt lat="45.91506" lon="6.51257">
        <ele>2389.836</ele>
        <time>2024-12-11T13:35:25Z</time>
      </trkpt>
      <trkpt lat="45.91504" lon="6.5126">
        <ele>2390.579</ele>
        <time>2024-12-11T13:35:30Z</time>
      </trkpt>
      <trkpt lat="45.91503" lon="6.51263">
        <ele>2389.944</ele>
        <time>2024-12-11T13:35:35Z</time>
      </trkpt>
      <trkpt lat="45.91504" lon="6.51264">
        <ele>2388.72</ele>
        <time>2024-12-11T13:35:40Z</time>
      </trkpt>
      <trkpt lat="45.91506" lon="6.51266">
        <ele>2389.942</ele>
        <time>2024-12-11T13:35:45Z</time>
      </trkpt>
      <trkpt lat="45.91508" lon="6.51266">
        <ele>2388.967</ele>
        <time>2024-12-11T13:35:50Z</time>
      </trkpt>
      <trkpt lat="45.91511" lon="6.51265">
        <ele>2390.986</ele>
        <time>2024-12-11T13:35:55Z</time>
      </trkpt>
      <trkpt lat="45.91513" lon="6.51264">
        <ele>2391.393</ele>
        <time>2024-12-11T13:36:00Z</time>
      </trkpt>
      <trkpt lat="45.91515" lon="6.51264">
        <ele>2392.44</ele>
        <time>2024-12-11T13:36:05Z</time>
      </trkpt>
      <trkpt lat="45.91516" lon="6.51264">
        <ele>2394.064</ele>
        <time>2024-12-11T13:36:10Z</time>
      </trkpt>
      <trkpt lat="45.91518" lon="6.51263">
        <ele>2393.672</ele>
        <time>2024-12-11T13:36:15Z</time>
      </trkpt>
      <trkpt lat="45.91519" lon="6.51261">
        <ele>2395.225</ele>
        <time>2024-12-11T13:36:20Z</time>
      </trkpt>
      <trkpt lat="45.91521" lon="6.5126">
        <ele>2395.336</ele>
        <time>2024-12-11T13:36:25Z</time>
      </trkpt>
      <trkpt lat="45.91521" lon="6.51259">
        <ele>2397.327</ele>
        <time>2024-12-11T13:36:30Z</time>
      </trkpt>
      <trkpt lat="45.91522" lon="6.51259">
        <ele>2396.803</ele>
        <time>2024-12-11T13:36:35Z</time>
      </trkpt>
      <trkpt lat="45.91524" lon="6.51259">
        <ele>2397.255</ele>
        <time>2024-12-11T13:36:40Z</time>
      </trkpt>
      <trkpt lat="45.91527" lon="6.51259">
        <ele>2397.395</ele>
        <time>2024-12-11T13:36:45Z</time>
      </trkpt>
      <trkpt lat="45.91528" lon="6.51259">
        <ele>2399.021</ele>
        <time>2024-12-11T13:36:50Z</time>
      </trkpt>
      <trkpt lat="45.9153" lon="6.51258">
        <ele>2399.05</ele>
        <time>2024-12-11T13:36:55Z</time>
      </trkpt>
      <trkpt lat="45.91531" lon="6.51258">
        <ele>2400.231</ele>
        <time>2024-12-11T13:37:00Z</time>
      </trkpt>
      <trkpt lat="45.91532" lon="6.51258">
        <ele>2402.068</ele>
        <time>2024-12-11T13:37:05Z</time>
      </trkpt>
      <trkpt lat="45.91533" lon="6.51257">
        <ele>2401.755</ele>
        <time>2024-12-11T13:37:10Z</time>
      </trkpt>
      <trkpt lat="45.91534" lon="6.51255">
        <ele>2402.102</ele>
        <time>2024-12-11T13:37:15Z</time>
      </trkpt>
      <trkpt lat="45.91535" lon="6.51254">
        <ele>2402.537</ele>
        <time>2024-12-11T13:37:20Z</time>
      </trkpt>
      <trkpt lat="45.91535" lon="6.51254">
        <ele>2401.356</ele>
        <time>2024-12-11T13:37:25Z</time>
      </trkpt>
      <trkpt lat="45.91534" lon="6.51257">
        <ele>2401.67</ele>
        <time>2024-12-11T13:37:30Z</time>
      </trkpt>
      <trkpt lat="45.91533" lon="6.51259">
        <ele>2401.788</ele>
        <time>2024-12-11T13:37:35Z</time>
      </trkpt>
      <trkpt lat="45.91532" lon="6.51262">
        <ele>2402.764</ele>
        <time>2024-12-11T13:37:40Z</time>
      </trkpt>
      <trkpt lat="45.9153" lon="6.51265">
        <ele>2403.531</ele>
        <time>2024-12-11T13:37:45Z</time>
      </trkpt>
      <trkpt lat="45.91529" lon="6.51267">
        <ele>2403.266</ele>
        <time>2024-12-11T13:37:50Z</time>
      </trkpt>
      <trkpt lat="45.91528" lon="6.5127">
        <ele>2403.917</ele>
        <time>2024-12-11T13:37:55Z</time>
      </trkpt>
      <trkpt lat="45.91527" lon="6.51272">
        <ele>2404.31</ele>
        <time>2024-12-11T13:38:00Z</time>
      </trkpt>
      <trkpt lat="45.91527" lon="6.51273">
        <ele>2403.146</ele>
        <time>2024-12-11T13:38:05Z</time>
      </trkpt>
      <trkpt lat="45.91529" lon="6.51275">
        <ele>2402.497</ele>
        <time>2024-12-11T13:38:10Z</time>
      </trkpt>
      <trkpt lat="45.91529" lon="6.51276">
        <ele>2402.502</ele>
        <time>2024-12-11T13:38:15Z</time>
      </trkpt>
      <trkpt lat="45.9153" lon="6.51276">
        <ele>2403.255</ele>
        <time>2024-12-11T13:38:20Z</time>
      </trkpt>
      <trkpt lat="45.91532" lon="6.51274">
        <ele>2405.628</ele>
        <time>2024-12-11T13:38:25Z</time>
      </trkpt>
      <trkpt lat="45.91535" lon="6.51272">
        <ele>2405.375</ele>
        <time>2024-12-11T13:38:30Z</time>
      </trkpt>
      <trkpt lat="45.91538" lon="6.5127">
        <ele>2406.7</ele>
        <time>2024-12-11T13:38:35Z</time>
      </trkpt>
      <trkpt lat="45.9154" lon="6.51267">
        <ele>2408.407</ele>
        <time>2024-12-11T13:38:40Z</time>
      </trkpt>
      <trkpt lat="45.91542" lon="6.51264">
        <ele>2408.937</ele>
        <time>2024-12-11T13:38:45Z</time>
      </trkpt>
      <trkpt lat="45.91544" lon="6.51262">
        <ele>2409.93</ele>
        <time>2024-12-11T13:38:50Z</time>
      </trkpt>
      <trkpt lat="45.91546" lon="6.5126">
        <ele>2410.283</ele>
        <time>2024-12-11T13:38:55Z</time>
      </trkpt>
      <trkpt lat="45.91546" lon="6.51259">
        <ele>2411.103</ele>
        <time>2024-12-11T13:39:00Z</time>
      </trkpt>
      <trkpt lat="45.91546" lon="6.51259">
        <ele>2410.622</ele>
        <time>2024-12-11T13:39:05Z</time>
      </trkpt>
      <trkpt lat="45.91546" lon="6.51259">
        <ele>2409.676</ele>
        <time>2024-12-11T13:39:10Z</time>
      </trkpt>
      <trkpt lat="45.91546" lon="6.51259">
        <ele>2409.665</ele>
        <time>2024-12-11T13:39:15Z</time>
      </trkpt>
      <trkpt lat="45.91546" lon="6.51259">
        <ele>2410.901</ele>
        <time>2024-12-11T13:39:20Z</time>
      </trkpt>
      <trkpt lat="45.91546" lon="6.51259">
        <ele>2411.216</ele>
        <time>2024-12-11T13:39:25Z</time>
      </trkpt>
      <trkpt lat="45.91546" lon="6.51259">
        <ele>2411.905</ele>
        <time>2024-12-11T13:39:30Z</time>
      </trkpt>
      <trkpt lat="45.91546" lon="6.51259">
        <ele>2412.309</ele>
        <time>2024-12-11T13:39:35Z</time>
      </trkpt>
      <trkpt lat="45.91546" lon="6.51259">
        <ele>2412.836</ele>
        <time>2024-12-11T13:39:40Z</time>
      </trkpt>
      <trkpt lat="45.91546" lon="6.51259">
        <ele>2413.591</ele>
        <time>2024-12-11T13:39:45Z</time>
      </trkpt>
      <trkpt lat="45.91546" lon="6.51259">
        <ele>2414.928</ele>
        <time>2024-12-11T13:39:50Z</time>
      </trkpt>
      <trkpt lat="45.91546" lon="6.51259">
        <ele>2416.353</ele>
        <time>2024-12-11T13:39:55Z</time>
      </trkpt>
      <trkpt lat="45.91546" lon="6.51259">
        <ele>2415.001</ele>
        <time>2024-12-11T13:40:00Z</time>
      </trkpt>
      <trkpt lat="45.91546" lon="6.51259">
        <ele>2415.594</ele>
        <time>2024-12-11T13:40:05Z</time>
      </trkpt>
      <trkpt lat="45.91546" lon="6.51259">
        <ele>2415.228</ele>
        <time>2024-12-11T13:40:10Z</time>
      </trkpt>
      <trkpt lat="45.91546" lon="6.51259">
        <ele>2414.136</ele>
        <time>2024-12-11T13:40:15Z</time>
      </trkpt>
      <trkpt lat="45.91546" lon="6.51259">
        <ele>2414.549</ele>
        <time>2024-12-11T13:40:20Z</time>
      </trkpt>
      <trkpt lat="45.91546" lon="6.51259">
        <ele>2415.436</ele>
        <time>2024-12-11T13:40:25Z</time>
      </trkpt>
      <trkpt lat="45.91546" lon="6.51259">
        <ele>2416.076</ele>
        <time>2024-12-11T13:40:30Z</time>
      </trkpt>
      <trkpt lat="45.91546" lon="6.51259">
        <ele>2416.503</ele>
        <time>2024-12-11T13:40:35Z</time>
      </trkpt>
      <trkpt lat="45.91546" lon="6.51259">
        <ele>2418.46</ele>
        <time>2024-12-11T13:40:40Z</time>
      </trkpt>
      <trkpt lat="45.91546" lon="6.51259">
        <ele>2418.118</ele>
        <time>2024-12-11T13:40:45Z</time>
      </trkpt>
      <trkpt lat="45.91546" lon="6.51259">
        <ele>2418.445</ele>
        <time>2024-12-11T13:40:50Z</time>
      </trkpt>
      <trkpt lat="45.91546" lon="6.51259">
        <ele>2418.694</ele>
        <time>2024-12-11T13:40:55Z</time>
      </trkpt>
      <trkpt lat="45.91546" lon="6.51259">
        <ele>2418.816</ele>
        <time>2024-12-11T13:41:00Z</time>
      </trkpt>
      <trkpt lat="45.91546" lon="6.51259">
        <ele>2417.555</ele>
        <time>2024-12-11T13:41:05Z</time>
      </trkpt>
      <trkpt lat="45.91546" lon="6.51259">
        <ele>2417.432</ele>
        <time>2024-12-11T13:41:10Z</time>
      </trkpt>
      <trkpt lat="45.91546" lon="6.51259">
        <ele>2417.092</ele>
        <time>2024-12-11T13:41:15Z</time>
      </trkpt>
      <trkpt lat="45.91546" lon="6.51259">
        <ele>2416.968</ele>
        <time>2024-12-11T13:41:20Z</time>
      </trkpt>
      <trkpt lat="45.91546" lon="6.51259">
        <ele>2418.412</ele>
        <time>2024-12-11T13:41:25Z</time>
      </trkpt>
      <trkpt lat="45.91546" lon="6.51259">
        <ele>2419.879</ele>
        <time>2024-12-11T13:41:30Z</time>
      </trkpt>
      <trkpt lat="45.91546" lon="6.51259">
        <ele>2419.757</ele>
        <time>2024-12-11T13:41:35Z</time>
      </trkpt>
      <trkpt lat="45.91546" lon="6.51259">
        <ele>2419.825</ele>
        <time>2024-12-11T13:41:40Z</time>
      </trkpt>
      <trkpt lat="45.91546" lon="6.51259">
        <ele>2419.684</ele>
        <time>2024-12-11T13:41:45Z</time>
      </trkpt>
      <trkpt lat="45.91546" lon="6.51259">
        <ele>2419.204</ele>
        <time>2024-12-11T13:41:50Z</time>
      </trkpt>
      <trkpt lat="45.91557" lon="6.51258">
        <ele>2419.423</ele>
        <time>2024-12-11T13:41:55Z</time>
      </trkpt>
      <trkpt lat="45.91557" lon="6.51259">
        <ele>2421.028</ele>
        <time>2024-12-11T13:42:00Z</time>
      </trkpt>
      <trkpt lat="45.91559" lon="6.51258">
        <ele>2421.947</ele>
        <time>2024-12-11T13:42:05Z</time>
      </trkpt>
      <trkpt lat="45.91562" lon="6.51258">
        <ele>2422.609</ele>
        <time>2024-12-11T13:42:10Z</time>
      </trkpt>
      <trkpt lat="45.91564" lon="6.51258">
        <ele>2423.899</ele>
        <time>2024-12-11T13:42:15Z</time>
      </trkpt>
      <trkpt lat="45.91565" lon="6.51258">
        <ele>2423.335</ele>
        <time>2024-12-11T13:42:20Z</time>
      </trkpt>
      <trkpt lat="45.91567" lon="6.51259">
        <ele>2423.525</ele>
        <time>2024-12-11T13:42:25Z</time>
      </trkpt>
      <trkpt lat="45.91571" lon="6.51261">
        <ele>2422.137</ele>
        <time>2024-12-11T13:42:30Z</time>
      </trkpt>
      <trkpt lat="45.91574" lon="6.51263">
        <ele>2419.196</ele>
        <time>2024-12-11T13:42:35Z</time>
      </trkpt>
      <trkpt lat="45.91577" lon="6.51263">
        <ele>2418.175</ele>
        <time>2024-12-11T13:42:40Z</time>
      </trkpt>
      <trkpt lat="45.9158" lon="6.51262">
        <ele>2416.648</ele>
        <time>2024-12-11T13:42:45Z</time>
      </trkpt>
      <trkpt lat="45.91584" lon="6.51262">
        <ele>2414.507</ele>
        <time>2024-12-11T13:42:50Z</time>
      </trkpt>
      <trkpt lat="45.91588" lon="6.51262">
        <ele>2412.48</ele>
        <time>2024-12-11T13:42:55Z</time>
      </trkpt>
      <trkpt lat="45.91589" lon="6.51261">
        <ele>2414.725</ele>
        <time>2024-12-11T13:43:00Z</time>
      </trkpt>
      <trkpt lat="45.91589" lon="6.51261">
        <ele>2414.838</ele>
        <time>2024-12-11T13:43:05Z</time>
      </trkpt>
      <trkpt lat="45.91589" lon="6.5126">
        <ele>2415.047</ele>
        <time>2024-12-11T13:43:10Z</time>
      </trkpt>
      <trkpt lat="45.91587" lon="6.5126">
        <ele>2414.055</ele>
        <time>2024-12-11T13:43:15Z</time>
      </trkpt>
      <trkpt lat="45.91586" lon="6.5126">
        <ele>2413.637</ele>
        <time>2024-12-11T13:43:20Z</time>
      </trkpt>
      <trkpt lat="45.91585" lon="6.51262">
        <ele>2416.265</ele>
        <time>2024-12-11T13:43:25Z</time>
      </trkpt>
      <trkpt lat="45.91583" lon="6.51263">
        <ele>2418.261</ele>
        <time>2024-12-11T13:43:30Z</time>
      </trkpt>
      <trkpt lat="45.91581" lon="6.51264">
        <ele>2419.785</ele>
        <time>2024-12-11T13:43:35Z</time>
      </trkpt>
      <trkpt lat="45.91578" lon="6.51264">
        <ele>2421.077</ele>
        <time>2024-12-11T13:43:40Z</time>
      </trkpt>
      <trkpt lat="45.91577" lon="6.51266">
        <ele>2422.217</ele>
        <time>2024-12-11T13:43:45Z</time>
      </trkpt>
      <trkpt lat="45.91577" lon="6.51269">
        <ele>2423.375</ele>
        <time>2024-12-11T13:43:50Z</time>
      </trkpt>
      <trkpt lat="45.91577" lon="6.5127">
        <ele>2423.783</ele>
        <time>2024-12-11T13:43:55Z</time>
      </trkpt>
      <trkpt lat="45.91582" lon="6.5127">
        <ele>2424.656</ele>
        <time>2024-12-11T13:44:00Z</time>
      </trkpt>
      <trkpt lat="45.91584" lon="6.51272">
        <ele>2422.325</ele>
        <time>2024-12-11T13:44:05Z</time>
      </trkpt>
      <trkpt lat="45.91588" lon="6.51275">
        <ele>2418.975</ele>
        <time>2024-12-11T13:44:10Z</time>
      </trkpt>
      <trkpt lat="45.91589" lon="6.51274">
        <ele>2420.587</ele>
        <time>2024-12-11T13:44:15Z</time>
      </trkpt>
      <trkpt lat="45.91592" lon="6.51273">
        <ele>2420.353</ele>
        <time>2024-12-11T13:44:20Z</time>
      </trkpt>
      <trkpt lat="45.91594" lon="6.51274">
        <ele>2420.29</ele>
        <time>2024-12-11T13:44:25Z</time>
      </trkpt>
      <trkpt lat="45.91595" lon="6.51273">
        <ele>2422.26</ele>
        <time>2024-12-11T13:44:30Z</time>
      </trkpt>
      <trkpt lat="45.91596" lon="6.51271">
        <ele>2422.577</ele>
        <time>2024-12-11T13:44:35Z</time>
      </trkpt>
      <trkpt lat="45.91595" lon="6.51267">
        <ele>2422.837</ele>
        <time>2024-12-11T13:44:40Z</time>
      </trkpt>
      <trkpt lat="45.91593" lon="6.51264">
        <ele>2424.694</ele>
        <time>2024-12-11T13:44:45Z</time>
      </trkpt>
      <trkpt lat="45.91592" lon="6.51263">
        <ele>2425.752</ele>
        <time>2024-12-11T13:44:50Z</time>
      </trkpt>
      <trkpt lat="45.91591" lon="6.51265">
        <ele>2426.324</ele>
        <time>2024-12-11T13:44:55Z</time>
      </trkpt>
      <trkpt lat="45.9159" lon="6.51266">
        <ele>2427.196</ele>
        <time>2024-12-11T13:45:00Z</time>
      </trkpt>
      <trkpt lat="45.9159" lon="6.51266">
        <ele>2428.148</ele>
        <time>2024-12-11T13:45:05Z</time>
      </trkpt>
      <trkpt lat="45.9159" lon="6.51266">
        <ele>2428.208</ele>
        <time>2024-12-11T13:45:10Z</time>
      </trkpt>
      <trkpt lat="45.9159" lon="6.51266">
        <ele>2428.066</ele>
        <time>2024-12-11T13:45:15Z</time>
      </trkpt>
      <trkpt lat="45.9159" lon="6.51266">
        <ele>2428.66</ele>
        <time>2024-12-11T13:45:20Z</time>
      </trkpt>
      <trkpt lat="45.9159" lon="6.51266">
        <ele>2430.993</ele>
        <time>2024-12-11T13:45:25Z</time>
      </trkpt>
      <trkpt lat="45.9159" lon="6.51266">
        <ele>2430.641</ele>
        <time>2024-12-11T13:45:30Z</time>
      </trkpt>
      <trkpt lat="45.9159" lon="6.51266">
        <ele>2429.042</ele>
        <time>2024-12-11T13:45:35Z</time>
      </trkpt>
      <trkpt lat="45.9159" lon="6.51266">
        <ele>2429.429</ele>
        <time>2024-12-11T13:45:40Z</time>
      </trkpt>
      <trkpt lat="45.9159" lon="6.51266">
        <ele>2431.85</ele>
        <time>2024-12-11T13:45:45Z</time>
      </trkpt>
      <trkpt lat="45.9159" lon="6.51266">
        <ele>2434.121</ele>
        <time>2024-12-11T13:45:50Z</time>
      </trkpt>
      <trkpt lat="45.9159" lon="6.51266">
        <ele>2437.22</ele>
        <time>2024-12-11T13:45:55Z</time>
      </trkpt>
      <trkpt lat="45.9159" lon="6.51266">
        <ele>2438.369</ele>
        <time>2024-12-11T13:46:00Z</time>
      </trkpt>
      <trkpt lat="45.9159" lon="6.51266">
        <ele>2438.857</ele>
        <time>2024-12-11T13:46:05Z</time>
      </trkpt>
      <trkpt lat="45.9159" lon="6.51266">
        <ele>2439.205</ele>
        <time>2024-12-11T13:46:10Z</time>
      </trkpt>
      <trkpt lat="45.9159" lon="6.51266">
        <ele>2439.421</ele>
        <time>2024-12-11T13:46:15Z</time>
      </trkpt>
      <trkpt lat="45.9159" lon="6.51266">
        <ele>2439.377</ele>
        <time>2024-12-11T13:46:20Z</time>
      </trkpt>
      <trkpt lat="45.9159" lon="6.51266">
        <ele>2440.518</ele>
        <time>2024-12-11T13:46:25Z</time>
      </trkpt>
      <trkpt lat="45.9159" lon="6.51266">
        <ele>2441.07</ele>
        <time>2024-12-11T13:46:30Z</time>
      </trkpt>
      <trkpt lat="45.9159" lon="6.51266">
        <ele>2442.29</ele>
        <time>2024-12-11T13:46:35Z</time>
      </trkpt>
      <trkpt lat="45.9159" lon="6.51266">
        <ele>2442.293</ele>
        <time>2024-12-11T13:46:40Z</time>
      </trkpt>
      <trkpt lat="45.9159" lon="6.51266">
        <ele>2442.3</ele>
        <time>2024-12-11T13:46:45Z</time>
      </trkpt>
      <trkpt lat="45.9159" lon="6.51266">
        <ele>2442.494</ele>
        <time>2024-12-11T13:46:50Z</time>
      </trkpt>
      <trkpt lat="45.9159" lon="6.51266">
        <ele>2443.205</ele>
        <time>2024-12-11T13:46:55Z</time>
      </trkpt>
      <trkpt lat="45.9159" lon="6.51266">
        <ele>2443.284</ele>
        <time>2024-12-11T13:47:00Z</time>
      </trkpt>
      <trkpt lat="45.9159" lon="6.51266">
        <ele>2443.287</ele>
        <time>2024-12-11T13:47:05Z</time>
      </trkpt>
      <trkpt lat="45.9159" lon="6.51266">
        <ele>2443.285</ele>
        <time>2024-12-11T13:47:10Z</time>
      </trkpt>
      <trkpt lat="45.9159" lon="6.51266">
        <ele>2443.292</ele>
        <time>2024-12-11T13:47:15Z</time>
      </trkpt>
      <trkpt lat="45.9159" lon="6.51266">
        <ele>2443.48</ele>
        <time>2024-12-11T13:47:20Z</time>
      </trkpt>
      <trkpt lat="45.9159" lon="6.51266">
        <ele>2443.764</ele>
        <time>2024-12-11T13:47:25Z</time>
      </trkpt>
      <trkpt lat="45.9159" lon="6.51266">
        <ele>2443.76</ele>
        <time>2024-12-11T13:47:30Z</time>
      </trkpt>
      <trkpt lat="45.9159" lon="6.51266">
        <ele>2443.748</ele>
        <time>2024-12-11T13:47:35Z</time>
      </trkpt>
      <trkpt lat="45.9159" lon="6.51266">
        <ele>2445.617</ele>
        <time>2024-12-11T13:47:40Z</time>
      </trkpt>
      <trkpt lat="45.9159" lon="6.51266">
        <ele>2445.557</ele>
        <time>2024-12-11T13:47:45Z</time>
      </trkpt>
      <trkpt lat="45.9159" lon="6.51266">
        <ele>2445.607</ele>
        <time>2024-12-11T13:47:50Z</time>
      </trkpt>
      <trkpt lat="45.9159" lon="6.51266">
        <ele>2445.627</ele>
        <time>2024-12-11T13:47:55Z</time>
      </trkpt>
      <trkpt lat="45.9159" lon="6.51266">
        <ele>2445.625</ele>
        <time>2024-12-11T13:48:00Z</time>
      </trkpt>
      <trkpt lat="45.9159" lon="6.51266">
        <ele>2445.62</ele>
        <time>2024-12-11T13:48:05Z</time>
      </trkpt>
      <trkpt lat="45.9159" lon="6.51266">
        <ele>2445.366</ele>
        <time>2024-12-11T13:48:10Z</time>
      </trkpt>
      <trkpt lat="45.9159" lon="6.51266">
        <ele>2445.37</ele>
        <time>2024-12-11T13:48:15Z</time>
      </trkpt>
      <trkpt lat="45.9159" lon="6.51266">
        <ele>2445.371</ele>
        <time>2024-12-11T13:48:20Z</time>
      </trkpt>
      <trkpt lat="45.9159" lon="6.51266">
        <ele>2445.372</ele>
        <time>2024-12-11T13:48:25Z</time>
      </trkpt>
      <trkpt lat="45.9159" lon="6.51266">
        <ele>2445.372</ele>
        <time>2024-12-11T13:48:30Z</time>
      </trkpt>
      <trkpt lat="45.9159" lon="6.51266">
        <ele>2445.376</ele>
        <time>2024-12-11T13:48:35Z</time>
      </trkpt>
      <trkpt lat="45.9159" lon="6.51266">
        <ele>2445.373</ele>
        <time>2024-12-11T13:48:40Z</time>
      </trkpt>
      <trkpt lat="45.9159" lon="6.51266">
        <ele>2445.366</ele>
        <time>2024-12-11T13:48:45Z</time>
      </trkpt>
      <trkpt lat="45.9159" lon="6.51266">
        <ele>2445.367</ele>
        <time>2024-12-11T13:48:50Z</time>
      </trkpt>
      <trkpt lat="45.9159" lon="6.51266">
        <ele>2445.353</ele>
        <time>2024-12-11T13:48:55Z</time>
      </trkpt>
      <trkpt lat="45.9159" lon="6.51266">
        <ele>2445.225</ele>
        <time>2024-12-11T13:49:00Z</time>
      </trkpt>
      <trkpt lat="45.9159" lon="6.51266">
        <ele>2445.307</ele>
        <time>2024-12-11T13:49:05Z</time>
      </trkpt>
      <trkpt lat="45.9159" lon="6.51266">
        <ele>2445.311</ele>
        <time>2024-12-11T13:49:10Z</time>
      </trkpt>
      <trkpt lat="45.9159" lon="6.51266">
        <ele>2445.115</ele>
        <time>2024-12-11T13:49:15Z</time>
      </trkpt>
      <trkpt lat="45.9159" lon="6.51266">
        <ele>2445.03</ele>
        <time>2024-12-11T13:49:20Z</time>
      </trkpt>
      <trkpt lat="45.9159" lon="6.51266">
        <ele>2445.037</ele>
        <time>2024-12-11T13:49:25Z</time>
      </trkpt>
      <trkpt lat="45.9159" lon="6.51266">
        <ele>2445.036</ele>
        <time>2024-12-11T13:49:30Z</time>
      </trkpt>
      <trkpt lat="45.9159" lon="6.51266">
        <ele>2444.397</ele>
        <time>2024-12-11T13:49:35Z</time>
      </trkpt>
      <trkpt lat="45.9159" lon="6.51266">
        <ele>2444.395</ele>
        <time>2024-12-11T13:49:40Z</time>
      </trkpt>
      <trkpt lat="45.9159" lon="6.51266">
        <ele>2444.39</ele>
        <time>2024-12-11T13:49:45Z</time>
      </trkpt>
      <trkpt lat="45.9159" lon="6.51266">
        <ele>2444.386</ele>
        <time>2024-12-11T13:49:50Z</time>
      </trkpt>
      <trkpt lat="45.9159" lon="6.51266">
        <ele>2444.381</ele>
        <time>2024-12-11T13:49:55Z</time>
      </trkpt>
      <trkpt lat="45.9159" lon="6.51266">
        <ele>2444.385</ele>
        <time>2024-12-11T13:50:00Z</time>
      </trkpt>
      <trkpt lat="45.9159" lon="6.51266">
        <ele>2444.375</ele>
        <time>2024-12-11T13:50:05Z</time>
      </trkpt>
      <trkpt lat="45.9159" lon="6.51266">
        <ele>2444.379</ele>
        <time>2024-12-11T13:50:10Z</time>
      </trkpt>
      <trkpt lat="45.9159" lon="6.51266">
        <ele>2444.379</ele>
        <time>2024-12-11T13:50:15Z</time>
      </trkpt>
      <trkpt lat="45.9159" lon="6.51266">
        <ele>2444.377</ele>
        <time>2024-12-11T13:50:20Z</time>
      </trkpt>
      <trkpt lat="45.9159" lon="6.51266">
        <ele>2444.647</ele>
        <time>2024-12-11T13:50:25Z</time>
      </trkpt>
      <trkpt lat="45.9159" lon="6.51266">
        <ele>2444.213</ele>
        <time>2024-12-11T13:50:30Z</time>
      </trkpt>
      <trkpt lat="45.9159" lon="6.51266">
        <ele>2444.205</ele>
        <time>2024-12-11T13:50:35Z</time>
      </trkpt>
      <trkpt lat="45.9159" lon="6.51266">
        <ele>2444.498</ele>
        <time>2024-12-11T13:50:40Z</time>
      </trkpt>
      <trkpt lat="45.9159" lon="6.51266">
        <ele>2444.491</ele>
        <time>2024-12-11T13:50:45Z</time>
      </trkpt>
      <trkpt lat="45.9159" lon="6.51266">
        <ele>2444.484</ele>
        <time>2024-12-11T13:50:50Z</time>
      </trkpt>
      <trkpt lat="45.9159" lon="6.51266">
        <ele>2444.482</ele>
        <time>2024-12-11T13:50:55Z</time>
      </trkpt>
      <trkpt lat="45.9159" lon="6.51266">
        <ele>2443.907</ele>
        <time>2024-12-11T13:51:00Z</time>
      </trkpt>
      <trkpt lat="45.9159" lon="6.51266">
        <ele>2443.948</ele>
        <time>2024-12-11T13:51:05Z</time>
      </trkpt>
      <trkpt lat="45.9159" lon="6.51266">
        <ele>2443.943</ele>
        <time>2024-12-11T13:51:10Z</time>
      </trkpt>
      <trkpt lat="45.9159" lon="6.51266">
        <ele>2443.948</ele>
        <time>2024-12-11T13:51:15Z</time>
      </trkpt>
      <trkpt lat="45.9159" lon="6.51266">
        <ele>2443.681</ele>
        <time>2024-12-11T13:51:20Z</time>
      </trkpt>
      <trkpt lat="45.9159" lon="6.51266">
        <ele>2443.676</ele>
        <time>2024-12-11T13:51:25Z</time>
      </trkpt>
      <trkpt lat="45.9159" lon="6.51266">
        <ele>2443.668</ele>
        <time>2024-12-11T13:51:30Z</time>
      </trkpt>
      <trkpt lat="45.9159" lon="6.51266">
        <ele>2443.659</ele>
        <time>2024-12-11T13:51:35Z</time>
      </trkpt>
      <trkpt lat="45.9159" lon="6.51266">
        <ele>2443.656</ele>
        <time>2024-12-11T13:51:40Z</time>
      </trkpt>
      <trkpt lat="45.9159" lon="6.51266">
        <ele>2443.656</ele>
        <time>2024-12-11T13:51:45Z</time>
      </trkpt>
      <trkpt lat="45.9159" lon="6.51266">
        <ele>2443.65</ele>
        <time>2024-12-11T13:51:50Z</time>
      </trkpt>
      <trkpt lat="45.9159" lon="6.51266">
        <ele>2443.648</ele>
        <time>2024-12-11T13:51:55Z</time>
      </trkpt>
      <trkpt lat="45.9159" lon="6.51266">
        <ele>2443.653</ele>
        <time>2024-12-11T13:52:00Z</time>
      </trkpt>
      <trkpt lat="45.9159" lon="6.51266">
        <ele>2443.654</ele>
        <time>2024-12-11T13:52:05Z</time>
      </trkpt>
      <trkpt lat="45.9159" lon="6.51266">
        <ele>2443.872</ele>
        <time>2024-12-11T13:52:10Z</time>
      </trkpt>
      <trkpt lat="45.9159" lon="6.51266">
        <ele>2443.873</ele>
        <time>2024-12-11T13:52:15Z</time>
      </trkpt>
      <trkpt lat="45.9159" lon="6.51266">
        <ele>2443.869</ele>
        <time>2024-12-11T13:52:20Z</time>
      </trkpt>
      <trkpt lat="45.9159" lon="6.51266">
        <ele>2443.867</ele>
        <time>2024-12-11T13:52:25Z</time>
      </trkpt>
      <trkpt lat="45.9159" lon="6.51266">
        <ele>2443.988</ele>
        <time>2024-12-11T13:52:30Z</time>
      </trkpt>
      <trkpt lat="45.9159" lon="6.51266">
        <ele>2444.024</ele>
        <time>2024-12-11T13:52:35Z</time>
      </trkpt>
      <trkpt lat="45.9159" lon="6.51266">
        <ele>2444.178</ele>
        <time>2024-12-11T13:52:40Z</time>
      </trkpt>
      <trkpt lat="45.9159" lon="6.51266">
        <ele>2444.174</ele>
        <time>2024-12-11T13:52:45Z</time>
      </trkpt>
      <trkpt lat="45.9159" lon="6.51266">
        <ele>2443.842</ele>
        <time>2024-12-11T13:52:50Z</time>
      </trkpt>
      <trkpt lat="45.9159" lon="6.51266">
        <ele>2443.831</ele>
        <time>2024-12-11T13:52:55Z</time>
      </trkpt>
      <trkpt lat="45.9159" lon="6.51266">
        <ele>2443.836</ele>
        <time>2024-12-11T13:53:00Z</time>
      </trkpt>
      <trkpt lat="45.9159" lon="6.51266">
        <ele>2443.448</ele>
        <time>2024-12-11T13:53:05Z</time>
      </trkpt>
      <trkpt lat="45.9159" lon="6.51266">
        <ele>2443.429</ele>
        <time>2024-12-11T13:53:10Z</time>
      </trkpt>
      <trkpt lat="45.9159" lon="6.51266">
        <ele>2443.52</ele>
        <time>2024-12-11T13:53:15Z</time>
      </trkpt>
      <trkpt lat="45.9159" lon="6.51266">
        <ele>2443.519</ele>
        <time>2024-12-11T13:53:20Z</time>
      </trkpt>
      <trkpt lat="45.9159" lon="6.51266">
        <ele>2443.516</ele>
        <time>2024-12-11T13:53:25Z</time>
      </trkpt>
      <trkpt lat="45.9159" lon="6.51266">
        <ele>2443.517</ele>
        <time>2024-12-11T13:53:30Z</time>
      </trkpt>
      <trkpt lat="45.9159" lon="6.51266">
        <ele>2443.511</ele>
        <time>2024-12-11T13:53:35Z</time>
      </trkpt>
      <trkpt lat="45.9159" lon="6.51266">
        <ele>2443.504</ele>
        <time>2024-12-11T13:53:40Z</time>
      </trkpt>
      <trkpt lat="45.9159" lon="6.51266">
        <ele>2443.502</ele>
        <time>2024-12-11T13:53:45Z</time>
      </trkpt>
      <trkpt lat="45.9159" lon="6.51266">
        <ele>2443.625</ele>
        <time>2024-12-11T13:53:50Z</time>
      </trkpt>
      <trkpt lat="45.9159" lon="6.51266">
        <ele>2443.623</ele>
        <time>2024-12-11T13:53:55Z</time>
      </trkpt>
      <trkpt lat="45.9159" lon="6.51266">
        <ele>2443.624</ele>
        <time>2024-12-11T13:54:00Z</time>
      </trkpt>
      <trkpt lat="45.9159" lon="6.51266">
        <ele>2443.63</ele>
        <time>2024-12-11T13:54:05Z</time>
      </trkpt>
      <trkpt lat="45.9159" lon="6.51266">
        <ele>2443.633</ele>
        <time>2024-12-11T13:54:10Z</time>
      </trkpt>
      <trkpt lat="45.9159" lon="6.51266">
        <ele>2443.628</ele>
        <time>2024-12-11T13:54:15Z</time>
      </trkpt>
      <trkpt lat="45.9159" lon="6.51266">
        <ele>2443.628</ele>
        <time>2024-12-11T13:54:20Z</time>
      </trkpt>
      <trkpt lat="45.9159" lon="6.51266">
        <ele>2443.534</ele>
        <time>2024-12-11T13:54:25Z</time>
      </trkpt>
      <trkpt lat="45.9159" lon="6.51266">
        <ele>2443.577</ele>
        <time>2024-12-11T13:54:30Z</time>
      </trkpt>
      <trkpt lat="45.9159" lon="6.51266">
        <ele>2443.577</ele>
        <time>2024-12-11T13:54:35Z</time>
      </trkpt>
      <trkpt lat="45.9159" lon="6.51266">
        <ele>2443.573</ele>
        <time>2024-12-11T13:54:40Z</time>
      </trkpt>
      <trkpt lat="45.9159" lon="6.51266">
        <ele>2443.569</ele>
        <time>2024-12-11T13:54:45Z</time>
      </trkpt>
      <trkpt lat="45.9159" lon="6.51266">
        <ele>2443.566</ele>
        <time>2024-12-11T13:54:50Z</time>
      </trkpt>
      <trkpt lat="45.9159" lon="6.51266">
        <ele>2443.569</ele>
        <time>2024-12-11T13:54:55Z</time>
      </trkpt>
      <trkpt lat="45.9159" lon="6.51266">
        <ele>2443.574</ele>
        <time>2024-12-11T13:55:00Z</time>
      </trkpt>
      <trkpt lat="45.9159" lon="6.51266">
        <ele>2443.575</ele>
        <time>2024-12-11T13:55:05Z</time>
      </trkpt>
      <trkpt lat="45.9159" lon="6.51266">
        <ele>2443.593</ele>
        <time>2024-12-11T13:55:10Z</time>
      </trkpt>
      <trkpt lat="45.9159" lon="6.51266">
        <ele>2443.082</ele>
        <time>2024-12-11T13:55:15Z</time>
      </trkpt>
      <trkpt lat="45.9159" lon="6.51266">
        <ele>2443.088</ele>
        <time>2024-12-11T13:55:20Z</time>
      </trkpt>
      <trkpt lat="45.9159" lon="6.51266">
        <ele>2443.103</ele>
        <time>2024-12-11T13:55:25Z</time>
      </trkpt>
      <trkpt lat="45.9159" lon="6.51266">
        <ele>2443.111</ele>
        <time>2024-12-11T13:55:30Z</time>
      </trkpt>
      <trkpt lat="45.9159" lon="6.51266">
        <ele>2443.238</ele>
        <time>2024-12-11T13:55:35Z</time>
      </trkpt>
      <trkpt lat="45.9159" lon="6.51266">
        <ele>2443.125</ele>
        <time>2024-12-11T13:55:40Z</time>
      </trkpt>
      <trkpt lat="45.9159" lon="6.51266">
        <ele>2443.132</ele>
        <time>2024-12-11T13:55:45Z</time>
      </trkpt>
      <trkpt lat="45.9159" lon="6.51266">
        <ele>2443.14</ele>
        <time>2024-12-11T13:55:50Z</time>
      </trkpt>
      <trkpt lat="45.9159" lon="6.51266">
        <ele>2444.368</ele>
        <time>2024-12-11T13:55:55Z</time>
      </trkpt>
      <trkpt lat="45.9159" lon="6.51266">
        <ele>2443.565</ele>
        <time>2024-12-11T13:56:00Z</time>
      </trkpt>
      <trkpt lat="45.9159" lon="6.51266">
        <ele>2443.561</ele>
        <time>2024-12-11T13:56:05Z</time>
      </trkpt>
      <trkpt lat="45.9159" lon="6.51266">
        <ele>2442.937</ele>
        <time>2024-12-11T13:56:10Z</time>
      </trkpt>
      <trkpt lat="45.9159" lon="6.51266">
        <ele>2442.929</ele>
        <time>2024-12-11T13:56:15Z</time>
      </trkpt>
      <trkpt lat="45.9159" lon="6.51266">
        <ele>2442.915</ele>
        <time>2024-12-11T13:56:20Z</time>
      </trkpt>
      <trkpt lat="45.9159" lon="6.51266">
        <ele>2442.912</ele>
        <time>2024-12-11T13:56:25Z</time>
      </trkpt>
      <trkpt lat="45.9159" lon="6.51266">
        <ele>2442.904</ele>
        <time>2024-12-11T13:56:30Z</time>
      </trkpt>
      <trkpt lat="45.9159" lon="6.51266">
        <ele>2442.777</ele>
        <time>2024-12-11T13:56:35Z</time>
      </trkpt>
      <trkpt lat="45.9159" lon="6.51266">
        <ele>2443.277</ele>
        <time>2024-12-11T13:56:40Z</time>
      </trkpt>
      <trkpt lat="45.9159" lon="6.51266">
        <ele>2442.577</ele>
        <time>2024-12-11T13:56:45Z</time>
      </trkpt>
      <trkpt lat="45.9159" lon="6.51266">
        <ele>2442.878</ele>
        <time>2024-12-11T13:56:50Z</time>
      </trkpt>
      <trkpt lat="45.9159" lon="6.51266">
        <ele>2442.883</ele>
        <time>2024-12-11T13:56:55Z</time>
      </trkpt>
      <trkpt lat="45.9159" lon="6.51266">
        <ele>2442.874</ele>
        <time>2024-12-11T13:57:00Z</time>
      </trkpt>
      <trkpt lat="45.9159" lon="6.51266">
        <ele>2442.869</ele>
        <time>2024-12-11T13:57:05Z</time>
      </trkpt>
      <trkpt lat="45.9159" lon="6.51266">
        <ele>2442.867</ele>
        <time>2024-12-11T13:57:10Z</time>
      </trkpt>
      <trkpt lat="45.9159" lon="6.51266">
        <ele>2442.872</ele>
        <time>2024-12-11T13:57:15Z</time>
      </trkpt>
      <trkpt lat="45.9159" lon="6.51266">
        <ele>2443.051</ele>
        <time>2024-12-11T13:57:20Z</time>
      </trkpt>
      <trkpt lat="45.9159" lon="6.51266">
        <ele>2443.055</ele>
        <time>2024-12-11T13:57:25Z</time>
      </trkpt>
      <trkpt lat="45.9159" lon="6.51266">
        <ele>2443.055</ele>
        <time>2024-12-11T13:57:30Z</time>
      </trkpt>
      <trkpt lat="45.9159" lon="6.51266">
        <ele>2443.057</ele>
        <time>2024-12-11T13:57:35Z</time>
      </trkpt>
      <trkpt lat="45.9159" lon="6.51266">
        <ele>2443.055</ele>
        <time>2024-12-11T13:57:40Z</time>
      </trkpt>
      <trkpt lat="45.9159" lon="6.51266">
        <ele>2443.055</ele>
        <time>2024-12-11T13:57:45Z</time>
      </trkpt>
      <trkpt lat="45.9159" lon="6.51266">
        <ele>2443.05</ele>
        <time>2024-12-11T13:57:50Z</time>
      </trkpt>
      <trkpt lat="45.9159" lon="6.51266">
        <ele>2443.082</ele>
        <time>2024-12-11T13:57:55Z</time>
      </trkpt>
      <trkpt lat="45.9159" lon="6.51266">
        <ele>2443.087</ele>
        <time>2024-12-11T13:58:00Z</time>
      </trkpt>
      <trkpt lat="45.9159" lon="6.51266">
        <ele>2443.09</ele>
        <time>2024-12-11T13:58:05Z</time>
      </trkpt>
      <trkpt lat="45.9159" lon="6.51266">
        <ele>2443.198</ele>
        <time>2024-12-11T13:58:10Z</time>
      </trkpt>
      <trkpt lat="45.9159" lon="6.51266">
        <ele>2443.312</ele>
        <time>2024-12-11T13:58:15Z</time>
      </trkpt>
      <trkpt lat="45.9159" lon="6.51266">
        <ele>2443.315</ele>
        <time>2024-12-11T13:58:20Z</time>
      </trkpt>
      <trkpt lat="45.9159" lon="6.51266">
        <ele>2443.314</ele>
        <time>2024-12-11T13:58:25Z</time>
      </trkpt>
      <trkpt lat="45.9159" lon="6.51266">
        <ele>2443.548</ele>
        <time>2024-12-11T13:58:30Z</time>
      </trkpt>
      <trkpt lat="45.9159" lon="6.51266">
        <ele>2443.561</ele>
        <time>2024-12-11T13:58:35Z</time>
      </trkpt>
      <trkpt lat="45.9159" lon="6.51266">
        <ele>2443.556</ele>
        <time>2024-12-11T13:58:40Z</time>
      </trkpt>
      <trkpt lat="45.9159" lon="6.51266">
        <ele>2443.418</ele>
        <time>2024-12-11T13:58:45Z</time>
      </trkpt>
      <trkpt lat="45.9159" lon="6.51266">
        <ele>2443.621</ele>
        <time>2024-12-11T13:58:50Z</time>
      </trkpt>
      <trkpt lat="45.9159" lon="6.51266">
        <ele>2444.149</ele>
        <time>2024-12-11T13:58:55Z</time>
      </trkpt>
      <trkpt lat="45.9159" lon="6.51266">
        <ele>2444.169</ele>
        <time>2024-12-11T13:59:00Z</time>
      </trkpt>
      <trkpt lat="45.9159" lon="6.51266">
        <ele>2443.934</ele>
        <time>2024-12-11T13:59:05Z</time>
      </trkpt>
      <trkpt lat="45.9159" lon="6.51266">
        <ele>2443.922</ele>
        <time>2024-12-11T13:59:10Z</time>
      </trkpt>
      <trkpt lat="45.9159" lon="6.51266">
        <ele>2443.91</ele>
        <time>2024-12-11T13:59:15Z</time>
      </trkpt>
      <trkpt lat="45.9159" lon="6.51266">
        <ele>2443.903</ele>
        <time>2024-12-11T13:59:20Z</time>
      </trkpt>
      <trkpt lat="45.9159" lon="6.51266">
        <ele>2443.78</ele>
        <time>2024-12-11T13:59:25Z</time>
      </trkpt>
      <trkpt lat="45.9159" lon="6.51266">
        <ele>2443.77</ele>
        <time>2024-12-11T13:59:30Z</time>
      </trkpt>
      <trkpt lat="45.9159" lon="6.51266">
        <ele>2443.952</ele>
        <time>2024-12-11T13:59:35Z</time>
      </trkpt>
      <trkpt lat="45.9159" lon="6.51266">
        <ele>2443.955</ele>
        <time>2024-12-11T13:59:40Z</time>
      </trkpt>
      <trkpt lat="45.9159" lon="6.51266">
        <ele>2444.012</ele>
        <time>2024-12-11T13:59:45Z</time>
      </trkpt>
      <trkpt lat="45.9159" lon="6.51266">
        <ele>2444.049</ele>
        <time>2024-12-11T13:59:50Z</time>
      </trkpt>
      <trkpt lat="45.9159" lon="6.51266">
        <ele>2443.661</ele>
        <time>2024-12-11T13:59:55Z</time>
      </trkpt>
      <trkpt lat="45.9159" lon="6.51266">
        <ele>2442.513</ele>
        <time>2024-12-11T14:00:00Z</time>
      </trkpt>
      <trkpt lat="45.9159" lon="6.51266">
        <ele>2442.503</ele>
        <time>2024-12-11T14:00:05Z</time>
      </trkpt>
      <trkpt lat="45.9159" lon="6.51266">
        <ele>2442.51</ele>
        <time>2024-12-11T14:00:10Z</time>
      </trkpt>
      <trkpt lat="45.9159" lon="6.51266">
        <ele>2442.521</ele>
        <time>2024-12-11T14:00:15Z</time>
      </trkpt>
      <trkpt lat="45.9159" lon="6.51266">
        <ele>2442.541</ele>
        <time>2024-12-11T14:00:20Z</time>
      </trkpt>
      <trkpt lat="45.9159" lon="6.51266">
        <ele>2442.547</ele>
        <time>2024-12-11T14:00:25Z</time>
      </trkpt>
      <trkpt lat="45.9159" lon="6.51266">
        <ele>2442.553</ele>
        <time>2024-12-11T14:00:30Z</time>
      </trkpt>
      <trkpt lat="45.9159" lon="6.51266">
        <ele>2442.563</ele>
        <time>2024-12-11T14:00:35Z</time>
      </trkpt>
      <trkpt lat="45.9159" lon="6.51266">
        <ele>2442.576</ele>
        <time>2024-12-11T14:00:40Z</time>
      </trkpt>
      <trkpt lat="45.9159" lon="6.51266">
        <ele>2442.482</ele>
        <time>2024-12-11T14:00:45Z</time>
      </trkpt>
      <trkpt lat="45.9159" lon="6.51266">
        <ele>2443.119</ele>
        <time>2024-12-11T14:00:50Z</time>
      </trkpt>
      <trkpt lat="45.9159" lon="6.51266">
        <ele>2443.041</ele>
        <time>2024-12-11T14:00:55Z</time>
      </trkpt>
      <trkpt lat="45.9159" lon="6.51266">
        <ele>2443.036</ele>
        <time>2024-12-11T14:01:00Z</time>
      </trkpt>
      <trkpt lat="45.9159" lon="6.51266">
        <ele>2443.041</ele>
        <time>2024-12-11T14:01:05Z</time>
      </trkpt>
      <trkpt lat="45.9159" lon="6.51266">
        <ele>2443.06</ele>
        <time>2024-12-11T14:01:10Z</time>
      </trkpt>
      <trkpt lat="45.9159" lon="6.51266">
        <ele>2442.496</ele>
        <time>2024-12-11T14:01:15Z</time>
      </trkpt>
      <trkpt lat="45.9159" lon="6.51266">
        <ele>2442.081</ele>
        <time>2024-12-11T14:01:20Z</time>
      </trkpt>
      <trkpt lat="45.9159" lon="6.51266">
        <ele>2441.096</ele>
        <time>2024-12-11T14:01:25Z</time>
      </trkpt>
      <trkpt lat="45.9159" lon="6.51266">
        <ele>2441.056</ele>
        <time>2024-12-11T14:01:30Z</time>
      </trkpt>
      <trkpt lat="45.9159" lon="6.51266">
        <ele>2440.523</ele>
        <time>2024-12-11T14:01:35Z</time>
      </trkpt>
      <trkpt lat="45.9159" lon="6.51266">
        <ele>2439.999</ele>
        <time>2024-12-11T14:01:40Z</time>
      </trkpt>
      <trkpt lat="45.9159" lon="6.51266">
        <ele>2440.435</ele>
        <time>2024-12-11T14:01:45Z</time>
      </trkpt>
      <trkpt lat="45.9159" lon="6.51266">
        <ele>2440.8</ele>
        <time>2024-12-11T14:01:50Z</time>
      </trkpt>
      <trkpt lat="45.9159" lon="6.51266">
        <ele>2441.02</ele>
        <time>2024-12-11T14:01:55Z</time>
      </trkpt>
      <trkpt lat="45.9159" lon="6.51266">
        <ele>2441.02</ele>
        <time>2024-12-11T14:02:00Z</time>
      </trkpt>
      <trkpt lat="45.9159" lon="6.51266">
        <ele>2441.028</ele>
        <time>2024-12-11T14:02:05Z</time>
      </trkpt>
      <trkpt lat="45.9159" lon="6.51266">
        <ele>2441.037</ele>
        <time>2024-12-11T14:02:10Z</time>
      </trkpt>
      <trkpt lat="45.9159" lon="6.51266">
        <ele>2441.041</ele>
        <time>2024-12-11T14:02:15Z</time>
      </trkpt>
      <trkpt lat="45.9159" lon="6.51266">
        <ele>2441.042</ele>
        <time>2024-12-11T14:02:20Z</time>
      </trkpt>
      <trkpt lat="45.9159" lon="6.51266">
        <ele>2441.056</ele>
        <time>2024-12-11T14:02:25Z</time>
      </trkpt>
      <trkpt lat="45.9159" lon="6.51266">
        <ele>2440.925</ele>
        <time>2024-12-11T14:02:30Z</time>
      </trkpt>
      <trkpt lat="45.9159" lon="6.51266">
        <ele>2440.837</ele>
        <time>2024-12-11T14:02:35Z</time>
      </trkpt>
      <trkpt lat="45.9159" lon="6.51266">
        <ele>2440.857</ele>
        <time>2024-12-11T14:02:40Z</time>
      </trkpt>
      <trkpt lat="45.9159" lon="6.51266">
        <ele>2440.867</ele>
        <time>2024-12-11T14:02:45Z</time>
      </trkpt>
      <trkpt lat="45.9159" lon="6.51266">
        <ele>2440.878</ele>
        <time>2024-12-11T14:02:50Z</time>
      </trkpt>
      <trkpt lat="45.9159" lon="6.51266">
        <ele>2440.896</ele>
        <time>2024-12-11T14:02:55Z</time>
      </trkpt>
      <trkpt lat="45.9159" lon="6.51266">
        <ele>2440.905</ele>
        <time>2024-12-11T14:03:00Z</time>
      </trkpt>
      <trkpt lat="45.9159" lon="6.51266">
        <ele>2440.905</ele>
        <time>2024-12-11T14:03:05Z</time>
      </trkpt>
      <trkpt lat="45.9159" lon="6.51266">
        <ele>2440.904</ele>
        <time>2024-12-11T14:03:10Z</time>
      </trkpt>
      <trkpt lat="45.9159" lon="6.51266">
        <ele>2440.903</ele>
        <time>2024-12-11T14:03:15Z</time>
      </trkpt>
      <trkpt lat="45.9159" lon="6.51266">
        <ele>2440.906</ele>
        <time>2024-12-11T14:03:20Z</time>
      </trkpt>
      <trkpt lat="45.9159" lon="6.51266">
        <ele>2440.908</ele>
        <time>2024-12-11T14:03:25Z</time>
      </trkpt>
      <trkpt lat="45.9159" lon="6.51266">
        <ele>2440.915</ele>
        <time>2024-12-11T14:03:30Z</time>
      </trkpt>
      <trkpt lat="45.9159" lon="6.51266">
        <ele>2440.911</ele>
        <time>2024-12-11T14:03:35Z</time>
      </trkpt>
      <trkpt lat="45.9159" lon="6.51266">
        <ele>2440.918</ele>
        <time>2024-12-11T14:03:40Z</time>
      </trkpt>
      <trkpt lat="45.9159" lon="6.51266">
        <ele>2440.94</ele>
        <time>2024-12-11T14:03:45Z</time>
      </trkpt>
      <trkpt lat="45.9159" lon="6.51266">
        <ele>2440.949</ele>
        <time>2024-12-11T14:03:50Z</time>
      </trkpt>
      <trkpt lat="45.9159" lon="6.51266">
        <ele>2440.96</ele>
        <time>2024-12-11T14:03:55Z</time>
      </trkpt>
      <trkpt lat="45.9159" lon="6.51266">
        <ele>2440.962</ele>
        <time>2024-12-11T14:04:00Z</time>
      </trkpt>
      <trkpt lat="45.9159" lon="6.51266">
        <ele>2440.965</ele>
        <time>2024-12-11T14:04:05Z</time>
      </trkpt>
      <trkpt lat="45.9159" lon="6.51266">
        <ele>2440.969</ele>
        <time>2024-12-11T14:04:10Z</time>
      </trkpt>
      <trkpt lat="45.9159" lon="6.51266">
        <ele>2440.989</ele>
        <time>2024-12-11T14:04:15Z</time>
      </trkpt>
      <trkpt lat="45.9159" lon="6.51266">
        <ele>2441.005</ele>
        <time>2024-12-11T14:04:20Z</time>
      </trkpt>
      <trkpt lat="45.9159" lon="6.51266">
        <ele>2441.018</ele>
        <time>2024-12-11T14:04:25Z</time>
      </trkpt>
      <trkpt lat="45.9159" lon="6.51266">
        <ele>2441.031</ele>
        <time>2024-12-11T14:04:30Z</time>
      </trkpt>
      <trkpt lat="45.9159" lon="6.51266">
        <ele>2441.042</ele>
        <time>2024-12-11T14:04:35Z</time>
      </trkpt>
      <trkpt lat="45.9159" lon="6.51266">
        <ele>2441.063</ele>
        <time>2024-12-11T14:04:40Z</time>
      </trkpt>
      <trkpt lat="45.9159" lon="6.51266">
        <ele>2441.069</ele>
        <time>2024-12-11T14:04:45Z</time>
      </trkpt>
      <trkpt lat="45.9159" lon="6.51266">
        <ele>2441.08</ele>
        <time>2024-12-11T14:04:50Z</time>
      </trkpt>
      <trkpt lat="45.9159" lon="6.51266">
        <ele>2441.097</ele>
        <time>2024-12-11T14:04:55Z</time>
      </trkpt>
      <trkpt lat="45.9159" lon="6.51266">
        <ele>2441.098</ele>
        <time>2024-12-11T14:05:00Z</time>
      </trkpt>
      <trkpt lat="45.9159" lon="6.51266">
        <ele>2441.104</ele>
        <time>2024-12-11T14:05:05Z</time>
      </trkpt>
      <trkpt lat="45.9159" lon="6.51266">
        <ele>2441.111</ele>
        <time>2024-12-11T14:05:10Z</time>
      </trkpt>
      <trkpt lat="45.9159" lon="6.51266">
        <ele>2441.118</ele>
        <time>2024-12-11T14:05:15Z</time>
      </trkpt>
      <trkpt lat="45.9159" lon="6.51266">
        <ele>2441.119</ele>
        <time>2024-12-11T14:05:20Z</time>
      </trkpt>
      <trkpt lat="45.9159" lon="6.51266">
        <ele>2441.131</ele>
        <time>2024-12-11T14:05:25Z</time>
      </trkpt>
      <trkpt lat="45.9159" lon="6.51266">
        <ele>2441.142</ele>
        <time>2024-12-11T14:05:30Z</time>
      </trkpt>
      <trkpt lat="45.9159" lon="6.51266">
        <ele>2441.141</ele>
        <time>2024-12-11T14:05:35Z</time>
      </trkpt>
      <trkpt lat="45.9159" lon="6.51266">
        <ele>2441.143</ele>
        <time>2024-12-11T14:05:40Z</time>
      </trkpt>
      <trkpt lat="45.9159" lon="6.51266">
        <ele>2441.155</ele>
        <time>2024-12-11T14:05:45Z</time>
      </trkpt>
      <trkpt lat="45.9159" lon="6.51266">
        <ele>2441.165</ele>
        <time>2024-12-11T14:05:50Z</time>
      </trkpt>
      <trkpt lat="45.9159" lon="6.51266">
        <ele>2441.176</ele>
        <time>2024-12-11T14:05:55Z</time>
      </trkpt>
      <trkpt lat="45.9159" lon="6.51266">
        <ele>2441.187</ele>
        <time>2024-12-11T14:06:00Z</time>
      </trkpt>
      <trkpt lat="45.9159" lon="6.51266">
        <ele>2441.198</ele>
        <time>2024-12-11T14:06:05Z</time>
      </trkpt>
      <trkpt lat="45.9159" lon="6.51266">
        <ele>2441.207</ele>
        <time>2024-12-11T14:06:10Z</time>
      </trkpt>
      <trkpt lat="45.9159" lon="6.51266">
        <ele>2441.215</ele>
        <time>2024-12-11T14:06:15Z</time>
      </trkpt>
      <trkpt lat="45.9159" lon="6.51266">
        <ele>2441.226</ele>
        <time>2024-12-11T14:06:20Z</time>
      </trkpt>
      <trkpt lat="45.9159" lon="6.51266">
        <ele>2441.241</ele>
        <time>2024-12-11T14:06:25Z</time>
      </trkpt>
      <trkpt lat="45.9159" lon="6.51266">
        <ele>2441.257</ele>
        <time>2024-12-11T14:06:30Z</time>
      </trkpt>
      <trkpt lat="45.9159" lon="6.51266">
        <ele>2441.271</ele>
        <time>2024-12-11T14:06:35Z</time>
      </trkpt>
      <trkpt lat="45.9159" lon="6.51266">
        <ele>2441.285</ele>
        <time>2024-12-11T14:06:40Z</time>
      </trkpt>
      <trkpt lat="45.9159" lon="6.51266">
        <ele>2441.294</ele>
        <time>2024-12-11T14:06:45Z</time>
      </trkpt>
      <trkpt lat="45.9159" lon="6.51266">
        <ele>2441.303</ele>
        <time>2024-12-11T14:06:50Z</time>
      </trkpt>
      <trkpt lat="45.9159" lon="6.51266">
        <ele>2441.311</ele>
        <time>2024-12-11T14:06:55Z</time>
      </trkpt>
      <trkpt lat="45.9159" lon="6.51266">
        <ele>2441.321</ele>
        <time>2024-12-11T14:07:00Z</time>
      </trkpt>
      <trkpt lat="45.9159" lon="6.51266">
        <ele>2441.33</ele>
        <time>2024-12-11T14:07:05Z</time>
      </trkpt>
      <trkpt lat="45.9159" lon="6.51266">
        <ele>2441.334</ele>
        <time>2024-12-11T14:07:10Z</time>
      </trkpt>
      <trkpt lat="45.9159" lon="6.51266">
        <ele>2441.337</ele>
        <time>2024-12-11T14:07:15Z</time>
      </trkpt>
      <trkpt lat="45.9159" lon="6.51266">
        <ele>2441.337</ele>
        <time>2024-12-11T14:07:20Z</time>
      </trkpt>
      <trkpt lat="45.9159" lon="6.51266">
        <ele>2441.34</ele>
        <time>2024-12-11T14:07:25Z</time>
      </trkpt>
      <trkpt lat="45.9159" lon="6.51266">
        <ele>2441.352</ele>
        <time>2024-12-11T14:07:30Z</time>
      </trkpt>
      <trkpt lat="45.9159" lon="6.51266">
        <ele>2441.358</ele>
        <time>2024-12-11T14:07:35Z</time>
      </trkpt>
      <trkpt lat="45.9159" lon="6.51266">
        <ele>2441.37</ele>
        <time>2024-12-11T14:07:40Z</time>
      </trkpt>
      <trkpt lat="45.9159" lon="6.51266">
        <ele>2441.381</ele>
        <time>2024-12-11T14:07:45Z</time>
      </trkpt>
      <trkpt lat="45.9159" lon="6.51266">
        <ele>2441.388</ele>
        <time>2024-12-11T14:07:50Z</time>
      </trkpt>
      <trkpt lat="45.9159" lon="6.51266">
        <ele>2441.401</ele>
        <time>2024-12-11T14:07:55Z</time>
      </trkpt>
      <trkpt lat="45.9159" lon="6.51266">
        <ele>2441.41</ele>
        <time>2024-12-11T14:08:00Z</time>
      </trkpt>
      <trkpt lat="45.9159" lon="6.51266">
        <ele>2441.419</ele>
        <time>2024-12-11T14:08:05Z</time>
      </trkpt>
      <trkpt lat="45.9159" lon="6.51266">
        <ele>2441.428</ele>
        <time>2024-12-11T14:08:10Z</time>
      </trkpt>
      <trkpt lat="45.9159" lon="6.51266">
        <ele>2441.434</ele>
        <time>2024-12-11T14:08:15Z</time>
      </trkpt>
      <trkpt lat="45.9159" lon="6.51266">
        <ele>2441.437</ele>
        <time>2024-12-11T14:08:20Z</time>
      </trkpt>
      <trkpt lat="45.9159" lon="6.51266">
        <ele>2441.44</ele>
        <time>2024-12-11T14:08:25Z</time>
      </trkpt>
      <trkpt lat="45.9159" lon="6.51266">
        <ele>2441.442</ele>
        <time>2024-12-11T14:08:30Z</time>
      </trkpt>
      <trkpt lat="45.9159" lon="6.51266">
        <ele>2441.448</ele>
        <time>2024-12-11T14:08:35Z</time>
      </trkpt>
      <trkpt lat="45.9159" lon="6.51266">
        <ele>2441.454</ele>
        <time>2024-12-11T14:08:40Z</time>
      </trkpt>
      <trkpt lat="45.9159" lon="6.51266">
        <ele>2441.458</ele>
        <time>2024-12-11T14:08:45Z</time>
      </trkpt>
      <trkpt lat="45.9159" lon="6.51266">
        <ele>2441.464</ele>
        <time>2024-12-11T14:08:50Z</time>
      </trkpt>
      <trkpt lat="45.9159" lon="6.51266">
        <ele>2441.464</ele>
        <time>2024-12-11T14:08:55Z</time>
      </trkpt>
      <trkpt lat="45.9159" lon="6.51266">
        <ele>2441.47</ele>
        <time>2024-12-11T14:09:00Z</time>
      </trkpt>
      <trkpt lat="45.9159" lon="6.51266">
        <ele>2441.471</ele>
        <time>2024-12-11T14:09:05Z</time>
      </trkpt>
      <trkpt lat="45.9159" lon="6.51266">
        <ele>2441.472</ele>
        <time>2024-12-11T14:09:10Z</time>
      </trkpt>
      <trkpt lat="45.9159" lon="6.51266">
        <ele>2441.474</ele>
        <time>2024-12-11T14:09:15Z</time>
      </trkpt>
      <trkpt lat="45.9159" lon="6.51266">
        <ele>2441.476</ele>
        <time>2024-12-11T14:09:20Z</time>
      </trkpt>
      <trkpt lat="45.9159" lon="6.51266">
        <ele>2441.477</ele>
        <time>2024-12-11T14:09:25Z</time>
      </trkpt>
      <trkpt lat="45.9159" lon="6.51266">
        <ele>2441.483</ele>
        <time>2024-12-11T14:09:30Z</time>
      </trkpt>
      <trkpt lat="45.9159" lon="6.51266">
        <ele>2441.484</ele>
        <time>2024-12-11T14:09:35Z</time>
      </trkpt>
      <trkpt lat="45.9159" lon="6.51266">
        <ele>2441.489</ele>
        <time>2024-12-11T14:09:40Z</time>
      </trkpt>
      <trkpt lat="45.9159" lon="6.51266">
        <ele>2441.495</ele>
        <time>2024-12-11T14:09:45Z</time>
      </trkpt>
      <trkpt lat="45.9159" lon="6.51266">
        <ele>2441.499</ele>
        <time>2024-12-11T14:09:50Z</time>
      </trkpt>
      <trkpt lat="45.9159" lon="6.51266">
        <ele>2441.502</ele>
        <time>2024-12-11T14:09:55Z</time>
      </trkpt>
      <trkpt lat="45.9159" lon="6.51266">
        <ele>2441.502</ele>
        <time>2024-12-11T14:10:00Z</time>
      </trkpt>
      <trkpt lat="45.9159" lon="6.51266">
        <ele>2441.505</ele>
        <time>2024-12-11T14:10:05Z</time>
      </trkpt>
      <trkpt lat="45.9159" lon="6.51266">
        <ele>2441.513</ele>
        <time>2024-12-11T14:10:10Z</time>
      </trkpt>
      <trkpt lat="45.9159" lon="6.51266">
        <ele>2441.515</ele>
        <time>2024-12-11T14:10:15Z</time>
      </trkpt>
      <trkpt lat="45.9159" lon="6.51266">
        <ele>2441.519</ele>
        <time>2024-12-11T14:10:20Z</time>
      </trkpt>
      <trkpt lat="45.9159" lon="6.51266">
        <ele>2441.526</ele>
        <time>2024-12-11T14:10:25Z</time>
      </trkpt>
      <trkpt lat="45.9159" lon="6.51266">
        <ele>2441.525</ele>
        <time>2024-12-11T14:10:30Z</time>
      </trkpt>
      <trkpt lat="45.9159" lon="6.51266">
        <ele>2441.53</ele>
        <time>2024-12-11T14:10:35Z</time>
      </trkpt>
      <trkpt lat="45.9159" lon="6.51266">
        <ele>2441.535</ele>
        <time>2024-12-11T14:10:40Z</time>
      </trkpt>
      <trkpt lat="45.9159" lon="6.51266">
        <ele>2441.54</ele>
        <time>2024-12-11T14:10:45Z</time>
      </trkpt>
      <trkpt lat="45.9159" lon="6.51266">
        <ele>2441.546</ele>
        <time>2024-12-11T14:10:50Z</time>
      </trkpt>
      <trkpt lat="45.9159" lon="6.51266">
        <ele>2441.548</ele>
        <time>2024-12-11T14:10:55Z</time>
      </trkpt>
      <trkpt lat="45.9159" lon="6.51266">
        <ele>2441.557</ele>
        <time>2024-12-11T14:11:00Z</time>
      </trkpt>
      <trkpt lat="45.9159" lon="6.51266">
        <ele>2441.56</ele>
        <time>2024-12-11T14:11:05Z</time>
      </trkpt>
      <trkpt lat="45.9159" lon="6.51266">
        <ele>2441.564</ele>
        <time>2024-12-11T14:11:10Z</time>
      </trkpt>
      <trkpt lat="45.9159" lon="6.51266">
        <ele>2441.564</ele>
        <time>2024-12-11T14:11:15Z</time>
      </trkpt>
      <trkpt lat="45.9159" lon="6.51266">
        <ele>2441.567</ele>
        <time>2024-12-11T14:11:20Z</time>
      </trkpt>
      <trkpt lat="45.9159" lon="6.51266">
        <ele>2441.568</ele>
        <time>2024-12-11T14:11:25Z</time>
      </trkpt>
      <trkpt lat="45.9159" lon="6.51266">
        <ele>2441.572</ele>
        <time>2024-12-11T14:11:30Z</time>
      </trkpt>
      <trkpt lat="45.9159" lon="6.51266">
        <ele>2441.574</ele>
        <time>2024-12-11T14:11:35Z</time>
      </trkpt>
      <trkpt lat="45.9159" lon="6.51266">
        <ele>2441.58</ele>
        <time>2024-12-11T14:11:40Z</time>
      </trkpt>
      <trkpt lat="45.9159" lon="6.51266">
        <ele>2441.582</ele>
        <time>2024-12-11T14:11:45Z</time>
      </trkpt>
      <trkpt lat="45.9159" lon="6.51266">
        <ele>2441.587</ele>
        <time>2024-12-11T14:11:50Z</time>
      </trkpt>
      <trkpt lat="45.9159" lon="6.51266">
        <ele>2441.593</ele>
        <time>2024-12-11T14:11:55Z</time>
      </trkpt>
      <trkpt lat="45.9159" lon="6.51266">
        <ele>2441.592</ele>
        <time>2024-12-11T14:12:00Z</time>
      </trkpt>
      <trkpt lat="45.9159" lon="6.51266">
        <ele>2441.594</ele>
        <time>2024-12-11T14:12:05Z</time>
      </trkpt>
      <trkpt lat="45.9159" lon="6.51266">
        <ele>2441.599</ele>
        <time>2024-12-11T14:12:10Z</time>
      </trkpt>
      <trkpt lat="45.9159" lon="6.51266">
        <ele>2441.609</ele>
        <time>2024-12-11T14:12:15Z</time>
      </trkpt>
      <trkpt lat="45.9159" lon="6.51266">
        <ele>2441.616</ele>
        <time>2024-12-11T14:12:20Z</time>
      </trkpt>
      <trkpt lat="45.9159" lon="6.51266">
        <ele>2441.631</ele>
        <time>2024-12-11T14:12:25Z</time>
      </trkpt>
      <trkpt lat="45.9159" lon="6.51266">
        <ele>2441.632</ele>
        <time>2024-12-11T14:12:30Z</time>
      </trkpt>
      <trkpt lat="45.9159" lon="6.51266">
        <ele>2441.638</ele>
        <time>2024-12-11T14:12:35Z</time>
      </trkpt>
      <trkpt lat="45.9159" lon="6.51266">
        <ele>2441.647</ele>
        <time>2024-12-11T14:12:40Z</time>
      </trkpt>
      <trkpt lat="45.9159" lon="6.51266">
        <ele>2441.656</ele>
        <time>2024-12-11T14:12:45Z</time>
      </trkpt>
      <trkpt lat="45.9159" lon="6.51266">
        <ele>2441.666</ele>
        <time>2024-12-11T14:12:50Z</time>
      </trkpt>
      <trkpt lat="45.9159" lon="6.51266">
        <ele>2441.674</ele>
        <time>2024-12-11T14:12:55Z</time>
      </trkpt>
      <trkpt lat="45.9159" lon="6.51266">
        <ele>2441.688</ele>
        <time>2024-12-11T14:13:00Z</time>
      </trkpt>
      <trkpt lat="45.9159" lon="6.51266">
        <ele>2441.695</ele>
        <time>2024-12-11T14:13:05Z</time>
      </trkpt>
      <trkpt lat="45.9159" lon="6.51266">
        <ele>2441.704</ele>
        <time>2024-12-11T14:13:10Z</time>
      </trkpt>
      <trkpt lat="45.9159" lon="6.51266">
        <ele>2441.705</ele>
        <time>2024-12-11T14:13:15Z</time>
      </trkpt>
      <trkpt lat="45.9159" lon="6.51266">
        <ele>2441.712</ele>
        <time>2024-12-11T14:13:20Z</time>
      </trkpt>
      <trkpt lat="45.9159" lon="6.51266">
        <ele>2441.719</ele>
        <time>2024-12-11T14:13:25Z</time>
      </trkpt>
      <trkpt lat="45.9159" lon="6.51266">
        <ele>2441.73</ele>
        <time>2024-12-11T14:13:30Z</time>
      </trkpt>
      <trkpt lat="45.9159" lon="6.51266">
        <ele>2441.745</ele>
        <time>2024-12-11T14:13:35Z</time>
      </trkpt>
      <trkpt lat="45.9159" lon="6.51266">
        <ele>2441.758</ele>
        <time>2024-12-11T14:13:40Z</time>
      </trkpt>
      <trkpt lat="45.9159" lon="6.51266">
        <ele>2441.77</ele>
        <time>2024-12-11T14:13:45Z</time>
      </trkpt>
      <trkpt lat="45.9159" lon="6.51266">
        <ele>2441.785</ele>
        <time>2024-12-11T14:13:50Z</time>
      </trkpt>
      <trkpt lat="45.9159" lon="6.51266">
        <ele>2441.808</ele>
        <time>2024-12-11T14:13:55Z</time>
      </trkpt>
      <trkpt lat="45.9159" lon="6.51266">
        <ele>2441.824</ele>
        <time>2024-12-11T14:14:00Z</time>
      </trkpt>
      <trkpt lat="45.9159" lon="6.51266">
        <ele>2441.836</ele>
        <time>2024-12-11T14:14:05Z</time>
      </trkpt>
      <trkpt lat="45.9159" lon="6.51266">
        <ele>2441.851</ele>
        <time>2024-12-11T14:14:10Z</time>
      </trkpt>
      <trkpt lat="45.9159" lon="6.51266">
        <ele>2441.86</ele>
        <time>2024-12-11T14:14:15Z</time>
      </trkpt>
      <trkpt lat="45.9159" lon="6.51266">
        <ele>2441.864</ele>
        <time>2024-12-11T14:14:20Z</time>
      </trkpt>
      <trkpt lat="45.9159" lon="6.51266">
        <ele>2441.865</ele>
        <time>2024-12-11T14:14:25Z</time>
      </trkpt>
      <trkpt lat="45.9159" lon="6.51266">
        <ele>2441.868</ele>
        <time>2024-12-11T14:14:30Z</time>
      </trkpt>
      <trkpt lat="45.9159" lon="6.51266">
        <ele>2441.866</ele>
        <time>2024-12-11T14:14:35Z</time>
      </trkpt>
      <trkpt lat="45.9159" lon="6.51266">
        <ele>2441.87</ele>
        <time>2024-12-11T14:14:40Z</time>
      </trkpt>
      <trkpt lat="45.9159" lon="6.51266">
        <ele>2441.872</ele>
        <time>2024-12-11T14:14:45Z</time>
      </trkpt>
      <trkpt lat="45.9159" lon="6.51266">
        <ele>2441.872</ele>
        <time>2024-12-11T14:14:50Z</time>
      </trkpt>
      <trkpt lat="45.9159" lon="6.51266">
        <ele>2441.876</ele>
        <time>2024-12-11T14:14:55Z</time>
      </trkpt>
      <trkpt lat="45.9159" lon="6.51266">
        <ele>2441.88</ele>
        <time>2024-12-11T14:15:00Z</time>
      </trkpt>
      <trkpt lat="45.9159" lon="6.51266">
        <ele>2441.883</ele>
        <time>2024-12-11T14:15:05Z</time>
      </trkpt>
      <trkpt lat="45.9159" lon="6.51266">
        <ele>2441.885</ele>
        <time>2024-12-11T14:15:10Z</time>
      </trkpt>
      <trkpt lat="45.9159" lon="6.51266">
        <ele>2441.888</ele>
        <time>2024-12-11T14:15:15Z</time>
      </trkpt>
      <trkpt lat="45.9159" lon="6.51266">
        <ele>2441.89</ele>
        <time>2024-12-11T14:15:20Z</time>
      </trkpt>
      <trkpt lat="45.9159" lon="6.51266">
        <ele>2441.892</ele>
        <time>2024-12-11T14:15:25Z</time>
      </trkpt>
      <trkpt lat="45.9159" lon="6.51266">
        <ele>2441.898</ele>
        <time>2024-12-11T14:15:30Z</time>
      </trkpt>
      <trkpt lat="45.9159" lon="6.51266">
        <ele>2441.899</ele>
        <time>2024-12-11T14:15:35Z</time>
      </trkpt>
      <trkpt lat="45.9159" lon="6.51266">
        <ele>2441.903</ele>
        <time>2024-12-11T14:15:40Z</time>
      </trkpt>
      <trkpt lat="45.9159" lon="6.51266">
        <ele>2441.901</ele>
        <time>2024-12-11T14:15:45Z</time>
      </trkpt>
      <trkpt lat="45.9159" lon="6.51266">
        <ele>2441.901</ele>
        <time>2024-12-11T14:15:50Z</time>
      </trkpt>
      <trkpt lat="45.9159" lon="6.51266">
        <ele>2441.905</ele>
        <time>2024-12-11T14:15:55Z</time>
      </trkpt>
      <trkpt lat="45.9159" lon="6.51266">
        <ele>2441.911</ele>
        <time>2024-12-11T14:16:00Z</time>
      </trkpt>
      <trkpt lat="45.9159" lon="6.51266">
        <ele>2441.911</ele>
        <time>2024-12-11T14:16:05Z</time>
      </trkpt>
      <trkpt lat="45.9159" lon="6.51266">
        <ele>2441.91</ele>
        <time>2024-12-11T14:16:10Z</time>
      </trkpt>
      <trkpt lat="45.9159" lon="6.51266">
        <ele>2441.914</ele>
        <time>2024-12-11T14:16:15Z</time>
      </trkpt>
      <trkpt lat="45.9159" lon="6.51266">
        <ele>2441.917</ele>
        <time>2024-12-11T14:16:20Z</time>
      </trkpt>
      <trkpt lat="45.9159" lon="6.51266">
        <ele>2441.915</ele>
        <time>2024-12-11T14:16:25Z</time>
      </trkpt>
      <trkpt lat="45.9159" lon="6.51266">
        <ele>2441.923</ele>
        <time>2024-12-11T14:16:30Z</time>
      </trkpt>
      <trkpt lat="45.9159" lon="6.51266">
        <ele>2441.926</ele>
        <time>2024-12-11T14:16:35Z</time>
      </trkpt>
      <trkpt lat="45.9159" lon="6.51266">
        <ele>2441.925</ele>
        <time>2024-12-11T14:16:40Z</time>
      </trkpt>
      <trkpt lat="45.9159" lon="6.51266">
        <ele>2441.925</ele>
        <time>2024-12-11T14:16:45Z</time>
      </trkpt>
      <trkpt lat="45.9159" lon="6.51266">
        <ele>2441.926</ele>
        <time>2024-12-11T14:16:50Z</time>
      </trkpt>
      <trkpt lat="45.9159" lon="6.51266">
        <ele>2441.928</ele>
        <time>2024-12-11T14:16:55Z</time>
      </trkpt>
      <trkpt lat="45.9159" lon="6.51266">
        <ele>2441.93</ele>
        <time>2024-12-11T14:17:00Z</time>
      </trkpt>
      <trkpt lat="45.9159" lon="6.51266">
        <ele>2441.935</ele>
        <time>2024-12-11T14:17:05Z</time>
      </trkpt>
      <trkpt lat="45.9159" lon="6.51266">
        <ele>2441.936</ele>
        <time>2024-12-11T14:17:10Z</time>
      </trkpt>
      <trkpt lat="45.9159" lon="6.51266">
        <ele>2441.938</ele>
        <time>2024-12-11T14:17:15Z</time>
      </trkpt>
      <trkpt lat="45.9159" lon="6.51266">
        <ele>2441.94</ele>
        <time>2024-12-11T14:17:20Z</time>
      </trkpt>
      <trkpt lat="45.9159" lon="6.51266">
        <ele>2441.939</ele>
        <time>2024-12-11T14:17:25Z</time>
      </trkpt>
      <trkpt lat="45.9159" lon="6.51266">
        <ele>2441.939</ele>
        <time>2024-12-11T14:17:30Z</time>
      </trkpt>
      <trkpt lat="45.9159" lon="6.51266">
        <ele>2441.94</ele>
        <time>2024-12-11T14:17:35Z</time>
      </trkpt>
      <trkpt lat="45.9159" lon="6.51266">
        <ele>2441.939</ele>
        <time>2024-12-11T14:17:40Z</time>
      </trkpt>
      <trkpt lat="45.9159" lon="6.51266">
        <ele>2441.939</ele>
        <time>2024-12-11T14:17:45Z</time>
      </trkpt>
      <trkpt lat="45.9159" lon="6.51266">
        <ele>2441.938</ele>
        <time>2024-12-11T14:17:50Z</time>
      </trkpt>
      <trkpt lat="45.9159" lon="6.51266">
        <ele>2441.942</ele>
        <time>2024-12-11T14:17:55Z</time>
      </trkpt>
      <trkpt lat="45.9159" lon="6.51266">
        <ele>2441.942</ele>
        <time>2024-12-11T14:18:00Z</time>
      </trkpt>
      <trkpt lat="45.9159" lon="6.51266">
        <ele>2441.944</ele>
        <time>2024-12-11T14:18:05Z</time>
      </trkpt>
      <trkpt lat="45.9159" lon="6.51266">
        <ele>2441.945</ele>
        <time>2024-12-11T14:18:10Z</time>
      </trkpt>
      <trkpt lat="45.9159" lon="6.51266">
        <ele>2441.946</ele>
        <time>2024-12-11T14:18:15Z</time>
      </trkpt>
      <trkpt lat="45.9159" lon="6.51266">
        <ele>2441.949</ele>
        <time>2024-12-11T14:18:20Z</time>
      </trkpt>
      <trkpt lat="45.9159" lon="6.51266">
        <ele>2441.943</ele>
        <time>2024-12-11T14:18:25Z</time>
      </trkpt>
      <trkpt lat="45.9159" lon="6.51266">
        <ele>2441.936</ele>
        <time>2024-12-11T14:18:30Z</time>
      </trkpt>
      <trkpt lat="45.9159" lon="6.51266">
        <ele>2441.933</ele>
        <time>2024-12-11T14:18:35Z</time>
      </trkpt>
      <trkpt lat="45.9159" lon="6.51266">
        <ele>2441.934</ele>
        <time>2024-12-11T14:18:40Z</time>
      </trkpt>
      <trkpt lat="45.9159" lon="6.51266">
        <ele>2441.931</ele>
        <time>2024-12-11T14:18:45Z</time>
      </trkpt>
      <trkpt lat="45.9159" lon="6.51266">
        <ele>2441.934</ele>
        <time>2024-12-11T14:18:50Z</time>
      </trkpt>
      <trkpt lat="45.9159" lon="6.51266">
        <ele>2441.936</ele>
        <time>2024-12-11T14:18:55Z</time>
      </trkpt>
      <trkpt lat="45.9159" lon="6.51266">
        <ele>2441.938</ele>
        <time>2024-12-11T14:19:00Z</time>
      </trkpt>
      <trkpt lat="45.9159" lon="6.51266">
        <ele>2441.942</ele>
        <time>2024-12-11T14:19:05Z</time>
      </trkpt>
      <trkpt lat="45.9159" lon="6.51266">
        <ele>2441.944</ele>
        <time>2024-12-11T14:19:10Z</time>
      </trkpt>
      <trkpt lat="45.9159" lon="6.51266">
        <ele>2441.95</ele>
        <time>2024-12-11T14:19:15Z</time>
      </trkpt>
      <trkpt lat="45.9159" lon="6.51266">
        <ele>2441.952</ele>
        <time>2024-12-11T14:19:20Z</time>
      </trkpt>
      <trkpt lat="45.9159" lon="6.51266">
        <ele>2441.954</ele>
        <time>2024-12-11T14:19:25Z</time>
      </trkpt>
      <trkpt lat="45.9159" lon="6.51266">
        <ele>2441.959</ele>
        <time>2024-12-11T14:19:30Z</time>
      </trkpt>
      <trkpt lat="45.9159" lon="6.51266">
        <ele>2441.961</ele>
        <time>2024-12-11T14:19:35Z</time>
      </trkpt>
      <trkpt lat="45.9159" lon="6.51266">
        <ele>2441.965</ele>
        <time>2024-12-11T14:19:40Z</time>
      </trkpt>
      <trkpt lat="45.9159" lon="6.51266">
        <ele>2441.967</ele>
        <time>2024-12-11T14:19:45Z</time>
      </trkpt>
      <trkpt lat="45.9159" lon="6.51266">
        <ele>2441.97</ele>
        <time>2024-12-11T14:19:50Z</time>
      </trkpt>
      <trkpt lat="45.9159" lon="6.51266">
        <ele>2441.974</ele>
        <time>2024-12-11T14:19:55Z</time>
      </trkpt>
      <trkpt lat="45.9159" lon="6.51266">
        <ele>2441.98</ele>
        <time>2024-12-11T14:20:00Z</time>
      </trkpt>
      <trkpt lat="45.9159" lon="6.51266">
        <ele>2441.985</ele>
        <time>2024-12-11T14:20:05Z</time>
      </trkpt>
      <trkpt lat="45.9159" lon="6.51266">
        <ele>2441.989</ele>
        <time>2024-12-11T14:20:10Z</time>
      </trkpt>
      <trkpt lat="45.9159" lon="6.51266">
        <ele>2441.996</ele>
        <time>2024-12-11T14:20:15Z</time>
      </trkpt>
      <trkpt lat="45.9159" lon="6.51266">
        <ele>2441.998</ele>
        <time>2024-12-11T14:20:20Z</time>
      </trkpt>
      <trkpt lat="45.9159" lon="6.51266">
        <ele>2442.005</ele>
        <time>2024-12-11T14:20:25Z</time>
      </trkpt>
      <trkpt lat="45.9159" lon="6.51266">
        <ele>2442.005</ele>
        <time>2024-12-11T14:20:30Z</time>
      </trkpt>
      <trkpt lat="45.9159" lon="6.51266">
        <ele>2442.004</ele>
        <time>2024-12-11T14:20:35Z</time>
      </trkpt>
      <trkpt lat="45.9159" lon="6.51266">
        <ele>2441.998</ele>
        <time>2024-12-11T14:20:40Z</time>
      </trkpt>
      <trkpt lat="45.9159" lon="6.51266">
        <ele>2441.99</ele>
        <time>2024-12-11T14:20:45Z</time>
      </trkpt>
      <trkpt lat="45.9159" lon="6.51266">
        <ele>2441.988</ele>
        <time>2024-12-11T14:20:50Z</time>
      </trkpt>
      <trkpt lat="45.9159" lon="6.51266">
        <ele>2441.988</ele>
        <time>2024-12-11T14:20:55Z</time>
      </trkpt>
      <trkpt lat="45.9159" lon="6.51266">
        <ele>2441.998</ele>
        <time>2024-12-11T14:21:00Z</time>
      </trkpt>
      <trkpt lat="45.9159" lon="6.51266">
        <ele>2441.977</ele>
        <time>2024-12-11T14:21:05Z</time>
      </trkpt>
      <trkpt lat="45.9159" lon="6.51266">
        <ele>2441.973</ele>
        <time>2024-12-11T14:21:10Z</time>
      </trkpt>
      <trkpt lat="45.9159" lon="6.51266">
        <ele>2441.97</ele>
        <time>2024-12-11T14:21:15Z</time>
      </trkpt>
      <trkpt lat="45.9159" lon="6.51266">
        <ele>2441.97</ele>
        <time>2024-12-11T14:21:20Z</time>
      </trkpt>
      <trkpt lat="45.9159" lon="6.51266">
        <ele>2441.969</ele>
        <time>2024-12-11T14:21:25Z</time>
      </trkpt>
      <trkpt lat="45.9159" lon="6.51266">
        <ele>2441.972</ele>
        <time>2024-12-11T14:21:30Z</time>
      </trkpt>
      <trkpt lat="45.9159" lon="6.51266">
        <ele>2441.972</ele>
        <time>2024-12-11T14:21:35Z</time>
      </trkpt>
      <trkpt lat="45.9159" lon="6.51266">
        <ele>2441.971</ele>
        <time>2024-12-11T14:21:40Z</time>
      </trkpt>
      <trkpt lat="45.9159" lon="6.51266">
        <ele>2441.977</ele>
        <time>2024-12-11T14:21:45Z</time>
      </trkpt>
      <trkpt lat="45.9159" lon="6.51266">
        <ele>2441.977</ele>
        <time>2024-12-11T14:21:50Z</time>
      </trkpt>
      <trkpt lat="45.9159" lon="6.51266">
        <ele>2441.981</ele>
        <time>2024-12-11T14:21:55Z</time>
      </trkpt>
      <trkpt lat="45.9159" lon="6.51266">
        <ele>2441.99</ele>
        <time>2024-12-11T14:22:00Z</time>
      </trkpt>
      <trkpt lat="45.9159" lon="6.51266">
        <ele>2441.998</ele>
        <time>2024-12-11T14:22:05Z</time>
      </trkpt>
      <trkpt lat="45.9159" lon="6.51266">
        <ele>2442.005</ele>
        <time>2024-12-11T14:22:10Z</time>
      </trkpt>
      <trkpt lat="45.9159" lon="6.51266">
        <ele>2442.006</ele>
        <time>2024-12-11T14:22:15Z</time>
      </trkpt>
      <trkpt lat="45.9159" lon="6.51266">
        <ele>2442.008</ele>
        <time>2024-12-11T14:22:20Z</time>
      </trkpt>
      <trkpt lat="45.9159" lon="6.51266">
        <ele>2442.012</ele>
        <time>2024-12-11T14:22:25Z</time>
      </trkpt>
      <trkpt lat="45.9159" lon="6.51266">
        <ele>2442.02</ele>
        <time>2024-12-11T14:22:30Z</time>
      </trkpt>
      <trkpt lat="45.9159" lon="6.51266">
        <ele>2442.022</ele>
        <time>2024-12-11T14:22:35Z</time>
      </trkpt>
      <trkpt lat="45.9159" lon="6.51266">
        <ele>2442.026</ele>
        <time>2024-12-11T14:22:40Z</time>
      </trkpt>
      <trkpt lat="45.9159" lon="6.51266">
        <ele>2442.029</ele>
        <time>2024-12-11T14:22:45Z</time>
      </trkpt>
      <trkpt lat="45.9159" lon="6.51266">
        <ele>2442.031</ele>
        <time>2024-12-11T14:22:50Z</time>
      </trkpt>
      <trkpt lat="45.9159" lon="6.51266">
        <ele>2442.033</ele>
        <time>2024-12-11T14:22:55Z</time>
      </trkpt>
      <trkpt lat="45.9159" lon="6.51266">
        <ele>2442.033</ele>
        <time>2024-12-11T14:23:00Z</time>
      </trkpt>
      <trkpt lat="45.9159" lon="6.51266">
        <ele>2442.031</ele>
        <time>2024-12-11T14:23:05Z</time>
      </trkpt>
      <trkpt lat="45.9159" lon="6.51266">
        <ele>2442.033</ele>
        <time>2024-12-11T14:23:10Z</time>
      </trkpt>
      <trkpt lat="45.9159" lon="6.51266">
        <ele>2442.036</ele>
        <time>2024-12-11T14:23:15Z</time>
      </trkpt>
      <trkpt lat="45.9159" lon="6.51266">
        <ele>2442.036</ele>
        <time>2024-12-11T14:23:20Z</time>
      </trkpt>
      <trkpt lat="45.9159" lon="6.51266">
        <ele>2442.038</ele>
        <time>2024-12-11T14:23:25Z</time>
      </trkpt>
      <trkpt lat="45.9159" lon="6.51266">
        <ele>2442.039</ele>
        <time>2024-12-11T14:23:30Z</time>
      </trkpt>
      <trkpt lat="45.9159" lon="6.51266">
        <ele>2442.04</ele>
        <time>2024-12-11T14:23:35Z</time>
      </trkpt>
      <trkpt lat="45.9159" lon="6.51266">
        <ele>2442.044</ele>
        <time>2024-12-11T14:23:40Z</time>
      </trkpt>
      <trkpt lat="45.9159" lon="6.51266">
        <ele>2441.763</ele>
        <time>2024-12-11T14:23:45Z</time>
      </trkpt>
      <trkpt lat="45.9159" lon="6.51266">
        <ele>2441.215</ele>
        <time>2024-12-11T14:23:50Z</time>
      </trkpt>
      <trkpt lat="45.9159" lon="6.51266">
        <ele>2441.21</ele>
        <time>2024-12-11T14:23:55Z</time>
      </trkpt>
      <trkpt lat="45.9159" lon="6.51266">
        <ele>2441.203</ele>
        <time>2024-12-11T14:24:00Z</time>
      </trkpt>
      <trkpt lat="45.9159" lon="6.51266">
        <ele>2441.197</ele>
        <time>2024-12-11T14:24:05Z</time>
      </trkpt>
      <trkpt lat="45.9159" lon="6.51266">
        <ele>2441.193</ele>
        <time>2024-12-11T14:24:10Z</time>
      </trkpt>
      <trkpt lat="45.9159" lon="6.51266">
        <ele>2441.189</ele>
        <time>2024-12-11T14:24:15Z</time>
      </trkpt>
      <trkpt lat="45.9159" lon="6.51266">
        <ele>2441.182</ele>
        <time>2024-12-11T14:24:20Z</time>
      </trkpt>
      <trkpt lat="45.9159" lon="6.51266">
        <ele>2441.174</ele>
        <time>2024-12-11T14:24:25Z</time>
      </trkpt>
      <trkpt lat="45.9159" lon="6.51266">
        <ele>2441.175</ele>
        <time>2024-12-11T14:24:30Z</time>
      </trkpt>
      <trkpt lat="45.9159" lon="6.51266">
        <ele>2441.176</ele>
        <time>2024-12-11T14:24:35Z</time>
      </trkpt>
      <trkpt lat="45.9159" lon="6.51266">
        <ele>2441.174</ele>
        <time>2024-12-11T14:24:40Z</time>
      </trkpt>
      <trkpt lat="45.9159" lon="6.51266">
        <ele>2440.676</ele>
        <time>2024-12-11T14:24:45Z</time>
      </trkpt>
      <trkpt lat="45.9159" lon="6.51266">
        <ele>2440.682</ele>
        <time>2024-12-11T14:24:50Z</time>
      </trkpt>
      <trkpt lat="45.9159" lon="6.51266">
        <ele>2440.691</ele>
        <time>2024-12-11T14:24:55Z</time>
      </trkpt>
      <trkpt lat="45.9159" lon="6.51266">
        <ele>2440.688</ele>
        <time>2024-12-11T14:25:00Z</time>
      </trkpt>
      <trkpt lat="45.9159" lon="6.51266">
        <ele>2440.692</ele>
        <time>2024-12-11T14:25:05Z</time>
      </trkpt>
      <trkpt lat="45.9159" lon="6.51266">
        <ele>2440.691</ele>
        <time>2024-12-11T14:25:10Z</time>
      </trkpt>
      <trkpt lat="45.9159" lon="6.51266">
        <ele>2440.702</ele>
        <time>2024-12-11T14:25:15Z</time>
      </trkpt>
      <trkpt lat="45.9159" lon="6.51266">
        <ele>2440.718</ele>
        <time>2024-12-11T14:25:20Z</time>
      </trkpt>
      <trkpt lat="45.9159" lon="6.51266">
        <ele>2440.722</ele>
        <time>2024-12-11T14:25:25Z</time>
      </trkpt>
      <trkpt lat="45.9159" lon="6.51266">
        <ele>2440.722</ele>
        <time>2024-12-11T14:25:30Z</time>
      </trkpt>
      <trkpt lat="45.9159" lon="6.51266">
        <ele>2440.723</ele>
        <time>2024-12-11T14:25:35Z</time>
      </trkpt>
      <trkpt lat="45.9159" lon="6.51266">
        <ele>2440.72</ele>
        <time>2024-12-11T14:25:40Z</time>
      </trkpt>
      <trkpt lat="45.9159" lon="6.51266">
        <ele>2440.715</ele>
        <time>2024-12-11T14:25:45Z</time>
      </trkpt>
      <trkpt lat="45.9159" lon="6.51266">
        <ele>2440.718</ele>
        <time>2024-12-11T14:25:50Z</time>
      </trkpt>
      <trkpt lat="45.9159" lon="6.51266">
        <ele>2440.715</ele>
        <time>2024-12-11T14:25:55Z</time>
      </trkpt>
      <trkpt lat="45.9159" lon="6.51266">
        <ele>2440.713</ele>
        <time>2024-12-11T14:26:00Z</time>
      </trkpt>
      <trkpt lat="45.9159" lon="6.51266">
        <ele>2440.711</ele>
        <time>2024-12-11T14:26:05Z</time>
      </trkpt>
      <trkpt lat="45.9159" lon="6.51266">
        <ele>2440.709</ele>
        <time>2024-12-11T14:26:10Z</time>
      </trkpt>
      <trkpt lat="45.9159" lon="6.51266">
        <ele>2440.708</ele>
        <time>2024-12-11T14:26:15Z</time>
      </trkpt>
      <trkpt lat="45.9159" lon="6.51266">
        <ele>2440.712</ele>
        <time>2024-12-11T14:26:20Z</time>
      </trkpt>
      <trkpt lat="45.9159" lon="6.51266">
        <ele>2440.71</ele>
        <time>2024-12-11T14:26:25Z</time>
      </trkpt>
      <trkpt lat="45.9159" lon="6.51266">
        <ele>2440.712</ele>
        <time>2024-12-11T14:26:30Z</time>
      </trkpt>
      <trkpt lat="45.9159" lon="6.51266">
        <ele>2440.716</ele>
        <time>2024-12-11T14:26:35Z</time>
      </trkpt>
      <trkpt lat="45.9159" lon="6.51266">
        <ele>2440.714</ele>
        <time>2024-12-11T14:26:40Z</time>
      </trkpt>
      <trkpt lat="45.9159" lon="6.51266">
        <ele>2440.715</ele>
        <time>2024-12-11T14:26:45Z</time>
      </trkpt>
      <trkpt lat="45.9159" lon="6.51266">
        <ele>2440.718</ele>
        <time>2024-12-11T14:26:50Z</time>
      </trkpt>
      <trkpt lat="45.9159" lon="6.51266">
        <ele>2440.721</ele>
        <time>2024-12-11T14:26:55Z</time>
      </trkpt>
      <trkpt lat="45.9159" lon="6.51266">
        <ele>2440.717</ele>
        <time>2024-12-11T14:27:00Z</time>
      </trkpt>
      <trkpt lat="45.9159" lon="6.51266">
        <ele>2440.713</ele>
        <time>2024-12-11T14:27:05Z</time>
      </trkpt>
      <trkpt lat="45.9159" lon="6.51266">
        <ele>2440.913</ele>
        <time>2024-12-11T14:27:10Z</time>
      </trkpt>
      <trkpt lat="45.9159" lon="6.51266">
        <ele>2439.684</ele>
        <time>2024-12-11T14:27:15Z</time>
      </trkpt>
      <trkpt lat="45.9159" lon="6.51266">
        <ele>2439.309</ele>
        <time>2024-12-11T14:27:20Z</time>
      </trkpt>
      <trkpt lat="45.9159" lon="6.51266">
        <ele>2438.554</ele>
        <time>2024-12-11T14:27:25Z</time>
      </trkpt>
      <trkpt lat="45.9159" lon="6.51266">
        <ele>2438.354</ele>
        <time>2024-12-11T14:27:30Z</time>
      </trkpt>
      <trkpt lat="45.9159" lon="6.51266">
        <ele>2438.382</ele>
        <time>2024-12-11T14:27:35Z</time>
      </trkpt>
      <trkpt lat="45.9159" lon="6.51266">
        <ele>2438.405</ele>
        <time>2024-12-11T14:27:40Z</time>
      </trkpt>
      <trkpt lat="45.9159" lon="6.51266">
        <ele>2438.433</ele>
        <time>2024-12-11T14:27:45Z</time>
      </trkpt>
      <trkpt lat="45.9159" lon="6.51266">
        <ele>2438.453</ele>
        <time>2024-12-11T14:27:50Z</time>
      </trkpt>
      <trkpt lat="45.9159" lon="6.51266">
        <ele>2438.473</ele>
        <time>2024-12-11T14:27:55Z</time>
      </trkpt>
      <trkpt lat="45.9159" lon="6.51266">
        <ele>2438.482</ele>
        <time>2024-12-11T14:28:00Z</time>
      </trkpt>
      <trkpt lat="45.9159" lon="6.51266">
        <ele>2439.297</ele>
        <time>2024-12-11T14:28:05Z</time>
      </trkpt>
      <trkpt lat="45.9159" lon="6.51266">
        <ele>2439.381</ele>
        <time>2024-12-11T14:28:10Z</time>
      </trkpt>
      <trkpt lat="45.9159" lon="6.51266">
        <ele>2439.375</ele>
        <time>2024-12-11T14:28:15Z</time>
      </trkpt>
      <trkpt lat="45.9159" lon="6.51266">
        <ele>2439.226</ele>
        <time>2024-12-11T14:28:20Z</time>
      </trkpt>
      <trkpt lat="45.9159" lon="6.51266">
        <ele>2439.231</ele>
        <time>2024-12-11T14:28:25Z</time>
      </trkpt>
      <trkpt lat="45.9159" lon="6.51266">
        <ele>2439.246</ele>
        <time>2024-12-11T14:28:30Z</time>
      </trkpt>
      <trkpt lat="45.9159" lon="6.51266">
        <ele>2439.269</ele>
        <time>2024-12-11T14:28:35Z</time>
      </trkpt>
      <trkpt lat="45.9159" lon="6.51266">
        <ele>2439.283</ele>
        <time>2024-12-11T14:28:40Z</time>
      </trkpt>
      <trkpt lat="45.9159" lon="6.51266">
        <ele>2439.311</ele>
        <time>2024-12-11T14:28:45Z</time>
      </trkpt>
      <trkpt lat="45.9159" lon="6.51266">
        <ele>2439.545</ele>
        <time>2024-12-11T14:28:50Z</time>
      </trkpt>
      <trkpt lat="45.9159" lon="6.51266">
        <ele>2439.554</ele>
        <time>2024-12-11T14:28:55Z</time>
      </trkpt>
      <trkpt lat="45.9159" lon="6.51266">
        <ele>2439.57</ele>
        <time>2024-12-11T14:29:00Z</time>
      </trkpt>
      <trkpt lat="45.9159" lon="6.51266">
        <ele>2439.411</ele>
        <time>2024-12-11T14:29:05Z</time>
      </trkpt>
      <trkpt lat="45.9159" lon="6.51266">
        <ele>2439.893</ele>
        <time>2024-12-11T14:29:10Z</time>
      </trkpt>
      <trkpt lat="45.9159" lon="6.51266">
        <ele>2439.646</ele>
        <time>2024-12-11T14:29:15Z</time>
      </trkpt>
      <trkpt lat="45.9159" lon="6.51266">
        <ele>2439.662</ele>
        <time>2024-12-11T14:29:20Z</time>
      </trkpt>
      <trkpt lat="45.9159" lon="6.51266">
        <ele>2439.673</ele>
        <time>2024-12-11T14:29:25Z</time>
      </trkpt>
      <trkpt lat="45.9159" lon="6.51266">
        <ele>2439.692</ele>
        <time>2024-12-11T14:29:30Z</time>
      </trkpt>
      <trkpt lat="45.9159" lon="6.51266">
        <ele>2439.695</ele>
        <time>2024-12-11T14:29:35Z</time>
      </trkpt>
      <trkpt lat="45.9159" lon="6.51266">
        <ele>2439.704</ele>
        <time>2024-12-11T14:29:40Z</time>
      </trkpt>
      <trkpt lat="45.9159" lon="6.51266">
        <ele>2439.689</ele>
        <time>2024-12-11T14:29:45Z</time>
      </trkpt>
      <trkpt lat="45.9159" lon="6.51266">
        <ele>2439.698</ele>
        <time>2024-12-11T14:29:50Z</time>
      </trkpt>
      <trkpt lat="45.9159" lon="6.51266">
        <ele>2439.702</ele>
        <time>2024-12-11T14:29:55Z</time>
      </trkpt>
      <trkpt lat="45.9159" lon="6.51266">
        <ele>2439.716</ele>
        <time>2024-12-11T14:30:00Z</time>
      </trkpt>
      <trkpt lat="45.9159" lon="6.51266">
        <ele>2439.718</ele>
        <time>2024-12-11T14:30:05Z</time>
      </trkpt>
      <trkpt lat="45.9159" lon="6.51266">
        <ele>2439.741</ele>
        <time>2024-12-11T14:30:10Z</time>
      </trkpt>
      <trkpt lat="45.9159" lon="6.51266">
        <ele>2439.52</ele>
        <time>2024-12-11T14:30:15Z</time>
      </trkpt>
      <trkpt lat="45.9159" lon="6.51266">
        <ele>2440.109</ele>
        <time>2024-12-11T14:30:20Z</time>
      </trkpt>
      <trkpt lat="45.9159" lon="6.51266">
        <ele>2440.289</ele>
        <time>2024-12-11T14:30:25Z</time>
      </trkpt>
      <trkpt lat="45.9159" lon="6.51266">
        <ele>2440.245</ele>
        <time>2024-12-11T14:30:30Z</time>
      </trkpt>
      <trkpt lat="45.9159" lon="6.51266">
        <ele>2440.255</ele>
        <time>2024-12-11T14:30:35Z</time>
      </trkpt>
      <trkpt lat="45.9159" lon="6.51266">
        <ele>2440.242</ele>
        <time>2024-12-11T14:30:40Z</time>
      </trkpt>
      <trkpt lat="45.9159" lon="6.51266">
        <ele>2440.246</ele>
        <time>2024-12-11T14:30:45Z</time>
      </trkpt>
      <trkpt lat="45.9159" lon="6.51266">
        <ele>2440.247</ele>
        <time>2024-12-11T14:30:50Z</time>
      </trkpt>
      <trkpt lat="45.9159" lon="6.51266">
        <ele>2440.256</ele>
        <time>2024-12-11T14:30:55Z</time>
      </trkpt>
      <trkpt lat="45.9159" lon="6.51266">
        <ele>2440.258</ele>
        <time>2024-12-11T14:31:00Z</time>
      </trkpt>
      <trkpt lat="45.9159" lon="6.51266">
        <ele>2440.468</ele>
        <time>2024-12-11T14:31:05Z</time>
      </trkpt>
      <trkpt lat="45.9159" lon="6.51266">
        <ele>2440.576</ele>
        <time>2024-12-11T14:31:10Z</time>
      </trkpt>
      <trkpt lat="45.9159" lon="6.51266">
        <ele>2440.935</ele>
        <time>2024-12-11T14:31:15Z</time>
      </trkpt>
      <trkpt lat="45.9159" lon="6.51266">
        <ele>2440.941</ele>
        <time>2024-12-11T14:31:20Z</time>
      </trkpt>
      <trkpt lat="45.9159" lon="6.51266">
        <ele>2440.952</ele>
        <time>2024-12-11T14:31:25Z</time>
      </trkpt>
      <trkpt lat="45.9159" lon="6.51266">
        <ele>2440.962</ele>
        <time>2024-12-11T14:31:30Z</time>
      </trkpt>
      <trkpt lat="45.9159" lon="6.51266">
        <ele>2440.965</ele>
        <time>2024-12-11T14:31:35Z</time>
      </trkpt>
      <trkpt lat="45.9159" lon="6.51266">
        <ele>2440.976</ele>
        <time>2024-12-11T14:31:40Z</time>
      </trkpt>
      <trkpt lat="45.9159" lon="6.51266">
        <ele>2440.979</ele>
        <time>2024-12-11T14:31:45Z</time>
      </trkpt>
      <trkpt lat="45.9159" lon="6.51266">
        <ele>2440.984</ele>
        <time>2024-12-11T14:31:50Z</time>
      </trkpt>
      <trkpt lat="45.9159" lon="6.51266">
        <ele>2441.295</ele>
        <time>2024-12-11T14:31:55Z</time>
      </trkpt>
      <trkpt lat="45.9159" lon="6.51266">
        <ele>2441.284</ele>
        <time>2024-12-11T14:32:00Z</time>
      </trkpt>
      <trkpt lat="45.9159" lon="6.51266">
        <ele>2441.237</ele>
        <time>2024-12-11T14:32:05Z</time>
      </trkpt>
      <trkpt lat="45.9159" lon="6.51266">
        <ele>2441.143</ele>
        <time>2024-12-11T14:32:10Z</time>
      </trkpt>
      <trkpt lat="45.9159" lon="6.51266">
        <ele>2441.08</ele>
        <time>2024-12-11T14:32:15Z</time>
      </trkpt>
      <trkpt lat="45.9159" lon="6.51266">
        <ele>2441.017</ele>
        <time>2024-12-11T14:32:20Z</time>
      </trkpt>
      <trkpt lat="45.9159" lon="6.51266">
        <ele>2440.583</ele>
        <time>2024-12-11T14:32:25Z</time>
      </trkpt>
      <trkpt lat="45.9159" lon="6.51266">
        <ele>2440.719</ele>
        <time>2024-12-11T14:32:30Z</time>
      </trkpt>
      <trkpt lat="45.9159" lon="6.51266">
        <ele>2440.707</ele>
        <time>2024-12-11T14:32:35Z</time>
      </trkpt>
      <trkpt lat="45.9159" lon="6.51266">
        <ele>2440.74</ele>
        <time>2024-12-11T14:32:40Z</time>
      </trkpt>
      <trkpt lat="45.9159" lon="6.51266">
        <ele>2440.73</ele>
        <time>2024-12-11T14:32:45Z</time>
      </trkpt>
      <trkpt lat="45.9159" lon="6.51266">
        <ele>2440.669</ele>
        <time>2024-12-11T14:32:50Z</time>
      </trkpt>
      <trkpt lat="45.9159" lon="6.51266">
        <ele>2439.695</ele>
        <time>2024-12-11T14:32:55Z</time>
      </trkpt>
      <trkpt lat="45.9159" lon="6.51266">
        <ele>2439.923</ele>
        <time>2024-12-11T14:33:00Z</time>
      </trkpt>
      <trkpt lat="45.9159" lon="6.51266">
        <ele>2440.171</ele>
        <time>2024-12-11T14:33:05Z</time>
      </trkpt>
      <trkpt lat="45.9159" lon="6.51266">
        <ele>2440.054</ele>
        <time>2024-12-11T14:33:10Z</time>
      </trkpt>
      <trkpt lat="45.9159" lon="6.51266">
        <ele>2440.292</ele>
        <time>2024-12-11T14:33:15Z</time>
      </trkpt>
      <trkpt lat="45.9159" lon="6.51266">
        <ele>2439.327</ele>
        <time>2024-12-11T14:33:20Z</time>
      </trkpt>
      <trkpt lat="45.9159" lon="6.51266">
        <ele>2439.341</ele>
        <time>2024-12-11T14:33:25Z</time>
      </trkpt>
      <trkpt lat="45.9159" lon="6.51266">
        <ele>2439.046</ele>
        <time>2024-12-11T14:33:30Z</time>
      </trkpt>
      <trkpt lat="45.9159" lon="6.51266">
        <ele>2438.249</ele>
        <time>2024-12-11T14:33:35Z</time>
      </trkpt>
      <trkpt lat="45.9159" lon="6.51266">
        <ele>2438.899</ele>
        <time>2024-12-11T14:33:40Z</time>
      </trkpt>
      <trkpt lat="45.9159" lon="6.51266">
        <ele>2439.003</ele>
        <time>2024-12-11T14:33:45Z</time>
      </trkpt>
      <trkpt lat="45.9159" lon="6.51266">
        <ele>2435.446</ele>
        <time>2024-12-11T14:33:50Z</time>
      </trkpt>
      <trkpt lat="45.9159" lon="6.51266">
        <ele>2435.961</ele>
        <time>2024-12-11T14:33:55Z</time>
      </trkpt>
      <trkpt lat="45.9159" lon="6.51266">
        <ele>2435.523</ele>
        <time>2024-12-11T14:34:00Z</time>
      </trkpt>
      <trkpt lat="45.9159" lon="6.51266">
        <ele>2434.197</ele>
        <time>2024-12-11T14:34:05Z</time>
      </trkpt>
      <trkpt lat="45.9159" lon="6.51266">
        <ele>2432.012</ele>
        <time>2024-12-11T14:34:10Z</time>
      </trkpt>
      <trkpt lat="45.9159" lon="6.51266">
        <ele>2431.38</ele>
        <time>2024-12-11T14:34:15Z</time>
      </trkpt>
      <trkpt lat="45.9159" lon="6.51266">
        <ele>2431.341</ele>
        <time>2024-12-11T14:34:20Z</time>
      </trkpt>
      <trkpt lat="45.9159" lon="6.51266">
        <ele>2431.138</ele>
        <time>2024-12-11T14:34:25Z</time>
      </trkpt>
      <trkpt lat="45.9159" lon="6.51266">
        <ele>2431.274</ele>
        <time>2024-12-11T14:34:30Z</time>
      </trkpt>
      <trkpt lat="45.9159" lon="6.51266">
        <ele>2431.102</ele>
        <time>2024-12-11T14:34:35Z</time>
      </trkpt>
      <trkpt lat="45.9159" lon="6.51266">
        <ele>2431.867</ele>
        <time>2024-12-11T14:34:40Z</time>
      </trkpt>
      <trkpt lat="45.9159" lon="6.51266">
        <ele>2430.951</ele>
        <time>2024-12-11T14:34:45Z</time>
      </trkpt>
      <trkpt lat="45.9159" lon="6.51266">
        <ele>2430.957</ele>
        <time>2024-12-11T14:34:50Z</time>
      </trkpt>
      <trkpt lat="45.9159" lon="6.51266">
        <ele>2430.95</ele>
        <time>2024-12-11T14:34:55Z</time>
      </trkpt>
      <trkpt lat="45.9159" lon="6.51266">
        <ele>2429.881</ele>
        <time>2024-12-11T14:35:00Z</time>
      </trkpt>
      <trkpt lat="45.9159" lon="6.51266">
        <ele>2428.793</ele>
        <time>2024-12-11T14:35:05Z</time>
      </trkpt>
      <trkpt lat="45.9159" lon="6.51266">
        <ele>2428.026</ele>
        <time>2024-12-11T14:35:10Z</time>
      </trkpt>
      <trkpt lat="45.9159" lon="6.51266">
        <ele>2427.897</ele>
        <time>2024-12-11T14:35:15Z</time>
      </trkpt>
      <trkpt lat="45.9159" lon="6.51266">
        <ele>2427.831</ele>
        <time>2024-12-11T14:35:20Z</time>
      </trkpt>
      <trkpt lat="45.9159" lon="6.51266">
        <ele>2427.929</ele>
        <time>2024-12-11T14:35:25Z</time>
      </trkpt>
      <trkpt lat="45.9159" lon="6.51266">
        <ele>2427.938</ele>
        <time>2024-12-11T14:35:30Z</time>
      </trkpt>
      <trkpt lat="45.9159" lon="6.51266">
        <ele>2427.618</ele>
        <time>2024-12-11T14:35:35Z</time>
      </trkpt>
      <trkpt lat="45.9159" lon="6.51266">
        <ele>2427.988</ele>
        <time>2024-12-11T14:35:40Z</time>
      </trkpt>
      <trkpt lat="45.9159" lon="6.51266">
        <ele>2427.93</ele>
        <time>2024-12-11T14:35:45Z</time>
      </trkpt>
      <trkpt lat="45.9159" lon="6.51266">
        <ele>2427.666</ele>
        <time>2024-12-11T14:35:50Z</time>
      </trkpt>
      <trkpt lat="45.9159" lon="6.51266">
        <ele>2427.668</ele>
        <time>2024-12-11T14:35:55Z</time>
      </trkpt>
      <trkpt lat="45.9159" lon="6.51266">
        <ele>2427.422</ele>
        <time>2024-12-11T14:36:00Z</time>
      </trkpt>
      <trkpt lat="45.9159" lon="6.51266">
        <ele>2427.157</ele>
        <time>2024-12-11T14:36:05Z</time>
      </trkpt>
      <trkpt lat="45.9159" lon="6.51266">
        <ele>2426.735</ele>
        <time>2024-12-11T14:36:10Z</time>
      </trkpt>
      <trkpt lat="45.9159" lon="6.51266">
        <ele>2426.335</ele>
        <time>2024-12-11T14:36:15Z</time>
      </trkpt>
      <trkpt lat="45.9159" lon="6.51266">
        <ele>2426.325</ele>
        <time>2024-12-11T14:36:20Z</time>
      </trkpt>
      <trkpt lat="45.9159" lon="6.51266">
        <ele>2426.322</ele>
        <time>2024-12-11T14:36:25Z</time>
      </trkpt>
      <trkpt lat="45.9159" lon="6.51266">
        <ele>2426.324</ele>
        <time>2024-12-11T14:36:30Z</time>
      </trkpt>
      <trkpt lat="45.9159" lon="6.51266">
        <ele>2426.252</ele>
        <time>2024-12-11T14:36:35Z</time>
      </trkpt>
      <trkpt lat="45.9159" lon="6.51266">
        <ele>2426.577</ele>
        <time>2024-12-11T14:36:40Z</time>
      </trkpt>
      <trkpt lat="45.9159" lon="6.51266">
        <ele>2426.576</ele>
        <time>2024-12-11T14:36:45Z</time>
      </trkpt>
      <trkpt lat="45.9159" lon="6.51266">
        <ele>2426.57</ele>
        <time>2024-12-11T14:36:50Z</time>
      </trkpt>
      <trkpt lat="45.9159" lon="6.51266">
        <ele>2426.573</ele>
        <time>2024-12-11T14:36:55Z</time>
      </trkpt>
      <trkpt lat="45.9159" lon="6.51266">
        <ele>2426.398</ele>
        <time>2024-12-11T14:37:00Z</time>
      </trkpt>
      <trkpt lat="45.9159" lon="6.51266">
        <ele>2426.395</ele>
        <time>2024-12-11T14:37:05Z</time>
      </trkpt>
      <trkpt lat="45.9159" lon="6.51266">
        <ele>2426.322</ele>
        <time>2024-12-11T14:37:10Z</time>
      </trkpt>
      <trkpt lat="45.9159" lon="6.51266">
        <ele>2426.799</ele>
        <time>2024-12-11T14:37:15Z</time>
      </trkpt>
      <trkpt lat="45.9159" lon="6.51266">
        <ele>2426.396</ele>
        <time>2024-12-11T14:37:20Z</time>
      </trkpt>
      <trkpt lat="45.9159" lon="6.51266">
        <ele>2426.395</ele>
        <time>2024-12-11T14:37:25Z</time>
      </trkpt>
      <trkpt lat="45.91583" lon="6.51254">
        <ele>2426.579</ele>
        <time>2024-12-11T14:37:30Z</time>
      </trkpt>
      <trkpt lat="45.91583" lon="6.51254">
        <ele>2426.517</ele>
        <time>2024-12-11T14:37:35Z</time>
      </trkpt>
      <trkpt lat="45.91575" lon="6.51256">
        <ele>2423.487</ele>
        <time>2024-12-11T14:37:40Z</time>
      </trkpt>
      <trkpt lat="45.91565" lon="6.51259">
        <ele>2421.431</ele>
        <time>2024-12-11T14:37:45Z</time>
      </trkpt>
      <trkpt lat="45.91562" lon="6.51259">
        <ele>2420.303</ele>
        <time>2024-12-11T14:37:50Z</time>
      </trkpt>
      <trkpt lat="45.9156" lon="6.5126">
        <ele>2420.301</ele>
        <time>2024-12-11T14:37:55Z</time>
      </trkpt>
      <trkpt lat="45.91559" lon="6.51261">
        <ele>2420.375</ele>
        <time>2024-12-11T14:38:00Z</time>
      </trkpt>
      <trkpt lat="45.91556" lon="6.51269">
        <ele>2418.206</ele>
        <time>2024-12-11T14:38:05Z</time>
      </trkpt>
      <trkpt lat="45.91555" lon="6.51267">
        <ele>2417.516</ele>
        <time>2024-12-11T14:38:10Z</time>
      </trkpt>
      <trkpt lat="45.91553" lon="6.51262">
        <ele>2415.964</ele>
        <time>2024-12-11T14:38:15Z</time>
      </trkpt>
      <trkpt lat="45.91551" lon="6.51263">
        <ele>2414.843</ele>
        <time>2024-12-11T14:38:20Z</time>
      </trkpt>
      <trkpt lat="45.9155" lon="6.51261">
        <ele>2413.479</ele>
        <time>2024-12-11T14:38:25Z</time>
      </trkpt>
      <trkpt lat="45.91542" lon="6.51266">
        <ele>2410.211</ele>
        <time>2024-12-11T14:38:30Z</time>
      </trkpt>
      <trkpt lat="45.91534" lon="6.51273">
        <ele>2411.238</ele>
        <time>2024-12-11T14:38:35Z</time>
      </trkpt>
      <trkpt lat="45.91529" lon="6.51273">
        <ele>2407.694</ele>
        <time>2024-12-11T14:38:40Z</time>
      </trkpt>
      <trkpt lat="45.91528" lon="6.51266">
        <ele>2402.27</ele>
        <time>2024-12-11T14:38:45Z</time>
      </trkpt>
      <trkpt lat="45.91521" lon="6.51267">
        <ele>2399.917</ele>
        <time>2024-12-11T14:38:50Z</time>
      </trkpt>
      <trkpt lat="45.91514" lon="6.51268">
        <ele>2395.839</ele>
        <time>2024-12-11T14:38:55Z</time>
      </trkpt>
      <trkpt lat="45.91514" lon="6.51268">
        <ele>2392.697</ele>
        <time>2024-12-11T14:39:00Z</time>
      </trkpt>
      <trkpt lat="45.91514" lon="6.51268">
        <ele>2392.54</ele>
        <time>2024-12-11T14:39:05Z</time>
      </trkpt>
      <trkpt lat="45.91514" lon="6.51268">
        <ele>2392.525</ele>
        <time>2024-12-11T14:39:10Z</time>
      </trkpt>
      <trkpt lat="45.91514" lon="6.51268">
        <ele>2392.509</ele>
        <time>2024-12-11T14:39:15Z</time>
      </trkpt>
      <trkpt lat="45.91514" lon="6.51268">
        <ele>2392.4</ele>
        <time>2024-12-11T14:39:20Z</time>
      </trkpt>
      <trkpt lat="45.91503" lon="6.51261">
        <ele>2388.26</ele>
        <time>2024-12-11T14:39:25Z</time>
      </trkpt>
      <trkpt lat="45.915" lon="6.51253">
        <ele>2387.203</ele>
        <time>2024-12-11T14:39:30Z</time>
      </trkpt>
      <trkpt lat="45.91494" lon="6.5125">
        <ele>2383.213</ele>
        <time>2024-12-11T14:39:35Z</time>
      </trkpt>
      <trkpt lat="45.91492" lon="6.51241">
        <ele>2379.188</ele>
        <time>2024-12-11T14:39:40Z</time>
      </trkpt>
      <trkpt lat="45.91492" lon="6.51241">
        <ele>2378.241</ele>
        <time>2024-12-11T14:39:45Z</time>
      </trkpt>
      <trkpt lat="45.91492" lon="6.51241">
        <ele>2378.929</ele>
        <time>2024-12-11T14:39:50Z</time>
      </trkpt>
      <trkpt lat="45.91491" lon="6.51237">
        <ele>2378.255</ele>
        <time>2024-12-11T14:39:55Z</time>
      </trkpt>
      <trkpt lat="45.9149" lon="6.51225">
        <ele>2371.623</ele>
        <time>2024-12-11T14:40:00Z</time>
      </trkpt>
      <trkpt lat="45.91485" lon="6.5121">
        <ele>2365.536</ele>
        <time>2024-12-11T14:40:05Z</time>
      </trkpt>
      <trkpt lat="45.91488" lon="6.51201">
        <ele>2359.714</ele>
        <time>2024-12-11T14:40:10Z</time>
      </trkpt>
      <trkpt lat="45.91485" lon="6.51191">
        <ele>2352.136</ele>
        <time>2024-12-11T14:40:15Z</time>
      </trkpt>
      <trkpt lat="45.91487" lon="6.51189">
        <ele>2351.583</ele>
        <time>2024-12-11T14:40:20Z</time>
      </trkpt>
      <trkpt lat="45.91485" lon="6.51188">
        <ele>2351.285</ele>
        <time>2024-12-11T14:40:25Z</time>
      </trkpt>
      <trkpt lat="45.91481" lon="6.51172">
        <ele>2341.691</ele>
        <time>2024-12-11T14:40:30Z</time>
      </trkpt>
      <trkpt lat="45.91484" lon="6.51164">
        <ele>2344.047</ele>
        <time>2024-12-11T14:40:35Z</time>
      </trkpt>
      <trkpt lat="45.91486" lon="6.51165">
        <ele>2346.263</ele>
        <time>2024-12-11T14:40:40Z</time>
      </trkpt>
      <trkpt lat="45.91486" lon="6.51166">
        <ele>2347.655</ele>
        <time>2024-12-11T14:40:45Z</time>
      </trkpt>
      <trkpt lat="45.91487" lon="6.51167">
        <ele>2347.804</ele>
        <time>2024-12-11T14:40:50Z</time>
      </trkpt>
      <trkpt lat="45.91487" lon="6.51167">
        <ele>2347.745</ele>
        <time>2024-12-11T14:40:55Z</time>
      </trkpt>
      <trkpt lat="45.91487" lon="6.51167">
        <ele>2345.962</ele>
        <time>2024-12-11T14:41:00Z</time>
      </trkpt>
      <trkpt lat="45.91487" lon="6.51167">
        <ele>2342.204</ele>
        <time>2024-12-11T14:41:05Z</time>
      </trkpt>
      <trkpt lat="45.91487" lon="6.51167">
        <ele>2337.452</ele>
        <time>2024-12-11T14:41:10Z</time>
      </trkpt>
      <trkpt lat="45.91487" lon="6.51167">
        <ele>2336.177</ele>
        <time>2024-12-11T14:41:15Z</time>
      </trkpt>
      <trkpt lat="45.91482" lon="6.51154">
        <ele>2337.294</ele>
        <time>2024-12-11T14:41:20Z</time>
      </trkpt>
      <trkpt lat="45.91476" lon="6.51146">
        <ele>2333.637</ele>
        <time>2024-12-11T14:41:25Z</time>
      </trkpt>
      <trkpt lat="45.91476" lon="6.51146">
        <ele>2335.579</ele>
        <time>2024-12-11T14:41:30Z</time>
      </trkpt>
      <trkpt lat="45.91476" lon="6.51146">
        <ele>2334.964</ele>
        <time>2024-12-11T14:41:35Z</time>
      </trkpt>
      <trkpt lat="45.91476" lon="6.51146">
        <ele>2332.657</ele>
        <time>2024-12-11T14:41:40Z</time>
      </trkpt>
      <trkpt lat="45.91476" lon="6.51146">
        <ele>2332.914</ele>
        <time>2024-12-11T14:41:45Z</time>
      </trkpt>
      <trkpt lat="45.91476" lon="6.51146">
        <ele>2332.377</ele>
        <time>2024-12-11T14:41:50Z</time>
      </trkpt>
      <trkpt lat="45.91476" lon="6.51146">
        <ele>2332.615</ele>
        <time>2024-12-11T14:41:55Z</time>
      </trkpt>
      <trkpt lat="45.91487" lon="6.51138">
        <ele>2331.769</ele>
        <time>2024-12-11T14:42:00Z</time>
      </trkpt>
      <trkpt lat="45.91486" lon="6.51135">
        <ele>2330.467</ele>
        <time>2024-12-11T14:42:05Z</time>
      </trkpt>
      <trkpt lat="45.91487" lon="6.51131">
        <ele>2328.294</ele>
        <time>2024-12-11T14:42:10Z</time>
      </trkpt>
      <trkpt lat="45.91487" lon="6.5113">
        <ele>2326.775</ele>
        <time>2024-12-11T14:42:15Z</time>
      </trkpt>
      <trkpt lat="45.91486" lon="6.51128">
        <ele>2326.814</ele>
        <time>2024-12-11T14:42:20Z</time>
      </trkpt>
      <trkpt lat="45.91486" lon="6.51127">
        <ele>2326.529</ele>
        <time>2024-12-11T14:42:25Z</time>
      </trkpt>
      <trkpt lat="45.91486" lon="6.51127">
        <ele>2324.391</ele>
        <time>2024-12-11T14:42:30Z</time>
      </trkpt>
      <trkpt lat="45.91486" lon="6.51127">
        <ele>2324.818</ele>
        <time>2024-12-11T14:42:35Z</time>
      </trkpt>
      <trkpt lat="45.91486" lon="6.51127">
        <ele>2324.849</ele>
        <time>2024-12-11T14:42:40Z</time>
      </trkpt>
      <trkpt lat="45.91486" lon="6.51127">
        <ele>2324.834</ele>
        <time>2024-12-11T14:42:45Z</time>
      </trkpt>
      <trkpt lat="45.91486" lon="6.51127">
        <ele>2325.585</ele>
        <time>2024-12-11T14:42:50Z</time>
      </trkpt>
      <trkpt lat="45.91486" lon="6.51127">
        <ele>2326.861</ele>
        <time>2024-12-11T14:42:55Z</time>
      </trkpt>
      <trkpt lat="45.91486" lon="6.51127">
        <ele>2328.631</ele>
        <time>2024-12-11T14:43:00Z</time>
      </trkpt>
      <trkpt lat="45.91486" lon="6.51127">
        <ele>2330.198</ele>
        <time>2024-12-11T14:43:05Z</time>
      </trkpt>
      <trkpt lat="45.91486" lon="6.51127">
        <ele>2330.043</ele>
        <time>2024-12-11T14:43:10Z</time>
      </trkpt>
      <trkpt lat="45.91486" lon="6.51127">
        <ele>2329.995</ele>
        <time>2024-12-11T14:43:15Z</time>
      </trkpt>
      <trkpt lat="45.91486" lon="6.51127">
        <ele>2329.518</ele>
        <time>2024-12-11T14:43:20Z</time>
      </trkpt>
      <trkpt lat="45.91486" lon="6.51127">
        <ele>2333.421</ele>
        <time>2024-12-11T14:43:25Z</time>
      </trkpt>
      <trkpt lat="45.91486" lon="6.51127">
        <ele>2331.702</ele>
        <time>2024-12-11T14:43:30Z</time>
      </trkpt>
      <trkpt lat="45.9149" lon="6.51121">
        <ele>2329.507</ele>
        <time>2024-12-11T14:43:35Z</time>
      </trkpt>
      <trkpt lat="45.9149" lon="6.51118">
        <ele>2329.209</ele>
        <time>2024-12-11T14:43:40Z</time>
      </trkpt>
      <trkpt lat="45.91492" lon="6.51111">
        <ele>2327.315</ele>
        <time>2024-12-11T14:43:45Z</time>
      </trkpt>
      <trkpt lat="45.91495" lon="6.51109">
        <ele>2322.498</ele>
        <time>2024-12-11T14:43:50Z</time>
      </trkpt>
      <trkpt lat="45.91495" lon="6.51109">
        <ele>2323.203</ele>
        <time>2024-12-11T14:43:55Z</time>
      </trkpt>
      <trkpt lat="45.91495" lon="6.51109">
        <ele>2323.596</ele>
        <time>2024-12-11T14:44:00Z</time>
      </trkpt>
      <trkpt lat="45.91494" lon="6.51108">
        <ele>2322.349</ele>
        <time>2024-12-11T14:44:05Z</time>
      </trkpt>
      <trkpt lat="45.91494" lon="6.51106">
        <ele>2322.002</ele>
        <time>2024-12-11T14:44:10Z</time>
      </trkpt>
      <trkpt lat="45.915" lon="6.51077">
        <ele>2315.539</ele>
        <time>2024-12-11T14:44:15Z</time>
      </trkpt>
      <trkpt lat="45.91505" lon="6.5107">
        <ele>2317.934</ele>
        <time>2024-12-11T14:44:20Z</time>
      </trkpt>
      <trkpt lat="45.91504" lon="6.51069">
        <ele>2314.684</ele>
        <time>2024-12-11T14:44:25Z</time>
      </trkpt>
      <trkpt lat="45.91505" lon="6.51067">
        <ele>2315.772</ele>
        <time>2024-12-11T14:44:30Z</time>
      </trkpt>
      <trkpt lat="45.91505" lon="6.51067">
        <ele>2315.669</ele>
        <time>2024-12-11T14:44:35Z</time>
      </trkpt>
      <trkpt lat="45.91505" lon="6.51067">
        <ele>2316.255</ele>
        <time>2024-12-11T14:44:40Z</time>
      </trkpt>
      <trkpt lat="45.91505" lon="6.51067">
        <ele>2316.328</ele>
        <time>2024-12-11T14:44:45Z</time>
      </trkpt>
      <trkpt lat="45.91505" lon="6.51067">
        <ele>2316.467</ele>
        <time>2024-12-11T14:44:50Z</time>
      </trkpt>
      <trkpt lat="45.91505" lon="6.51067">
        <ele>2316.387</ele>
        <time>2024-12-11T14:44:55Z</time>
      </trkpt>
      <trkpt lat="45.91505" lon="6.51067">
        <ele>2316.313</ele>
        <time>2024-12-11T14:45:00Z</time>
      </trkpt>
      <trkpt lat="45.91505" lon="6.51067">
        <ele>2316.264</ele>
        <time>2024-12-11T14:45:05Z</time>
      </trkpt>
      <trkpt lat="45.91505" lon="6.51067">
        <ele>2315.975</ele>
        <time>2024-12-11T14:45:10Z</time>
      </trkpt>
      <trkpt lat="45.91505" lon="6.51067">
        <ele>2315.594</ele>
        <time>2024-12-11T14:45:15Z</time>
      </trkpt>
      <trkpt lat="45.91505" lon="6.51067">
        <ele>2315.412</ele>
        <time>2024-12-11T14:45:20Z</time>
      </trkpt>
      <trkpt lat="45.91505" lon="6.51067">
        <ele>2315.381</ele>
        <time>2024-12-11T14:45:25Z</time>
      </trkpt>
      <trkpt lat="45.91505" lon="6.51067">
        <ele>2315.377</ele>
        <time>2024-12-11T14:45:30Z</time>
      </trkpt>
      <trkpt lat="45.91505" lon="6.51067">
        <ele>2315.353</ele>
        <time>2024-12-11T14:45:35Z</time>
      </trkpt>
      <trkpt lat="45.91505" lon="6.51067">
        <ele>2315.344</ele>
        <time>2024-12-11T14:45:40Z</time>
      </trkpt>
      <trkpt lat="45.91505" lon="6.51067">
        <ele>2315.319</ele>
        <time>2024-12-11T14:45:45Z</time>
      </trkpt>
      <trkpt lat="45.91505" lon="6.51067">
        <ele>2315.318</ele>
        <time>2024-12-11T14:45:50Z</time>
      </trkpt>
      <trkpt lat="45.91505" lon="6.51067">
        <ele>2315.325</ele>
        <time>2024-12-11T14:45:55Z</time>
      </trkpt>
      <trkpt lat="45.91505" lon="6.51067">
        <ele>2315.33</ele>
        <time>2024-12-11T14:46:00Z</time>
      </trkpt>
      <trkpt lat="45.91505" lon="6.51067">
        <ele>2315.346</ele>
        <time>2024-12-11T14:46:05Z</time>
      </trkpt>
      <trkpt lat="45.91505" lon="6.51067">
        <ele>2315.346</ele>
        <time>2024-12-11T14:46:10Z</time>
      </trkpt>
      <trkpt lat="45.91505" lon="6.51067">
        <ele>2315.294</ele>
        <time>2024-12-11T14:46:15Z</time>
      </trkpt>
      <trkpt lat="45.91505" lon="6.51067">
        <ele>2315.285</ele>
        <time>2024-12-11T14:46:20Z</time>
      </trkpt>
      <trkpt lat="45.91505" lon="6.51067">
        <ele>2315.272</ele>
        <time>2024-12-11T14:46:25Z</time>
      </trkpt>
      <trkpt lat="45.91505" lon="6.51067">
        <ele>2315.262</ele>
        <time>2024-12-11T14:46:30Z</time>
      </trkpt>
      <trkpt lat="45.91505" lon="6.51067">
        <ele>2315.254</ele>
        <time>2024-12-11T14:46:35Z</time>
      </trkpt>
      <trkpt lat="45.91505" lon="6.51067">
        <ele>2315.242</ele>
        <time>2024-12-11T14:46:40Z</time>
      </trkpt>
      <trkpt lat="45.91505" lon="6.51067">
        <ele>2315.231</ele>
        <time>2024-12-11T14:46:45Z</time>
      </trkpt>
      <trkpt lat="45.91505" lon="6.51067">
        <ele>2315.22</ele>
        <time>2024-12-11T14:46:50Z</time>
      </trkpt>
      <trkpt lat="45.91505" lon="6.51067">
        <ele>2315.218</ele>
        <time>2024-12-11T14:46:55Z</time>
      </trkpt>
      <trkpt lat="45.91505" lon="6.51067">
        <ele>2315.214</ele>
        <time>2024-12-11T14:47:00Z</time>
      </trkpt>
      <trkpt lat="45.91505" lon="6.51067">
        <ele>2315.198</ele>
        <time>2024-12-11T14:47:05Z</time>
      </trkpt>
      <trkpt lat="45.91505" lon="6.51067">
        <ele>2315.191</ele>
        <time>2024-12-11T14:47:10Z</time>
      </trkpt>
      <trkpt lat="45.91505" lon="6.51067">
        <ele>2315.188</ele>
        <time>2024-12-11T14:47:15Z</time>
      </trkpt>
      <trkpt lat="45.91505" lon="6.51067">
        <ele>2315.181</ele>
        <time>2024-12-11T14:47:20Z</time>
      </trkpt>
      <trkpt lat="45.91505" lon="6.51067">
        <ele>2315.171</ele>
        <time>2024-12-11T14:47:25Z</time>
      </trkpt>
      <trkpt lat="45.91505" lon="6.51067">
        <ele>2315.16</ele>
        <time>2024-12-11T14:47:30Z</time>
      </trkpt>
      <trkpt lat="45.91505" lon="6.51067">
        <ele>2315.155</ele>
        <time>2024-12-11T14:47:35Z</time>
      </trkpt>
      <trkpt lat="45.91505" lon="6.51067">
        <ele>2315.153</ele>
        <time>2024-12-11T14:47:40Z</time>
      </trkpt>
      <trkpt lat="45.91505" lon="6.51067">
        <ele>2315.148</ele>
        <time>2024-12-11T14:47:45Z</time>
      </trkpt>
      <trkpt lat="45.91505" lon="6.51067">
        <ele>2315.147</ele>
        <time>2024-12-11T14:47:50Z</time>
      </trkpt>
      <trkpt lat="45.91505" lon="6.51067">
        <ele>2315.143</ele>
        <time>2024-12-11T14:47:55Z</time>
      </trkpt>
      <trkpt lat="45.91505" lon="6.51067">
        <ele>2315.131</ele>
        <time>2024-12-11T14:48:00Z</time>
      </trkpt>
      <trkpt lat="45.91505" lon="6.51067">
        <ele>2315.108</ele>
        <time>2024-12-11T14:48:05Z</time>
      </trkpt>
      <trkpt lat="45.91505" lon="6.51067">
        <ele>2315.083</ele>
        <time>2024-12-11T14:48:10Z</time>
      </trkpt>
      <trkpt lat="45.91505" lon="6.51067">
        <ele>2315.073</ele>
        <time>2024-12-11T14:48:15Z</time>
      </trkpt>
      <trkpt lat="45.91505" lon="6.51067">
        <ele>2315.08</ele>
        <time>2024-12-11T14:48:20Z</time>
      </trkpt>
      <trkpt lat="45.91505" lon="6.51067">
        <ele>2315.077</ele>
        <time>2024-12-11T14:48:25Z</time>
      </trkpt>
      <trkpt lat="45.91508" lon="6.5107">
        <ele>2315.079</ele>
        <time>2024-12-11T14:48:30Z</time>
      </trkpt>
      <trkpt lat="45.91508" lon="6.5107">
        <ele>2315.074</ele>
        <time>2024-12-11T14:48:35Z</time>
      </trkpt>
      <trkpt lat="45.91508" lon="6.5107">
        <ele>2315.079</ele>
        <time>2024-12-11T14:48:40Z</time>
      </trkpt>
      <trkpt lat="45.91508" lon="6.5107">
        <ele>2315.081</ele>
        <time>2024-12-11T14:48:45Z</time>
      </trkpt>
      <trkpt lat="45.91508" lon="6.5107">
        <ele>2315.077</ele>
        <time>2024-12-11T14:48:50Z</time>
      </trkpt>
      <trkpt lat="45.91508" lon="6.5107">
        <ele>2315.065</ele>
        <time>2024-12-11T14:48:55Z</time>
      </trkpt>
      <trkpt lat="45.91509" lon="6.5107">
        <ele>2315.063</ele>
        <time>2024-12-11T14:49:00Z</time>
      </trkpt>
      <trkpt lat="45.91509" lon="6.51071">
        <ele>2315.76</ele>
        <time>2024-12-11T14:49:05Z</time>
      </trkpt>
      <trkpt lat="45.91513" lon="6.5107">
        <ele>2315.74</ele>
        <time>2024-12-11T14:49:10Z</time>
      </trkpt>
      <trkpt lat="45.91523" lon="6.5107">
        <ele>2313.387</ele>
        <time>2024-12-11T14:49:15Z</time>
      </trkpt>
      <trkpt lat="45.91526" lon="6.5107">
        <ele>2312.608</ele>
        <time>2024-12-11T14:49:20Z</time>
      </trkpt>
      <trkpt lat="45.91527" lon="6.5107">
        <ele>2312.088</ele>
        <time>2024-12-11T14:49:25Z</time>
      </trkpt>
      <trkpt lat="45.91531" lon="6.51069">
        <ele>2311.017</ele>
        <time>2024-12-11T14:49:30Z</time>
      </trkpt>
      <trkpt lat="45.91531" lon="6.51069">
        <ele>2310.928</ele>
        <time>2024-12-11T14:49:35Z</time>
      </trkpt>
      <trkpt lat="45.91532" lon="6.51068">
        <ele>2310.276</ele>
        <time>2024-12-11T14:49:40Z</time>
      </trkpt>
      <trkpt lat="45.91534" lon="6.51069">
        <ele>2307.599</ele>
        <time>2024-12-11T14:49:45Z</time>
      </trkpt>
      <trkpt lat="45.91541" lon="6.51073">
        <ele>2300.364</ele>
        <time>2024-12-11T14:49:50Z</time>
      </trkpt>
      <trkpt lat="45.91549" lon="6.51075">
        <ele>2297.267</ele>
        <time>2024-12-11T14:49:55Z</time>
      </trkpt>
      <trkpt lat="45.9155" lon="6.51074">
        <ele>2301.851</ele>
        <time>2024-12-11T14:50:00Z</time>
      </trkpt>
      <trkpt lat="45.91555" lon="6.51068">
        <ele>2304.294</ele>
        <time>2024-12-11T14:50:05Z</time>
      </trkpt>
      <trkpt lat="45.91552" lon="6.51048">
        <ele>2297.878</ele>
        <time>2024-12-11T14:50:10Z</time>
      </trkpt>
      <trkpt lat="45.91549" lon="6.51037">
        <ele>2295.809</ele>
        <time>2024-12-11T14:50:15Z</time>
      </trkpt>
      <trkpt lat="45.91553" lon="6.51036">
        <ele>2295.039</ele>
        <time>2024-12-11T14:50:20Z</time>
      </trkpt>
      <trkpt lat="45.91555" lon="6.51032">
        <ele>2294.023</ele>
        <time>2024-12-11T14:50:25Z</time>
      </trkpt>
      <trkpt lat="45.91561" lon="6.51019">
        <ele>2290.632</ele>
        <time>2024-12-11T14:50:30Z</time>
      </trkpt>
      <trkpt lat="45.91562" lon="6.51019">
        <ele>2291.121</ele>
        <time>2024-12-11T14:50:35Z</time>
      </trkpt>
      <trkpt lat="45.91562" lon="6.51019">
        <ele>2291.329</ele>
        <time>2024-12-11T14:50:40Z</time>
      </trkpt>
      <trkpt lat="45.91558" lon="6.5101">
        <ele>2287.716</ele>
        <time>2024-12-11T14:50:45Z</time>
      </trkpt>
      <trkpt lat="45.91563" lon="6.51002">
        <ele>2284.169</ele>
        <time>2024-12-11T14:50:50Z</time>
      </trkpt>
      <trkpt lat="45.91566" lon="6.51002">
        <ele>2283.236</ele>
        <time>2024-12-11T14:50:55Z</time>
      </trkpt>
      <trkpt lat="45.91573" lon="6.50997">
        <ele>2280.073</ele>
        <time>2024-12-11T14:51:00Z</time>
      </trkpt>
      <trkpt lat="45.91584" lon="6.50989">
        <ele>2279.285</ele>
        <time>2024-12-11T14:51:05Z</time>
      </trkpt>
      <trkpt lat="45.91592" lon="6.50981">
        <ele>2277.417</ele>
        <time>2024-12-11T14:51:10Z</time>
      </trkpt>
      <trkpt lat="45.91592" lon="6.5098">
        <ele>2278.345</ele>
        <time>2024-12-11T14:51:15Z</time>
      </trkpt>
      <trkpt lat="45.91597" lon="6.50972">
        <ele>2276.945</ele>
        <time>2024-12-11T14:51:20Z</time>
      </trkpt>
      <trkpt lat="45.91603" lon="6.50961">
        <ele>2276.183</ele>
        <time>2024-12-11T14:51:25Z</time>
      </trkpt>
      <trkpt lat="45.91606" lon="6.50962">
        <ele>2275.281</ele>
        <time>2024-12-11T14:51:30Z</time>
      </trkpt>
      <trkpt lat="45.91607" lon="6.50963">
        <ele>2272.61</ele>
        <time>2024-12-11T14:51:35Z</time>
      </trkpt>
      <trkpt lat="45.91615" lon="6.50954">
        <ele>2267.621</ele>
        <time>2024-12-11T14:51:40Z</time>
      </trkpt>
      <trkpt lat="45.91621" lon="6.5095">
        <ele>2266.832</ele>
        <time>2024-12-11T14:51:45Z</time>
      </trkpt>
      <trkpt lat="45.91625" lon="6.50947">
        <ele>2267.517</ele>
        <time>2024-12-11T14:51:50Z</time>
      </trkpt>
      <trkpt lat="45.91624" lon="6.50946">
        <ele>2267.967</ele>
        <time>2024-12-11T14:51:55Z</time>
      </trkpt>
      <trkpt lat="45.91626" lon="6.50931">
        <ele>2262.79</ele>
        <time>2024-12-11T14:52:00Z</time>
      </trkpt>
      <trkpt lat="45.91626" lon="6.50908">
        <ele>2260.692</ele>
        <time>2024-12-11T14:52:05Z</time>
      </trkpt>
      <trkpt lat="45.91618" lon="6.50893">
        <ele>2249.332</ele>
        <time>2024-12-11T14:52:10Z</time>
      </trkpt>
      <trkpt lat="45.91617" lon="6.50878">
        <ele>2238.873</ele>
        <time>2024-12-11T14:52:15Z</time>
      </trkpt>
      <trkpt lat="45.91622" lon="6.50874">
        <ele>2236.467</ele>
        <time>2024-12-11T14:52:20Z</time>
      </trkpt>
      <trkpt lat="45.91622" lon="6.50874">
        <ele>2234.489</ele>
        <time>2024-12-11T14:52:25Z</time>
      </trkpt>
      <trkpt lat="45.9162" lon="6.50871">
        <ele>2231.969</ele>
        <time>2024-12-11T14:52:30Z</time>
      </trkpt>
      <trkpt lat="45.91613" lon="6.50855">
        <ele>2222.25</ele>
        <time>2024-12-11T14:52:35Z</time>
      </trkpt>
      <trkpt lat="45.91603" lon="6.50835">
        <ele>2212.639</ele>
        <time>2024-12-11T14:52:40Z</time>
      </trkpt>
      <trkpt lat="45.91611" lon="6.50819">
        <ele>2208.152</ele>
        <time>2024-12-11T14:52:45Z</time>
      </trkpt>
      <trkpt lat="45.91621" lon="6.50809">
        <ele>2204.485</ele>
        <time>2024-12-11T14:52:50Z</time>
      </trkpt>
      <trkpt lat="45.9163" lon="6.508">
        <ele>2202.662</ele>
        <time>2024-12-11T14:52:55Z</time>
      </trkpt>
      <trkpt lat="45.91631" lon="6.508">
        <ele>2202.584</ele>
        <time>2024-12-11T14:53:00Z</time>
      </trkpt>
      <trkpt lat="45.91631" lon="6.508">
        <ele>2201.765</ele>
        <time>2024-12-11T14:53:05Z</time>
      </trkpt>
      <trkpt lat="45.91632" lon="6.50801">
        <ele>2201.223</ele>
        <time>2024-12-11T14:53:10Z</time>
      </trkpt>
      <trkpt lat="45.91634" lon="6.50799">
        <ele>2201.573</ele>
        <time>2024-12-11T14:53:15Z</time>
      </trkpt>
      <trkpt lat="45.91642" lon="6.50794">
        <ele>2198.794</ele>
        <time>2024-12-11T14:53:20Z</time>
      </trkpt>
      <trkpt lat="45.91651" lon="6.50791">
        <ele>2196.67</ele>
        <time>2024-12-11T14:53:25Z</time>
      </trkpt>
      <trkpt lat="45.91659" lon="6.50785">
        <ele>2195.963</ele>
        <time>2024-12-11T14:53:30Z</time>
      </trkpt>
      <trkpt lat="45.91668" lon="6.5078">
        <ele>2194.677</ele>
        <time>2024-12-11T14:53:35Z</time>
      </trkpt>
      <trkpt lat="45.91671" lon="6.50764">
        <ele>2190.458</ele>
        <time>2024-12-11T14:53:40Z</time>
      </trkpt>
      <trkpt lat="45.91679" lon="6.50748">
        <ele>2183.256</ele>
        <time>2024-12-11T14:53:45Z</time>
      </trkpt>
      <trkpt lat="45.91688" lon="6.5073">
        <ele>2174.304</ele>
        <time>2024-12-11T14:53:50Z</time>
      </trkpt>
      <trkpt lat="45.91705" lon="6.50718">
        <ele>2169.647</ele>
        <time>2024-12-11T14:53:55Z</time>
      </trkpt>
      <trkpt lat="45.91712" lon="6.50707">
        <ele>2168.067</ele>
        <time>2024-12-11T14:54:00Z</time>
      </trkpt>
      <trkpt lat="45.9172" lon="6.50687">
        <ele>2165.213</ele>
        <time>2024-12-11T14:54:05Z</time>
      </trkpt>
      <trkpt lat="45.91732" lon="6.50673">
        <ele>2163.141</ele>
        <time>2024-12-11T14:54:10Z</time>
      </trkpt>
      <trkpt lat="45.91733" lon="6.50676">
        <ele>2162.191</ele>
        <time>2024-12-11T14:54:15Z</time>
      </trkpt>
      <trkpt lat="45.91734" lon="6.50677">
        <ele>2162.033</ele>
        <time>2024-12-11T14:54:20Z</time>
      </trkpt>
      <trkpt lat="45.91734" lon="6.50677">
        <ele>2161.977</ele>
        <time>2024-12-11T14:54:25Z</time>
      </trkpt>
      <trkpt lat="45.91734" lon="6.50677">
        <ele>2161.966</ele>
        <time>2024-12-11T14:54:30Z</time>
      </trkpt>
      <trkpt lat="45.91734" lon="6.50677">
        <ele>2161.97</ele>
        <time>2024-12-11T14:54:35Z</time>
      </trkpt>
      <trkpt lat="45.91734" lon="6.50677">
        <ele>2161.966</ele>
        <time>2024-12-11T14:54:40Z</time>
      </trkpt>
      <trkpt lat="45.91734" lon="6.50677">
        <ele>2161.958</ele>
        <time>2024-12-11T14:54:45Z</time>
      </trkpt>
      <trkpt lat="45.91735" lon="6.50676">
        <ele>2161.312</ele>
        <time>2024-12-11T14:54:50Z</time>
      </trkpt>
      <trkpt lat="45.91741" lon="6.50674">
        <ele>2159.953</ele>
        <time>2024-12-11T14:54:55Z</time>
      </trkpt>
      <trkpt lat="45.91749" lon="6.50673">
        <ele>2158.729</ele>
        <time>2024-12-11T14:55:00Z</time>
      </trkpt>
      <trkpt lat="45.91754" lon="6.50672">
        <ele>2158.858</ele>
        <time>2024-12-11T14:55:05Z</time>
      </trkpt>
      <trkpt lat="45.91755" lon="6.50673">
        <ele>2156.981</ele>
        <time>2024-12-11T14:55:10Z</time>
      </trkpt>
      <trkpt lat="45.91758" lon="6.50663">
        <ele>2149.909</ele>
        <time>2024-12-11T14:55:15Z</time>
      </trkpt>
      <trkpt lat="45.91764" lon="6.50651">
        <ele>2144.493</ele>
        <time>2024-12-11T14:55:20Z</time>
      </trkpt>
      <trkpt lat="45.91772" lon="6.50642">
        <ele>2136.437</ele>
        <time>2024-12-11T14:55:25Z</time>
      </trkpt>
      <trkpt lat="45.91774" lon="6.50632">
        <ele>2132.011</ele>
        <time>2024-12-11T14:55:30Z</time>
      </trkpt>
      <trkpt lat="45.91774" lon="6.50632">
        <ele>2131.83</ele>
        <time>2024-12-11T14:55:35Z</time>
      </trkpt>
      <trkpt lat="45.91774" lon="6.50632">
        <ele>2130.712</ele>
        <time>2024-12-11T14:55:40Z</time>
      </trkpt>
      <trkpt lat="45.91774" lon="6.50632">
        <ele>2128.809</ele>
        <time>2024-12-11T14:55:45Z</time>
      </trkpt>
      <trkpt lat="45.91775" lon="6.50626">
        <ele>2125.376</ele>
        <time>2024-12-11T14:55:50Z</time>
      </trkpt>
      <trkpt lat="45.91783" lon="6.50619">
        <ele>2122.375</ele>
        <time>2024-12-11T14:55:55Z</time>
      </trkpt>
      <trkpt lat="45.91786" lon="6.50617">
        <ele>2121.1</ele>
        <time>2024-12-11T14:56:00Z</time>
      </trkpt>
      <trkpt lat="45.91786" lon="6.50617">
        <ele>2120.873</ele>
        <time>2024-12-11T14:56:05Z</time>
      </trkpt>
      <trkpt lat="45.9179" lon="6.50609">
        <ele>2120.122</ele>
        <time>2024-12-11T14:56:10Z</time>
      </trkpt>
      <trkpt lat="45.91784" lon="6.50584">
        <ele>2115.677</ele>
        <time>2024-12-11T14:56:15Z</time>
      </trkpt>
      <trkpt lat="45.91785" lon="6.50568">
        <ele>2108.624</ele>
        <time>2024-12-11T14:56:20Z</time>
      </trkpt>
      <trkpt lat="45.91788" lon="6.50552">
        <ele>2103.71</ele>
        <time>2024-12-11T14:56:25Z</time>
      </trkpt>
      <trkpt lat="45.91793" lon="6.50533">
        <ele>2095.409</ele>
        <time>2024-12-11T14:56:30Z</time>
      </trkpt>
      <trkpt lat="45.91802" lon="6.50528">
        <ele>2092.735</ele>
        <time>2024-12-11T14:56:35Z</time>
      </trkpt>
      <trkpt lat="45.91804" lon="6.50526">
        <ele>2091.217</ele>
        <time>2024-12-11T14:56:40Z</time>
      </trkpt>
      <trkpt lat="45.91804" lon="6.50526">
        <ele>2090.635</ele>
        <time>2024-12-11T14:56:45Z</time>
      </trkpt>
      <trkpt lat="45.91804" lon="6.50526">
        <ele>2090.078</ele>
        <time>2024-12-11T14:56:50Z</time>
      </trkpt>
      <trkpt lat="45.91804" lon="6.50526">
        <ele>2090.057</ele>
        <time>2024-12-11T14:56:55Z</time>
      </trkpt>
      <trkpt lat="45.91804" lon="6.50526">
        <ele>2090.037</ele>
        <time>2024-12-11T14:57:00Z</time>
      </trkpt>
      <trkpt lat="45.91804" lon="6.50526">
        <ele>2090.055</ele>
        <time>2024-12-11T14:57:05Z</time>
      </trkpt>
      <trkpt lat="45.91804" lon="6.50526">
        <ele>2090.063</ele>
        <time>2024-12-11T14:57:10Z</time>
      </trkpt>
      <trkpt lat="45.91804" lon="6.50526">
        <ele>2090.057</ele>
        <time>2024-12-11T14:57:15Z</time>
      </trkpt>
      <trkpt lat="45.91804" lon="6.50526">
        <ele>2090.049</ele>
        <time>2024-12-11T14:57:20Z</time>
      </trkpt>
      <trkpt lat="45.91804" lon="6.50526">
        <ele>2090.048</ele>
        <time>2024-12-11T14:57:25Z</time>
      </trkpt>
      <trkpt lat="45.91804" lon="6.50526">
        <ele>2090.041</ele>
        <time>2024-12-11T14:57:30Z</time>
      </trkpt>
      <trkpt lat="45.91804" lon="6.50526">
        <ele>2090.035</ele>
        <time>2024-12-11T14:57:35Z</time>
      </trkpt>
      <trkpt lat="45.91804" lon="6.50526">
        <ele>2090.024</ele>
        <time>2024-12-11T14:57:40Z</time>
      </trkpt>
      <trkpt lat="45.91806" lon="6.50524">
        <ele>2088.675</ele>
        <time>2024-12-11T14:57:45Z</time>
      </trkpt>
      <trkpt lat="45.91805" lon="6.50504">
        <ele>2082.002</ele>
        <time>2024-12-11T14:57:50Z</time>
      </trkpt>
      <trkpt lat="45.91797" lon="6.50486">
        <ele>2074.219</ele>
        <time>2024-12-11T14:57:55Z</time>
      </trkpt>
      <trkpt lat="45.91791" lon="6.50474">
        <ele>2065.884</ele>
        <time>2024-12-11T14:58:00Z</time>
      </trkpt>
      <trkpt lat="45.91791" lon="6.50474">
        <ele>2065.1</ele>
        <time>2024-12-11T14:58:05Z</time>
      </trkpt>
      <trkpt lat="45.91791" lon="6.50474">
        <ele>2064.187</ele>
        <time>2024-12-11T14:58:10Z</time>
      </trkpt>
      <trkpt lat="45.918" lon="6.50471">
        <ele>2062.734</ele>
        <time>2024-12-11T14:58:15Z</time>
      </trkpt>
      <trkpt lat="45.91804" lon="6.50463">
        <ele>2058.224</ele>
        <time>2024-12-11T14:58:20Z</time>
      </trkpt>
      <trkpt lat="45.91799" lon="6.50444">
        <ele>2050.769</ele>
        <time>2024-12-11T14:58:25Z</time>
      </trkpt>
      <trkpt lat="45.91796" lon="6.50425">
        <ele>2044.314</ele>
        <time>2024-12-11T14:58:30Z</time>
      </trkpt>
      <trkpt lat="45.91793" lon="6.50407">
        <ele>2034.697</ele>
        <time>2024-12-11T14:58:35Z</time>
      </trkpt>
      <trkpt lat="45.91793" lon="6.50407">
        <ele>2031.552</ele>
        <time>2024-12-11T14:58:40Z</time>
      </trkpt>
      <trkpt lat="45.91793" lon="6.50407">
        <ele>2029.897</ele>
        <time>2024-12-11T14:58:45Z</time>
      </trkpt>
      <trkpt lat="45.91793" lon="6.50407">
        <ele>2029.76</ele>
        <time>2024-12-11T14:58:50Z</time>
      </trkpt>
      <trkpt lat="45.91788" lon="6.50399">
        <ele>2027.577</ele>
        <time>2024-12-11T14:58:55Z</time>
      </trkpt>
      <trkpt lat="45.91783" lon="6.50382">
        <ele>2017.773</ele>
        <time>2024-12-11T14:59:00Z</time>
      </trkpt>
      <trkpt lat="45.91786" lon="6.50376">
        <ele>2015.521</ele>
        <time>2024-12-11T14:59:05Z</time>
      </trkpt>
      <trkpt lat="45.91789" lon="6.5038">
        <ele>2015.455</ele>
        <time>2024-12-11T14:59:10Z</time>
      </trkpt>
      <trkpt lat="45.91789" lon="6.5038">
        <ele>2015.322</ele>
        <time>2024-12-11T14:59:15Z</time>
      </trkpt>
      <trkpt lat="45.91789" lon="6.5038">
        <ele>2015.283</ele>
        <time>2024-12-11T14:59:20Z</time>
      </trkpt>
      <trkpt lat="45.91789" lon="6.5038">
        <ele>2015.271</ele>
        <time>2024-12-11T14:59:25Z</time>
      </trkpt>
      <trkpt lat="45.91789" lon="6.5038">
        <ele>2015.273</ele>
        <time>2024-12-11T14:59:30Z</time>
      </trkpt>
      <trkpt lat="45.91789" lon="6.5038">
        <ele>2015.003</ele>
        <time>2024-12-11T14:59:35Z</time>
      </trkpt>
      <trkpt lat="45.91788" lon="6.50366">
        <ele>2009.057</ele>
        <time>2024-12-11T14:59:40Z</time>
      </trkpt>
      <trkpt lat="45.9179" lon="6.50356">
        <ele>2003.974</ele>
        <time>2024-12-11T14:59:45Z</time>
      </trkpt>
      <trkpt lat="45.91788" lon="6.5034">
        <ele>1995.923</ele>
        <time>2024-12-11T14:59:50Z</time>
      </trkpt>
      <trkpt lat="45.9179" lon="6.50327">
        <ele>1988.202</ele>
        <time>2024-12-11T14:59:55Z</time>
      </trkpt>
      <trkpt lat="45.91789" lon="6.50307">
        <ele>1982.59</ele>
        <time>2024-12-11T15:00:00Z</time>
      </trkpt>
      <trkpt lat="45.91794" lon="6.50299">
        <ele>1975.841</ele>
        <time>2024-12-11T15:00:05Z</time>
      </trkpt>
      <trkpt lat="45.91794" lon="6.50299">
        <ele>1975.469</ele>
        <time>2024-12-11T15:00:10Z</time>
      </trkpt>
      <trkpt lat="45.91794" lon="6.50299">
        <ele>1975.621</ele>
        <time>2024-12-11T15:00:15Z</time>
      </trkpt>
      <trkpt lat="45.91794" lon="6.50299">
        <ele>1975.627</ele>
        <time>2024-12-11T15:00:20Z</time>
      </trkpt>
      <trkpt lat="45.91801" lon="6.50296">
        <ele>1972.767</ele>
        <time>2024-12-11T15:00:25Z</time>
      </trkpt>
      <trkpt lat="45.91808" lon="6.50283">
        <ele>1967.919</ele>
        <time>2024-12-11T15:00:30Z</time>
      </trkpt>
      <trkpt lat="45.91808" lon="6.5026">
        <ele>1960.726</ele>
        <time>2024-12-11T15:00:35Z</time>
      </trkpt>
      <trkpt lat="45.91814" lon="6.50243">
        <ele>1954.812</ele>
        <time>2024-12-11T15:00:40Z</time>
      </trkpt>
      <trkpt lat="45.91815" lon="6.5025">
        <ele>1952.9</ele>
        <time>2024-12-11T15:00:45Z</time>
      </trkpt>
      <trkpt lat="45.91819" lon="6.50251">
        <ele>1951.19</ele>
        <time>2024-12-11T15:00:50Z</time>
      </trkpt>
      <trkpt lat="45.91824" lon="6.50253">
        <ele>1949.809</ele>
        <time>2024-12-11T15:00:55Z</time>
      </trkpt>
      <trkpt lat="45.91829" lon="6.50255">
        <ele>1948.827</ele>
        <time>2024-12-11T15:01:00Z</time>
      </trkpt>
      <trkpt lat="45.91831" lon="6.50257">
        <ele>1947.936</ele>
        <time>2024-12-11T15:01:05Z</time>
      </trkpt>
      <trkpt lat="45.91831" lon="6.50257">
        <ele>1948.555</ele>
        <time>2024-12-11T15:01:10Z</time>
      </trkpt>
      <trkpt lat="45.91831" lon="6.50257">
        <ele>1948.654</ele>
        <time>2024-12-11T15:01:15Z</time>
      </trkpt>
      <trkpt lat="45.91838" lon="6.50254">
        <ele>1943.338</ele>
        <time>2024-12-11T15:01:20Z</time>
      </trkpt>
      <trkpt lat="45.91849" lon="6.50234">
        <ele>1937.767</ele>
        <time>2024-12-11T15:01:25Z</time>
      </trkpt>
      <trkpt lat="45.91859" lon="6.5023">
        <ele>1928.622</ele>
        <time>2024-12-11T15:01:30Z</time>
      </trkpt>
      <trkpt lat="45.91859" lon="6.50214">
        <ele>1922.571</ele>
        <time>2024-12-11T15:01:35Z</time>
      </trkpt>
      <trkpt lat="45.91861" lon="6.50202">
        <ele>1915.973</ele>
        <time>2024-12-11T15:01:40Z</time>
      </trkpt>
      <trkpt lat="45.91864" lon="6.50201">
        <ele>1914.414</ele>
        <time>2024-12-11T15:01:45Z</time>
      </trkpt>
      <trkpt lat="45.91864" lon="6.50201">
        <ele>1913.234</ele>
        <time>2024-12-11T15:01:50Z</time>
      </trkpt>
      <trkpt lat="45.91864" lon="6.50201">
        <ele>1909.464</ele>
        <time>2024-12-11T15:01:55Z</time>
      </trkpt>
      <trkpt lat="45.91864" lon="6.50201">
        <ele>1908.759</ele>
        <time>2024-12-11T15:02:00Z</time>
      </trkpt>
      <trkpt lat="45.91864" lon="6.50201">
        <ele>1908.814</ele>
        <time>2024-12-11T15:02:05Z</time>
      </trkpt>
      <trkpt lat="45.91864" lon="6.50201">
        <ele>1908.735</ele>
        <time>2024-12-11T15:02:10Z</time>
      </trkpt>
      <trkpt lat="45.91864" lon="6.50201">
        <ele>1908.709</ele>
        <time>2024-12-11T15:02:15Z</time>
      </trkpt>
      <trkpt lat="45.91864" lon="6.50201">
        <ele>1908.705</ele>
        <time>2024-12-11T15:02:20Z</time>
      </trkpt>
      <trkpt lat="45.91864" lon="6.50201">
        <ele>1908.699</ele>
        <time>2024-12-11T15:02:25Z</time>
      </trkpt>
      <trkpt lat="45.91864" lon="6.50201">
        <ele>1908.692</ele>
        <time>2024-12-11T15:02:30Z</time>
      </trkpt>
      <trkpt lat="45.91864" lon="6.50201">
        <ele>1908.684</ele>
        <time>2024-12-11T15:02:35Z</time>
      </trkpt>
      <trkpt lat="45.91863" lon="6.50186">
        <ele>1906.514</ele>
        <time>2024-12-11T15:02:40Z</time>
      </trkpt>
      <trkpt lat="45.91869" lon="6.5017">
        <ele>1900.983</ele>
        <time>2024-12-11T15:02:45Z</time>
      </trkpt>
      <trkpt lat="45.91869" lon="6.50171">
        <ele>1900.237</ele>
        <time>2024-12-11T15:02:50Z</time>
      </trkpt>
      <trkpt lat="45.91867" lon="6.50172">
        <ele>1899.316</ele>
        <time>2024-12-11T15:02:55Z</time>
      </trkpt>
      <trkpt lat="45.91862" lon="6.50161">
        <ele>1893.003</ele>
        <time>2024-12-11T15:03:00Z</time>
      </trkpt>
      <trkpt lat="45.91859" lon="6.50148">
        <ele>1889.936</ele>
        <time>2024-12-11T15:03:05Z</time>
      </trkpt>
      <trkpt lat="45.9185" lon="6.50139">
        <ele>1888.182</ele>
        <time>2024-12-11T15:03:10Z</time>
      </trkpt>
      <trkpt lat="45.91855" lon="6.50135">
        <ele>1887.406</ele>
        <time>2024-12-11T15:03:15Z</time>
      </trkpt>
      <trkpt lat="45.91863" lon="6.50135">
        <ele>1882.58</ele>
        <time>2024-12-11T15:03:20Z</time>
      </trkpt>
      <trkpt lat="45.91859" lon="6.5012">
        <ele>1879.497</ele>
        <time>2024-12-11T15:03:25Z</time>
      </trkpt>
      <trkpt lat="45.91862" lon="6.50108">
        <ele>1876.055</ele>
        <time>2024-12-11T15:03:30Z</time>
      </trkpt>
      <trkpt lat="45.91862" lon="6.50097">
        <ele>1872.266</ele>
        <time>2024-12-11T15:03:35Z</time>
      </trkpt>
      <trkpt lat="45.9187" lon="6.50102">
        <ele>1870.505</ele>
        <time>2024-12-11T15:03:40Z</time>
      </trkpt>
      <trkpt lat="45.91875" lon="6.50104">
        <ele>1870.54</ele>
        <time>2024-12-11T15:03:45Z</time>
      </trkpt>
      <trkpt lat="45.91872" lon="6.50093">
        <ele>1865.64</ele>
        <time>2024-12-11T15:03:50Z</time>
      </trkpt>
      <trkpt lat="45.91875" lon="6.50089">
        <ele>1864.671</ele>
        <time>2024-12-11T15:03:55Z</time>
      </trkpt>
      <trkpt lat="45.91873" lon="6.50079">
        <ele>1860.986</ele>
        <time>2024-12-11T15:04:00Z</time>
      </trkpt>
      <trkpt lat="45.91873" lon="6.5007">
        <ele>1858.73</ele>
        <time>2024-12-11T15:04:05Z</time>
      </trkpt>
      <trkpt lat="45.91877" lon="6.50059">
        <ele>1853.117</ele>
        <time>2024-12-11T15:04:10Z</time>
      </trkpt>
      <trkpt lat="45.91883" lon="6.50048">
        <ele>1849.476</ele>
        <time>2024-12-11T15:04:15Z</time>
      </trkpt>
      <trkpt lat="45.91885" lon="6.50037">
        <ele>1843.971</ele>
        <time>2024-12-11T15:04:20Z</time>
      </trkpt>
      <trkpt lat="45.9188" lon="6.50024">
        <ele>1841.145</ele>
        <time>2024-12-11T15:04:25Z</time>
      </trkpt>
      <trkpt lat="45.9188" lon="6.50024">
        <ele>1839.355</ele>
        <time>2024-12-11T15:04:30Z</time>
      </trkpt>
      <trkpt lat="45.91887" lon="6.50024">
        <ele>1838.137</ele>
        <time>2024-12-11T15:04:35Z</time>
      </trkpt>
      <trkpt lat="45.91893" lon="6.50026">
        <ele>1835.024</ele>
        <time>2024-12-11T15:04:40Z</time>
      </trkpt>
      <trkpt lat="45.91894" lon="6.50014">
        <ele>1831.021</ele>
        <time>2024-12-11T15:04:45Z</time>
      </trkpt>
      <trkpt lat="45.91898" lon="6.49998">
        <ele>1828.261</ele>
        <time>2024-12-11T15:04:50Z</time>
      </trkpt>
      <trkpt lat="45.91907" lon="6.49998">
        <ele>1824.641</ele>
        <time>2024-12-11T15:04:55Z</time>
      </trkpt>
      <trkpt lat="45.91908" lon="6.49988">
        <ele>1820.995</ele>
        <time>2024-12-11T15:05:00Z</time>
      </trkpt>
      <trkpt lat="45.91909" lon="6.49988">
        <ele>1818.391</ele>
        <time>2024-12-11T15:05:05Z</time>
      </trkpt>
      <trkpt lat="45.91909" lon="6.49988">
        <ele>1818.325</ele>
        <time>2024-12-11T15:05:10Z</time>
      </trkpt>
      <trkpt lat="45.91909" lon="6.49988">
        <ele>1818.23</ele>
        <time>2024-12-11T15:05:15Z</time>
      </trkpt>
      <trkpt lat="45.9191" lon="6.4999">
        <ele>1818.022</ele>
        <time>2024-12-11T15:05:20Z</time>
      </trkpt>
      <trkpt lat="45.91918" lon="6.4999">
        <ele>1813.257</ele>
        <time>2024-12-11T15:05:25Z</time>
      </trkpt>
      <trkpt lat="45.9192" lon="6.49972">
        <ele>1811.306</ele>
        <time>2024-12-11T15:05:30Z</time>
      </trkpt>
      <trkpt lat="45.9193" lon="6.49974">
        <ele>1806.43</ele>
        <time>2024-12-11T15:05:35Z</time>
      </trkpt>
      <trkpt lat="45.91935" lon="6.49983">
        <ele>1804.908</ele>
        <time>2024-12-11T15:05:40Z</time>
      </trkpt>
      <trkpt lat="45.91941" lon="6.49971">
        <ele>1802.233</ele>
        <time>2024-12-11T15:05:45Z</time>
      </trkpt>
      <trkpt lat="45.91948" lon="6.49967">
        <ele>1795.583</ele>
        <time>2024-12-11T15:05:50Z</time>
      </trkpt>
      <trkpt lat="45.91948" lon="6.49955">
        <ele>1791.381</ele>
        <time>2024-12-11T15:05:55Z</time>
      </trkpt>
      <trkpt lat="45.91948" lon="6.49955">
        <ele>1791.119</ele>
        <time>2024-12-11T15:06:00Z</time>
      </trkpt>
      <trkpt lat="45.91955" lon="6.49953">
        <ele>1785.541</ele>
        <time>2024-12-11T15:06:05Z</time>
      </trkpt>
      <trkpt lat="45.91955" lon="6.49946">
        <ele>1781.669</ele>
        <time>2024-12-11T15:06:10Z</time>
      </trkpt>
      <trkpt lat="45.91962" lon="6.49934">
        <ele>1776.908</ele>
        <time>2024-12-11T15:06:15Z</time>
      </trkpt>
      <trkpt lat="45.91965" lon="6.49914">
        <ele>1771.722</ele>
        <time>2024-12-11T15:06:20Z</time>
      </trkpt>
      <trkpt lat="45.91967" lon="6.49896">
        <ele>1768.571</ele>
        <time>2024-12-11T15:06:25Z</time>
      </trkpt>
      <trkpt lat="45.91976" lon="6.4988">
        <ele>1763.182</ele>
        <time>2024-12-11T15:06:30Z</time>
      </trkpt>
      <trkpt lat="45.91976" lon="6.4988">
        <ele>1762.303</ele>
        <time>2024-12-11T15:06:35Z</time>
      </trkpt>
      <trkpt lat="45.91976" lon="6.4988">
        <ele>1757.359</ele>
        <time>2024-12-11T15:06:40Z</time>
      </trkpt>
      <trkpt lat="45.91976" lon="6.4988">
        <ele>1756.779</ele>
        <time>2024-12-11T15:06:45Z</time>
      </trkpt>
      <trkpt lat="45.91986" lon="6.49872">
        <ele>1756.754</ele>
        <time>2024-12-11T15:06:50Z</time>
      </trkpt>
      <trkpt lat="45.91986" lon="6.49872">
        <ele>1755.601</ele>
        <time>2024-12-11T15:06:55Z</time>
      </trkpt>
      <trkpt lat="45.91986" lon="6.49864">
        <ele>1753.555</ele>
        <time>2024-12-11T15:07:00Z</time>
      </trkpt>
      <trkpt lat="45.9199" lon="6.49861">
        <ele>1751.222</ele>
        <time>2024-12-11T15:07:05Z</time>
      </trkpt>
      <trkpt lat="45.91998" lon="6.49851">
        <ele>1745.019</ele>
        <time>2024-12-11T15:07:10Z</time>
      </trkpt>
      <trkpt lat="45.92008" lon="6.49841">
        <ele>1737.799</ele>
        <time>2024-12-11T15:07:15Z</time>
      </trkpt>
      <trkpt lat="45.92019" lon="6.49846">
        <ele>1733.579</ele>
        <time>2024-12-11T15:07:20Z</time>
      </trkpt>
      <trkpt lat="45.92019" lon="6.49846">
        <ele>1732.213</ele>
        <time>2024-12-11T15:07:25Z</time>
      </trkpt>
      <trkpt lat="45.92019" lon="6.49846">
        <ele>1732.535</ele>
        <time>2024-12-11T15:07:30Z</time>
      </trkpt>
      <trkpt lat="45.9202" lon="6.49844">
        <ele>1733.93</ele>
        <time>2024-12-11T15:07:35Z</time>
      </trkpt>
      <trkpt lat="45.92023" lon="6.49836">
        <ele>1730.931</ele>
        <time>2024-12-11T15:07:40Z</time>
      </trkpt>
      <trkpt lat="45.92027" lon="6.49824">
        <ele>1727.547</ele>
        <time>2024-12-11T15:07:45Z</time>
      </trkpt>
      <trkpt lat="45.92027" lon="6.49824">
        <ele>1728.083</ele>
        <time>2024-12-11T15:07:50Z</time>
      </trkpt>
      <trkpt lat="45.92029" lon="6.49824">
        <ele>1726.996</ele>
        <time>2024-12-11T15:07:55Z</time>
      </trkpt>
      <trkpt lat="45.92033" lon="6.49819">
        <ele>1722.402</ele>
        <time>2024-12-11T15:08:00Z</time>
      </trkpt>
      <trkpt lat="45.92032" lon="6.4981">
        <ele>1719.954</ele>
        <time>2024-12-11T15:08:05Z</time>
      </trkpt>
      <trkpt lat="45.92041" lon="6.49816">
        <ele>1718.786</ele>
        <time>2024-12-11T15:08:10Z</time>
      </trkpt>
      <trkpt lat="45.92043" lon="6.49818">
        <ele>1718.393</ele>
        <time>2024-12-11T15:08:15Z</time>
      </trkpt>
      <trkpt lat="45.92043" lon="6.49819">
        <ele>1717.988</ele>
        <time>2024-12-11T15:08:20Z</time>
      </trkpt>
      <trkpt lat="45.92043" lon="6.49819">
        <ele>1717.161</ele>
        <time>2024-12-11T15:08:25Z</time>
      </trkpt>
      <trkpt lat="45.92043" lon="6.49819">
        <ele>1716.05</ele>
        <time>2024-12-11T15:08:30Z</time>
      </trkpt>
      <trkpt lat="45.92043" lon="6.49819">
        <ele>1715.422</ele>
        <time>2024-12-11T15:08:35Z</time>
      </trkpt>
      <trkpt lat="45.92043" lon="6.49819">
        <ele>1715.84</ele>
        <time>2024-12-11T15:08:40Z</time>
      </trkpt>
      <trkpt lat="45.92043" lon="6.49819">
        <ele>1715.858</ele>
        <time>2024-12-11T15:08:45Z</time>
      </trkpt>
      <trkpt lat="45.92043" lon="6.49819">
        <ele>1715.613</ele>
        <time>2024-12-11T15:08:50Z</time>
      </trkpt>
      <trkpt lat="45.92043" lon="6.49819">
        <ele>1715.782</ele>
        <time>2024-12-11T15:08:55Z</time>
      </trkpt>
      <trkpt lat="45.92051" lon="6.49819">
        <ele>1714.72</ele>
        <time>2024-12-11T15:09:00Z</time>
      </trkpt>
      <trkpt lat="45.92053" lon="6.4981">
        <ele>1713.574</ele>
        <time>2024-12-11T15:09:05Z</time>
      </trkpt>
      <trkpt lat="45.92052" lon="6.49807">
        <ele>1713.986</ele>
        <time>2024-12-11T15:09:10Z</time>
      </trkpt>
      <trkpt lat="45.92045" lon="6.49796">
        <ele>1713.828</ele>
        <time>2024-12-11T15:09:15Z</time>
      </trkpt>
      <trkpt lat="45.92038" lon="6.49783">
        <ele>1710.699</ele>
        <time>2024-12-11T15:09:20Z</time>
      </trkpt>
      <trkpt lat="45.9204" lon="6.49762">
        <ele>1707.05</ele>
        <time>2024-12-11T15:09:25Z</time>
      </trkpt>
      <trkpt lat="45.92043" lon="6.49753">
        <ele>1705.696</ele>
        <time>2024-12-11T15:09:30Z</time>
      </trkpt>
      <trkpt lat="45.92059" lon="6.49764">
        <ele>1702.206</ele>
        <time>2024-12-11T15:09:35Z</time>
      </trkpt>
      <trkpt lat="45.92069" lon="6.49771">
        <ele>1700.738</ele>
        <time>2024-12-11T15:09:40Z</time>
      </trkpt>
      <trkpt lat="45.92072" lon="6.49774">
        <ele>1700.127</ele>
        <time>2024-12-11T15:09:45Z</time>
      </trkpt>
      <trkpt lat="45.92072" lon="6.49774">
        <ele>1699.67</ele>
        <time>2024-12-11T15:09:50Z</time>
      </trkpt>
      <trkpt lat="45.92078" lon="6.49775">
        <ele>1698.264</ele>
        <time>2024-12-11T15:09:55Z</time>
      </trkpt>
      <trkpt lat="45.9209" lon="6.49778">
        <ele>1696.37</ele>
        <time>2024-12-11T15:10:00Z</time>
      </trkpt>
      <trkpt lat="45.921" lon="6.49783">
        <ele>1692.397</ele>
        <time>2024-12-11T15:10:05Z</time>
      </trkpt>
      <trkpt lat="45.92105" lon="6.49774">
        <ele>1689.023</ele>
        <time>2024-12-11T15:10:10Z</time>
      </trkpt>
      <trkpt lat="45.9211" lon="6.49772">
        <ele>1686.47</ele>
        <time>2024-12-11T15:10:15Z</time>
      </trkpt>
      <trkpt lat="45.92109" lon="6.49764">
        <ele>1685.052</ele>
        <time>2024-12-11T15:10:20Z</time>
      </trkpt>
      <trkpt lat="45.92114" lon="6.49758">
        <ele>1682.139</ele>
        <time>2024-12-11T15:10:25Z</time>
      </trkpt>
      <trkpt lat="45.92114" lon="6.49749">
        <ele>1679.275</ele>
        <time>2024-12-11T15:10:30Z</time>
      </trkpt>
      <trkpt lat="45.92114" lon="6.49749">
        <ele>1678.511</ele>
        <time>2024-12-11T15:10:35Z</time>
      </trkpt>
      <trkpt lat="45.92114" lon="6.49749">
        <ele>1675.827</ele>
        <time>2024-12-11T15:10:40Z</time>
      </trkpt>
      <trkpt lat="45.92114" lon="6.49749">
        <ele>1674.18</ele>
        <time>2024-12-11T15:10:45Z</time>
      </trkpt>
      <trkpt lat="45.92122" lon="6.49741">
        <ele>1671.785</ele>
        <time>2024-12-11T15:10:50Z</time>
      </trkpt>
      <trkpt lat="45.92129" lon="6.49744">
        <ele>1668.555</ele>
        <time>2024-12-11T15:10:55Z</time>
      </trkpt>
      <trkpt lat="45.92131" lon="6.49733">
        <ele>1667.177</ele>
        <time>2024-12-11T15:11:00Z</time>
      </trkpt>
      <trkpt lat="45.92126" lon="6.49728">
        <ele>1667.038</ele>
        <time>2024-12-11T15:11:05Z</time>
      </trkpt>
      <trkpt lat="45.92125" lon="6.49728">
        <ele>1666.412</ele>
        <time>2024-12-11T15:11:10Z</time>
      </trkpt>
      <trkpt lat="45.92126" lon="6.49723">
        <ele>1663.664</ele>
        <time>2024-12-11T15:11:15Z</time>
      </trkpt>
      <trkpt lat="45.92132" lon="6.49715">
        <ele>1660.863</ele>
        <time>2024-12-11T15:11:20Z</time>
      </trkpt>
      <trkpt lat="45.92136" lon="6.49711">
        <ele>1658.438</ele>
        <time>2024-12-11T15:11:25Z</time>
      </trkpt>
      <trkpt lat="45.92146" lon="6.49704">
        <ele>1654.867</ele>
        <time>2024-12-11T15:11:30Z</time>
      </trkpt>
      <trkpt lat="45.92146" lon="6.49704">
        <ele>1654.296</ele>
        <time>2024-12-11T15:11:35Z</time>
      </trkpt>
      <trkpt lat="45.92146" lon="6.49704">
        <ele>1652.595</ele>
        <time>2024-12-11T15:11:40Z</time>
      </trkpt>
      <trkpt lat="45.92146" lon="6.49704">
        <ele>1651.599</ele>
        <time>2024-12-11T15:11:45Z</time>
      </trkpt>
      <trkpt lat="45.92153" lon="6.4969">
        <ele>1650.128</ele>
        <time>2024-12-11T15:11:50Z</time>
      </trkpt>
      <trkpt lat="45.9216" lon="6.49686">
        <ele>1648.125</ele>
        <time>2024-12-11T15:11:55Z</time>
      </trkpt>
      <trkpt lat="45.92163" lon="6.49679">
        <ele>1646.638</ele>
        <time>2024-12-11T15:12:00Z</time>
      </trkpt>
      <trkpt lat="45.92167" lon="6.49671">
        <ele>1643.53</ele>
        <time>2024-12-11T15:12:05Z</time>
      </trkpt>
      <trkpt lat="45.92172" lon="6.49674">
        <ele>1642.026</ele>
        <time>2024-12-11T15:12:10Z</time>
      </trkpt>
      <trkpt lat="45.92172" lon="6.49676">
        <ele>1641.972</ele>
        <time>2024-12-11T15:12:15Z</time>
      </trkpt>
      <trkpt lat="45.92172" lon="6.49677">
        <ele>1641.589</ele>
        <time>2024-12-11T15:12:20Z</time>
      </trkpt>
      <trkpt lat="45.92176" lon="6.49677">
        <ele>1639.934</ele>
        <time>2024-12-11T15:12:25Z</time>
      </trkpt>
      <trkpt lat="45.92176" lon="6.49676">
        <ele>1639.424</ele>
        <time>2024-12-11T15:12:30Z</time>
      </trkpt>
      <trkpt lat="45.92187" lon="6.49675">
        <ele>1637.478</ele>
        <time>2024-12-11T15:12:35Z</time>
      </trkpt>
      <trkpt lat="45.92187" lon="6.49675">
        <ele>1636.148</ele>
        <time>2024-12-11T15:12:40Z</time>
      </trkpt>
      <trkpt lat="45.92189" lon="6.49666">
        <ele>1634.532</ele>
        <time>2024-12-11T15:12:45Z</time>
      </trkpt>
      <trkpt lat="45.92189" lon="6.49654">
        <ele>1633.288</ele>
        <time>2024-12-11T15:12:50Z</time>
      </trkpt>
      <trkpt lat="45.92188" lon="6.4965">
        <ele>1632.534</ele>
        <time>2024-12-11T15:12:55Z</time>
      </trkpt>
      <trkpt lat="45.92187" lon="6.49648">
        <ele>1632.316</ele>
        <time>2024-12-11T15:13:00Z</time>
      </trkpt>
      <trkpt lat="45.92185" lon="6.49644">
        <ele>1632.319</ele>
        <time>2024-12-11T15:13:05Z</time>
      </trkpt>
      <trkpt lat="45.92186" lon="6.49646">
        <ele>1630.267</ele>
        <time>2024-12-11T15:13:10Z</time>
      </trkpt>
      <trkpt lat="45.92194" lon="6.49651">
        <ele>1628.681</ele>
        <time>2024-12-11T15:13:15Z</time>
      </trkpt>
      <trkpt lat="45.922" lon="6.49653">
        <ele>1626.312</ele>
        <time>2024-12-11T15:13:20Z</time>
      </trkpt>
      <trkpt lat="45.92209" lon="6.49656">
        <ele>1623.844</ele>
        <time>2024-12-11T15:13:25Z</time>
      </trkpt>
      <trkpt lat="45.92211" lon="6.49655">
        <ele>1622.438</ele>
        <time>2024-12-11T15:13:30Z</time>
      </trkpt>
      <trkpt lat="45.92217" lon="6.49656">
        <ele>1620.355</ele>
        <time>2024-12-11T15:13:35Z</time>
      </trkpt>
      <trkpt lat="45.92217" lon="6.49656">
        <ele>1620.968</ele>
        <time>2024-12-11T15:13:40Z</time>
      </trkpt>
      <trkpt lat="45.92217" lon="6.49656">
        <ele>1620.821</ele>
        <time>2024-12-11T15:13:45Z</time>
      </trkpt>
      <trkpt lat="45.92216" lon="6.49653">
        <ele>1620.24</ele>
        <time>2024-12-11T15:13:50Z</time>
      </trkpt>
      <trkpt lat="45.92217" lon="6.49652">
        <ele>1619.668</ele>
        <time>2024-12-11T15:13:55Z</time>
      </trkpt>
      <trkpt lat="45.9222" lon="6.49652">
        <ele>1620.189</ele>
        <time>2024-12-11T15:14:00Z</time>
      </trkpt>
      <trkpt lat="45.9223" lon="6.49654">
        <ele>1618.686</ele>
        <time>2024-12-11T15:14:05Z</time>
      </trkpt>
      <trkpt lat="45.92238" lon="6.49655">
        <ele>1617.324</ele>
        <time>2024-12-11T15:14:09Z</time>
      </trkpt>
      <trkpt lat="45.92246" lon="6.4965">
        <ele>1613.485</ele>
        <time>2024-12-11T15:14:15Z</time>
      </trkpt>
      <trkpt lat="45.92254" lon="6.49649">
        <ele>1612.221</ele>
        <time>2024-12-11T15:14:20Z</time>
      </trkpt>
      <trkpt lat="45.92259" lon="6.49649">
        <ele>1611.669</ele>
        <time>2024-12-11T15:14:25Z</time>
      </trkpt>
      <trkpt lat="45.92255" lon="6.49637">
        <ele>1610.67</ele>
        <time>2024-12-11T15:14:30Z</time>
      </trkpt>
      <trkpt lat="45.92249" lon="6.49632">
        <ele>1609.996</ele>
        <time>2024-12-11T15:14:35Z</time>
      </trkpt>
      <trkpt lat="45.92249" lon="6.49631">
        <ele>1609.925</ele>
        <time>2024-12-11T15:14:40Z</time>
      </trkpt>
      <trkpt lat="45.92244" lon="6.49628">
        <ele>1608.706</ele>
        <time>2024-12-11T15:14:45Z</time>
      </trkpt>
      <trkpt lat="45.92244" lon="6.49627">
        <ele>1607.33</ele>
        <time>2024-12-11T15:14:50Z</time>
      </trkpt>
      <trkpt lat="45.92241" lon="6.49621">
        <ele>1605.808</ele>
        <time>2024-12-11T15:14:55Z</time>
      </trkpt>
      <trkpt lat="45.92236" lon="6.49617">
        <ele>1604.966</ele>
        <time>2024-12-11T15:15:00Z</time>
      </trkpt>
      <trkpt lat="45.92237" lon="6.49617">
        <ele>1604.378</ele>
        <time>2024-12-11T15:15:05Z</time>
      </trkpt>
      <trkpt lat="45.92246" lon="6.49617">
        <ele>1602.453</ele>
        <time>2024-12-11T15:15:10Z</time>
      </trkpt>
      <trkpt lat="45.92254" lon="6.49615">
        <ele>1599.462</ele>
        <time>2024-12-11T15:15:15Z</time>
      </trkpt>
      <trkpt lat="45.92255" lon="6.49614">
        <ele>1596.911</ele>
        <time>2024-12-11T15:15:20Z</time>
      </trkpt>
      <trkpt lat="45.92258" lon="6.49613">
        <ele>1595.929</ele>
        <time>2024-12-11T15:15:25Z</time>
      </trkpt>
      <trkpt lat="45.92258" lon="6.49613">
        <ele>1594.574</ele>
        <time>2024-12-11T15:15:30Z</time>
      </trkpt>
      <trkpt lat="45.92261" lon="6.49612">
        <ele>1592.901</ele>
        <time>2024-12-11T15:15:35Z</time>
      </trkpt>
      <trkpt lat="45.92261" lon="6.49612">
        <ele>1592.342</ele>
        <time>2024-12-11T15:15:40Z</time>
      </trkpt>
      <trkpt lat="45.9226" lon="6.49611">
        <ele>1590.918</ele>
        <time>2024-12-11T15:15:45Z</time>
      </trkpt>
      <trkpt lat="45.9226" lon="6.4961">
        <ele>1591.511</ele>
        <time>2024-12-11T15:15:50Z</time>
      </trkpt>
      <trkpt lat="45.9226" lon="6.4961">
        <ele>1591.493</ele>
        <time>2024-12-11T15:15:55Z</time>
      </trkpt>
      <trkpt lat="45.9226" lon="6.4961">
        <ele>1591.511</ele>
        <time>2024-12-11T15:16:00Z</time>
      </trkpt>
      <trkpt lat="45.9226" lon="6.4961">
        <ele>1591.52</ele>
        <time>2024-12-11T15:16:05Z</time>
      </trkpt>
      <trkpt lat="45.9226" lon="6.4961">
        <ele>1591.526</ele>
        <time>2024-12-11T15:16:10Z</time>
      </trkpt>
      <trkpt lat="45.9226" lon="6.4961">
        <ele>1591.547</ele>
        <time>2024-12-11T15:16:15Z</time>
      </trkpt>
      <trkpt lat="45.9226" lon="6.49606">
        <ele>1594.536</ele>
        <time>2024-12-11T15:16:20Z</time>
      </trkpt>
      <trkpt lat="45.92259" lon="6.49601">
        <ele>1595.155</ele>
        <time>2024-12-11T15:16:25Z</time>
      </trkpt>
      <trkpt lat="45.92259" lon="6.49596">
        <ele>1593.223</ele>
        <time>2024-12-11T15:16:30Z</time>
      </trkpt>
      <trkpt lat="45.9226" lon="6.49593">
        <ele>1591.13</ele>
        <time>2024-12-11T15:16:35Z</time>
      </trkpt>
      <trkpt lat="45.9226" lon="6.4959">
        <ele>1590.243</ele>
        <time>2024-12-11T15:16:40Z</time>
      </trkpt>
      <trkpt lat="45.92261" lon="6.49588">
        <ele>1589.228</ele>
        <time>2024-12-11T15:16:45Z</time>
      </trkpt>
      <trkpt lat="45.92263" lon="6.49585">
        <ele>1587.384</ele>
        <time>2024-12-11T15:16:50Z</time>
      </trkpt>
      <trkpt lat="45.92264" lon="6.49582">
        <ele>1585.697</ele>
        <time>2024-12-11T15:16:55Z</time>
      </trkpt>
      <trkpt lat="45.92264" lon="6.49578">
        <ele>1583.75</ele>
        <time>2024-12-11T15:17:00Z</time>
      </trkpt>
      <trkpt lat="45.92264" lon="6.49575">
        <ele>1583.014</ele>
        <time>2024-12-11T15:17:05Z</time>
      </trkpt>
      <trkpt lat="45.92264" lon="6.49571">
        <ele>1582.477</ele>
        <time>2024-12-11T15:17:10Z</time>
      </trkpt>
      <trkpt lat="45.92264" lon="6.49566">
        <ele>1581.313</ele>
        <time>2024-12-11T15:17:15Z</time>
      </trkpt>
      <trkpt lat="45.92265" lon="6.49562">
        <ele>1579.975</ele>
        <time>2024-12-11T15:17:20Z</time>
      </trkpt>
      <trkpt lat="45.92266" lon="6.49559">
        <ele>1578.913</ele>
        <time>2024-12-11T15:17:25Z</time>
      </trkpt>
      <trkpt lat="45.92266" lon="6.49556">
        <ele>1577.764</ele>
        <time>2024-12-11T15:17:30Z</time>
      </trkpt>
      <trkpt lat="45.92265" lon="6.49553">
        <ele>1576.775</ele>
        <time>2024-12-11T15:17:35Z</time>
      </trkpt>
      <trkpt lat="45.92265" lon="6.49549">
        <ele>1575.199</ele>
        <time>2024-12-11T15:17:40Z</time>
      </trkpt>
      <trkpt lat="45.92264" lon="6.49545">
        <ele>1574.475</ele>
        <time>2024-12-11T15:17:45Z</time>
      </trkpt>
      <trkpt lat="45.92263" lon="6.49541">
        <ele>1573.297</ele>
        <time>2024-12-11T15:17:50Z</time>
      </trkpt>
      <trkpt lat="45.92263" lon="6.49537">
        <ele>1572.34</ele>
        <time>2024-12-11T15:17:55Z</time>
      </trkpt>
      <trkpt lat="45.92262" lon="6.49532">
        <ele>1570.885</ele>
        <time>2024-12-11T15:18:00Z</time>
      </trkpt>
      <trkpt lat="45.92262" lon="6.4953">
        <ele>1569.657</ele>
        <time>2024-12-11T15:18:05Z</time>
      </trkpt>
      <trkpt lat="45.92261" lon="6.49526">
        <ele>1568.794</ele>
        <time>2024-12-11T15:18:10Z</time>
      </trkpt>
      <trkpt lat="45.92261" lon="6.49521">
        <ele>1566.538</ele>
        <time>2024-12-11T15:18:15Z</time>
      </trkpt>
      <trkpt lat="45.92261" lon="6.49517">
        <ele>1565.439</ele>
        <time>2024-12-11T15:18:20Z</time>
      </trkpt>
      <trkpt lat="45.92261" lon="6.49514">
        <ele>1563.684</ele>
        <time>2024-12-11T15:18:25Z</time>
      </trkpt>
      <trkpt lat="45.92261" lon="6.4951">
        <ele>1562.286</ele>
        <time>2024-12-11T15:18:30Z</time>
      </trkpt>
      <trkpt lat="45.9226" lon="6.49506">
        <ele>1560.96</ele>
        <time>2024-12-11T15:18:35Z</time>
      </trkpt>
      <trkpt lat="45.9226" lon="6.49503">
        <ele>1559.409</ele>
        <time>2024-12-11T15:18:40Z</time>
      </trkpt>
      <trkpt lat="45.9226" lon="6.495">
        <ele>1558.066</ele>
        <time>2024-12-11T15:18:45Z</time>
      </trkpt>
      <trkpt lat="45.92261" lon="6.49496">
        <ele>1556.523</ele>
        <time>2024-12-11T15:18:50Z</time>
      </trkpt>
      <trkpt lat="45.92261" lon="6.49493">
        <ele>1555.517</ele>
        <time>2024-12-11T15:18:55Z</time>
      </trkpt>
      <trkpt lat="45.9226" lon="6.49489">
        <ele>1554.683</ele>
        <time>2024-12-11T15:19:00Z</time>
      </trkpt>
      <trkpt lat="45.92259" lon="6.49486">
        <ele>1554.254</ele>
        <time>2024-12-11T15:19:05Z</time>
      </trkpt>
      <trkpt lat="45.92259" lon="6.49483">
        <ele>1553.482</ele>
        <time>2024-12-11T15:19:10Z</time>
      </trkpt>
      <trkpt lat="45.92262" lon="6.49481">
        <ele>1552.183</ele>
        <time>2024-12-11T15:19:15Z</time>
      </trkpt>
      <trkpt lat="45.92262" lon="6.49476">
        <ele>1551.256</ele>
        <time>2024-12-11T15:19:20Z</time>
      </trkpt>
      <trkpt lat="45.9226" lon="6.49471">
        <ele>1550.649</ele>
        <time>2024-12-11T15:19:25Z</time>
      </trkpt>
      <trkpt lat="45.92259" lon="6.49466">
        <ele>1549.022</ele>
        <time>2024-12-11T15:19:30Z</time>
      </trkpt>
      <trkpt lat="45.92257" lon="6.49462">
        <ele>1547.912</ele>
        <time>2024-12-11T15:19:35Z</time>
      </trkpt>
      <trkpt lat="45.92256" lon="6.49459">
        <ele>1546.611</ele>
        <time>2024-12-11T15:19:40Z</time>
      </trkpt>
      <trkpt lat="45.92255" lon="6.49454">
        <ele>1545.735</ele>
        <time>2024-12-11T15:19:45Z</time>
      </trkpt>
      <trkpt lat="45.92254" lon="6.4945">
        <ele>1544.405</ele>
        <time>2024-12-11T15:19:50Z</time>
      </trkpt>
      <trkpt lat="45.92253" lon="6.49445">
        <ele>1542.774</ele>
        <time>2024-12-11T15:19:55Z</time>
      </trkpt>
      <trkpt lat="45.92253" lon="6.49441">
        <ele>1541.824</ele>
        <time>2024-12-11T15:20:00Z</time>
      </trkpt>
      <trkpt lat="45.92253" lon="6.49437">
        <ele>1540.409</ele>
        <time>2024-12-11T15:20:05Z</time>
      </trkpt>
      <trkpt lat="45.92252" lon="6.49432">
        <ele>1539.466</ele>
        <time>2024-12-11T15:20:10Z</time>
      </trkpt>
      <trkpt lat="45.9225" lon="6.49429">
        <ele>1538.516</ele>
        <time>2024-12-11T15:20:15Z</time>
      </trkpt>
      <trkpt lat="45.92249" lon="6.49425">
        <ele>1537.857</ele>
        <time>2024-12-11T15:20:20Z</time>
      </trkpt>
      <trkpt lat="45.92249" lon="6.49423">
        <ele>1537.22</ele>
        <time>2024-12-11T15:20:25Z</time>
      </trkpt>
      <trkpt lat="45.92248" lon="6.4942">
        <ele>1536.019</ele>
        <time>2024-12-11T15:20:30Z</time>
      </trkpt>
      <trkpt lat="45.92248" lon="6.49416">
        <ele>1535.637</ele>
        <time>2024-12-11T15:20:35Z</time>
      </trkpt>
      <trkpt lat="45.92248" lon="6.49411">
        <ele>1534.851</ele>
        <time>2024-12-11T15:20:40Z</time>
      </trkpt>
      <trkpt lat="45.92247" lon="6.49409">
        <ele>1534.441</ele>
        <time>2024-12-11T15:20:45Z</time>
      </trkpt>
      <trkpt lat="45.92247" lon="6.49404">
        <ele>1533.752</ele>
        <time>2024-12-11T15:20:50Z</time>
      </trkpt>
      <trkpt lat="45.92246" lon="6.494">
        <ele>1533.261</ele>
        <time>2024-12-11T15:20:55Z</time>
      </trkpt>
      <trkpt lat="45.92246" lon="6.49396">
        <ele>1532.354</ele>
        <time>2024-12-11T15:21:00Z</time>
      </trkpt>
      <trkpt lat="45.92245" lon="6.49392">
        <ele>1530.817</ele>
        <time>2024-12-11T15:21:05Z</time>
      </trkpt>
      <trkpt lat="45.92244" lon="6.49388">
        <ele>1530.194</ele>
        <time>2024-12-11T15:21:10Z</time>
      </trkpt>
      <trkpt lat="45.92244" lon="6.49383">
        <ele>1528.667</ele>
        <time>2024-12-11T15:21:15Z</time>
      </trkpt>
      <trkpt lat="45.92242" lon="6.49379">
        <ele>1528.171</ele>
        <time>2024-12-11T15:21:20Z</time>
      </trkpt>
      <trkpt lat="45.92241" lon="6.49375">
        <ele>1527.672</ele>
        <time>2024-12-11T15:21:25Z</time>
      </trkpt>
      <trkpt lat="45.92239" lon="6.49372">
        <ele>1526.58</ele>
        <time>2024-12-11T15:21:30Z</time>
      </trkpt>
      <trkpt lat="45.92236" lon="6.49369">
        <ele>1526.051</ele>
        <time>2024-12-11T15:21:35Z</time>
      </trkpt>
      <trkpt lat="45.92235" lon="6.49366">
        <ele>1523.814</ele>
        <time>2024-12-11T15:21:40Z</time>
      </trkpt>
      <trkpt lat="45.92233" lon="6.4936">
        <ele>1522.599</ele>
        <time>2024-12-11T15:21:45Z</time>
      </trkpt>
      <trkpt lat="45.92232" lon="6.49356">
        <ele>1521.557</ele>
        <time>2024-12-11T15:21:50Z</time>
      </trkpt>
      <trkpt lat="45.92232" lon="6.49352">
        <ele>1520.281</ele>
        <time>2024-12-11T15:21:55Z</time>
      </trkpt>
      <trkpt lat="45.92232" lon="6.49349">
        <ele>1517.924</ele>
        <time>2024-12-11T15:22:00Z</time>
      </trkpt>
      <trkpt lat="45.92233" lon="6.49345">
        <ele>1515.923</ele>
        <time>2024-12-11T15:22:05Z</time>
      </trkpt>
      <trkpt lat="45.92232" lon="6.49341">
        <ele>1515.002</ele>
        <time>2024-12-11T15:22:10Z</time>
      </trkpt>
      <trkpt lat="45.92229" lon="6.49337">
        <ele>1515.044</ele>
        <time>2024-12-11T15:22:15Z</time>
      </trkpt>
      <trkpt lat="45.92228" lon="6.49333">
        <ele>1513.75</ele>
        <time>2024-12-11T15:22:20Z</time>
      </trkpt>
      <trkpt lat="45.92228" lon="6.49329">
        <ele>1510.675</ele>
        <time>2024-12-11T15:22:25Z</time>
      </trkpt>
      <trkpt lat="45.92229" lon="6.49327">
        <ele>1509.379</ele>
        <time>2024-12-11T15:22:30Z</time>
      </trkpt>
      <trkpt lat="45.9223" lon="6.49327">
        <ele>1510.105</ele>
        <time>2024-12-11T15:22:35Z</time>
      </trkpt>
      <trkpt lat="45.92231" lon="6.49327">
        <ele>1509.796</ele>
        <time>2024-12-11T15:22:40Z</time>
      </trkpt>
      <trkpt lat="45.92231" lon="6.49328">
        <ele>1509.773</ele>
        <time>2024-12-11T15:22:45Z</time>
      </trkpt>
      <trkpt lat="45.92231" lon="6.49328">
        <ele>1509.632</ele>
        <time>2024-12-11T15:22:50Z</time>
      </trkpt>
      <trkpt lat="45.92232" lon="6.49328">
        <ele>1509.497</ele>
        <time>2024-12-11T15:22:55Z</time>
      </trkpt>
      <trkpt lat="45.92232" lon="6.49328">
        <ele>1509.481</ele>
        <time>2024-12-11T15:23:00Z</time>
      </trkpt>
      <trkpt lat="45.92232" lon="6.49327">
        <ele>1508.909</ele>
        <time>2024-12-11T15:23:05Z</time>
      </trkpt>
      <trkpt lat="45.92231" lon="6.49316">
        <ele>1507.435</ele>
        <time>2024-12-11T15:23:10Z</time>
      </trkpt>
      <trkpt lat="45.92224" lon="6.49307">
        <ele>1507.399</ele>
        <time>2024-12-11T15:23:15Z</time>
      </trkpt>
      <trkpt lat="45.92226" lon="6.49296">
        <ele>1505.272</ele>
        <time>2024-12-11T15:23:20Z</time>
      </trkpt>
      <trkpt lat="45.92225" lon="6.49284">
        <ele>1502.195</ele>
        <time>2024-12-11T15:23:25Z</time>
      </trkpt>
      <trkpt lat="45.92221" lon="6.49273">
        <ele>1501.031</ele>
        <time>2024-12-11T15:23:30Z</time>
      </trkpt>
      <trkpt lat="45.92221" lon="6.4926">
        <ele>1497.273</ele>
        <time>2024-12-11T15:23:35Z</time>
      </trkpt>
      <trkpt lat="45.92221" lon="6.4926">
        <ele>1488.637</ele>
        <time>2024-12-11T15:23:40Z</time>
      </trkpt>
      <trkpt lat="45.92221" lon="6.49249">
        <ele>1488.589</ele>
        <time>2024-12-11T15:23:45Z</time>
      </trkpt>
      <trkpt lat="45.92219" lon="6.49231">
        <ele>1486.87</ele>
        <time>2024-12-11T15:23:50Z</time>
      </trkpt>
      <trkpt lat="45.92208" lon="6.49212">
        <ele>1482.116</ele>
        <time>2024-12-11T15:23:55Z</time>
      </trkpt>
      <trkpt lat="45.92203" lon="6.49192">
        <ele>1480.812</ele>
        <time>2024-12-11T15:24:00Z</time>
      </trkpt>
      <trkpt lat="45.92203" lon="6.4917">
        <ele>1477.368</ele>
        <time>2024-12-11T15:24:05Z</time>
      </trkpt>
      <trkpt lat="45.92197" lon="6.49152">
        <ele>1474.445</ele>
        <time>2024-12-11T15:24:10Z</time>
      </trkpt>
      <trkpt lat="45.92192" lon="6.49136">
        <ele>1472.983</ele>
        <time>2024-12-11T15:24:15Z</time>
      </trkpt>
      <trkpt lat="45.92188" lon="6.49122">
        <ele>1470.538</ele>
        <time>2024-12-11T15:24:20Z</time>
      </trkpt>
      <trkpt lat="45.92187" lon="6.49115">
        <ele>1468.777</ele>
        <time>2024-12-11T15:24:25Z</time>
      </trkpt>
      <trkpt lat="45.92188" lon="6.49116">
        <ele>1469.046</ele>
        <time>2024-12-11T15:24:30Z</time>
      </trkpt>
      <trkpt lat="45.92188" lon="6.49116">
        <ele>1468.377</ele>
        <time>2024-12-11T15:24:35Z</time>
      </trkpt>
      <trkpt lat="45.9219" lon="6.49106">
        <ele>1466.907</ele>
        <time>2024-12-11T15:24:40Z</time>
      </trkpt>
      <trkpt lat="45.92185" lon="6.49083">
        <ele>1463.571</ele>
        <time>2024-12-11T15:24:45Z</time>
      </trkpt>
      <trkpt lat="45.92175" lon="6.49061">
        <ele>1460.847</ele>
        <time>2024-12-11T15:24:50Z</time>
      </trkpt>
      <trkpt lat="45.92168" lon="6.49038">
        <ele>1457.926</ele>
        <time>2024-12-11T15:24:55Z</time>
      </trkpt>
      <trkpt lat="45.92163" lon="6.49012">
        <ele>1454.872</ele>
        <time>2024-12-11T15:25:00Z</time>
      </trkpt>
      <trkpt lat="45.92159" lon="6.48977">
        <ele>1449.917</ele>
        <time>2024-12-11T15:25:05Z</time>
      </trkpt>
      <trkpt lat="45.92158" lon="6.48936">
        <ele>1445.536</ele>
        <time>2024-12-11T15:25:10Z</time>
      </trkpt>
      <trkpt lat="45.92159" lon="6.48883">
        <ele>1440.656</ele>
        <time>2024-12-11T15:25:15Z</time>
      </trkpt>
      <trkpt lat="45.92166" lon="6.48847">
        <ele>1440.923</ele>
        <time>2024-12-11T15:25:20Z</time>
      </trkpt>
      <trkpt lat="45.9217" lon="6.48837">
        <ele>1441.731</ele>
        <time>2024-12-11T15:25:25Z</time>
      </trkpt>
      <trkpt lat="45.92173" lon="6.48833">
        <ele>1444.513</ele>
        <time>2024-12-11T15:25:30Z</time>
      </trkpt>
      <trkpt lat="45.92174" lon="6.48833">
        <ele>1445.113</ele>
        <time>2024-12-11T15:25:35Z</time>
      </trkpt>
      <trkpt lat="45.92174" lon="6.48833">
        <ele>1445.075</ele>
        <time>2024-12-11T15:25:40Z</time>
      </trkpt>
      <trkpt lat="45.92174" lon="6.48833">
        <ele>1445.23</ele>
        <time>2024-12-11T15:25:45Z</time>
      </trkpt>
      <trkpt lat="45.92174" lon="6.48833">
        <ele>1445.245</ele>
        <time>2024-12-11T15:25:50Z</time>
      </trkpt>
      <trkpt lat="45.92174" lon="6.48832">
        <ele>1445.242</ele>
        <time>2024-12-11T15:25:55Z</time>
      </trkpt>
      <trkpt lat="45.92174" lon="6.48832">
        <ele>1445.236</ele>
        <time>2024-12-11T15:26:00Z</time>
      </trkpt>
      <trkpt lat="45.92174" lon="6.48832">
        <ele>1444.506</ele>
        <time>2024-12-11T15:26:05Z</time>
      </trkpt>
      <trkpt lat="45.92176" lon="6.48827">
        <ele>1446.244</ele>
        <time>2024-12-11T15:26:10Z</time>
      </trkpt>
      <trkpt lat="45.92178" lon="6.48822">
        <ele>1447.236</ele>
        <time>2024-12-11T15:26:15Z</time>
      </trkpt>
      <trkpt lat="45.92179" lon="6.48817">
        <ele>1448.229</ele>
        <time>2024-12-11T15:26:20Z</time>
      </trkpt>
      <trkpt lat="45.9218" lon="6.48811">
        <ele>1448.997</ele>
        <time>2024-12-11T15:26:25Z</time>
      </trkpt>
      <trkpt lat="45.92179" lon="6.48806">
        <ele>1449.516</ele>
        <time>2024-12-11T15:26:30Z</time>
      </trkpt>
      <trkpt lat="45.92179" lon="6.488">
        <ele>1449.632</ele>
        <time>2024-12-11T15:26:35Z</time>
      </trkpt>
      <trkpt lat="45.92178" lon="6.48794">
        <ele>1450.365</ele>
        <time>2024-12-11T15:26:40Z</time>
      </trkpt>
      <trkpt lat="45.92177" lon="6.48787">
        <ele>1451.652</ele>
        <time>2024-12-11T15:26:45Z</time>
      </trkpt>
      <trkpt lat="45.92175" lon="6.48782">
        <ele>1452.004</ele>
        <time>2024-12-11T15:26:50Z</time>
      </trkpt>
      <trkpt lat="45.92173" lon="6.48776">
        <ele>1451.559</ele>
        <time>2024-12-11T15:26:55Z</time>
      </trkpt>
      <trkpt lat="45.92171" lon="6.48771">
        <ele>1451.902</ele>
        <time>2024-12-11T15:27:00Z</time>
      </trkpt>
      <trkpt lat="45.9217" lon="6.48765">
        <ele>1450.955</ele>
        <time>2024-12-11T15:27:05Z</time>
      </trkpt>
      <trkpt lat="45.92168" lon="6.4876">
        <ele>1451.177</ele>
        <time>2024-12-11T15:27:10Z</time>
      </trkpt>
      <trkpt lat="45.92167" lon="6.48756">
        <ele>1451.133</ele>
        <time>2024-12-11T15:27:15Z</time>
      </trkpt>
      <trkpt lat="45.92166" lon="6.48751">
        <ele>1451.191</ele>
        <time>2024-12-11T15:27:20Z</time>
      </trkpt>
      <trkpt lat="45.92165" lon="6.48746">
        <ele>1453.16</ele>
        <time>2024-12-11T15:27:25Z</time>
      </trkpt>
      <trkpt lat="45.92163" lon="6.48742">
        <ele>1453.359</ele>
        <time>2024-12-11T15:27:30Z</time>
      </trkpt>
      <trkpt lat="45.92162" lon="6.48736">
        <ele>1453.76</ele>
        <time>2024-12-11T15:27:35Z</time>
      </trkpt>
      <trkpt lat="45.9216" lon="6.48732">
        <ele>1454.227</ele>
        <time>2024-12-11T15:27:40Z</time>
      </trkpt>
      <trkpt lat="45.92159" lon="6.48727">
        <ele>1454.753</ele>
        <time>2024-12-11T15:27:45Z</time>
      </trkpt>
      <trkpt lat="45.92158" lon="6.48722">
        <ele>1455.601</ele>
        <time>2024-12-11T15:27:50Z</time>
      </trkpt>
      <trkpt lat="45.92156" lon="6.48718">
        <ele>1455.372</ele>
        <time>2024-12-11T15:27:55Z</time>
      </trkpt>
      <trkpt lat="45.92155" lon="6.48713">
        <ele>1455.82</ele>
        <time>2024-12-11T15:28:00Z</time>
      </trkpt>
      <trkpt lat="45.92153" lon="6.48709">
        <ele>1455.696</ele>
        <time>2024-12-11T15:28:05Z</time>
      </trkpt>
      <trkpt lat="45.92151" lon="6.48705">
        <ele>1455.986</ele>
        <time>2024-12-11T15:28:10Z</time>
      </trkpt>
      <trkpt lat="45.92147" lon="6.48699">
        <ele>1456.039</ele>
        <time>2024-12-11T15:28:15Z</time>
      </trkpt>
      <trkpt lat="45.92144" lon="6.48695">
        <ele>1456.481</ele>
        <time>2024-12-11T15:28:20Z</time>
      </trkpt>
      <trkpt lat="45.92141" lon="6.4869">
        <ele>1457.002</ele>
        <time>2024-12-11T15:28:25Z</time>
      </trkpt>
      <trkpt lat="45.92136" lon="6.48684">
        <ele>1455.836</ele>
        <time>2024-12-11T15:28:30Z</time>
      </trkpt>
      <trkpt lat="45.92133" lon="6.4868">
        <ele>1455.771</ele>
        <time>2024-12-11T15:28:35Z</time>
      </trkpt>
      <trkpt lat="45.92129" lon="6.48676">
        <ele>1457.437</ele>
        <time>2024-12-11T15:28:40Z</time>
      </trkpt>
      <trkpt lat="45.92127" lon="6.48671">
        <ele>1457.52</ele>
        <time>2024-12-11T15:28:45Z</time>
      </trkpt>
      <trkpt lat="45.92125" lon="6.48668">
        <ele>1457.492</ele>
        <time>2024-12-11T15:28:50Z</time>
      </trkpt>
      <trkpt lat="45.92122" lon="6.48663">
        <ele>1457.389</ele>
        <time>2024-12-11T15:28:55Z</time>
      </trkpt>
      <trkpt lat="45.9212" lon="6.48658">
        <ele>1457.211</ele>
        <time>2024-12-11T15:29:00Z</time>
      </trkpt>
      <trkpt lat="45.92119" lon="6.48652">
        <ele>1456.949</ele>
        <time>2024-12-11T15:29:05Z</time>
      </trkpt>
      <trkpt lat="45.92118" lon="6.48648">
        <ele>1457.231</ele>
        <time>2024-12-11T15:29:10Z</time>
      </trkpt>
      <trkpt lat="45.92119" lon="6.48641">
        <ele>1456.856</ele>
        <time>2024-12-11T15:29:15Z</time>
      </trkpt>
      <trkpt lat="45.92121" lon="6.48634">
        <ele>1456.995</ele>
        <time>2024-12-11T15:29:20Z</time>
      </trkpt>
      <trkpt lat="45.92125" lon="6.48623">
        <ele>1456.415</ele>
        <time>2024-12-11T15:29:25Z</time>
      </trkpt>
      <trkpt lat="45.92128" lon="6.48612">
        <ele>1456.86</ele>
        <time>2024-12-11T15:29:30Z</time>
      </trkpt>
      <trkpt lat="45.92131" lon="6.48602">
        <ele>1457.164</ele>
        <time>2024-12-11T15:29:35Z</time>
      </trkpt>
      <trkpt lat="45.92135" lon="6.48592">
        <ele>1457.058</ele>
        <time>2024-12-11T15:29:40Z</time>
      </trkpt>
      <trkpt lat="45.92139" lon="6.48579">
        <ele>1456.415</ele>
        <time>2024-12-11T15:29:45Z</time>
      </trkpt>
      <trkpt lat="45.92142" lon="6.48564">
        <ele>1455.726</ele>
        <time>2024-12-11T15:29:50Z</time>
      </trkpt>
      <trkpt lat="45.92141" lon="6.48545">
        <ele>1451.999</ele>
        <time>2024-12-11T15:29:55Z</time>
      </trkpt>
      <trkpt lat="45.92146" lon="6.4852">
        <ele>1450.331</ele>
        <time>2024-12-11T15:30:00Z</time>
      </trkpt>
      <trkpt lat="45.9215" lon="6.4851">
        <ele>1450.935</ele>
        <time>2024-12-11T15:30:05Z</time>
      </trkpt>
      <trkpt lat="45.92152" lon="6.4851">
        <ele>1451.681</ele>
        <time>2024-12-11T15:30:10Z</time>
      </trkpt>
      <trkpt lat="45.92161" lon="6.48506">
        <ele>1450.712</ele>
        <time>2024-12-11T15:30:15Z</time>
      </trkpt>
      <trkpt lat="45.92169" lon="6.48489">
        <ele>1448.156</ele>
        <time>2024-12-11T15:30:20Z</time>
      </trkpt>
      <trkpt lat="45.92176" lon="6.48479">
        <ele>1446.841</ele>
        <time>2024-12-11T15:30:25Z</time>
      </trkpt>
      <trkpt lat="45.92177" lon="6.48477">
        <ele>1446.997</ele>
        <time>2024-12-11T15:30:30Z</time>
      </trkpt>
      <trkpt lat="45.92179" lon="6.48471">
        <ele>1447.047</ele>
        <time>2024-12-11T15:30:35Z</time>
      </trkpt>
      <trkpt lat="45.92186" lon="6.48459">
        <ele>1444.137</ele>
        <time>2024-12-11T15:30:40Z</time>
      </trkpt>
      <trkpt lat="45.92194" lon="6.48451">
        <ele>1441.898</ele>
        <time>2024-12-11T15:30:45Z</time>
      </trkpt>
      <trkpt lat="45.92198" lon="6.48446">
        <ele>1440.681</ele>
        <time>2024-12-11T15:30:50Z</time>
      </trkpt>
      <trkpt lat="45.92205" lon="6.48442">
        <ele>1440.806</ele>
        <time>2024-12-11T15:30:55Z</time>
      </trkpt>
      <trkpt lat="45.92209" lon="6.48437">
        <ele>1441.146</ele>
        <time>2024-12-11T15:31:00Z</time>
      </trkpt>
      <trkpt lat="45.92215" lon="6.48433">
        <ele>1440.115</ele>
        <time>2024-12-11T15:31:05Z</time>
      </trkpt>
      <trkpt lat="45.92225" lon="6.48424">
        <ele>1438.491</ele>
        <time>2024-12-11T15:31:10Z</time>
      </trkpt>
      <trkpt lat="45.92238" lon="6.48412">
        <ele>1435.95</ele>
        <time>2024-12-11T15:31:15Z</time>
      </trkpt>
      <trkpt lat="45.92256" lon="6.48406">
        <ele>1434.577</ele>
        <time>2024-12-11T15:31:20Z</time>
      </trkpt>
      <trkpt lat="45.92269" lon="6.48403">
        <ele>1433.364</ele>
        <time>2024-12-11T15:31:25Z</time>
      </trkpt>
    </trkseg>
  </trk>
</gpx>